<?xml version="1.0" encoding="UTF-8"?>
<gpx version="1.1" creator="https://www.youtrack.es" xsi:schemaLocation="http://www.topografix.com/GPX/1/1 http://www.topografix.com/GPX/1/1/gpx.xsd http://www.garmin.com/xmlschemas/GpxExtensions/v3 http://www.garmin.com/xmlschemas/GpxExtensionsv3.xsd http://www.garmin.com/xmlschemas/TrackPointExtension/v1 http://www.garmin.com/xmlschemas/TrackPointExtensionv1.xsd" xmlns:gpxtpx="http://www.garmin.com/xmlschemas/TrackPointExtension/v1" xmlns:gpxx="http://www.garmin.com/xmlschemas/GpxExtensions/v3" xmlns:xsi="http://www.w3.org/2001/XMLSchema-instance">
  <metadata>
    <link href="https://www.youtrack.es">
      <text>YouTrack.es</text>
    </link>
    <time>2026-05-08T08:35:26Z</time>
  </metadata>
  <trk>
    <src>https://www.youtrack.es</src>
    <link href="https://www.youtrack.es/ruta/15962-chaves-padornelo">
      <text>YouTrack.es</text>
    </link>
    <trkseg>
      <trkpt lat="41.7490017414" lon="-7.4637927487">
        <ele>424.07</ele>
        <time>2020-09-12T04:59:19Z</time>
      </trkpt>
      <trkpt lat="41.7496823519" lon="-7.463316489">
        <ele>424.07</ele>
        <time>2020-09-12T04:59:20Z</time>
      </trkpt>
      <trkpt lat="41.749066785" lon="-7.4631748348">
        <ele>423.39</ele>
        <time>2020-09-12T05:00:01Z</time>
      </trkpt>
      <trkpt lat="41.7490476742" lon="-7.4632787704">
        <ele>421.84</ele>
        <time>2020-09-12T05:00:38Z</time>
      </trkpt>
      <trkpt lat="41.749033425" lon="-7.46339201">
        <ele>420.76</ele>
        <time>2020-09-12T05:01:05Z</time>
      </trkpt>
      <trkpt lat="41.7489595804" lon="-7.4633734021">
        <ele>419.74</ele>
        <time>2020-09-12T05:01:32Z</time>
      </trkpt>
      <trkpt lat="41.7488900106" lon="-7.4635257013">
        <ele>418.97</ele>
        <time>2020-09-12T05:02:04Z</time>
      </trkpt>
      <trkpt lat="41.7489009909" lon="-7.4635871407">
        <ele>418.45</ele>
        <time>2020-09-12T05:02:32Z</time>
      </trkpt>
      <trkpt lat="41.7489294894" lon="-7.4635252822">
        <ele>417.96</ele>
        <time>2020-09-12T05:03:01Z</time>
      </trkpt>
      <trkpt lat="41.7489161622" lon="-7.463454539">
        <ele>417.57</ele>
        <time>2020-09-12T05:03:26Z</time>
      </trkpt>
      <trkpt lat="41.7489470914" lon="-7.4634566344">
        <ele>417.25</ele>
        <time>2020-09-12T05:03:49Z</time>
      </trkpt>
      <trkpt lat="41.7489177547" lon="-7.4634292256">
        <ele>416.88</ele>
        <time>2020-09-12T05:04:14Z</time>
      </trkpt>
      <trkpt lat="41.7489192635" lon="-7.4634609092">
        <ele>416.48</ele>
        <time>2020-09-12T05:04:38Z</time>
      </trkpt>
      <trkpt lat="41.7489306629" lon="-7.4635018967">
        <ele>416.06</ele>
        <time>2020-09-12T05:05:06Z</time>
      </trkpt>
      <trkpt lat="41.748992186" lon="-7.4634556286">
        <ele>415.59</ele>
        <time>2020-09-12T05:05:41Z</time>
      </trkpt>
      <trkpt lat="41.7490259651" lon="-7.4634821992">
        <ele>415.1</ele>
        <time>2020-09-12T05:06:08Z</time>
      </trkpt>
      <trkpt lat="41.7490967084" lon="-7.4633860588">
        <ele>414.58</ele>
        <time>2020-09-12T05:06:39Z</time>
      </trkpt>
      <trkpt lat="41.7491059285" lon="-7.4633231107">
        <ele>414.34</ele>
        <time>2020-09-12T05:06:51Z</time>
      </trkpt>
      <trkpt lat="41.7490989715" lon="-7.4632527027">
        <ele>413.89</ele>
        <time>2020-09-12T05:07:18Z</time>
      </trkpt>
      <trkpt lat="41.7491033301" lon="-7.4632555526">
        <ele>411.53</ele>
        <time>2020-09-12T05:07:21Z</time>
      </trkpt>
      <trkpt lat="41.7491479218" lon="-7.4633315764">
        <ele>414.36</ele>
        <time>2020-09-12T05:07:43Z</time>
      </trkpt>
      <trkpt lat="41.7491532862" lon="-7.4633411318">
        <ele>411.49</ele>
        <time>2020-09-12T05:07:45Z</time>
      </trkpt>
      <trkpt lat="41.7491179984" lon="-7.4633758329">
        <ele>412.03</ele>
        <time>2020-09-12T05:08:13Z</time>
      </trkpt>
      <trkpt lat="41.7490816209" lon="-7.4633625895">
        <ele>411.49</ele>
        <time>2020-09-12T05:08:38Z</time>
      </trkpt>
      <trkpt lat="41.7490146495" lon="-7.4632914271">
        <ele>409.08</ele>
        <time>2020-09-12T05:08:56Z</time>
      </trkpt>
      <trkpt lat="41.7490185052" lon="-7.4632834643">
        <ele>411.43</ele>
        <time>2020-09-12T05:08:58Z</time>
      </trkpt>
      <trkpt lat="41.7489931919" lon="-7.4633046705">
        <ele>410.73</ele>
        <time>2020-09-12T05:09:27Z</time>
      </trkpt>
      <trkpt lat="41.7489885818" lon="-7.4633442331">
        <ele>410.11</ele>
        <time>2020-09-12T05:09:52Z</time>
      </trkpt>
      <trkpt lat="41.749045914" lon="-7.4633163214">
        <ele>409.4</ele>
        <time>2020-09-12T05:10:20Z</time>
      </trkpt>
      <trkpt lat="41.7490290664" lon="-7.4633276369">
        <ele>408.6</ele>
        <time>2020-09-12T05:10:51Z</time>
      </trkpt>
      <trkpt lat="41.7490583193" lon="-7.4633709714">
        <ele>407.69</ele>
        <time>2020-09-12T05:11:22Z</time>
      </trkpt>
      <trkpt lat="41.7490770109" lon="-7.4634465761">
        <ele>406.76</ele>
        <time>2020-09-12T05:11:53Z</time>
      </trkpt>
      <trkpt lat="41.7490919307" lon="-7.4634250347">
        <ele>405.98</ele>
        <time>2020-09-12T05:12:19Z</time>
      </trkpt>
      <trkpt lat="41.7490489315" lon="-7.4634198379">
        <ele>405.29</ele>
        <time>2020-09-12T05:12:43Z</time>
      </trkpt>
      <trkpt lat="41.7490378674" lon="-7.4634213466">
        <ele>404.37</ele>
        <time>2020-09-12T05:13:17Z</time>
      </trkpt>
      <trkpt lat="41.7490553018" lon="-7.4634189997">
        <ele>403.46</ele>
        <time>2020-09-12T05:13:46Z</time>
      </trkpt>
      <trkpt lat="41.7490457464" lon="-7.4634270463">
        <ele>402.72</ele>
        <time>2020-09-12T05:14:11Z</time>
      </trkpt>
      <trkpt lat="41.749030659" lon="-7.463423945">
        <ele>401.82</ele>
        <time>2020-09-12T05:14:39Z</time>
      </trkpt>
      <trkpt lat="41.7490304075" lon="-7.4634194188">
        <ele>400.79</ele>
        <time>2020-09-12T05:15:12Z</time>
      </trkpt>
      <trkpt lat="41.7490395438" lon="-7.463418832">
        <ele>400.01</ele>
        <time>2020-09-12T05:15:37Z</time>
      </trkpt>
      <trkpt lat="41.7490316648" lon="-7.4633778445">
        <ele>399.21</ele>
        <time>2020-09-12T05:16:03Z</time>
      </trkpt>
      <trkpt lat="41.7490537092" lon="-7.4634298962">
        <ele>398.66</ele>
        <time>2020-09-12T05:16:20Z</time>
      </trkpt>
      <trkpt lat="41.7490866501" lon="-7.4634695426">
        <ele>398.5</ele>
        <time>2020-09-12T05:16:25Z</time>
      </trkpt>
      <trkpt lat="41.7490900867" lon="-7.4634521082">
        <ele>397.75</ele>
        <time>2020-09-12T05:16:49Z</time>
      </trkpt>
      <trkpt lat="41.7490447406" lon="-7.4634417985">
        <ele>397.06</ele>
        <time>2020-09-12T05:17:15Z</time>
      </trkpt>
      <trkpt lat="41.7490198463" lon="-7.463415144">
        <ele>396.22</ele>
        <time>2020-09-12T05:17:45Z</time>
      </trkpt>
      <trkpt lat="41.7490444891" lon="-7.4634604063">
        <ele>395.95</ele>
        <time>2020-09-12T05:17:54Z</time>
      </trkpt>
      <trkpt lat="41.7490485962" lon="-7.4634866416">
        <ele>395.94</ele>
        <time>2020-09-12T05:17:55Z</time>
      </trkpt>
      <trkpt lat="41.7490782682" lon="-7.463570293">
        <ele>395.84</ele>
        <time>2020-09-12T05:17:57Z</time>
      </trkpt>
      <trkpt lat="41.7490808666" lon="-7.4636665173">
        <ele>395.79</ele>
        <time>2020-09-12T05:17:59Z</time>
      </trkpt>
      <trkpt lat="41.7491516937" lon="-7.4637564551">
        <ele>395.77</ele>
        <time>2020-09-12T05:18:01Z</time>
      </trkpt>
      <trkpt lat="41.749177929" lon="-7.4637763202">
        <ele>396.98</ele>
        <time>2020-09-12T05:18:02Z</time>
      </trkpt>
      <trkpt lat="41.7492293101" lon="-7.4638019688">
        <ele>397.42</ele>
        <time>2020-09-12T05:18:14Z</time>
      </trkpt>
      <trkpt lat="41.7492459901" lon="-7.4638113566">
        <ele>397.18</ele>
        <time>2020-09-12T05:18:21Z</time>
      </trkpt>
      <trkpt lat="41.7492722254" lon="-7.4638112728">
        <ele>397.13</ele>
        <time>2020-09-12T05:18:22Z</time>
      </trkpt>
      <trkpt lat="41.7493645102" lon="-7.4638126977">
        <ele>397.07</ele>
        <time>2020-09-12T05:18:24Z</time>
      </trkpt>
      <trkpt lat="41.7494215909" lon="-7.4638059083">
        <ele>397.04</ele>
        <time>2020-09-12T05:18:25Z</time>
      </trkpt>
      <trkpt lat="41.7494857125" lon="-7.4637965206">
        <ele>397.01</ele>
        <time>2020-09-12T05:18:26Z</time>
      </trkpt>
      <trkpt lat="41.7496340722" lon="-7.4637744762">
        <ele>394.21</ele>
        <time>2020-09-12T05:18:28Z</time>
      </trkpt>
      <trkpt lat="41.7499162909" lon="-7.4637091812">
        <ele>394.1</ele>
        <time>2020-09-12T05:18:32Z</time>
      </trkpt>
      <trkpt lat="41.74997597" lon="-7.463679174">
        <ele>396.57</ele>
        <time>2020-09-12T05:18:33Z</time>
      </trkpt>
      <trkpt lat="41.7500311229" lon="-7.4636500049">
        <ele>396.54</ele>
        <time>2020-09-12T05:18:34Z</time>
      </trkpt>
      <trkpt lat="41.7502158601" lon="-7.463542968">
        <ele>396.43</ele>
        <time>2020-09-12T05:18:38Z</time>
      </trkpt>
      <trkpt lat="41.7502588592" lon="-7.4635406211">
        <ele>396.43</ele>
        <time>2020-09-12T05:18:39Z</time>
      </trkpt>
      <trkpt lat="41.7502993438" lon="-7.4635615759">
        <ele>396.38</ele>
        <time>2020-09-12T05:18:40Z</time>
      </trkpt>
      <trkpt lat="41.750331698" lon="-7.4636112805">
        <ele>396.36</ele>
        <time>2020-09-12T05:18:41Z</time>
      </trkpt>
      <trkpt lat="41.7503440194" lon="-7.4636840355">
        <ele>396.36</ele>
        <time>2020-09-12T05:18:42Z</time>
      </trkpt>
      <trkpt lat="41.7503403313" lon="-7.4637586344">
        <ele>396.33</ele>
        <time>2020-09-12T05:18:43Z</time>
      </trkpt>
      <trkpt lat="41.7503329553" lon="-7.4638279527">
        <ele>397.59</ele>
        <time>2020-09-12T05:18:44Z</time>
      </trkpt>
      <trkpt lat="41.7503250763" lon="-7.4638922419">
        <ele>397.6</ele>
        <time>2020-09-12T05:18:45Z</time>
      </trkpt>
      <trkpt lat="41.7503244895" lon="-7.4639537651">
        <ele>399.85</ele>
        <time>2020-09-12T05:18:46Z</time>
      </trkpt>
      <trkpt lat="41.7503350507" lon="-7.4640145339">
        <ele>399.82</ele>
        <time>2020-09-12T05:18:47Z</time>
      </trkpt>
      <trkpt lat="41.7503554188" lon="-7.4640650768">
        <ele>399.8</ele>
        <time>2020-09-12T05:18:48Z</time>
      </trkpt>
      <trkpt lat="41.7503869347" lon="-7.4640895519">
        <ele>399.77</ele>
        <time>2020-09-12T05:18:49Z</time>
      </trkpt>
      <trkpt lat="41.7504301853" lon="-7.4640854448">
        <ele>399.68</ele>
        <time>2020-09-12T05:18:50Z</time>
      </trkpt>
      <trkpt lat="41.7504835781" lon="-7.4640545994">
        <ele>399.62</ele>
        <time>2020-09-12T05:18:51Z</time>
      </trkpt>
      <trkpt lat="41.7505385634" lon="-7.4640075769">
        <ele>399.56</ele>
        <time>2020-09-12T05:18:52Z</time>
      </trkpt>
      <trkpt lat="41.7505963147" lon="-7.4639522564">
        <ele>399.57</ele>
        <time>2020-09-12T05:18:53Z</time>
      </trkpt>
      <trkpt lat="41.7511642724" lon="-7.4635672756">
        <ele>399.29</ele>
        <time>2020-09-12T05:19:01Z</time>
      </trkpt>
      <trkpt lat="41.7512602452" lon="-7.4635376874">
        <ele>399.26</ele>
        <time>2020-09-12T05:19:02Z</time>
      </trkpt>
      <trkpt lat="41.7513644323" lon="-7.4635200016">
        <ele>399.22</ele>
        <time>2020-09-12T05:19:03Z</time>
      </trkpt>
      <trkpt lat="41.7514676135" lon="-7.4635184091">
        <ele>399.19</ele>
        <time>2020-09-12T05:19:04Z</time>
      </trkpt>
      <trkpt lat="41.75156652" lon="-7.4635316525">
        <ele>399.17</ele>
        <time>2020-09-12T05:19:05Z</time>
      </trkpt>
      <trkpt lat="41.7516575474" lon="-7.4635661021">
        <ele>399.15</ele>
        <time>2020-09-12T05:19:06Z</time>
      </trkpt>
      <trkpt lat="41.7517357506" lon="-7.4636259489">
        <ele>400.82</ele>
        <time>2020-09-12T05:19:07Z</time>
      </trkpt>
      <trkpt lat="41.7517972738" lon="-7.4637049064">
        <ele>401.82</ele>
        <time>2020-09-12T05:19:08Z</time>
      </trkpt>
      <trkpt lat="41.751847649" lon="-7.4638028909">
        <ele>401.82</ele>
        <time>2020-09-12T05:19:09Z</time>
      </trkpt>
      <trkpt lat="41.751891654" lon="-7.4639192317">
        <ele>401.82</ele>
        <time>2020-09-12T05:19:10Z</time>
      </trkpt>
      <trkpt lat="41.751926858" lon="-7.4640513305">
        <ele>401.8</ele>
        <time>2020-09-12T05:19:11Z</time>
      </trkpt>
      <trkpt lat="41.7519567814" lon="-7.4641987681">
        <ele>403.16</ele>
        <time>2020-09-12T05:19:12Z</time>
      </trkpt>
      <trkpt lat="41.7519865371" lon="-7.4643620476">
        <ele>403.13</ele>
        <time>2020-09-12T05:19:13Z</time>
      </trkpt>
      <trkpt lat="41.7521298677" lon="-7.4651051871">
        <ele>406.78</ele>
        <time>2020-09-12T05:19:18Z</time>
      </trkpt>
      <trkpt lat="41.7521567736" lon="-7.4652273115">
        <ele>406.86</ele>
        <time>2020-09-12T05:19:19Z</time>
      </trkpt>
      <trkpt lat="41.7521881219" lon="-7.4653429817">
        <ele>406.76</ele>
        <time>2020-09-12T05:19:20Z</time>
      </trkpt>
      <trkpt lat="41.752228355" lon="-7.4654477555">
        <ele>406.79</ele>
        <time>2020-09-12T05:19:21Z</time>
      </trkpt>
      <trkpt lat="41.7522829212" lon="-7.4655329995">
        <ele>407.59</ele>
        <time>2020-09-12T05:19:22Z</time>
      </trkpt>
      <trkpt lat="41.7523530778" lon="-7.4655933492">
        <ele>407.61</ele>
        <time>2020-09-12T05:19:23Z</time>
      </trkpt>
      <trkpt lat="41.7524399981" lon="-7.4656220991">
        <ele>407.56</ele>
        <time>2020-09-12T05:19:24Z</time>
      </trkpt>
      <trkpt lat="41.7525454424" lon="-7.4656167347">
        <ele>407.55</ele>
        <time>2020-09-12T05:19:25Z</time>
      </trkpt>
      <trkpt lat="41.7526680697" lon="-7.4655847158">
        <ele>407.45</ele>
        <time>2020-09-12T05:19:26Z</time>
      </trkpt>
      <trkpt lat="41.7527960613" lon="-7.4655438121">
        <ele>402.41</ele>
        <time>2020-09-12T05:19:27Z</time>
      </trkpt>
      <trkpt lat="41.7529184371" lon="-7.4655060098">
        <ele>402.41</ele>
        <time>2020-09-12T05:19:28Z</time>
      </trkpt>
      <trkpt lat="41.7537215911" lon="-7.4652014114">
        <ele>402.17</ele>
        <time>2020-09-12T05:19:37Z</time>
      </trkpt>
      <trkpt lat="41.7541601323" lon="-7.4649272393">
        <ele>401.93</ele>
        <time>2020-09-12T05:19:44Z</time>
      </trkpt>
      <trkpt lat="41.7547233123" lon="-7.4645942263">
        <ele>401</ele>
        <time>2020-09-12T05:19:52Z</time>
      </trkpt>
      <trkpt lat="41.7556199245" lon="-7.4640229996">
        <ele>404.45</ele>
        <time>2020-09-12T05:20:02Z</time>
      </trkpt>
      <trkpt lat="41.7557054199" lon="-7.4639617279">
        <ele>404.4</ele>
        <time>2020-09-12T05:20:03Z</time>
      </trkpt>
      <trkpt lat="41.7561203241" lon="-7.4636468198">
        <ele>407.79</ele>
        <time>2020-09-12T05:20:08Z</time>
      </trkpt>
      <trkpt lat="41.7562322225" lon="-7.4635511823">
        <ele>409.13</ele>
        <time>2020-09-12T05:20:10Z</time>
      </trkpt>
      <trkpt lat="41.7563217413" lon="-7.4634597357">
        <ele>411.63</ele>
        <time>2020-09-12T05:20:13Z</time>
      </trkpt>
      <trkpt lat="41.7563435342" lon="-7.4633833766">
        <ele>412.51</ele>
        <time>2020-09-12T05:20:15Z</time>
      </trkpt>
      <trkpt lat="41.7563343979" lon="-7.4633259606">
        <ele>412.43</ele>
        <time>2020-09-12T05:20:16Z</time>
      </trkpt>
      <trkpt lat="41.7563106772" lon="-7.4632564746">
        <ele>412.41</ele>
        <time>2020-09-12T05:20:17Z</time>
      </trkpt>
      <trkpt lat="41.7562768143" lon="-7.4631827977">
        <ele>412.35</ele>
        <time>2020-09-12T05:20:18Z</time>
      </trkpt>
      <trkpt lat="41.756234318" lon="-7.4631026667">
        <ele>412.39</ele>
        <time>2020-09-12T05:20:19Z</time>
      </trkpt>
      <trkpt lat="41.7561892234" lon="-7.4630125612">
        <ele>408.91</ele>
        <time>2020-09-12T05:20:20Z</time>
      </trkpt>
      <trkpt lat="41.75614262" lon="-7.4629153311">
        <ele>408.8</ele>
        <time>2020-09-12T05:20:21Z</time>
      </trkpt>
      <trkpt lat="41.7559783347" lon="-7.46260277">
        <ele>405.39</ele>
        <time>2020-09-12T05:20:24Z</time>
      </trkpt>
      <trkpt lat="41.7559136264" lon="-7.4624858424">
        <ele>405.37</ele>
        <time>2020-09-12T05:20:25Z</time>
      </trkpt>
      <trkpt lat="41.7557724752" lon="-7.4622394145">
        <ele>400.93</ele>
        <time>2020-09-12T05:20:27Z</time>
      </trkpt>
      <trkpt lat="41.7556957807" lon="-7.462116871">
        <ele>400.89</ele>
        <time>2020-09-12T05:20:28Z</time>
      </trkpt>
      <trkpt lat="41.7555340938" lon="-7.4618867878">
        <ele>399.08</ele>
        <time>2020-09-12T05:20:30Z</time>
      </trkpt>
      <trkpt lat="41.7552150786" lon="-7.461432321">
        <ele>398.98</ele>
        <time>2020-09-12T05:20:36Z</time>
      </trkpt>
      <trkpt lat="41.7552020028" lon="-7.4613760784">
        <ele>398.92</ele>
        <time>2020-09-12T05:20:37Z</time>
      </trkpt>
      <trkpt lat="41.7552115582" lon="-7.4613251165">
        <ele>398.94</ele>
        <time>2020-09-12T05:20:38Z</time>
      </trkpt>
      <trkpt lat="41.7552404758" lon="-7.4612847995">
        <ele>398.87</ele>
        <time>2020-09-12T05:20:39Z</time>
      </trkpt>
      <trkpt lat="41.7552800383" lon="-7.4612499308">
        <ele>398.89</ele>
        <time>2020-09-12T05:20:40Z</time>
      </trkpt>
      <trkpt lat="41.7553242948" lon="-7.4612124637">
        <ele>398.94</ele>
        <time>2020-09-12T05:20:41Z</time>
      </trkpt>
      <trkpt lat="41.7553660367" lon="-7.4611620046">
        <ele>398.93</ele>
        <time>2020-09-12T05:20:42Z</time>
      </trkpt>
      <trkpt lat="41.755396463" lon="-7.461090507">
        <ele>398.93</ele>
        <time>2020-09-12T05:20:43Z</time>
      </trkpt>
      <trkpt lat="41.7554237042" lon="-7.4610051792">
        <ele>398.95</ele>
        <time>2020-09-12T05:20:44Z</time>
      </trkpt>
      <trkpt lat="41.7554667033" lon="-7.4609180912">
        <ele>398.93</ele>
        <time>2020-09-12T05:20:45Z</time>
      </trkpt>
      <trkpt lat="41.7555289809" lon="-7.4608416483">
        <ele>398.91</ele>
        <time>2020-09-12T05:20:46Z</time>
      </trkpt>
      <trkpt lat="41.7556019872" lon="-7.4607800413">
        <ele>398.92</ele>
        <time>2020-09-12T05:20:47Z</time>
      </trkpt>
      <trkpt lat="41.7556800228" lon="-7.4607249722">
        <ele>398.92</ele>
        <time>2020-09-12T05:20:48Z</time>
      </trkpt>
      <trkpt lat="41.7558926716" lon="-7.4605877604">
        <ele>401.22</ele>
        <time>2020-09-12T05:20:51Z</time>
      </trkpt>
      <trkpt lat="41.7559563741" lon="-7.4605810549">
        <ele>401.21</ele>
        <time>2020-09-12T05:20:52Z</time>
      </trkpt>
      <trkpt lat="41.7560155503" lon="-7.4606119841">
        <ele>401.17</ele>
        <time>2020-09-12T05:20:53Z</time>
      </trkpt>
      <trkpt lat="41.756072212" lon="-7.4606638681">
        <ele>402.14</ele>
        <time>2020-09-12T05:20:54Z</time>
      </trkpt>
      <trkpt lat="41.7561363336" lon="-7.4607080407">
        <ele>402.12</ele>
        <time>2020-09-12T05:20:55Z</time>
      </trkpt>
      <trkpt lat="41.7562083341" lon="-7.4607223738">
        <ele>402.12</ele>
        <time>2020-09-12T05:20:56Z</time>
      </trkpt>
      <trkpt lat="41.7562828492" lon="-7.460706532">
        <ele>402.12</ele>
        <time>2020-09-12T05:20:57Z</time>
      </trkpt>
      <trkpt lat="41.7563571129" lon="-7.4606767762">
        <ele>402.84</ele>
        <time>2020-09-12T05:20:58Z</time>
      </trkpt>
      <trkpt lat="41.7566301115" lon="-7.4605543166">
        <ele>405.02</ele>
        <time>2020-09-12T05:21:02Z</time>
      </trkpt>
      <trkpt lat="41.7566665728" lon="-7.4605246447">
        <ele>405.01</ele>
        <time>2020-09-12T05:21:03Z</time>
      </trkpt>
      <trkpt lat="41.7566929758" lon="-7.4604844954">
        <ele>405.79</ele>
        <time>2020-09-12T05:21:04Z</time>
      </trkpt>
      <trkpt lat="41.7567052133" lon="-7.4604246486">
        <ele>405.76</ele>
        <time>2020-09-12T05:21:05Z</time>
      </trkpt>
      <trkpt lat="41.7567037046" lon="-7.4603482895">
        <ele>403.4</ele>
        <time>2020-09-12T05:21:06Z</time>
      </trkpt>
      <trkpt lat="41.7566913832" lon="-7.4602578487">
        <ele>403.38</ele>
        <time>2020-09-12T05:21:07Z</time>
      </trkpt>
      <trkpt lat="41.7566732783" lon="-7.4601576012">
        <ele>401.58</ele>
        <time>2020-09-12T05:21:08Z</time>
      </trkpt>
      <trkpt lat="41.7566180415" lon="-7.4599348102">
        <ele>400.75</ele>
        <time>2020-09-12T05:21:10Z</time>
      </trkpt>
      <trkpt lat="41.7565763835" lon="-7.4598276056">
        <ele>398.87</ele>
        <time>2020-09-12T05:21:11Z</time>
      </trkpt>
      <trkpt lat="41.7564473022" lon="-7.4595416989">
        <ele>395.33</ele>
        <time>2020-09-12T05:21:14Z</time>
      </trkpt>
      <trkpt lat="41.7564083263" lon="-7.4594639149">
        <ele>395.13</ele>
        <time>2020-09-12T05:21:15Z</time>
      </trkpt>
      <trkpt lat="41.7563466355" lon="-7.4593431316">
        <ele>393.27</ele>
        <time>2020-09-12T05:21:17Z</time>
      </trkpt>
      <trkpt lat="41.7563281953" lon="-7.4592421297">
        <ele>392.3</ele>
        <time>2020-09-12T05:21:19Z</time>
      </trkpt>
      <trkpt lat="41.7563534249" lon="-7.4591925927">
        <ele>392.28</ele>
        <time>2020-09-12T05:21:20Z</time>
      </trkpt>
      <trkpt lat="41.7564006988" lon="-7.4591454864">
        <ele>390.89</ele>
        <time>2020-09-12T05:21:21Z</time>
      </trkpt>
      <trkpt lat="41.7566332128" lon="-7.4589614198">
        <ele>388.75</ele>
        <time>2020-09-12T05:21:24Z</time>
      </trkpt>
      <trkpt lat="41.7568218894" lon="-7.4588110484">
        <ele>387.36</ele>
        <time>2020-09-12T05:21:26Z</time>
      </trkpt>
      <trkpt lat="41.757122213" lon="-7.4585804623">
        <ele>381.21</ele>
        <time>2020-09-12T05:21:29Z</time>
      </trkpt>
      <trkpt lat="41.7572198622" lon="-7.4584998284">
        <ele>398.3</ele>
        <time>2020-09-12T05:21:30Z</time>
      </trkpt>
      <trkpt lat="41.7573214509" lon="-7.4584157579">
        <ele>387.01</ele>
        <time>2020-09-12T05:21:31Z</time>
      </trkpt>
      <trkpt lat="41.7577960342" lon="-7.4580462836">
        <ele>385.1</ele>
        <time>2020-09-12T05:21:35Z</time>
      </trkpt>
      <trkpt lat="41.7597461678" lon="-7.4565077014">
        <ele>384.05</ele>
        <time>2020-09-12T05:21:50Z</time>
      </trkpt>
      <trkpt lat="41.7618143186" lon="-7.4546489306">
        <ele>383.85</ele>
        <time>2020-09-12T05:22:06Z</time>
      </trkpt>
      <trkpt lat="41.7634650506" lon="-7.4530471489">
        <ele>384.98</ele>
        <time>2020-09-12T05:22:19Z</time>
      </trkpt>
      <trkpt lat="41.7644582223" lon="-7.452075351">
        <ele>381.89</ele>
        <time>2020-09-12T05:22:27Z</time>
      </trkpt>
      <trkpt lat="41.7645907402" lon="-7.451943839">
        <ele>381.91</ele>
        <time>2020-09-12T05:22:28Z</time>
      </trkpt>
      <trkpt lat="41.7654506397" lon="-7.451214781">
        <ele>379.99</ele>
        <time>2020-09-12T05:22:34Z</time>
      </trkpt>
      <trkpt lat="41.7659223732" lon="-7.4509930797">
        <ele>384.2</ele>
        <time>2020-09-12T05:22:37Z</time>
      </trkpt>
      <trkpt lat="41.7663282249" lon="-7.4508600589">
        <ele>386.58</ele>
        <time>2020-09-12T05:22:40Z</time>
      </trkpt>
      <trkpt lat="41.7664719746" lon="-7.450842876">
        <ele>386.55</ele>
        <time>2020-09-12T05:22:41Z</time>
      </trkpt>
      <trkpt lat="41.7666186579" lon="-7.450836841">
        <ele>386.56</ele>
        <time>2020-09-12T05:22:42Z</time>
      </trkpt>
      <trkpt lat="41.7668875493" lon="-7.4508402776">
        <ele>390.11</ele>
        <time>2020-09-12T05:22:44Z</time>
      </trkpt>
      <trkpt lat="41.7671253439" lon="-7.4508452229">
        <ele>390.97</ele>
        <time>2020-09-12T05:22:46Z</time>
      </trkpt>
      <trkpt lat="41.7673663236" lon="-7.4508484919">
        <ele>392.22</ele>
        <time>2020-09-12T05:22:48Z</time>
      </trkpt>
      <trkpt lat="41.7677386478" lon="-7.4508557003">
        <ele>393.5</ele>
        <time>2020-09-12T05:22:51Z</time>
      </trkpt>
      <trkpt lat="41.7679610197" lon="-7.4508631602">
        <ele>394.71</ele>
        <time>2020-09-12T05:22:53Z</time>
      </trkpt>
      <trkpt lat="41.7684925161" lon="-7.450866513">
        <ele>397.5</ele>
        <time>2020-09-12T05:22:58Z</time>
      </trkpt>
      <trkpt lat="41.7689639144" lon="-7.4508624896">
        <ele>401.33</ele>
        <time>2020-09-12T05:23:03Z</time>
      </trkpt>
      <trkpt lat="41.7690370046" lon="-7.4508622382">
        <ele>401.28</ele>
        <time>2020-09-12T05:23:04Z</time>
      </trkpt>
      <trkpt lat="41.7691607215" lon="-7.4508609809">
        <ele>402.64</ele>
        <time>2020-09-12T05:23:06Z</time>
      </trkpt>
      <trkpt lat="41.7692726199" lon="-7.4508591369">
        <ele>404.65</ele>
        <time>2020-09-12T05:23:09Z</time>
      </trkpt>
      <trkpt lat="41.7693364061" lon="-7.4508654233">
        <ele>405.19</ele>
        <time>2020-09-12T05:23:18Z</time>
      </trkpt>
      <trkpt lat="41.7694315407" lon="-7.4508590531">
        <ele>405.11</ele>
        <time>2020-09-12T05:23:20Z</time>
      </trkpt>
      <trkpt lat="41.7694726121" lon="-7.4508315604">
        <ele>405.05</ele>
        <time>2020-09-12T05:23:21Z</time>
      </trkpt>
      <trkpt lat="41.7695026193" lon="-7.4507679418">
        <ele>405.01</ele>
        <time>2020-09-12T05:23:22Z</time>
      </trkpt>
      <trkpt lat="41.7695172038" lon="-7.4506707955">
        <ele>404.99</ele>
        <time>2020-09-12T05:23:23Z</time>
      </trkpt>
      <trkpt lat="41.7695252504" lon="-7.4505589809">
        <ele>402.53</ele>
        <time>2020-09-12T05:23:24Z</time>
      </trkpt>
      <trkpt lat="41.7695446126" lon="-7.4504446518">
        <ele>402.47</ele>
        <time>2020-09-12T05:23:25Z</time>
      </trkpt>
      <trkpt lat="41.7695825826" lon="-7.450327808">
        <ele>401.63</ele>
        <time>2020-09-12T05:23:26Z</time>
      </trkpt>
      <trkpt lat="41.7696383223" lon="-7.4502047617">
        <ele>401.57</ele>
        <time>2020-09-12T05:23:27Z</time>
      </trkpt>
      <trkpt lat="41.7697125021" lon="-7.4500706512">
        <ele>399.65</ele>
        <time>2020-09-12T05:23:28Z</time>
      </trkpt>
      <trkpt lat="41.7697967403" lon="-7.4499321822">
        <ele>399.63</ele>
        <time>2020-09-12T05:23:29Z</time>
      </trkpt>
      <trkpt lat="41.7699718382" lon="-7.4496553279">
        <ele>397.76</ele>
        <time>2020-09-12T05:23:31Z</time>
      </trkpt>
      <trkpt lat="41.7700538132" lon="-7.4495246541">
        <ele>401.43</ele>
        <time>2020-09-12T05:23:32Z</time>
      </trkpt>
      <trkpt lat="41.770136375" lon="-7.4493928067">
        <ele>401.39</ele>
        <time>2020-09-12T05:23:33Z</time>
      </trkpt>
      <trkpt lat="41.7704014946" lon="-7.4489766452">
        <ele>398.71</ele>
        <time>2020-09-12T05:23:36Z</time>
      </trkpt>
      <trkpt lat="41.7708486691" lon="-7.4482746609">
        <ele>395.31</ele>
        <time>2020-09-12T05:23:41Z</time>
      </trkpt>
      <trkpt lat="41.7710410338" lon="-7.4479783606">
        <ele>391.96</ele>
        <time>2020-09-12T05:23:43Z</time>
      </trkpt>
      <trkpt lat="41.7713309638" lon="-7.4475180265">
        <ele>390.03</ele>
        <time>2020-09-12T05:23:46Z</time>
      </trkpt>
      <trkpt lat="41.7715261783" lon="-7.4472109135">
        <ele>386.92</ele>
        <time>2020-09-12T05:23:48Z</time>
      </trkpt>
      <trkpt lat="41.7716236599" lon="-7.4470568541">
        <ele>386.93</ele>
        <time>2020-09-12T05:23:49Z</time>
      </trkpt>
      <trkpt lat="41.772029344" lon="-7.4464591406">
        <ele>385.87</ele>
        <time>2020-09-12T05:23:53Z</time>
      </trkpt>
      <trkpt lat="41.7721535638" lon="-7.4463425484">
        <ele>385.85</ele>
        <time>2020-09-12T05:23:54Z</time>
      </trkpt>
      <trkpt lat="41.7722938769" lon="-7.4462526105">
        <ele>383.09</ele>
        <time>2020-09-12T05:23:55Z</time>
      </trkpt>
      <trkpt lat="41.7724445835" lon="-7.446191255">
        <ele>383.12</ele>
        <time>2020-09-12T05:23:56Z</time>
      </trkpt>
      <trkpt lat="41.7725962959" lon="-7.4461630918">
        <ele>383.04</ele>
        <time>2020-09-12T05:23:57Z</time>
      </trkpt>
      <trkpt lat="41.7727411352" lon="-7.4461730663">
        <ele>383.13</ele>
        <time>2020-09-12T05:23:58Z</time>
      </trkpt>
      <trkpt lat="41.772876" lon="-7.4462191667">
        <ele>383.12</ele>
        <time>2020-09-12T05:23:59Z</time>
      </trkpt>
      <trkpt lat="41.7730047461" lon="-7.4462898262">
        <ele>383.22</ele>
        <time>2020-09-12T05:24:00Z</time>
      </trkpt>
      <trkpt lat="41.7731327377" lon="-7.4463676102">
        <ele>385.83</ele>
        <time>2020-09-12T05:24:01Z</time>
      </trkpt>
      <trkpt lat="41.7732629087" lon="-7.4464466516">
        <ele>385.86</ele>
        <time>2020-09-12T05:24:02Z</time>
      </trkpt>
      <trkpt lat="41.7736619711" lon="-7.4466587976">
        <ele>387.31</ele>
        <time>2020-09-12T05:24:05Z</time>
      </trkpt>
      <trkpt lat="41.7737936508" lon="-7.4466898944">
        <ele>387.29</ele>
        <time>2020-09-12T05:24:06Z</time>
      </trkpt>
      <trkpt lat="41.7739291023" lon="-7.446694253">
        <ele>387.28</ele>
        <time>2020-09-12T05:24:07Z</time>
      </trkpt>
      <trkpt lat="41.7740694992" lon="-7.4466770701">
        <ele>387.25</ele>
        <time>2020-09-12T05:24:08Z</time>
      </trkpt>
      <trkpt lat="41.774213668" lon="-7.446641447">
        <ele>387.24</ele>
        <time>2020-09-12T05:24:09Z</time>
      </trkpt>
      <trkpt lat="41.7743596807" lon="-7.4465931673">
        <ele>387.23</ele>
        <time>2020-09-12T05:24:10Z</time>
      </trkpt>
      <trkpt lat="41.7748052627" lon="-7.446420081">
        <ele>388.61</ele>
        <time>2020-09-12T05:24:13Z</time>
      </trkpt>
      <trkpt lat="41.7767821345" lon="-7.4458693061">
        <ele>391.48</ele>
        <time>2020-09-12T05:24:26Z</time>
      </trkpt>
      <trkpt lat="41.7780618835" lon="-7.445824882">
        <ele>394.92</ele>
        <time>2020-09-12T05:24:35Z</time>
      </trkpt>
      <trkpt lat="41.7781954911" lon="-7.4458011612">
        <ele>394.9</ele>
        <time>2020-09-12T05:24:36Z</time>
      </trkpt>
      <trkpt lat="41.7783333734" lon="-7.4457550608">
        <ele>394.92</ele>
        <time>2020-09-12T05:24:37Z</time>
      </trkpt>
      <trkpt lat="41.7784721777" lon="-7.4456770252">
        <ele>394.83</ele>
        <time>2020-09-12T05:24:38Z</time>
      </trkpt>
      <trkpt lat="41.778606791" lon="-7.4455627799">
        <ele>391.38</ele>
        <time>2020-09-12T05:24:39Z</time>
      </trkpt>
      <trkpt lat="41.7787340283" lon="-7.4454200361">
        <ele>390.03</ele>
        <time>2020-09-12T05:24:40Z</time>
      </trkpt>
      <trkpt lat="41.7788548954" lon="-7.445262624">
        <ele>390.01</ele>
        <time>2020-09-12T05:24:41Z</time>
      </trkpt>
      <trkpt lat="41.779088499" lon="-7.4449327961">
        <ele>388.71</ele>
        <time>2020-09-12T05:24:43Z</time>
      </trkpt>
      <trkpt lat="41.7794288881" lon="-7.4444375094">
        <ele>386.79</ele>
        <time>2020-09-12T05:24:46Z</time>
      </trkpt>
      <trkpt lat="41.7796464823" lon="-7.4441467412">
        <ele>389.15</ele>
        <time>2020-09-12T05:24:48Z</time>
      </trkpt>
      <trkpt lat="41.7801303696" lon="-7.4434714112">
        <ele>390.44</ele>
        <time>2020-09-12T05:24:53Z</time>
      </trkpt>
      <trkpt lat="41.7803599499" lon="-7.4431052059">
        <ele>393.08</ele>
        <time>2020-09-12T05:24:56Z</time>
      </trkpt>
      <trkpt lat="41.7804162763" lon="-7.442980567">
        <ele>393.09</ele>
        <time>2020-09-12T05:24:57Z</time>
      </trkpt>
      <trkpt lat="41.7805360537" lon="-7.4426214024">
        <ele>394.92</ele>
        <time>2020-09-12T05:25:00Z</time>
      </trkpt>
      <trkpt lat="41.7805533204" lon="-7.442497015">
        <ele>394.94</ele>
        <time>2020-09-12T05:25:01Z</time>
      </trkpt>
      <trkpt lat="41.7805759516" lon="-7.4422603939">
        <ele>395.64</ele>
        <time>2020-09-12T05:25:03Z</time>
      </trkpt>
      <trkpt lat="41.7806136701" lon="-7.442156123">
        <ele>395.62</ele>
        <time>2020-09-12T05:25:04Z</time>
      </trkpt>
      <trkpt lat="41.7806762829" lon="-7.4420599826">
        <ele>395.62</ele>
        <time>2020-09-12T05:25:05Z</time>
      </trkpt>
      <trkpt lat="41.7808287498" lon="-7.4418539554">
        <ele>392.41</ele>
        <time>2020-09-12T05:25:07Z</time>
      </trkpt>
      <trkpt lat="41.7809004989" lon="-7.4417268857">
        <ele>392.39</ele>
        <time>2020-09-12T05:25:08Z</time>
      </trkpt>
      <trkpt lat="41.7816323228" lon="-7.439949587">
        <ele>391.03</ele>
        <time>2020-09-12T05:25:19Z</time>
      </trkpt>
      <trkpt lat="41.7819255218" lon="-7.4392690603">
        <ele>388.74</ele>
        <time>2020-09-12T05:25:23Z</time>
      </trkpt>
      <trkpt lat="41.7821953353" lon="-7.438771762">
        <ele>386.69</ele>
        <time>2020-09-12T05:25:26Z</time>
      </trkpt>
      <trkpt lat="41.7826890294" lon="-7.4379982799">
        <ele>385.36</ele>
        <time>2020-09-12T05:25:31Z</time>
      </trkpt>
      <trkpt lat="41.7831388861" lon="-7.4373875745">
        <ele>381.95</ele>
        <time>2020-09-12T05:25:35Z</time>
      </trkpt>
      <trkpt lat="41.7833982222" lon="-7.4370993208">
        <ele>380.31</ele>
        <time>2020-09-12T05:25:37Z</time>
      </trkpt>
      <trkpt lat="41.7839935049" lon="-7.4366427585">
        <ele>378.75</ele>
        <time>2020-09-12T05:25:41Z</time>
      </trkpt>
      <trkpt lat="41.7844452057" lon="-7.4363572709">
        <ele>381.26</ele>
        <time>2020-09-12T05:25:44Z</time>
      </trkpt>
      <trkpt lat="41.7861919943" lon="-7.4352770112">
        <ele>383.02</ele>
        <time>2020-09-12T05:25:55Z</time>
      </trkpt>
      <trkpt lat="41.7871891055" lon="-7.4346502125">
        <ele>386.03</ele>
        <time>2020-09-12T05:26:01Z</time>
      </trkpt>
      <trkpt lat="41.7873503733" lon="-7.4345480371">
        <ele>386</ele>
        <time>2020-09-12T05:26:02Z</time>
      </trkpt>
      <trkpt lat="41.7894103099" lon="-7.4334314838">
        <ele>387.44</ele>
        <time>2020-09-12T05:26:15Z</time>
      </trkpt>
      <trkpt lat="41.7903987877" lon="-7.4330671225">
        <ele>391.42</ele>
        <time>2020-09-12T05:26:22Z</time>
      </trkpt>
      <trkpt lat="41.7904887255" lon="-7.4330542982">
        <ele>391.45</ele>
        <time>2020-09-12T05:26:23Z</time>
      </trkpt>
      <trkpt lat="41.7910224851" lon="-7.4330222793">
        <ele>385.84</ele>
        <time>2020-09-12T05:26:29Z</time>
      </trkpt>
      <trkpt lat="41.7911322042" lon="-7.4330175016">
        <ele>391.01</ele>
        <time>2020-09-12T05:26:30Z</time>
      </trkpt>
      <trkpt lat="41.7913386505" lon="-7.43300342">
        <ele>387.74</ele>
        <time>2020-09-12T05:26:32Z</time>
      </trkpt>
      <trkpt lat="41.7914321925" lon="-7.4329931103">
        <ele>393.29</ele>
        <time>2020-09-12T05:26:33Z</time>
      </trkpt>
      <trkpt lat="41.7915253993" lon="-7.4329731613">
        <ele>393.21</ele>
        <time>2020-09-12T05:26:34Z</time>
      </trkpt>
      <trkpt lat="41.7916196119" lon="-7.4329361133">
        <ele>393.14</ele>
        <time>2020-09-12T05:26:35Z</time>
      </trkpt>
      <trkpt lat="41.7917066161" lon="-7.4328792002">
        <ele>393.16</ele>
        <time>2020-09-12T05:26:36Z</time>
      </trkpt>
      <trkpt lat="41.7917817179" lon="-7.432800997">
        <ele>393.14</ele>
        <time>2020-09-12T05:26:37Z</time>
      </trkpt>
      <trkpt lat="41.7918419" lon="-7.432702845">
        <ele>389.36</ele>
        <time>2020-09-12T05:26:38Z</time>
      </trkpt>
      <trkpt lat="41.7918838933" lon="-7.4325949699">
        <ele>389.34</ele>
        <time>2020-09-12T05:26:39Z</time>
      </trkpt>
      <trkpt lat="41.7919111345" lon="-7.4324883521">
        <ele>389.29</ele>
        <time>2020-09-12T05:26:40Z</time>
      </trkpt>
      <trkpt lat="41.7919430695" lon="-7.4322966579">
        <ele>393.03</ele>
        <time>2020-09-12T05:26:42Z</time>
      </trkpt>
      <trkpt lat="41.7919549718" lon="-7.4322037864">
        <ele>392.99</ele>
        <time>2020-09-12T05:26:43Z</time>
      </trkpt>
      <trkpt lat="41.7920525372" lon="-7.4314119481">
        <ele>390.3</ele>
        <time>2020-09-12T05:26:50Z</time>
      </trkpt>
      <trkpt lat="41.7922345083" lon="-7.4301180337">
        <ele>390.1</ele>
        <time>2020-09-12T05:27:02Z</time>
      </trkpt>
      <trkpt lat="41.7922837101" lon="-7.429936314">
        <ele>392.72</ele>
        <time>2020-09-12T05:27:56Z</time>
      </trkpt>
      <trkpt lat="41.792415306" lon="-7.4300614558">
        <ele>392.66</ele>
        <time>2020-09-12T05:28:00Z</time>
      </trkpt>
      <trkpt lat="41.7927044816" lon="-7.4301095679">
        <ele>389.59</ele>
        <time>2020-09-12T05:28:04Z</time>
      </trkpt>
      <trkpt lat="41.7930611316" lon="-7.4301613681">
        <ele>392.3</ele>
        <time>2020-09-12T05:28:10Z</time>
      </trkpt>
      <trkpt lat="41.7932341341" lon="-7.4304229673">
        <ele>390.9</ele>
        <time>2020-09-12T05:28:17Z</time>
      </trkpt>
      <trkpt lat="41.7933054641" lon="-7.4304433353">
        <ele>389.38</ele>
        <time>2020-09-12T05:28:18Z</time>
      </trkpt>
      <trkpt lat="41.793477796" lon="-7.4304690678">
        <ele>388.19</ele>
        <time>2020-09-12T05:28:20Z</time>
      </trkpt>
      <trkpt lat="41.7937786225" lon="-7.4305002484">
        <ele>385.84</ele>
        <time>2020-09-12T05:28:23Z</time>
      </trkpt>
      <trkpt lat="41.7950970121" lon="-7.4304694869">
        <ele>385.66</ele>
        <time>2020-09-12T05:28:36Z</time>
      </trkpt>
      <trkpt lat="41.7953470442" lon="-7.4304771982">
        <ele>389.38</ele>
        <time>2020-09-12T05:28:39Z</time>
      </trkpt>
      <trkpt lat="41.795485178" lon="-7.4304697383">
        <ele>391.3</ele>
        <time>2020-09-12T05:28:42Z</time>
      </trkpt>
      <trkpt lat="41.7957348749" lon="-7.4304334447">
        <ele>388.63</ele>
        <time>2020-09-12T05:28:46Z</time>
      </trkpt>
      <trkpt lat="41.7959632818" lon="-7.4303840753">
        <ele>387.49</ele>
        <time>2020-09-12T05:28:49Z</time>
      </trkpt>
      <trkpt lat="41.7960474361" lon="-7.4303393997">
        <ele>390.09</ele>
        <time>2020-09-12T05:28:51Z</time>
      </trkpt>
      <trkpt lat="41.7960689776" lon="-7.4303039443">
        <ele>390.02</ele>
        <time>2020-09-12T05:28:52Z</time>
      </trkpt>
      <trkpt lat="41.7960792873" lon="-7.430254072">
        <ele>390</ele>
        <time>2020-09-12T05:28:53Z</time>
      </trkpt>
      <trkpt lat="41.7960835621" lon="-7.4301898666">
        <ele>389.98</ele>
        <time>2020-09-12T05:28:54Z</time>
      </trkpt>
      <trkpt lat="41.7960830592" lon="-7.4301264994">
        <ele>389.99</ele>
        <time>2020-09-12T05:28:55Z</time>
      </trkpt>
      <trkpt lat="41.7960812151" lon="-7.4300732743">
        <ele>390.96</ele>
        <time>2020-09-12T05:28:56Z</time>
      </trkpt>
      <trkpt lat="41.7960908543" lon="-7.4295054004">
        <ele>388.34</ele>
        <time>2020-09-12T05:29:02Z</time>
      </trkpt>
      <trkpt lat="41.7960876692" lon="-7.428913638">
        <ele>393.53</ele>
        <time>2020-09-12T05:29:06Z</time>
      </trkpt>
      <trkpt lat="41.7960555665" lon="-7.4286491051">
        <ele>396.61</ele>
        <time>2020-09-12T05:29:08Z</time>
      </trkpt>
      <trkpt lat="41.7960265651" lon="-7.4285277352">
        <ele>397.67</ele>
        <time>2020-09-12T05:29:09Z</time>
      </trkpt>
      <trkpt lat="41.7959918641" lon="-7.4284056108">
        <ele>397.65</ele>
        <time>2020-09-12T05:29:10Z</time>
      </trkpt>
      <trkpt lat="41.7956865951" lon="-7.4274500739">
        <ele>400.84</ele>
        <time>2020-09-12T05:29:17Z</time>
      </trkpt>
      <trkpt lat="41.7955643032" lon="-7.4270277936">
        <ele>404.03</ele>
        <time>2020-09-12T05:29:20Z</time>
      </trkpt>
      <trkpt lat="41.7955368944" lon="-7.4268785119">
        <ele>404.87</ele>
        <time>2020-09-12T05:29:21Z</time>
      </trkpt>
      <trkpt lat="41.795500014" lon="-7.4265733268">
        <ele>405.94</ele>
        <time>2020-09-12T05:29:23Z</time>
      </trkpt>
      <trkpt lat="41.795268422" lon="-7.4254956655">
        <ele>409.45</ele>
        <time>2020-09-12T05:29:30Z</time>
      </trkpt>
      <trkpt lat="41.7952028755" lon="-7.4252507463">
        <ele>412.85</ele>
        <time>2020-09-12T05:29:32Z</time>
      </trkpt>
      <trkpt lat="41.7951533385" lon="-7.4250400253">
        <ele>415.13</ele>
        <time>2020-09-12T05:29:35Z</time>
      </trkpt>
      <trkpt lat="41.7951654922" lon="-7.4249903206">
        <ele>416.35</ele>
        <time>2020-09-12T05:29:36Z</time>
      </trkpt>
      <trkpt lat="41.795195248" lon="-7.4249426275">
        <ele>416.33</ele>
        <time>2020-09-12T05:29:37Z</time>
      </trkpt>
      <trkpt lat="41.7952443659" lon="-7.4248967785">
        <ele>416.31</ele>
        <time>2020-09-12T05:29:38Z</time>
      </trkpt>
      <trkpt lat="41.7953094933" lon="-7.4248527735">
        <ele>416.29</ele>
        <time>2020-09-12T05:29:39Z</time>
      </trkpt>
      <trkpt lat="41.7953830864" lon="-7.4248054158">
        <ele>413.95</ele>
        <time>2020-09-12T05:29:40Z</time>
      </trkpt>
      <trkpt lat="41.7955420073" lon="-7.4246924277">
        <ele>412.99</ele>
        <time>2020-09-12T05:29:42Z</time>
      </trkpt>
      <trkpt lat="41.7956800573" lon="-7.4245786015">
        <ele>413.02</ele>
        <time>2020-09-12T05:29:44Z</time>
      </trkpt>
      <trkpt lat="41.7957411613" lon="-7.4245078582">
        <ele>412.99</ele>
        <time>2020-09-12T05:29:45Z</time>
      </trkpt>
      <trkpt lat="41.7958022654" lon="-7.4244240392">
        <ele>412.97</ele>
        <time>2020-09-12T05:29:46Z</time>
      </trkpt>
      <trkpt lat="41.7964544613" lon="-7.4235897046">
        <ele>412.67</ele>
        <time>2020-09-12T05:29:55Z</time>
      </trkpt>
      <trkpt lat="41.7965443153" lon="-7.4235157762">
        <ele>412.69</ele>
        <time>2020-09-12T05:29:56Z</time>
      </trkpt>
      <trkpt lat="41.7967848759" lon="-7.4233383313">
        <ele>416.59</ele>
        <time>2020-09-12T05:29:59Z</time>
      </trkpt>
      <trkpt lat="41.7968821898" lon="-7.4232424423">
        <ele>419.13</ele>
        <time>2020-09-12T05:30:02Z</time>
      </trkpt>
      <trkpt lat="41.7968425434" lon="-7.4229959305">
        <ele>416.54</ele>
        <time>2020-09-12T05:30:09Z</time>
      </trkpt>
      <trkpt lat="41.7968534399" lon="-7.4229649175">
        <ele>416.51</ele>
        <time>2020-09-12T05:30:10Z</time>
      </trkpt>
      <trkpt lat="41.7968794238" lon="-7.4229376763">
        <ele>416.5</ele>
        <time>2020-09-12T05:30:11Z</time>
      </trkpt>
      <trkpt lat="41.7969188187" lon="-7.4229111057">
        <ele>416.49</ele>
        <time>2020-09-12T05:30:12Z</time>
      </trkpt>
      <trkpt lat="41.7969572917" lon="-7.4228783324">
        <ele>416.47</ele>
        <time>2020-09-12T05:30:13Z</time>
      </trkpt>
      <trkpt lat="41.7969849519" lon="-7.4228342436">
        <ele>416.48</ele>
        <time>2020-09-12T05:30:14Z</time>
      </trkpt>
      <trkpt lat="41.7970152944" lon="-7.4227014743">
        <ele>416.4</ele>
        <time>2020-09-12T05:30:16Z</time>
      </trkpt>
      <trkpt lat="41.7970842775" lon="-7.4218858313">
        <ele>415.16</ele>
        <time>2020-09-12T05:30:23Z</time>
      </trkpt>
      <trkpt lat="41.7972626444" lon="-7.4207600579">
        <ele>419.02</ele>
        <time>2020-09-12T05:30:31Z</time>
      </trkpt>
      <trkpt lat="41.7973424401" lon="-7.4204887357">
        <ele>420.89</ele>
        <time>2020-09-12T05:30:33Z</time>
      </trkpt>
      <trkpt lat="41.7974718567" lon="-7.4200812913">
        <ele>424.58</ele>
        <time>2020-09-12T05:30:36Z</time>
      </trkpt>
      <trkpt lat="41.7976031173" lon="-7.419676194">
        <ele>427.72</ele>
        <time>2020-09-12T05:30:39Z</time>
      </trkpt>
      <trkpt lat="41.7976891994" lon="-7.4194138404">
        <ele>428.67</ele>
        <time>2020-09-12T05:30:41Z</time>
      </trkpt>
      <trkpt lat="41.7983640265" lon="-7.4178592488">
        <ele>429.25</ele>
        <time>2020-09-12T05:30:53Z</time>
      </trkpt>
      <trkpt lat="41.79872646" lon="-7.4172860943">
        <ele>432.05</ele>
        <time>2020-09-12T05:30:58Z</time>
      </trkpt>
      <trkpt lat="41.7990857083" lon="-7.4167333916">
        <ele>434.41</ele>
        <time>2020-09-12T05:31:03Z</time>
      </trkpt>
      <trkpt lat="41.7995689251" lon="-7.4160898291">
        <ele>438.24</ele>
        <time>2020-09-12T05:31:09Z</time>
      </trkpt>
      <trkpt lat="41.7997210566" lon="-7.4158875737">
        <ele>439.56</ele>
        <time>2020-09-12T05:31:11Z</time>
      </trkpt>
      <trkpt lat="41.799853323" lon="-7.4157184269">
        <ele>443.48</ele>
        <time>2020-09-12T05:31:13Z</time>
      </trkpt>
      <trkpt lat="41.7999100685" lon="-7.4156460073">
        <ele>443.46</ele>
        <time>2020-09-12T05:31:14Z</time>
      </trkpt>
      <trkpt lat="41.8002711609" lon="-7.4146126863">
        <ele>443.31</ele>
        <time>2020-09-12T05:31:23Z</time>
      </trkpt>
      <trkpt lat="41.8004917726" lon="-7.4141106941">
        <ele>445.77</ele>
        <time>2020-09-12T05:31:27Z</time>
      </trkpt>
      <trkpt lat="41.8010431342" lon="-7.4131768662">
        <ele>446.87</ele>
        <time>2020-09-12T05:31:35Z</time>
      </trkpt>
      <trkpt lat="41.8012032285" lon="-7.4127546698">
        <ele>450.25</ele>
        <time>2020-09-12T05:31:39Z</time>
      </trkpt>
      <trkpt lat="41.8013244309" lon="-7.4121510889">
        <ele>454.72</ele>
        <time>2020-09-12T05:31:44Z</time>
      </trkpt>
      <trkpt lat="41.8013996165" lon="-7.4118448142">
        <ele>457.05</ele>
        <time>2020-09-12T05:31:47Z</time>
      </trkpt>
      <trkpt lat="41.8014980201" lon="-7.4115279783">
        <ele>459.44</ele>
        <time>2020-09-12T05:31:50Z</time>
      </trkpt>
      <trkpt lat="41.8015328888" lon="-7.4113703985">
        <ele>461.27</ele>
        <time>2020-09-12T05:31:52Z</time>
      </trkpt>
      <trkpt lat="41.8014048133" lon="-7.4108550791">
        <ele>457.99</ele>
        <time>2020-09-12T05:31:58Z</time>
      </trkpt>
      <trkpt lat="41.8013408594" lon="-7.4107698351">
        <ele>457.06</ele>
        <time>2020-09-12T05:31:59Z</time>
      </trkpt>
      <trkpt lat="41.8011936732" lon="-7.4105962459">
        <ele>456.2</ele>
        <time>2020-09-12T05:32:01Z</time>
      </trkpt>
      <trkpt lat="41.8009191658" lon="-7.410294665">
        <ele>459.38</ele>
        <time>2020-09-12T05:32:06Z</time>
      </trkpt>
      <trkpt lat="41.8008762505" lon="-7.4102477264">
        <ele>460.35</ele>
        <time>2020-09-12T05:32:08Z</time>
      </trkpt>
      <trkpt lat="41.80083104420483" lon="-7.410208581849057">
        <ele>461.33</ele>
        <time>2020-09-12T05:32:18Z</time>
      </trkpt>
      <trkpt lat="41.800791054262035" lon="-7.4101603030129475">
        <ele>461.31</ele>
        <time>2020-09-12T05:32:19Z</time>
      </trkpt>
      <trkpt lat="41.8007439002" lon="-7.4101124424">
        <ele>458.79</ele>
        <time>2020-09-12T05:32:26Z</time>
      </trkpt>
      <trkpt lat="41.8005394656" lon="-7.4099228438">
        <ele>456.84</ele>
        <time>2020-09-12T05:32:33Z</time>
      </trkpt>
      <trkpt lat="41.8006892502" lon="-7.4092980567">
        <ele>455.63</ele>
        <time>2020-09-12T05:32:41Z</time>
      </trkpt>
      <trkpt lat="41.8007532042" lon="-7.4088693224">
        <ele>458.06</ele>
        <time>2020-09-12T05:32:45Z</time>
      </trkpt>
      <trkpt lat="41.8008816149" lon="-7.4084610399">
        <ele>459.22</ele>
        <time>2020-09-12T05:32:49Z</time>
      </trkpt>
      <trkpt lat="41.8010627478" lon="-7.4081416894">
        <ele>459.19</ele>
        <time>2020-09-12T05:32:52Z</time>
      </trkpt>
      <trkpt lat="41.8012434617" lon="-7.4075467419">
        <ele>459.93</ele>
        <time>2020-09-12T05:32:57Z</time>
      </trkpt>
      <trkpt lat="41.8013106007" lon="-7.4073202629">
        <ele>463.05</ele>
        <time>2020-09-12T05:32:59Z</time>
      </trkpt>
      <trkpt lat="41.8013466429" lon="-7.4070967175">
        <ele>465.19</ele>
        <time>2020-09-12T05:33:01Z</time>
      </trkpt>
      <trkpt lat="41.8014209066" lon="-7.4067065399">
        <ele>469.21</ele>
        <time>2020-09-12T05:33:07Z</time>
      </trkpt>
      <trkpt lat="41.8014278635" lon="-7.4067073781">
        <ele>469.15</ele>
        <time>2020-09-12T05:33:09Z</time>
      </trkpt>
      <trkpt lat="41.8014303781" lon="-7.4065865111">
        <ele>467.03</ele>
        <time>2020-09-12T05:33:54Z</time>
      </trkpt>
      <trkpt lat="41.8014487345" lon="-7.4063471239">
        <ele>466.99</ele>
        <time>2020-09-12T05:33:57Z</time>
      </trkpt>
      <trkpt lat="41.8014815915" lon="-7.4059004523">
        <ele>466.92</ele>
        <time>2020-09-12T05:34:03Z</time>
      </trkpt>
      <trkpt lat="41.8015486468" lon="-7.4057609774">
        <ele>466.92</ele>
        <time>2020-09-12T05:34:05Z</time>
      </trkpt>
      <trkpt lat="41.8015899695" lon="-7.4056520965">
        <ele>469.55</ele>
        <time>2020-09-12T05:34:07Z</time>
      </trkpt>
      <trkpt lat="41.8017446157" lon="-7.4051581509">
        <ele>472.46</ele>
        <time>2020-09-12T05:34:18Z</time>
      </trkpt>
      <trkpt lat="41.801832458" lon="-7.4049434066">
        <ele>474.04</ele>
        <time>2020-09-12T05:34:22Z</time>
      </trkpt>
      <trkpt lat="41.8018933944" lon="-7.4047721643">
        <ele>475.86</ele>
        <time>2020-09-12T05:34:25Z</time>
      </trkpt>
      <trkpt lat="41.8019125052" lon="-7.404603269">
        <ele>477.43</ele>
        <time>2020-09-12T05:34:28Z</time>
      </trkpt>
      <trkpt lat="41.8019608688" lon="-7.4044302665">
        <ele>479.46</ele>
        <time>2020-09-12T05:34:31Z</time>
      </trkpt>
      <trkpt lat="41.8020083942" lon="-7.4043348804">
        <ele>483.42</ele>
        <time>2020-09-12T05:34:33Z</time>
      </trkpt>
      <trkpt lat="41.8020253256" lon="-7.4041316193">
        <ele>484.5</ele>
        <time>2020-09-12T05:34:41Z</time>
      </trkpt>
      <trkpt lat="41.8020346295" lon="-7.4038484786">
        <ele>485.18</ele>
        <time>2020-09-12T05:34:47Z</time>
      </trkpt>
      <trkpt lat="41.8020994216" lon="-7.4035431258">
        <ele>485.15</ele>
        <time>2020-09-12T05:34:51Z</time>
      </trkpt>
      <trkpt lat="41.802087687" lon="-7.4032849632">
        <ele>487.4</ele>
        <time>2020-09-12T05:34:55Z</time>
      </trkpt>
      <trkpt lat="41.8021591008" lon="-7.4031890742">
        <ele>488.57</ele>
        <time>2020-09-12T05:35:01Z</time>
      </trkpt>
      <trkpt lat="41.8022352085" lon="-7.4032008089">
        <ele>485.86</ele>
        <time>2020-09-12T05:35:03Z</time>
      </trkpt>
      <trkpt lat="41.8023207877" lon="-7.403232241">
        <ele>484.65</ele>
        <time>2020-09-12T05:35:05Z</time>
      </trkpt>
      <trkpt lat="41.8025396392" lon="-7.4034958519">
        <ele>482.38</ele>
        <time>2020-09-12T05:35:11Z</time>
      </trkpt>
      <trkpt lat="41.8026118074" lon="-7.4037161283">
        <ele>481.01</ele>
        <time>2020-09-12T05:35:14Z</time>
      </trkpt>
      <trkpt lat="41.8026857357" lon="-7.4040483031">
        <ele>480.93</ele>
        <time>2020-09-12T05:35:18Z</time>
      </trkpt>
      <trkpt lat="41.8029122148" lon="-7.4044802226">
        <ele>479.95</ele>
        <time>2020-09-12T05:35:25Z</time>
      </trkpt>
      <trkpt lat="41.8030054215" lon="-7.4046527222">
        <ele>475.5</ele>
        <time>2020-09-12T05:35:28Z</time>
      </trkpt>
      <trkpt lat="41.8031365983" lon="-7.4048851524">
        <ele>473.11</ele>
        <time>2020-09-12T05:35:31Z</time>
      </trkpt>
      <trkpt lat="41.8031836208" lon="-7.4049512018">
        <ele>473.11</ele>
        <time>2020-09-12T05:35:32Z</time>
      </trkpt>
      <trkpt lat="41.8033954315" lon="-7.4051925167">
        <ele>473.26</ele>
        <time>2020-09-12T05:35:37Z</time>
      </trkpt>
      <trkpt lat="41.803531386" lon="-7.4050848093">
        <ele>473.19</ele>
        <time>2020-09-12T05:35:43Z</time>
      </trkpt>
      <trkpt lat="41.8035478145" lon="-7.4049741682">
        <ele>471.95</ele>
        <time>2020-09-12T05:35:45Z</time>
      </trkpt>
      <trkpt lat="41.8037233315" lon="-7.4047027621">
        <ele>467.99</ele>
        <time>2020-09-12T05:35:54Z</time>
      </trkpt>
      <trkpt lat="41.8037495669" lon="-7.4046870042">
        <ele>467.98</ele>
        <time>2020-09-12T05:35:55Z</time>
      </trkpt>
      <trkpt lat="41.803938495" lon="-7.4045452662">
        <ele>465.22</ele>
        <time>2020-09-12T05:36:02Z</time>
      </trkpt>
      <trkpt lat="41.803994989" lon="-7.4044628721">
        <ele>463.73</ele>
        <time>2020-09-12T05:36:04Z</time>
      </trkpt>
      <trkpt lat="41.8040395807" lon="-7.4043689948">
        <ele>463.67</ele>
        <time>2020-09-12T05:36:06Z</time>
      </trkpt>
      <trkpt lat="41.8041166943" lon="-7.4041589443">
        <ele>462.88</ele>
        <time>2020-09-12T05:36:10Z</time>
      </trkpt>
      <trkpt lat="41.8041927181" lon="-7.4040136859">
        <ele>461.44</ele>
        <time>2020-09-12T05:36:13Z</time>
      </trkpt>
      <trkpt lat="41.8042539898" lon="-7.403927017">
        <ele>460.04</ele>
        <time>2020-09-12T05:36:15Z</time>
      </trkpt>
      <trkpt lat="41.8046376295" lon="-7.4034575466">
        <ele>456.95</ele>
        <time>2020-09-12T05:36:27Z</time>
      </trkpt>
      <trkpt lat="41.8046719115" lon="-7.4034322333">
        <ele>456.93</ele>
        <time>2020-09-12T05:36:28Z</time>
      </trkpt>
      <trkpt lat="41.8051689584" lon="-7.4030035827">
        <ele>453.93</ele>
        <time>2020-09-12T05:36:42Z</time>
      </trkpt>
      <trkpt lat="41.8052880652" lon="-7.4028873257">
        <ele>452.93</ele>
        <time>2020-09-12T05:36:45Z</time>
      </trkpt>
      <trkpt lat="41.8054061662" lon="-7.402689429">
        <ele>452.88</ele>
        <time>2020-09-12T05:36:49Z</time>
      </trkpt>
      <trkpt lat="41.8057254329" lon="-7.4020935595">
        <ele>450.86</ele>
        <time>2020-09-12T05:37:01Z</time>
      </trkpt>
      <trkpt lat="41.8057839386" lon="-7.4018695112">
        <ele>447.98</ele>
        <time>2020-09-12T05:37:05Z</time>
      </trkpt>
      <trkpt lat="41.8057624809" lon="-7.4015687685">
        <ele>444.73</ele>
        <time>2020-09-12T05:37:09Z</time>
      </trkpt>
      <trkpt lat="41.8057488184" lon="-7.4014173076">
        <ele>444.75</ele>
        <time>2020-09-12T05:37:11Z</time>
      </trkpt>
      <trkpt lat="41.8057965953" lon="-7.4012359232">
        <ele>447.51</ele>
        <time>2020-09-12T05:37:15Z</time>
      </trkpt>
      <trkpt lat="41.8059731182" lon="-7.4011271261">
        <ele>445.24</ele>
        <time>2020-09-12T05:37:19Z</time>
      </trkpt>
      <trkpt lat="41.8063402455" lon="-7.40080107">
        <ele>443.15</ele>
        <time>2020-09-12T05:37:29Z</time>
      </trkpt>
      <trkpt lat="41.8064806424" lon="-7.4007250462">
        <ele>441.48</ele>
        <time>2020-09-12T05:37:32Z</time>
      </trkpt>
      <trkpt lat="41.8068353646" lon="-7.4005431589">
        <ele>441.41</ele>
        <time>2020-09-12T05:37:39Z</time>
      </trkpt>
      <trkpt lat="41.8072400428" lon="-7.4003743473">
        <ele>439.34</ele>
        <time>2020-09-12T05:37:46Z</time>
      </trkpt>
      <trkpt lat="41.807583617" lon="-7.4001820665">
        <ele>437.6</ele>
        <time>2020-09-12T05:37:51Z</time>
      </trkpt>
      <trkpt lat="41.8076576293" lon="-7.4001591839">
        <ele>436.47</ele>
        <time>2020-09-12T05:37:52Z</time>
      </trkpt>
      <trkpt lat="41.8079520017" lon="-7.3999767937">
        <ele>436.66</ele>
        <time>2020-09-12T05:37:57Z</time>
      </trkpt>
      <trkpt lat="41.8081688415" lon="-7.3997202236">
        <ele>435.56</ele>
        <time>2020-09-12T05:38:01Z</time>
      </trkpt>
      <trkpt lat="41.8083308637" lon="-7.3994328082">
        <ele>434.51</ele>
        <time>2020-09-12T05:38:05Z</time>
      </trkpt>
      <trkpt lat="41.8089836463" lon="-7.3987490125">
        <ele>433.29</ele>
        <time>2020-09-12T05:38:15Z</time>
      </trkpt>
      <trkpt lat="41.8091452494" lon="-7.3986604996">
        <ele>435.56</ele>
        <time>2020-09-12T05:38:17Z</time>
      </trkpt>
      <trkpt lat="41.8093818706" lon="-7.3985462543">
        <ele>437.68</ele>
        <time>2020-09-12T05:38:20Z</time>
      </trkpt>
      <trkpt lat="41.8094554637" lon="-7.3985050153">
        <ele>439.12</ele>
        <time>2020-09-12T05:38:21Z</time>
      </trkpt>
      <trkpt lat="41.8098582141" lon="-7.3980263248">
        <ele>436.66</ele>
        <time>2020-09-12T05:38:28Z</time>
      </trkpt>
      <trkpt lat="41.8099603057" lon="-7.3979003448">
        <ele>436.63</ele>
        <time>2020-09-12T05:38:30Z</time>
      </trkpt>
      <trkpt lat="41.8102488108" lon="-7.397845611">
        <ele>435.24</ele>
        <time>2020-09-12T05:38:35Z</time>
      </trkpt>
      <trkpt lat="41.8104411755" lon="-7.3979301006">
        <ele>432.93</ele>
        <time>2020-09-12T05:38:38Z</time>
      </trkpt>
      <trkpt lat="41.8105978332" lon="-7.3980664741">
        <ele>430.09</ele>
        <time>2020-09-12T05:38:41Z</time>
      </trkpt>
      <trkpt lat="41.8108023517" lon="-7.3981051147">
        <ele>429.2</ele>
        <time>2020-09-12T05:38:45Z</time>
      </trkpt>
      <trkpt lat="41.8109979015" lon="-7.3980393168">
        <ele>427.73</ele>
        <time>2020-09-12T05:38:48Z</time>
      </trkpt>
      <trkpt lat="41.8112033419" lon="-7.3980922904">
        <ele>427.05</ele>
        <time>2020-09-12T05:38:51Z</time>
      </trkpt>
      <trkpt lat="41.8118759897" lon="-7.3984418157">
        <ele>426.91</ele>
        <time>2020-09-12T05:38:59Z</time>
      </trkpt>
      <trkpt lat="41.812223671" lon="-7.3987780139">
        <ele>426.88</ele>
        <time>2020-09-12T05:39:04Z</time>
      </trkpt>
      <trkpt lat="41.8124077376" lon="-7.3988693766">
        <ele>426.9</ele>
        <time>2020-09-12T05:39:11Z</time>
      </trkpt>
      <trkpt lat="41.8126841728" lon="-7.3988851346">
        <ele>424.25</ele>
        <time>2020-09-12T05:39:20Z</time>
      </trkpt>
      <trkpt lat="41.8133654539" lon="-7.3991631623">
        <ele>421.18</ele>
        <time>2020-09-12T05:39:29Z</time>
      </trkpt>
      <trkpt lat="41.8134482671" lon="-7.3992058262">
        <ele>421.36</ele>
        <time>2020-09-12T05:39:30Z</time>
      </trkpt>
      <trkpt lat="41.8139692023" lon="-7.3992339056">
        <ele>421.21</ele>
        <time>2020-09-12T05:39:37Z</time>
      </trkpt>
      <trkpt lat="41.8141250219" lon="-7.3992248531">
        <ele>421.28</ele>
        <time>2020-09-12T05:39:39Z</time>
      </trkpt>
      <trkpt lat="41.8142483197" lon="-7.3991946783">
        <ele>421.26</ele>
        <time>2020-09-12T05:39:41Z</time>
      </trkpt>
      <trkpt lat="41.8142986111" lon="-7.3991511762">
        <ele>421.25</ele>
        <time>2020-09-12T05:39:42Z</time>
      </trkpt>
      <trkpt lat="41.8143450469" lon="-7.3990876414">
        <ele>421.18</ele>
        <time>2020-09-12T05:39:43Z</time>
      </trkpt>
      <trkpt lat="41.8143933266" lon="-7.3990158923">
        <ele>421.17</ele>
        <time>2020-09-12T05:39:44Z</time>
      </trkpt>
      <trkpt lat="41.8144478928" lon="-7.3989428859">
        <ele>420.28</ele>
        <time>2020-09-12T05:39:45Z</time>
      </trkpt>
      <trkpt lat="41.814835472" lon="-7.3985052668">
        <ele>417.05</ele>
        <time>2020-09-12T05:39:50Z</time>
      </trkpt>
      <trkpt lat="41.8149317801" lon="-7.3984003253">
        <ele>413.37</ele>
        <time>2020-09-12T05:39:51Z</time>
      </trkpt>
      <trkpt lat="41.8152293377" lon="-7.3980719224">
        <ele>412.03</ele>
        <time>2020-09-12T05:39:54Z</time>
      </trkpt>
      <trkpt lat="41.8158737384" lon="-7.3973746318">
        <ele>409.08</ele>
        <time>2020-09-12T05:40:01Z</time>
      </trkpt>
      <trkpt lat="41.8161465693" lon="-7.3971201573">
        <ele>407.64</ele>
        <time>2020-09-12T05:40:04Z</time>
      </trkpt>
      <trkpt lat="41.8163082562" lon="-7.3969236854">
        <ele>405.41</ele>
        <time>2020-09-12T05:40:06Z</time>
      </trkpt>
      <trkpt lat="41.816463992" lon="-7.396771973">
        <ele>405.51</ele>
        <time>2020-09-12T05:40:08Z</time>
      </trkpt>
      <trkpt lat="41.8165310472" lon="-7.3967226036">
        <ele>408.96</ele>
        <time>2020-09-12T05:40:09Z</time>
      </trkpt>
      <trkpt lat="41.8165830988" lon="-7.3966871481">
        <ele>408.58</ele>
        <time>2020-09-12T05:40:10Z</time>
      </trkpt>
      <trkpt lat="41.8166219909" lon="-7.3966560513">
        <ele>409.67</ele>
        <time>2020-09-12T05:40:11Z</time>
      </trkpt>
      <trkpt lat="41.8166489806" lon="-7.3966166563">
        <ele>409.74</ele>
        <time>2020-09-12T05:40:12Z</time>
      </trkpt>
      <trkpt lat="41.8166576978" lon="-7.3965595756">
        <ele>409.73</ele>
        <time>2020-09-12T05:40:13Z</time>
      </trkpt>
      <trkpt lat="41.8166519143" lon="-7.3964812886">
        <ele>409.99</ele>
        <time>2020-09-12T05:40:14Z</time>
      </trkpt>
      <trkpt lat="41.8166420236" lon="-7.3963838071">
        <ele>409.98</ele>
        <time>2020-09-12T05:40:15Z</time>
      </trkpt>
      <trkpt lat="41.8165873736" lon="-7.3959120736">
        <ele>409.84</ele>
        <time>2020-09-12T05:40:19Z</time>
      </trkpt>
      <trkpt lat="41.8165562768" lon="-7.395801181">
        <ele>409.85</ele>
        <time>2020-09-12T05:40:20Z</time>
      </trkpt>
      <trkpt lat="41.816515876" lon="-7.3956860136">
        <ele>409.93</ele>
        <time>2020-09-12T05:40:21Z</time>
      </trkpt>
      <trkpt lat="41.8163657561" lon="-7.3953089956">
        <ele>407.04</ele>
        <time>2020-09-12T05:40:24Z</time>
      </trkpt>
      <trkpt lat="41.8164292071" lon="-7.395202294">
        <ele>411.21</ele>
        <time>2020-09-12T05:40:56Z</time>
      </trkpt>
      <trkpt lat="41.8164695241" lon="-7.395171281">
        <ele>411.43</ele>
        <time>2020-09-12T05:40:57Z</time>
      </trkpt>
      <trkpt lat="41.8165114336" lon="-7.3951248452">
        <ele>411.2</ele>
        <time>2020-09-12T05:40:58Z</time>
      </trkpt>
      <trkpt lat="41.8165583722" lon="-7.3950722907">
        <ele>411.16</ele>
        <time>2020-09-12T05:40:59Z</time>
      </trkpt>
      <trkpt lat="41.8166059814" lon="-7.3950148746">
        <ele>411.18</ele>
        <time>2020-09-12T05:41:00Z</time>
      </trkpt>
      <trkpt lat="41.8166486453" lon="-7.3949480709">
        <ele>411.19</ele>
        <time>2020-09-12T05:41:01Z</time>
      </trkpt>
      <trkpt lat="41.8166859448" lon="-7.3948766571">
        <ele>411.27</ele>
        <time>2020-09-12T05:41:02Z</time>
      </trkpt>
      <trkpt lat="41.8167295307" lon="-7.3947972804">
        <ele>411.31</ele>
        <time>2020-09-12T05:41:03Z</time>
      </trkpt>
      <trkpt lat="41.8167908024" lon="-7.3947221786">
        <ele>411.29</ele>
        <time>2020-09-12T05:41:04Z</time>
      </trkpt>
      <trkpt lat="41.8168548401" lon="-7.3946605716">
        <ele>411.27</ele>
        <time>2020-09-12T05:41:05Z</time>
      </trkpt>
      <trkpt lat="41.816910496" lon="-7.3946086038">
        <ele>413.55</ele>
        <time>2020-09-12T05:41:06Z</time>
      </trkpt>
      <trkpt lat="41.81696238" lon="-7.3945563845">
        <ele>415.33</ele>
        <time>2020-09-12T05:41:07Z</time>
      </trkpt>
      <trkpt lat="41.8170148507" lon="-7.3944920953">
        <ele>416.3</ele>
        <time>2020-09-12T05:41:08Z</time>
      </trkpt>
      <trkpt lat="41.8170669861" lon="-7.3944182508">
        <ele>416.35</ele>
        <time>2020-09-12T05:41:09Z</time>
      </trkpt>
      <trkpt lat="41.817115685" lon="-7.3943397123">
        <ele>417.2</ele>
        <time>2020-09-12T05:41:10Z</time>
      </trkpt>
      <trkpt lat="41.8171524815" lon="-7.3942513671">
        <ele>418.11</ele>
        <time>2020-09-12T05:41:11Z</time>
      </trkpt>
      <trkpt lat="41.8171717599" lon="-7.3941688053">
        <ele>419.27</ele>
        <time>2020-09-12T05:41:12Z</time>
      </trkpt>
      <trkpt lat="41.8171767052" lon="-7.3941113055">
        <ele>420.47</ele>
        <time>2020-09-12T05:41:13Z</time>
      </trkpt>
      <trkpt lat="41.8171802256" lon="-7.3940798733">
        <ele>421.7</ele>
        <time>2020-09-12T05:41:14Z</time>
      </trkpt>
      <trkpt lat="41.8171922117" lon="-7.3940539733">
        <ele>421.72</ele>
        <time>2020-09-12T05:41:15Z</time>
      </trkpt>
      <trkpt lat="41.8172154296" lon="-7.3940220382">
        <ele>421.68</ele>
        <time>2020-09-12T05:41:16Z</time>
      </trkpt>
      <trkpt lat="41.8172496278" lon="-7.3939811345">
        <ele>421.66</ele>
        <time>2020-09-12T05:41:17Z</time>
      </trkpt>
      <trkpt lat="41.8175090477" lon="-7.3936882708">
        <ele>422.6</ele>
        <time>2020-09-12T05:41:22Z</time>
      </trkpt>
      <trkpt lat="41.8175789528" lon="-7.3936364707">
        <ele>422.59</ele>
        <time>2020-09-12T05:41:23Z</time>
      </trkpt>
      <trkpt lat="41.8176528811" lon="-7.3935939744">
        <ele>419.52</ele>
        <time>2020-09-12T05:41:24Z</time>
      </trkpt>
      <trkpt lat="41.8177181762" lon="-7.3935661465">
        <ele>419.4</ele>
        <time>2020-09-12T05:41:25Z</time>
      </trkpt>
      <trkpt lat="41.8177750893" lon="-7.3935400788">
        <ele>419.38</ele>
        <time>2020-09-12T05:41:26Z</time>
      </trkpt>
      <trkpt lat="41.8178330082" lon="-7.3935031984">
        <ele>419.39</ele>
        <time>2020-09-12T05:41:27Z</time>
      </trkpt>
      <trkpt lat="41.8178950343" lon="-7.3934532423">
        <ele>419.25</ele>
        <time>2020-09-12T05:41:28Z</time>
      </trkpt>
      <trkpt lat="41.8179585692" lon="-7.3933895398">
        <ele>419.23</ele>
        <time>2020-09-12T05:41:29Z</time>
      </trkpt>
      <trkpt lat="41.8188700173" lon="-7.3925824463">
        <ele>418.2</ele>
        <time>2020-09-12T05:41:42Z</time>
      </trkpt>
      <trkpt lat="41.8191950675" lon="-7.3922598269">
        <ele>416.97</ele>
        <time>2020-09-12T05:41:47Z</time>
      </trkpt>
      <trkpt lat="41.8194715027" lon="-7.3919927794">
        <ele>416.12</ele>
        <time>2020-09-12T05:41:51Z</time>
      </trkpt>
      <trkpt lat="41.8197745923" lon="-7.3918372951">
        <ele>414.1</ele>
        <time>2020-09-12T05:41:55Z</time>
      </trkpt>
      <trkpt lat="41.819942398" lon="-7.3917579185">
        <ele>412.4</ele>
        <time>2020-09-12T05:41:57Z</time>
      </trkpt>
      <trkpt lat="41.8201228604" lon="-7.3917222116">
        <ele>409.58</ele>
        <time>2020-09-12T05:41:59Z</time>
      </trkpt>
      <trkpt lat="41.8203210924" lon="-7.3917383887">
        <ele>407.25</ele>
        <time>2020-09-12T05:42:01Z</time>
      </trkpt>
      <trkpt lat="41.8205470685" lon="-7.3917104769">
        <ele>410.58</ele>
        <time>2020-09-12T05:42:04Z</time>
      </trkpt>
      <trkpt lat="41.8207447138" lon="-7.3918208666">
        <ele>413.21</ele>
        <time>2020-09-12T05:42:08Z</time>
      </trkpt>
      <trkpt lat="41.8208686821" lon="-7.3919513728">
        <ele>413.24</ele>
        <time>2020-09-12T05:42:10Z</time>
      </trkpt>
      <trkpt lat="41.8210408464" lon="-7.3921057675">
        <ele>418.93</ele>
        <time>2020-09-12T05:42:14Z</time>
      </trkpt>
      <trkpt lat="41.8210623041" lon="-7.3921109643">
        <ele>418.97</ele>
        <time>2020-09-12T05:42:15Z</time>
      </trkpt>
      <trkpt lat="41.8212070595" lon="-7.3920710664">
        <ele>418.91</ele>
        <time>2020-09-12T05:42:19Z</time>
      </trkpt>
      <trkpt lat="41.8215231411" lon="-7.3920781072">
        <ele>418.56</ele>
        <time>2020-09-12T05:42:24Z</time>
      </trkpt>
      <trkpt lat="41.821619533" lon="-7.3920741677">
        <ele>418.52</ele>
        <time>2020-09-12T05:42:26Z</time>
      </trkpt>
      <trkpt lat="41.8216745183" lon="-7.3919188511">
        <ele>418.48</ele>
        <time>2020-09-12T05:42:30Z</time>
      </trkpt>
      <trkpt lat="41.821614438403934" lon="-7.391669153138119">
        <ele>419.44</ele>
        <time>2020-09-12T05:42:37Z</time>
      </trkpt>
      <trkpt lat="41.8217730056" lon="-7.3913156055">
        <ele>420.94</ele>
        <time>2020-09-12T05:42:40Z</time>
      </trkpt>
      <trkpt lat="41.8218706548" lon="-7.3911340535">
        <ele>422.16</ele>
        <time>2020-09-12T05:42:42Z</time>
      </trkpt>
      <trkpt lat="41.8218675535" lon="-7.3910287768">
        <ele>424.41</ele>
        <time>2020-09-12T05:42:49Z</time>
      </trkpt>
      <trkpt lat="41.8219864089" lon="-7.390594678">
        <ele>424.36</ele>
        <time>2020-09-12T05:42:53Z</time>
      </trkpt>
      <trkpt lat="41.8221023306" lon="-7.3902243655">
        <ele>426.16</ele>
        <time>2020-09-12T05:42:56Z</time>
      </trkpt>
      <trkpt lat="41.8222106248" lon="-7.3899922706">
        <ele>427.89</ele>
        <time>2020-09-12T05:42:59Z</time>
      </trkpt>
      <trkpt lat="41.8222382851" lon="-7.3897616845">
        <ele>427.83</ele>
        <time>2020-09-12T05:43:00Z</time>
      </trkpt>
      <trkpt lat="41.8222256284" lon="-7.3896557372">
        <ele>427.72</ele>
        <time>2020-09-12T05:43:02Z</time>
      </trkpt>
      <trkpt lat="41.8221952021" lon="-7.3894476146">
        <ele>429.58</ele>
        <time>2020-09-12T05:43:06Z</time>
      </trkpt>
      <trkpt lat="41.8222435657" lon="-7.3891992588">
        <ele>429.65</ele>
        <time>2020-09-12T05:43:07Z</time>
      </trkpt>
      <trkpt lat="41.8222972099" lon="-7.3891717661">
        <ele>427.18</ele>
        <time>2020-09-12T05:43:09Z</time>
      </trkpt>
      <trkpt lat="41.8224265426" lon="-7.3891402502">
        <ele>421.66</ele>
        <time>2020-09-12T05:43:13Z</time>
      </trkpt>
      <trkpt lat="41.8227536883" lon="-7.3891218938">
        <ele>420.31</ele>
        <time>2020-09-12T05:43:14Z</time>
      </trkpt>
      <trkpt lat="41.8228480686" lon="-7.3891086504">
        <ele>420.26</ele>
        <time>2020-09-12T05:43:19Z</time>
      </trkpt>
      <trkpt lat="41.8232249189" lon="-7.3890317883">
        <ele>419.09</ele>
        <time>2020-09-12T05:43:22Z</time>
      </trkpt>
      <trkpt lat="41.8234753702" lon="-7.3890400026">
        <ele>419.31</ele>
        <time>2020-09-12T05:43:27Z</time>
      </trkpt>
      <trkpt lat="41.8238072097" lon="-7.3888088297">
        <ele>419.65</ele>
        <time>2020-09-12T05:43:33Z</time>
      </trkpt>
      <trkpt lat="41.8241541367" lon="-7.3883743118">
        <ele>418.14</ele>
        <time>2020-09-12T05:43:35Z</time>
      </trkpt>
      <trkpt lat="41.8242720701" lon="-7.388170464">
        <ele>418.02</ele>
        <time>2020-09-12T05:43:37Z</time>
      </trkpt>
      <trkpt lat="41.8243743293" lon="-7.3879304063">
        <ele>420.44</ele>
        <time>2020-09-12T05:43:42Z</time>
      </trkpt>
      <trkpt lat="41.82474455767085" lon="-7.3876190173198175">
        <ele>425.62</ele>
        <time>2020-09-12T05:43:46Z</time>
      </trkpt>
      <trkpt lat="41.8248325026177" lon="-7.387490269537681">
        <ele>426.5</ele>
        <time>2020-09-12T05:43:51Z</time>
      </trkpt>
      <trkpt lat="41.82476054767018" lon="-7.387248872887372">
        <ele>426.45</ele>
        <time>2020-09-12T05:43:53Z</time>
      </trkpt>
      <trkpt lat="41.8249494117" lon="-7.3869241588">
        <ele>426.42</ele>
        <time>2020-09-12T05:43:55Z</time>
      </trkpt>
      <trkpt lat="41.8250971008" lon="-7.3867778946">
        <ele>423.83</ele>
        <time>2020-09-12T05:43:59Z</time>
      </trkpt>
      <trkpt lat="41.8252643198" lon="-7.3866365757">
        <ele>422.42</ele>
        <time>2020-09-12T05:44:02Z</time>
      </trkpt>
      <trkpt lat="41.8255343009" lon="-7.3862380162">
        <ele>421.47</ele>
        <time>2020-09-12T05:44:09Z</time>
      </trkpt>
      <trkpt lat="41.8257295992" lon="-7.3858818691">
        <ele>426.25</ele>
        <time>2020-09-12T05:44:12Z</time>
      </trkpt>
      <trkpt lat="41.8262046855" lon="-7.3849723488">
        <ele>426.24</ele>
        <time>2020-09-12T05:44:13Z</time>
      </trkpt>
      <trkpt lat="41.8264221121" lon="-7.3847063072">
        <ele>426.3</ele>
        <time>2020-09-12T05:44:20Z</time>
      </trkpt>
      <trkpt lat="41.8265035842" lon="-7.3846360669">
        <ele>429.09</ele>
        <time>2020-09-12T05:44:25Z</time>
      </trkpt>
      <trkpt lat="41.8269027304" lon="-7.3839764111">
        <ele>430.7</ele>
        <time>2020-09-12T05:44:29Z</time>
      </trkpt>
      <trkpt lat="41.8270541914" lon="-7.3834954575">
        <ele>432.32</ele>
        <time>2020-09-12T05:44:30Z</time>
      </trkpt>
      <trkpt lat="41.8270237651" lon="-7.3831298389">
        <ele>432.33</ele>
        <time>2020-09-12T05:44:31Z</time>
      </trkpt>
      <trkpt lat="41.8270477373" lon="-7.3830494564">
        <ele>432.31</ele>
        <time>2020-09-12T05:44:32Z</time>
      </trkpt>
      <trkpt lat="41.8270891439" lon="-7.3829813953">
        <ele>429.7</ele>
        <time>2020-09-12T05:44:33Z</time>
      </trkpt>
      <trkpt lat="41.8271525111" lon="-7.382924566">
        <ele>427.34</ele>
        <time>2020-09-12T05:44:34Z</time>
      </trkpt>
      <trkpt lat="41.8272386771" lon="-7.382881064">
        <ele>426.52</ele>
        <time>2020-09-12T05:44:35Z</time>
      </trkpt>
      <trkpt lat="41.8273358233" lon="-7.3828497157">
        <ele>426.67</ele>
        <time>2020-09-12T05:44:36Z</time>
      </trkpt>
      <trkpt lat="41.8274362385" lon="-7.382825911">
        <ele>429.18</ele>
        <time>2020-09-12T05:44:45Z</time>
      </trkpt>
      <trkpt lat="41.8275371566" lon="-7.3828077223">
        <ele>431.26</ele>
        <time>2020-09-12T05:44:52Z</time>
      </trkpt>
      <trkpt lat="41.8284155801" lon="-7.3825649824">
        <ele>435.75</ele>
        <time>2020-09-12T05:44:54Z</time>
      </trkpt>
      <trkpt lat="41.8291689456" lon="-7.38230858">
        <ele>438.14</ele>
        <time>2020-09-12T05:44:55Z</time>
      </trkpt>
      <trkpt lat="41.8293370027" lon="-7.3822559416">
        <ele>440</ele>
        <time>2020-09-12T05:44:56Z</time>
      </trkpt>
      <trkpt lat="41.8293916527" lon="-7.382232137">
        <ele>440.1</ele>
        <time>2020-09-12T05:44:57Z</time>
      </trkpt>
      <trkpt lat="41.829427192" lon="-7.3821965978">
        <ele>441.59</ele>
        <time>2020-09-12T05:44:58Z</time>
      </trkpt>
      <trkpt lat="41.8294381723" lon="-7.3821516708">
        <ele>441.53</ele>
        <time>2020-09-12T05:44:59Z</time>
      </trkpt>
      <trkpt lat="41.8294198159" lon="-7.3821079172">
        <ele>441.47</ele>
        <time>2020-09-12T05:45:00Z</time>
      </trkpt>
      <trkpt lat="41.829368351" lon="-7.3820627388">
        <ele>438.18</ele>
        <time>2020-09-12T05:45:01Z</time>
      </trkpt>
      <trkpt lat="41.8292908184" lon="-7.3820037302">
        <ele>436.09</ele>
        <time>2020-09-12T05:45:03Z</time>
      </trkpt>
      <trkpt lat="41.8292003777" lon="-7.3819272872">
        <ele>436.06</ele>
        <time>2020-09-12T05:45:04Z</time>
      </trkpt>
      <trkpt lat="41.8290081806" lon="-7.3817695398">
        <ele>436.02</ele>
        <time>2020-09-12T05:45:05Z</time>
      </trkpt>
      <trkpt lat="41.8288980424" lon="-7.3817048315">
        <ele>436.12</ele>
        <time>2020-09-12T05:45:06Z</time>
      </trkpt>
      <trkpt lat="41.8287872337" lon="-7.3816416319">
        <ele>436.12</ele>
        <time>2020-09-12T05:45:07Z</time>
      </trkpt>
      <trkpt lat="41.8286903389" lon="-7.3815740738">
        <ele>440.63</ele>
        <time>2020-09-12T05:45:08Z</time>
      </trkpt>
      <trkpt lat="41.8286107108" lon="-7.3815060128">
        <ele>441.79</ele>
        <time>2020-09-12T05:45:09Z</time>
      </trkpt>
      <trkpt lat="41.8285470083" lon="-7.3814434838">
        <ele>443.45</ele>
        <time>2020-09-12T05:45:10Z</time>
      </trkpt>
      <trkpt lat="41.8285012431" lon="-7.3813846428">
        <ele>445.14</ele>
        <time>2020-09-12T05:45:11Z</time>
      </trkpt>
      <trkpt lat="41.8284800369" lon="-7.3813258857">
        <ele>446.54</ele>
        <time>2020-09-12T05:45:12Z</time>
      </trkpt>
      <trkpt lat="41.828481378" lon="-7.3812716547">
        <ele>446.48</ele>
        <time>2020-09-12T05:45:13Z</time>
      </trkpt>
      <trkpt lat="41.8284962978" lon="-7.3812274821">
        <ele>447.78</ele>
        <time>2020-09-12T05:45:14Z</time>
      </trkpt>
      <trkpt lat="41.8285164982" lon="-7.3811917752">
        <ele>447.79</ele>
        <time>2020-09-12T05:45:15Z</time>
      </trkpt>
      <trkpt lat="41.8285310827" lon="-7.3811713234">
        <ele>447.73</ele>
        <time>2020-09-12T05:45:40Z</time>
      </trkpt>
      <trkpt lat="41.8285343517" lon="-7.3811680544">
        <ele>448.91</ele>
        <time>2020-09-12T05:45:52Z</time>
      </trkpt>
      <trkpt lat="41.8285470083" lon="-7.3811847344">
        <ele>450.3</ele>
        <time>2020-09-12T05:45:53Z</time>
      </trkpt>
      <trkpt lat="41.8287081085" lon="-7.3809480295">
        <ele>451.64</ele>
        <time>2020-09-12T05:45:54Z</time>
      </trkpt>
      <trkpt lat="41.8287351821" lon="-7.380875526">
        <ele>451.63</ele>
        <time>2020-09-12T05:45:55Z</time>
      </trkpt>
      <trkpt lat="41.8287532032" lon="-7.3807954788">
        <ele>453.14</ele>
        <time>2020-09-12T05:45:56Z</time>
      </trkpt>
      <trkpt lat="41.8287635129" lon="-7.3807063792">
        <ele>453.14</ele>
        <time>2020-09-12T05:45:57Z</time>
      </trkpt>
      <trkpt lat="41.8287651055" lon="-7.3806125857">
        <ele>455.77</ele>
        <time>2020-09-12T05:45:58Z</time>
      </trkpt>
      <trkpt lat="41.8287628423" lon="-7.3805237375">
        <ele>457.08</ele>
        <time>2020-09-12T05:45:59Z</time>
      </trkpt>
      <trkpt lat="41.8287637644" lon="-7.3804451991">
        <ele>457.11</ele>
        <time>2020-09-12T05:46:00Z</time>
      </trkpt>
      <trkpt lat="41.8287710566" lon="-7.3803690076">
        <ele>459.53</ele>
        <time>2020-09-12T05:46:01Z</time>
      </trkpt>
      <trkpt lat="41.828787569" lon="-7.3802934866">
        <ele>460.98</ele>
        <time>2020-09-12T05:46:02Z</time>
      </trkpt>
      <trkpt lat="41.8288145587" lon="-7.3802216537">
        <ele>461.03</ele>
        <time>2020-09-12T05:46:03Z</time>
      </trkpt>
      <trkpt lat="41.8288527802" lon="-7.3801602144">
        <ele>462.18</ele>
        <time>2020-09-12T05:46:04Z</time>
      </trkpt>
      <trkpt lat="41.8289001379" lon="-7.380103888">
        <ele>465.48</ele>
        <time>2020-09-12T05:46:07Z</time>
      </trkpt>
      <trkpt lat="41.8289520219" lon="-7.3800462205">
        <ele>466.72</ele>
        <time>2020-09-12T05:46:08Z</time>
      </trkpt>
      <trkpt lat="41.8291251082" lon="-7.379862573">
        <ele>467.76</ele>
        <time>2020-09-12T05:46:09Z</time>
      </trkpt>
      <trkpt lat="41.8291715439" lon="-7.3798006307">
        <ele>467.64</ele>
        <time>2020-09-12T05:46:10Z</time>
      </trkpt>
      <trkpt lat="41.8292090949" lon="-7.3797278758">
        <ele>470.23</ele>
        <time>2020-09-12T05:46:17Z</time>
      </trkpt>
      <trkpt lat="41.8292428739" lon="-7.3796376027">
        <ele>469.94</ele>
        <time>2020-09-12T05:46:18Z</time>
      </trkpt>
      <trkpt lat="41.8294708617" lon="-7.3788883444">
        <ele>469.98</ele>
        <time>2020-09-12T05:46:19Z</time>
      </trkpt>
      <trkpt lat="41.8294893019" lon="-7.378774602">
        <ele>469.91</ele>
        <time>2020-09-12T05:46:22Z</time>
      </trkpt>
      <trkpt lat="41.8294936605" lon="-7.3786554951">
        <ele>469.86</ele>
        <time>2020-09-12T05:46:24Z</time>
      </trkpt>
      <trkpt lat="41.8294937443" lon="-7.3783023655">
        <ele>470.64</ele>
        <time>2020-09-12T05:46:25Z</time>
      </trkpt>
      <trkpt lat="41.82950221" lon="-7.3780841846">
        <ele>470.61</ele>
        <time>2020-09-12T05:46:26Z</time>
      </trkpt>
      <trkpt lat="41.8294927385" lon="-7.3779709451">
        <ele>471.35</ele>
        <time>2020-09-12T05:46:29Z</time>
      </trkpt>
      <trkpt lat="41.829472119" lon="-7.3778573703">
        <ele>475.82</ele>
        <time>2020-09-12T05:46:33Z</time>
      </trkpt>
      <trkpt lat="41.8293333147" lon="-7.3775192443">
        <ele>477.01</ele>
        <time>2020-09-12T05:46:34Z</time>
      </trkpt>
      <trkpt lat="41.8292158004" lon="-7.3771959543">
        <ele>477.83</ele>
        <time>2020-09-12T05:46:36Z</time>
      </trkpt>
      <trkpt lat="41.8292316422" lon="-7.3770991433">
        <ele>484.06</ele>
        <time>2020-09-12T05:46:39Z</time>
      </trkpt>
      <trkpt lat="41.8292771559" lon="-7.3768952955">
        <ele>484.03</ele>
        <time>2020-09-12T05:46:40Z</time>
      </trkpt>
      <trkpt lat="41.8293751404" lon="-7.3766439222">
        <ele>487.54</ele>
        <time>2020-09-12T05:46:42Z</time>
      </trkpt>
      <trkpt lat="41.8294080812" lon="-7.3765656352">
        <ele>490.57</ele>
        <time>2020-09-12T05:46:44Z</time>
      </trkpt>
      <trkpt lat="41.8294682633" lon="-7.3764166888">
        <ele>490.58</ele>
        <time>2020-09-12T05:46:45Z</time>
      </trkpt>
      <trkpt lat="41.8295387551" lon="-7.3762576003">
        <ele>493.37</ele>
        <time>2020-09-12T05:46:48Z</time>
      </trkpt>
      <trkpt lat="41.8295696843" lon="-7.3761792295">
        <ele>496.23</ele>
        <time>2020-09-12T05:46:52Z</time>
      </trkpt>
      <trkpt lat="41.8296405952" lon="-7.3759384174">
        <ele>498.49</ele>
        <time>2020-09-12T05:46:55Z</time>
      </trkpt>
      <trkpt lat="41.8297132663" lon="-7.3756084219">
        <ele>500.25</ele>
        <time>2020-09-12T05:46:57Z</time>
      </trkpt>
      <trkpt lat="41.8297179602" lon="-7.3753712978">
        <ele>502.67</ele>
        <time>2020-09-12T05:47:01Z</time>
      </trkpt>
      <trkpt lat="41.8297279347" lon="-7.3752222676">
        <ele>506.67</ele>
        <time>2020-09-12T05:47:06Z</time>
      </trkpt>
      <trkpt lat="41.8298870232" lon="-7.3750315793">
        <ele>508.31</ele>
        <time>2020-09-12T05:47:08Z</time>
      </trkpt>
      <trkpt lat="41.8301607762" lon="-7.3748237081">
        <ele>512.71</ele>
        <time>2020-09-12T05:47:11Z</time>
      </trkpt>
      <trkpt lat="41.830272926" lon="-7.3747134861">
        <ele>515.01</ele>
        <time>2020-09-12T05:47:14Z</time>
      </trkpt>
      <trkpt lat="41.8304445036" lon="-7.3745408189">
        <ele>518.19</ele>
        <time>2020-09-12T05:47:16Z</time>
      </trkpt>
      <trkpt lat="41.8306227867" lon="-7.3743654694">
        <ele>521.13</ele>
        <time>2020-09-12T05:47:18Z</time>
      </trkpt>
      <trkpt lat="41.8307309132" lon="-7.3742238991">
        <ele>524.99</ele>
        <time>2020-09-12T05:47:21Z</time>
      </trkpt>
      <trkpt lat="41.8308324181" lon="-7.374066906">
        <ele>528.34</ele>
        <time>2020-09-12T05:47:23Z</time>
      </trkpt>
      <trkpt lat="41.830925541" lon="-7.3737880401">
        <ele>531.01</ele>
        <time>2020-09-12T05:47:26Z</time>
      </trkpt>
      <trkpt lat="41.8309179135" lon="-7.373625515">
        <ele>531.8</ele>
        <time>2020-09-12T05:47:36Z</time>
      </trkpt>
      <trkpt lat="41.8308969587" lon="-7.3735126946">
        <ele>535.11</ele>
        <time>2020-09-12T05:47:43Z</time>
      </trkpt>
      <trkpt lat="41.8308424763" lon="-7.3731669411">
        <ele>538.23</ele>
        <time>2020-09-12T05:47:46Z</time>
      </trkpt>
      <trkpt lat="41.8307985552" lon="-7.3727272265">
        <ele>539.54</ele>
        <time>2020-09-12T05:47:47Z</time>
      </trkpt>
      <trkpt lat="41.8307996448" lon="-7.3725099675">
        <ele>540.86</ele>
        <time>2020-09-12T05:47:49Z</time>
      </trkpt>
      <trkpt lat="41.8308016565" lon="-7.3724357877">
        <ele>542.82</ele>
        <time>2020-09-12T05:47:51Z</time>
      </trkpt>
      <trkpt lat="41.8308163248" lon="-7.3722895235">
        <ele>542.61</ele>
        <time>2020-09-12T05:47:56Z</time>
      </trkpt>
      <trkpt lat="41.8308519479" lon="-7.3721361347">
        <ele>544.71</ele>
        <time>2020-09-12T05:48:01Z</time>
      </trkpt>
      <trkpt lat="41.8309117947" lon="-7.3716732021">
        <ele>546.44</ele>
        <time>2020-09-12T05:48:03Z</time>
      </trkpt>
      <trkpt lat="41.8309257925" lon="-7.3711329885">
        <ele>548.6</ele>
        <time>2020-09-12T05:48:06Z</time>
      </trkpt>
      <trkpt lat="41.8309190031" lon="-7.3709412944">
        <ele>549.81</ele>
        <time>2020-09-12T05:48:08Z</time>
      </trkpt>
      <trkpt lat="41.8308737408" lon="-7.3706704751">
        <ele>551.24</ele>
        <time>2020-09-12T05:48:10Z</time>
      </trkpt>
      <trkpt lat="41.8308242876" lon="-7.3704896774">
        <ele>553.82</ele>
        <time>2020-09-12T05:48:14Z</time>
      </trkpt>
      <trkpt lat="41.8307459168" lon="-7.3703217879">
        <ele>553.8</ele>
        <time>2020-09-12T05:48:17Z</time>
      </trkpt>
      <trkpt lat="41.8305404764" lon="-7.3700221349">
        <ele>556.97</ele>
        <time>2020-09-12T05:48:20Z</time>
      </trkpt>
      <trkpt lat="41.8303735089" lon="-7.3697463702">
        <ele>558.66</ele>
        <time>2020-09-12T05:48:22Z</time>
      </trkpt>
      <trkpt lat="41.8302513007" lon="-7.3694181349">
        <ele>561.74</ele>
        <time>2020-09-12T05:48:25Z</time>
      </trkpt>
      <trkpt lat="41.8301799707" lon="-7.3691955116">
        <ele>561.81</ele>
        <time>2020-09-12T05:48:26Z</time>
      </trkpt>
      <trkpt lat="41.8300722633" lon="-7.3688562959">
        <ele>563.71</ele>
        <time>2020-09-12T05:48:28Z</time>
      </trkpt>
      <trkpt lat="41.8300321978" lon="-7.3687407095">
        <ele>567.01</ele>
        <time>2020-09-12T05:48:31Z</time>
      </trkpt>
      <trkpt lat="41.8299579341" lon="-7.3685059324">
        <ele>571.07</ele>
        <time>2020-09-12T05:48:33Z</time>
      </trkpt>
      <trkpt lat="41.82986347" lon="-7.368146684">
        <ele>574.72</ele>
        <time>2020-09-12T05:48:35Z</time>
      </trkpt>
      <trkpt lat="41.8297879491" lon="-7.3679175228">
        <ele>579.09</ele>
        <time>2020-09-12T05:48:38Z</time>
      </trkpt>
      <trkpt lat="41.8297191337" lon="-7.3677028622">
        <ele>579.09</ele>
        <time>2020-09-12T05:48:39Z</time>
      </trkpt>
      <trkpt lat="41.829616623" lon="-7.3673622217">
        <ele>582.66</ele>
        <time>2020-09-12T05:48:41Z</time>
      </trkpt>
      <trkpt lat="41.8295838498" lon="-7.3672448751">
        <ele>585.6</ele>
        <time>2020-09-12T05:48:44Z</time>
      </trkpt>
      <trkpt lat="41.8295288645" lon="-7.3670292087">
        <ele>586.85</ele>
        <time>2020-09-12T05:48:47Z</time>
      </trkpt>
      <trkpt lat="41.8294356577" lon="-7.3666893225">
        <ele>590.16</ele>
        <time>2020-09-12T05:48:50Z</time>
      </trkpt>
      <trkpt lat="41.829325268" lon="-7.3663200997">
        <ele>590.12</ele>
        <time>2020-09-12T05:48:51Z</time>
      </trkpt>
      <trkpt lat="41.8291972764" lon="-7.3659408186">
        <ele>594.86</ele>
        <time>2020-09-12T05:48:54Z</time>
      </trkpt>
      <trkpt lat="41.8291443028" lon="-7.3658127431">
        <ele>598.1</ele>
        <time>2020-09-12T05:48:55Z</time>
      </trkpt>
      <trkpt lat="41.8289262895" lon="-7.3655206338">
        <ele>601.24</ele>
        <time>2020-09-12T05:48:58Z</time>
      </trkpt>
      <trkpt lat="41.8288472481" lon="-7.3654605355">
        <ele>600.83</ele>
        <time>2020-09-12T05:49:01Z</time>
      </trkpt>
      <trkpt lat="41.8286941107" lon="-7.36526113">
        <ele>607.08</ele>
        <time>2020-09-12T05:49:04Z</time>
      </trkpt>
      <trkpt lat="41.8286490161" lon="-7.3648765683">
        <ele>610.3</ele>
        <time>2020-09-12T05:49:07Z</time>
      </trkpt>
      <trkpt lat="41.8286313303" lon="-7.3644586466">
        <ele>612.76</ele>
        <time>2020-09-12T05:49:08Z</time>
      </trkpt>
      <trkpt lat="41.8285998143" lon="-7.3640403058">
        <ele>615.05</ele>
        <time>2020-09-12T05:49:11Z</time>
      </trkpt>
      <trkpt lat="41.8285937794" lon="-7.3639112245">
        <ele>619.34</ele>
        <time>2020-09-12T05:49:12Z</time>
      </trkpt>
      <trkpt lat="41.8286269717" lon="-7.3635410797">
        <ele>626.31</ele>
        <time>2020-09-12T05:49:17Z</time>
      </trkpt>
      <trkpt lat="41.8286534585" lon="-7.3634377308">
        <ele>630.6</ele>
        <time>2020-09-12T05:49:20Z</time>
      </trkpt>
      <trkpt lat="41.8288531154" lon="-7.3629552685">
        <ele>634.12</ele>
        <time>2020-09-12T05:49:23Z</time>
      </trkpt>
      <trkpt lat="41.8289418798" lon="-7.3626888916">
        <ele>635.1</ele>
        <time>2020-09-12T05:49:25Z</time>
      </trkpt>
      <trkpt lat="41.8290075101" lon="-7.36253215">
        <ele>635.02</ele>
        <time>2020-09-12T05:49:27Z</time>
      </trkpt>
      <trkpt lat="41.829083031" lon="-7.3624980357">
        <ele>636.33</ele>
        <time>2020-09-12T05:49:29Z</time>
      </trkpt>
      <trkpt lat="41.8291966897" lon="-7.3624815233">
        <ele>638.86</ele>
        <time>2020-09-12T05:49:31Z</time>
      </trkpt>
      <trkpt lat="41.8293070793" lon="-7.3624363448">
        <ele>643.33</ele>
        <time>2020-09-12T05:49:36Z</time>
      </trkpt>
      <trkpt lat="41.8293798342" lon="-7.3623785097">
        <ele>644.43</ele>
        <time>2020-09-12T05:49:37Z</time>
      </trkpt>
      <trkpt lat="41.8295361567" lon="-7.3620873224">
        <ele>644.42</ele>
        <time>2020-09-12T05:49:39Z</time>
      </trkpt>
      <trkpt lat="41.8295507412" lon="-7.3620206863">
        <ele>645.8</ele>
        <time>2020-09-12T05:49:41Z</time>
      </trkpt>
      <trkpt lat="41.829576306" lon="-7.3618845642">
        <ele>645.49</ele>
        <time>2020-09-12T05:49:49Z</time>
      </trkpt>
      <trkpt lat="41.8296158686" lon="-7.361757746">
        <ele>647.07</ele>
        <time>2020-09-12T05:49:53Z</time>
      </trkpt>
      <trkpt lat="41.83007285" lon="-7.3611102439">
        <ele>649.58</ele>
        <time>2020-09-12T05:49:55Z</time>
      </trkpt>
      <trkpt lat="41.8303183559" lon="-7.3607168812">
        <ele>652.22</ele>
        <time>2020-09-12T05:49:58Z</time>
      </trkpt>
      <trkpt lat="41.8304474372" lon="-7.3605268635">
        <ele>654.09</ele>
        <time>2020-09-12T05:50:00Z</time>
      </trkpt>
      <trkpt lat="41.8306802027" lon="-7.3602811061">
        <ele>657.27</ele>
        <time>2020-09-12T05:50:02Z</time>
      </trkpt>
      <trkpt lat="41.8308404647" lon="-7.3601224367">
        <ele>657.28</ele>
        <time>2020-09-12T05:50:03Z</time>
      </trkpt>
      <trkpt lat="41.8309864774" lon="-7.3599665333">
        <ele>658.68</ele>
        <time>2020-09-12T05:50:08Z</time>
      </trkpt>
      <trkpt lat="41.8310551252" lon="-7.3598901741">
        <ele>659.5</ele>
        <time>2020-09-12T05:50:12Z</time>
      </trkpt>
      <trkpt lat="41.8312383536" lon="-7.359386757">
        <ele>654.86</ele>
        <time>2020-09-12T05:50:15Z</time>
      </trkpt>
      <trkpt lat="41.8312892318" lon="-7.3589069769">
        <ele>653.84</ele>
        <time>2020-09-12T05:50:18Z</time>
      </trkpt>
      <trkpt lat="41.831324352" lon="-7.3584235087">
        <ele>660.18</ele>
        <time>2020-09-12T05:50:22Z</time>
      </trkpt>
      <trkpt lat="41.8313575443" lon="-7.3579699639">
        <ele>662.05</ele>
        <time>2020-09-12T05:50:25Z</time>
      </trkpt>
      <trkpt lat="41.8315113522" lon="-7.3575595859">
        <ele>663.87</ele>
        <time>2020-09-12T05:50:28Z</time>
      </trkpt>
      <trkpt lat="41.8316961732" lon="-7.357270075">
        <ele>665.79</ele>
        <time>2020-09-12T05:50:31Z</time>
      </trkpt>
      <trkpt lat="41.8318164535" lon="-7.3569441028">
        <ele>667.25</ele>
        <time>2020-09-12T05:50:33Z</time>
      </trkpt>
      <trkpt lat="41.8318845145" lon="-7.3565623909">
        <ele>670.06</ele>
        <time>2020-09-12T05:50:35Z</time>
      </trkpt>
      <trkpt lat="41.8319563475" lon="-7.3563162144">
        <ele>672.86</ele>
        <time>2020-09-12T05:50:40Z</time>
      </trkpt>
      <trkpt lat="41.8320573494" lon="-7.356098704">
        <ele>673.81</ele>
        <time>2020-09-12T05:50:46Z</time>
      </trkpt>
      <trkpt lat="41.8323366344" lon="-7.3556207679">
        <ele>676.67</ele>
        <time>2020-09-12T05:50:50Z</time>
      </trkpt>
      <trkpt lat="41.8326647859" lon="-7.3550005071">
        <ele>677.55</ele>
        <time>2020-09-12T05:50:55Z</time>
      </trkpt>
      <trkpt lat="41.8326655403" lon="-7.3546023667">
        <ele>680.51</ele>
        <time>2020-09-12T05:50:57Z</time>
      </trkpt>
      <trkpt lat="41.8324602675" lon="-7.35410247">
        <ele>683.77</ele>
        <time>2020-09-12T05:50:59Z</time>
      </trkpt>
      <trkpt lat="41.8323512189" lon="-7.3539272044">
        <ele>687.33</ele>
        <time>2020-09-12T05:51:02Z</time>
      </trkpt>
      <trkpt lat="41.83220529" lon="-7.3537355103">
        <ele>691.5</ele>
        <time>2020-09-12T05:51:05Z</time>
      </trkpt>
      <trkpt lat="41.8319767993" lon="-7.3534613382">
        <ele>696.38</ele>
        <time>2020-09-12T05:51:09Z</time>
      </trkpt>
      <trkpt lat="41.8317613006" lon="-7.3532092944">
        <ele>696.3</ele>
        <time>2020-09-12T05:51:10Z</time>
      </trkpt>
      <trkpt lat="41.8316427805" lon="-7.3527810629">
        <ele>700.86</ele>
        <time>2020-09-12T05:51:14Z</time>
      </trkpt>
      <trkpt lat="41.8316520844" lon="-7.3526551668">
        <ele>700.81</ele>
        <time>2020-09-12T05:51:15Z</time>
      </trkpt>
      <trkpt lat="41.8316919822" lon="-7.3521559406">
        <ele>703.35</ele>
        <time>2020-09-12T05:51:17Z</time>
      </trkpt>
      <trkpt lat="41.8317066506" lon="-7.3520409409">
        <ele>706.94</ele>
        <time>2020-09-12T05:51:21Z</time>
      </trkpt>
      <trkpt lat="41.8317364901" lon="-7.3518270347">
        <ele>708.6</ele>
        <time>2020-09-12T05:51:28Z</time>
      </trkpt>
      <trkpt lat="41.8316186406" lon="-7.3515377752">
        <ele>709.87</ele>
        <time>2020-09-12T05:51:29Z</time>
      </trkpt>
      <trkpt lat="41.8310639262" lon="-7.351095546">
        <ele>714.82</ele>
        <time>2020-09-12T05:51:32Z</time>
      </trkpt>
      <trkpt lat="41.830981113" lon="-7.3510253057">
        <ele>719.67</ele>
        <time>2020-09-12T05:51:35Z</time>
      </trkpt>
      <trkpt lat="41.8307841383" lon="-7.3507718369">
        <ele>719.61</ele>
        <time>2020-09-12T05:51:36Z</time>
      </trkpt>
      <trkpt lat="41.8305732496" lon="-7.3506301828">
        <ele>720.97</ele>
        <time>2020-09-12T05:51:38Z</time>
      </trkpt>
      <trkpt lat="41.8304862455" lon="-7.3506291769">
        <ele>724.05</ele>
        <time>2020-09-12T05:51:41Z</time>
      </trkpt>
      <trkpt lat="41.8302986585" lon="-7.3506584298">
        <ele>726.23</ele>
        <time>2020-09-12T05:51:42Z</time>
      </trkpt>
      <trkpt lat="41.8299943954" lon="-7.3507338669">
        <ele>732.6</ele>
        <time>2020-09-12T05:51:45Z</time>
      </trkpt>
      <trkpt lat="41.8298937287" lon="-7.3507682327">
        <ele>736.09</ele>
        <time>2020-09-12T05:51:47Z</time>
      </trkpt>
      <trkpt lat="41.8296279386" lon="-7.3507927917">
        <ele>738.89</ele>
        <time>2020-09-12T05:51:50Z</time>
      </trkpt>
      <trkpt lat="41.8294913135" lon="-7.3507435899">
        <ele>740.23</ele>
        <time>2020-09-12T05:51:51Z</time>
      </trkpt>
      <trkpt lat="41.8293013796" lon="-7.3506419174">
        <ele>743.87</ele>
        <time>2020-09-12T05:51:55Z</time>
      </trkpt>
      <trkpt lat="41.8292375095" lon="-7.3506111559">
        <ele>743.83</ele>
        <time>2020-09-12T05:51:56Z</time>
      </trkpt>
      <trkpt lat="41.8292212486" lon="-7.3504802305">
        <ele>740.77</ele>
        <time>2020-09-12T05:51:58Z</time>
      </trkpt>
      <trkpt lat="41.8292760663" lon="-7.3504728545">
        <ele>740.7</ele>
        <time>2020-09-12T05:51:59Z</time>
      </trkpt>
      <trkpt lat="41.8294298742" lon="-7.3504752014">
        <ele>740.49</ele>
        <time>2020-09-12T05:52:00Z</time>
      </trkpt>
      <trkpt lat="41.8295174651" lon="-7.3504752852">
        <ele>739.1</ele>
        <time>2020-09-12T05:52:02Z</time>
      </trkpt>
      <trkpt lat="41.8296068162" lon="-7.350470759">
        <ele>734.04</ele>
        <time>2020-09-12T05:52:05Z</time>
      </trkpt>
      <trkpt lat="41.8297877815" lon="-7.3504110798">
        <ele>732.24</ele>
        <time>2020-09-12T05:52:07Z</time>
      </trkpt>
      <trkpt lat="41.8300690781" lon="-7.3501005303">
        <ele>742.41</ele>
        <time>2020-09-12T05:52:42Z</time>
      </trkpt>
      <trkpt lat="41.8302272446" lon="-7.3498114385">
        <ele>743.15</ele>
        <time>2020-09-12T05:52:45Z</time>
      </trkpt>
      <trkpt lat="41.8301992491" lon="-7.349769529">
        <ele>747.66</ele>
        <time>2020-09-12T05:52:50Z</time>
      </trkpt>
      <trkpt lat="41.8301865086" lon="-7.349683363">
        <ele>747.72</ele>
        <time>2020-09-12T05:52:51Z</time>
      </trkpt>
      <trkpt lat="41.8302101456" lon="-7.3492976278">
        <ele>748.76</ele>
        <time>2020-09-12T05:52:52Z</time>
      </trkpt>
      <trkpt lat="41.8302168511" lon="-7.3491995595">
        <ele>753</ele>
        <time>2020-09-12T05:52:55Z</time>
      </trkpt>
      <trkpt lat="41.830225233" lon="-7.3490912654">
        <ele>757.05</ele>
        <time>2020-09-12T05:52:58Z</time>
      </trkpt>
      <trkpt lat="41.8303032685" lon="-7.3487830628">
        <ele>761.42</ele>
        <time>2020-09-12T05:53:00Z</time>
      </trkpt>
      <trkpt lat="41.8304305058" lon="-7.3484893609">
        <ele>764.55</ele>
        <time>2020-09-12T05:53:02Z</time>
      </trkpt>
      <trkpt lat="41.8305176776" lon="-7.3482814897">
        <ele>768.02</ele>
        <time>2020-09-12T05:53:04Z</time>
      </trkpt>
      <trkpt lat="41.8306009099" lon="-7.3480736185">
        <ele>770.49</ele>
        <time>2020-09-12T05:53:06Z</time>
      </trkpt>
      <trkpt lat="41.8306802865" lon="-7.3478665855">
        <ele>774.15</ele>
        <time>2020-09-12T05:53:08Z</time>
      </trkpt>
      <trkpt lat="41.8307645246" lon="-7.3476372566">
        <ele>778.98</ele>
        <time>2020-09-12T05:53:11Z</time>
      </trkpt>
      <trkpt lat="41.8308564741" lon="-7.3474063352">
        <ele>782.69</ele>
        <time>2020-09-12T05:53:13Z</time>
      </trkpt>
      <trkpt lat="41.8310213462" lon="-7.3470848892">
        <ele>786.74</ele>
        <time>2020-09-12T05:53:15Z</time>
      </trkpt>
      <trkpt lat="41.8311163131" lon="-7.3468672112">
        <ele>788.59</ele>
        <time>2020-09-12T05:53:16Z</time>
      </trkpt>
      <trkpt lat="41.8311699573" lon="-7.3466618545">
        <ele>790.76</ele>
        <time>2020-09-12T05:53:20Z</time>
      </trkpt>
      <trkpt lat="41.831187224" lon="-7.3465576675">
        <ele>793.12</ele>
        <time>2020-09-12T05:53:21Z</time>
      </trkpt>
      <trkpt lat="41.8313611485" lon="-7.3461645562">
        <ele>798.61</ele>
        <time>2020-09-12T05:53:24Z</time>
      </trkpt>
      <trkpt lat="41.8314343225" lon="-7.346077133">
        <ele>801.51</ele>
        <time>2020-09-12T05:53:25Z</time>
      </trkpt>
      <trkpt lat="41.8316604663" lon="-7.3458382487">
        <ele>805.5</ele>
        <time>2020-09-12T05:53:29Z</time>
      </trkpt>
      <trkpt lat="41.8317300361" lon="-7.3457725346">
        <ele>806.61</ele>
        <time>2020-09-12T05:53:30Z</time>
      </trkpt>
      <trkpt lat="41.8320641387" lon="-7.3456432857">
        <ele>811.75</ele>
        <time>2020-09-12T05:53:32Z</time>
      </trkpt>
      <trkpt lat="41.8321648054" lon="-7.3456520867">
        <ele>816.11</ele>
        <time>2020-09-12T05:53:34Z</time>
      </trkpt>
      <trkpt lat="41.8323362991" lon="-7.3456772324">
        <ele>817.94</ele>
        <time>2020-09-12T05:53:35Z</time>
      </trkpt>
      <trkpt lat="41.8324699905" lon="-7.3457154538">
        <ele>821.25</ele>
        <time>2020-09-12T05:53:40Z</time>
      </trkpt>
      <trkpt lat="41.8325269874" lon="-7.3457355704">
        <ele>823.51</ele>
        <time>2020-09-12T05:53:43Z</time>
      </trkpt>
      <trkpt lat="41.8329115491" lon="-7.3457732052">
        <ele>827.61</ele>
        <time>2020-09-12T05:53:46Z</time>
      </trkpt>
      <trkpt lat="41.8332139682" lon="-7.3457429465">
        <ele>830.28</ele>
        <time>2020-09-12T05:53:47Z</time>
      </trkpt>
      <trkpt lat="41.833522087" lon="-7.3456830997">
        <ele>832.46</ele>
        <time>2020-09-12T05:53:49Z</time>
      </trkpt>
      <trkpt lat="41.8336178921" lon="-7.3456516676">
        <ele>833.72</ele>
        <time>2020-09-12T05:53:51Z</time>
      </trkpt>
      <trkpt lat="41.8337799981" lon="-7.345558377">
        <ele>838.66</ele>
        <time>2020-09-12T05:53:56Z</time>
      </trkpt>
      <trkpt lat="41.8339332193" lon="-7.3453961033">
        <ele>842.24</ele>
        <time>2020-09-12T05:53:58Z</time>
      </trkpt>
      <trkpt lat="41.8342814874" lon="-7.3448804487">
        <ele>846.51</ele>
        <time>2020-09-12T05:54:00Z</time>
      </trkpt>
      <trkpt lat="41.8343836628" lon="-7.3446614295">
        <ele>851.55</ele>
        <time>2020-09-12T05:54:02Z</time>
      </trkpt>
      <trkpt lat="41.8344792165" lon="-7.3444322683">
        <ele>855.35</ele>
        <time>2020-09-12T05:54:05Z</time>
      </trkpt>
      <trkpt lat="41.834547529" lon="-7.34420361">
        <ele>858.98</ele>
        <time>2020-09-12T05:54:07Z</time>
      </trkpt>
      <trkpt lat="41.8346720003" lon="-7.3439281806">
        <ele>858.99</ele>
        <time>2020-09-12T05:54:08Z</time>
      </trkpt>
      <trkpt lat="41.8347831443" lon="-7.3437703494">
        <ele>862.93</ele>
        <time>2020-09-12T05:54:11Z</time>
      </trkpt>
      <trkpt lat="41.8348349445" lon="-7.3436911404">
        <ele>870.54</ele>
        <time>2020-09-12T05:54:14Z</time>
      </trkpt>
      <trkpt lat="41.8349666242" lon="-7.3433748912">
        <ele>875.88</ele>
        <time>2020-09-12T05:54:16Z</time>
      </trkpt>
      <trkpt lat="41.8350801151" lon="-7.3430351727">
        <ele>877.81</ele>
        <time>2020-09-12T05:54:18Z</time>
      </trkpt>
      <trkpt lat="41.8351356871" lon="-7.342930818">
        <ele>878.17</ele>
        <time>2020-09-12T05:54:47Z</time>
      </trkpt>
      <trkpt lat="41.8351602461" lon="-7.3428994697">
        <ele>879.27</ele>
        <time>2020-09-12T05:56:20Z</time>
      </trkpt>
      <trkpt lat="41.8351346813" lon="-7.3429206759">
        <ele>879.32</ele>
        <time>2020-09-12T05:56:42Z</time>
      </trkpt>
      <trkpt lat="41.8351220246" lon="-7.3429346737">
        <ele>879.29</ele>
        <time>2020-09-12T05:56:50Z</time>
      </trkpt>
      <trkpt lat="41.8351256289" lon="-7.3429290578">
        <ele>881.33</ele>
        <time>2020-09-12T05:56:58Z</time>
      </trkpt>
      <trkpt lat="41.835306678" lon="-7.3425586615">
        <ele>882.24</ele>
        <time>2020-09-12T05:57:00Z</time>
      </trkpt>
      <trkpt lat="41.8357831053" lon="-7.3416234087">
        <ele>884.17</ele>
        <time>2020-09-12T05:57:02Z</time>
      </trkpt>
      <trkpt lat="41.8359102588" lon="-7.3413370829">
        <ele>886.12</ele>
        <time>2020-09-12T05:57:05Z</time>
      </trkpt>
      <trkpt lat="41.8360685091" lon="-7.3411029764">
        <ele>888.79</ele>
        <time>2020-09-12T05:57:07Z</time>
      </trkpt>
      <trkpt lat="41.8363540806" lon="-7.3408687022">
        <ele>892.24</ele>
        <time>2020-09-12T05:57:09Z</time>
      </trkpt>
      <trkpt lat="41.8365653884" lon="-7.3408056702">
        <ele>895.37</ele>
        <time>2020-09-12T05:57:11Z</time>
      </trkpt>
      <trkpt lat="41.8367488682" lon="-7.3407866433">
        <ele>897.14</ele>
        <time>2020-09-12T05:57:12Z</time>
      </trkpt>
      <trkpt lat="41.836839309" lon="-7.340740459">
        <ele>897.02</ele>
        <time>2020-09-12T05:57:13Z</time>
      </trkpt>
      <trkpt lat="41.8368506245" lon="-7.3406921793">
        <ele>896.94</ele>
        <time>2020-09-12T05:57:14Z</time>
      </trkpt>
      <trkpt lat="41.8368330225" lon="-7.3406259622">
        <ele>894.14</ele>
        <time>2020-09-12T05:57:15Z</time>
      </trkpt>
      <trkpt lat="41.8367907777" lon="-7.3405365273">
        <ele>889.58</ele>
        <time>2020-09-12T05:57:17Z</time>
      </trkpt>
      <trkpt lat="41.8367332779" lon="-7.3404268082">
        <ele>888.36</ele>
        <time>2020-09-12T05:57:19Z</time>
      </trkpt>
      <trkpt lat="41.8365828227" lon="-7.3401657119">
        <ele>891.28</ele>
        <time>2020-09-12T05:57:20Z</time>
      </trkpt>
      <trkpt lat="41.8363881111" lon="-7.339906795">
        <ele>895.71</ele>
        <time>2020-09-12T05:57:22Z</time>
      </trkpt>
      <trkpt lat="41.8362804875" lon="-7.3398074694">
        <ele>897.37</ele>
        <time>2020-09-12T05:57:23Z</time>
      </trkpt>
      <trkpt lat="41.8360807467" lon="-7.3396593612">
        <ele>898.71</ele>
        <time>2020-09-12T05:57:24Z</time>
      </trkpt>
      <trkpt lat="41.8360035494" lon="-7.3395750392">
        <ele>898.72</ele>
        <time>2020-09-12T05:57:25Z</time>
      </trkpt>
      <trkpt lat="41.8359461334" lon="-7.3394776415">
        <ele>898.56</ele>
        <time>2020-09-12T05:57:26Z</time>
      </trkpt>
      <trkpt lat="41.8359079119" lon="-7.3393701855">
        <ele>901.56</ele>
        <time>2020-09-12T05:57:27Z</time>
      </trkpt>
      <trkpt lat="41.8358877115" lon="-7.3392631486">
        <ele>902.34</ele>
        <time>2020-09-12T05:57:28Z</time>
      </trkpt>
      <trkpt lat="41.8358858675" lon="-7.3391733784">
        <ele>902.28</ele>
        <time>2020-09-12T05:57:29Z</time>
      </trkpt>
      <trkpt lat="41.8359016255" lon="-7.3391043115">
        <ele>905.44</ele>
        <time>2020-09-12T05:57:31Z</time>
      </trkpt>
      <trkpt lat="41.8359328061" lon="-7.3390548583">
        <ele>905.56</ele>
        <time>2020-09-12T05:57:33Z</time>
      </trkpt>
      <trkpt lat="41.8360409327" lon="-7.3390274495">
        <ele>902.95</ele>
        <time>2020-09-12T05:57:37Z</time>
      </trkpt>
      <trkpt lat="41.8362058885" lon="-7.3390348256">
        <ele>898.69</ele>
        <time>2020-09-12T05:57:41Z</time>
      </trkpt>
      <trkpt lat="41.8366465252" lon="-7.3387925047">
        <ele>898.66</ele>
        <time>2020-09-12T05:57:42Z</time>
      </trkpt>
      <trkpt lat="41.8370536342" lon="-7.3382565659">
        <ele>903.52</ele>
        <time>2020-09-12T05:57:46Z</time>
      </trkpt>
      <trkpt lat="41.8371520378" lon="-7.3380876705">
        <ele>908.12</ele>
        <time>2020-09-12T05:57:48Z</time>
      </trkpt>
      <trkpt lat="41.8375762459" lon="-7.33739038">
        <ele>913.4</ele>
        <time>2020-09-12T05:57:50Z</time>
      </trkpt>
      <trkpt lat="41.8377781659" lon="-7.3370269407">
        <ele>918.41</ele>
        <time>2020-09-12T05:57:52Z</time>
      </trkpt>
      <trkpt lat="41.8380163796" lon="-7.3367237672">
        <ele>922.01</ele>
        <time>2020-09-12T05:57:54Z</time>
      </trkpt>
      <trkpt lat="41.8382991012" lon="-7.3364967853">
        <ele>929.95</ele>
        <time>2020-09-12T05:57:56Z</time>
      </trkpt>
      <trkpt lat="41.8385940604" lon="-7.336297296">
        <ele>934.26</ele>
        <time>2020-09-12T05:57:59Z</time>
      </trkpt>
      <trkpt lat="41.8388235569" lon="-7.3360719904">
        <ele>938.12</ele>
        <time>2020-09-12T05:58:01Z</time>
      </trkpt>
      <trkpt lat="41.8390883412" lon="-7.3356170207">
        <ele>945.45</ele>
        <time>2020-09-12T05:58:05Z</time>
      </trkpt>
      <trkpt lat="41.8392766826" lon="-7.3352978379">
        <ele>948.67</ele>
        <time>2020-09-12T05:58:06Z</time>
      </trkpt>
      <trkpt lat="41.8395653553" lon="-7.3345533572">
        <ele>952.4</ele>
        <time>2020-09-12T05:58:09Z</time>
      </trkpt>
      <trkpt lat="41.8396325782" lon="-7.3343815282">
        <ele>955.69</ele>
        <time>2020-09-12T05:58:11Z</time>
      </trkpt>
      <trkpt lat="41.8397651799" lon="-7.3337978125">
        <ele>959.23</ele>
        <time>2020-09-12T05:58:12Z</time>
      </trkpt>
      <trkpt lat="41.8397968635" lon="-7.3333767056">
        <ele>966.79</ele>
        <time>2020-09-12T05:58:14Z</time>
      </trkpt>
      <trkpt lat="41.8398003001" lon="-7.3331855983">
        <ele>968.59</ele>
        <time>2020-09-12T05:58:15Z</time>
      </trkpt>
      <trkpt lat="41.8397772498" lon="-7.3328426946">
        <ele>971.95</ele>
        <time>2020-09-12T05:58:18Z</time>
      </trkpt>
      <trkpt lat="41.8397618271" lon="-7.3326898925">
        <ele>974.64</ele>
        <time>2020-09-12T05:58:21Z</time>
      </trkpt>
      <trkpt lat="41.8398166448" lon="-7.332290411">
        <ele>981.03</ele>
        <time>2020-09-12T05:58:23Z</time>
      </trkpt>
      <trkpt lat="41.8400231749" lon="-7.331893947">
        <ele>989.78</ele>
        <time>2020-09-12T05:58:26Z</time>
      </trkpt>
      <trkpt lat="41.8401797488" lon="-7.3316715751">
        <ele>989.74</ele>
        <time>2020-09-12T05:58:27Z</time>
      </trkpt>
      <trkpt lat="41.8404072337" lon="-7.3315471876">
        <ele>989.74</ele>
        <time>2020-09-12T05:58:28Z</time>
      </trkpt>
      <trkpt lat="41.8404980097" lon="-7.3315808829">
        <ele>986.35</ele>
        <time>2020-09-12T05:58:31Z</time>
      </trkpt>
      <trkpt lat="41.8405975029" lon="-7.3316482734">
        <ele>992.12</ele>
        <time>2020-09-12T05:58:37Z</time>
      </trkpt>
      <trkpt lat="41.8409445137" lon="-7.3319311626">
        <ele>998.66</ele>
        <time>2020-09-12T05:58:40Z</time>
      </trkpt>
      <trkpt lat="41.8417593185" lon="-7.3325242661">
        <ele>1002.46</ele>
        <time>2020-09-12T05:58:42Z</time>
      </trkpt>
      <trkpt lat="41.8420220073" lon="-7.3329341412">
        <ele>1006.43</ele>
        <time>2020-09-12T05:58:44Z</time>
      </trkpt>
      <trkpt lat="41.8421468977" lon="-7.3332545813">
        <ele>1006.38</ele>
        <time>2020-09-12T05:58:45Z</time>
      </trkpt>
      <trkpt lat="41.8422373384" lon="-7.3335596826">
        <ele>1010.21</ele>
        <time>2020-09-12T05:58:47Z</time>
      </trkpt>
      <trkpt lat="41.8422447145" lon="-7.3337187711">
        <ele>1010.22</ele>
        <time>2020-09-12T05:58:48Z</time>
      </trkpt>
      <trkpt lat="41.8422230892" lon="-7.3340463359">
        <ele>1010.97</ele>
        <time>2020-09-12T05:58:52Z</time>
      </trkpt>
      <trkpt lat="41.8422197364" lon="-7.3342081904">
        <ele>1012.34</ele>
        <time>2020-09-12T05:58:56Z</time>
      </trkpt>
      <trkpt lat="41.8423358258" lon="-7.3347966839">
        <ele>1016.48</ele>
        <time>2020-09-12T05:58:59Z</time>
      </trkpt>
      <trkpt lat="41.8424794916" lon="-7.3353227321">
        <ele>1018.92</ele>
        <time>2020-09-12T05:59:02Z</time>
      </trkpt>
      <trkpt lat="41.8425860256" lon="-7.3356800526">
        <ele>1021.79</ele>
        <time>2020-09-12T05:59:05Z</time>
      </trkpt>
      <trkpt lat="41.8427458685" lon="-7.3360781092">
        <ele>1027.17</ele>
        <time>2020-09-12T05:59:09Z</time>
      </trkpt>
      <trkpt lat="41.8429915421" lon="-7.3363929335">
        <ele>1028.62</ele>
        <time>2020-09-12T05:59:11Z</time>
      </trkpt>
      <trkpt lat="41.8433713261" lon="-7.3365531955">
        <ele>1025.57</ele>
        <time>2020-09-12T05:59:18Z</time>
      </trkpt>
      <trkpt lat="41.8435331807" lon="-7.3365295585">
        <ele>1025.5</ele>
        <time>2020-09-12T05:59:19Z</time>
      </trkpt>
      <trkpt lat="41.8443539366" lon="-7.3360294104">
        <ele>1028.38</ele>
        <time>2020-09-12T05:59:20Z</time>
      </trkpt>
      <trkpt lat="41.8444906455" lon="-7.3359113932">
        <ele>1032.11</ele>
        <time>2020-09-12T05:59:23Z</time>
      </trkpt>
      <trkpt lat="41.8446223252" lon="-7.3357973155">
        <ele>1033.29</ele>
        <time>2020-09-12T05:59:24Z</time>
      </trkpt>
      <trkpt lat="41.8448802363" lon="-7.335475618">
        <ele>1038.03</ele>
        <time>2020-09-12T05:59:26Z</time>
      </trkpt>
      <trkpt lat="41.84493782" lon="-7.335357517">
        <ele>1041.28</ele>
        <time>2020-09-12T05:59:29Z</time>
      </trkpt>
      <trkpt lat="41.8450187054" lon="-7.3351612967">
        <ele>1037.44</ele>
        <time>2020-09-12T05:59:32Z</time>
      </trkpt>
      <trkpt lat="41.845129095" lon="-7.3350017052">
        <ele>1037.48</ele>
        <time>2020-09-12T05:59:34Z</time>
      </trkpt>
      <trkpt lat="41.8453457672" lon="-7.3348639067">
        <ele>1037.48</ele>
        <time>2020-09-12T05:59:35Z</time>
      </trkpt>
      <trkpt lat="41.8454900198" lon="-7.334749829">
        <ele>1037.51</ele>
        <time>2020-09-12T05:59:36Z</time>
      </trkpt>
      <trkpt lat="41.8455508724" lon="-7.3346734699">
        <ele>1033.77</ele>
        <time>2020-09-12T05:59:38Z</time>
      </trkpt>
      <trkpt lat="41.8456012476" lon="-7.3345785029">
        <ele>1033.79</ele>
        <time>2020-09-12T05:59:39Z</time>
      </trkpt>
      <trkpt lat="41.8456999864" lon="-7.3343449831">
        <ele>1037.45</ele>
        <time>2020-09-12T05:59:41Z</time>
      </trkpt>
      <trkpt lat="41.845747428" lon="-7.3342247866">
        <ele>1037.37</ele>
        <time>2020-09-12T05:59:42Z</time>
      </trkpt>
      <trkpt lat="41.8458373658" lon="-7.3340012413">
        <ele>1033.78</ele>
        <time>2020-09-12T05:59:46Z</time>
      </trkpt>
      <trkpt lat="41.845872486" lon="-7.3338909354">
        <ele>1029.75</ele>
        <time>2020-09-12T05:59:48Z</time>
      </trkpt>
      <trkpt lat="41.8460137211" lon="-7.3334119935">
        <ele>1028.68</ele>
        <time>2020-09-12T05:59:50Z</time>
      </trkpt>
      <trkpt lat="41.8460703827" lon="-7.3331336305">
        <ele>1026.63</ele>
        <time>2020-09-12T05:59:51Z</time>
      </trkpt>
      <trkpt lat="41.8461033236" lon="-7.3328547645">
        <ele>1025.13</ele>
        <time>2020-09-12T05:59:52Z</time>
      </trkpt>
      <trkpt lat="41.8461065926" lon="-7.3327171337">
        <ele>1023.49</ele>
        <time>2020-09-12T05:59:53Z</time>
      </trkpt>
      <trkpt lat="41.8461010605" lon="-7.3325795867">
        <ele>1022.68</ele>
        <time>2020-09-12T05:59:54Z</time>
      </trkpt>
      <trkpt lat="41.8460865598" lon="-7.3324445542">
        <ele>1021.64</ele>
        <time>2020-09-12T05:59:55Z</time>
      </trkpt>
      <trkpt lat="41.8460622523" lon="-7.3323129583">
        <ele>1021.81</ele>
        <time>2020-09-12T05:59:56Z</time>
      </trkpt>
      <trkpt lat="41.8460280541" lon="-7.332183877">
        <ele>1020.9</ele>
        <time>2020-09-12T05:59:57Z</time>
      </trkpt>
      <trkpt lat="41.8459894974" lon="-7.3320591543">
        <ele>1019.74</ele>
        <time>2020-09-12T05:59:58Z</time>
      </trkpt>
      <trkpt lat="41.8459541257" lon="-7.3319327552">
        <ele>1018.05</ele>
        <time>2020-09-12T06:00:00Z</time>
      </trkpt>
      <trkpt lat="41.8459283933" lon="-7.331798058">
        <ele>1018.12</ele>
        <time>2020-09-12T06:00:03Z</time>
      </trkpt>
      <trkpt lat="41.8458843045" lon="-7.3315032665">
        <ele>1014.88</ele>
        <time>2020-09-12T06:00:05Z</time>
      </trkpt>
      <trkpt lat="41.845837282" lon="-7.3310860991">
        <ele>1014.93</ele>
        <time>2020-09-12T06:00:06Z</time>
      </trkpt>
      <trkpt lat="41.8458553869" lon="-7.3307681736">
        <ele>1012.97</ele>
        <time>2020-09-12T06:00:12Z</time>
      </trkpt>
      <trkpt lat="41.8458692171" lon="-7.3306074087">
        <ele>1008.93</ele>
        <time>2020-09-12T06:00:15Z</time>
      </trkpt>
      <trkpt lat="41.8459436484" lon="-7.3297268897">
        <ele>1007.81</ele>
        <time>2020-09-12T06:00:17Z</time>
      </trkpt>
      <trkpt lat="41.8459231965" lon="-7.3292799667">
        <ele>1003.44</ele>
        <time>2020-09-12T06:00:20Z</time>
      </trkpt>
      <trkpt lat="41.8458929379" lon="-7.3289881088">
        <ele>1003.45</ele>
        <time>2020-09-12T06:00:21Z</time>
      </trkpt>
      <trkpt lat="41.8458301574" lon="-7.3285394255">
        <ele>999.71</ele>
        <time>2020-09-12T06:00:24Z</time>
      </trkpt>
      <trkpt lat="41.8458064366" lon="-7.3283996992">
        <ele>998.11</ele>
        <time>2020-09-12T06:00:25Z</time>
      </trkpt>
      <trkpt lat="41.8457557261" lon="-7.3279930931">
        <ele>994.99</ele>
        <time>2020-09-12T06:00:26Z</time>
      </trkpt>
      <trkpt lat="41.8457575701" lon="-7.32785278">
        <ele>993.78</ele>
        <time>2020-09-12T06:00:28Z</time>
      </trkpt>
      <trkpt lat="41.8457712326" lon="-7.3277115449">
        <ele>993.85</ele>
        <time>2020-09-12T06:00:29Z</time>
      </trkpt>
      <trkpt lat="41.845802078" lon="-7.3274474312">
        <ele>993.96</ele>
        <time>2020-09-12T06:00:30Z</time>
      </trkpt>
      <trkpt lat="41.8457998149" lon="-7.3273254745">
        <ele>990.31</ele>
        <time>2020-09-12T06:00:31Z</time>
      </trkpt>
      <trkpt lat="41.8457812071" lon="-7.3271988239">
        <ele>986.9</ele>
        <time>2020-09-12T06:00:33Z</time>
      </trkpt>
      <trkpt lat="41.8457569834" lon="-7.3270577565">
        <ele>986.96</ele>
        <time>2020-09-12T06:00:34Z</time>
      </trkpt>
      <trkpt lat="41.8457104638" lon="-7.3267356399">
        <ele>982.64</ele>
        <time>2020-09-12T06:00:37Z</time>
      </trkpt>
      <trkpt lat="41.8456803728" lon="-7.3265773058">
        <ele>979.02</ele>
        <time>2020-09-12T06:00:39Z</time>
      </trkpt>
      <trkpt lat="41.8455346115" lon="-7.3261155467">
        <ele>975.8</ele>
        <time>2020-09-12T06:00:41Z</time>
      </trkpt>
      <trkpt lat="41.8454081286" lon="-7.325785635">
        <ele>975.81</ele>
        <time>2020-09-12T06:00:42Z</time>
      </trkpt>
      <trkpt lat="41.8452880997" lon="-7.3254379537">
        <ele>975.81</ele>
        <time>2020-09-12T06:00:44Z</time>
      </trkpt>
      <trkpt lat="41.8452357966" lon="-7.3252803739">
        <ele>975.91</ele>
        <time>2020-09-12T06:00:45Z</time>
      </trkpt>
      <trkpt lat="41.845150888" lon="-7.324987594">
        <ele>976.03</ele>
        <time>2020-09-12T06:00:46Z</time>
      </trkpt>
      <trkpt lat="41.8451264966" lon="-7.324844515">
        <ele>972.87</ele>
        <time>2020-09-12T06:00:48Z</time>
      </trkpt>
      <trkpt lat="41.845114259" lon="-7.3246950656">
        <ele>972.88</ele>
        <time>2020-09-12T06:00:49Z</time>
      </trkpt>
      <trkpt lat="41.84510177" lon="-7.3243779782">
        <ele>973.14</ele>
        <time>2020-09-12T06:00:53Z</time>
      </trkpt>
      <trkpt lat="41.8450897839" lon="-7.3242338933">
        <ele>973.17</ele>
        <time>2020-09-12T06:00:54Z</time>
      </trkpt>
      <trkpt lat="41.8450362235" lon="-7.3238481581">
        <ele>973.2</ele>
        <time>2020-09-12T06:00:55Z</time>
      </trkpt>
      <trkpt lat="41.8449964095" lon="-7.3238068353">
        <ele>973.14</ele>
        <time>2020-09-12T06:00:56Z</time>
      </trkpt>
      <trkpt lat="41.8449348863" lon="-7.3237976152">
        <ele>970.38</ele>
        <time>2020-09-12T06:00:57Z</time>
      </trkpt>
      <trkpt lat="41.8448535819" lon="-7.3238215875">
        <ele>970.42</ele>
        <time>2020-09-12T06:00:58Z</time>
      </trkpt>
      <trkpt lat="41.8447673321" lon="-7.3238600604">
        <ele>970.55</ele>
        <time>2020-09-12T06:01:00Z</time>
      </trkpt>
      <trkpt lat="41.8446883745" lon="-7.3238975275">
        <ele>970.6</ele>
        <time>2020-09-12T06:01:05Z</time>
      </trkpt>
      <trkpt lat="41.84452652" lon="-7.3239605594">
        <ele>971.99</ele>
        <time>2020-09-12T06:01:09Z</time>
      </trkpt>
      <trkpt lat="41.8442128692" lon="-7.3236873932">
        <ele>971.99</ele>
        <time>2020-09-12T06:01:10Z</time>
      </trkpt>
      <trkpt lat="41.8440696225" lon="-7.3232341837">
        <ele>973.67</ele>
        <time>2020-09-12T06:01:11Z</time>
      </trkpt>
      <trkpt lat="41.8440355081" lon="-7.3231861554">
        <ele>973.63</ele>
        <time>2020-09-12T06:01:12Z</time>
      </trkpt>
      <trkpt lat="41.8440122902" lon="-7.3231636919">
        <ele>973.62</ele>
        <time>2020-09-12T06:01:13Z</time>
      </trkpt>
      <trkpt lat="41.843984127" lon="-7.3231541365">
        <ele>970.5</ele>
        <time>2020-09-12T06:01:15Z</time>
      </trkpt>
      <trkpt lat="41.8439345062" lon="-7.3231441621">
        <ele>968.52</ele>
        <time>2020-09-12T06:01:18Z</time>
      </trkpt>
      <trkpt lat="41.8437730707" lon="-7.3231158312">
        <ele>964.19</ele>
        <time>2020-09-12T06:01:26Z</time>
      </trkpt>
      <trkpt lat="41.8434454221" lon="-7.323038131">
        <ele>964.15</ele>
        <time>2020-09-12T06:01:27Z</time>
      </trkpt>
      <trkpt lat="41.8422432058" lon="-7.3229072895">
        <ele>964.18</ele>
        <time>2020-09-12T06:01:28Z</time>
      </trkpt>
      <trkpt lat="41.8420619052" lon="-7.3228587583">
        <ele>968.57</ele>
        <time>2020-09-12T06:01:32Z</time>
      </trkpt>
      <trkpt lat="41.84189016" lon="-7.3227767833">
        <ele>970.57</ele>
        <time>2020-09-12T06:01:33Z</time>
      </trkpt>
      <trkpt lat="41.8412704021" lon="-7.3224342987">
        <ele>971.4</ele>
        <time>2020-09-12T06:01:34Z</time>
      </trkpt>
      <trkpt lat="41.8411323521" lon="-7.3224043753">
        <ele>971.42</ele>
        <time>2020-09-12T06:01:35Z</time>
      </trkpt>
      <trkpt lat="41.8409893569" lon="-7.3224158585">
        <ele>967.87</ele>
        <time>2020-09-12T06:01:36Z</time>
      </trkpt>
      <trkpt lat="41.8408380635" lon="-7.3224679101">
        <ele>967.92</ele>
        <time>2020-09-12T06:01:37Z</time>
      </trkpt>
      <trkpt lat="41.8406853452" lon="-7.3225471191">
        <ele>970.87</ele>
        <time>2020-09-12T06:01:38Z</time>
      </trkpt>
      <trkpt lat="41.8405442778" lon="-7.3226316925">
        <ele>972.26</ele>
        <time>2020-09-12T06:01:39Z</time>
      </trkpt>
      <trkpt lat="41.8404212315" lon="-7.3226959817">
        <ele>972.25</ele>
        <time>2020-09-12T06:01:40Z</time>
      </trkpt>
      <trkpt lat="41.8403104227" lon="-7.3227198701">
        <ele>972.24</ele>
        <time>2020-09-12T06:01:41Z</time>
      </trkpt>
      <trkpt lat="41.8402046431" lon="-7.3226931319">
        <ele>967.07</ele>
        <time>2020-09-12T06:01:42Z</time>
      </trkpt>
      <trkpt lat="41.8400970194" lon="-7.3226140067">
        <ele>964.27</ele>
        <time>2020-09-12T06:01:43Z</time>
      </trkpt>
      <trkpt lat="41.8399847019" lon="-7.3224983364">
        <ele>963.52</ele>
        <time>2020-09-12T06:01:44Z</time>
      </trkpt>
      <trkpt lat="41.8398639187" lon="-7.3223701771">
        <ele>963.53</ele>
        <time>2020-09-12T06:01:45Z</time>
      </trkpt>
      <trkpt lat="41.8397288024" lon="-7.3222465441">
        <ele>967.25</ele>
        <time>2020-09-12T06:01:46Z</time>
      </trkpt>
      <trkpt lat="41.8395815324" lon="-7.3221431114">
        <ele>971.86</ele>
        <time>2020-09-12T06:01:47Z</time>
      </trkpt>
      <trkpt lat="41.8394408002" lon="-7.3220619746">
        <ele>974.97</ele>
        <time>2020-09-12T06:01:48Z</time>
      </trkpt>
      <trkpt lat="41.83932513" lon="-7.3220005352">
        <ele>976.4</ele>
        <time>2020-09-12T06:01:49Z</time>
      </trkpt>
      <trkpt lat="41.8392345216" lon="-7.321945047">
        <ele>976.4</ele>
        <time>2020-09-12T06:01:50Z</time>
      </trkpt>
      <trkpt lat="41.8391631078" lon="-7.3218748067">
        <ele>976.19</ele>
        <time>2020-09-12T06:01:51Z</time>
      </trkpt>
      <trkpt lat="41.8391103856" lon="-7.32177414">
        <ele>972.25</ele>
        <time>2020-09-12T06:01:52Z</time>
      </trkpt>
      <trkpt lat="41.839075936" lon="-7.3216360901">
        <ele>970.53</ele>
        <time>2020-09-12T06:01:53Z</time>
      </trkpt>
      <trkpt lat="41.8390512932" lon="-7.3214667756">
        <ele>966.8</ele>
        <time>2020-09-12T06:01:56Z</time>
      </trkpt>
      <trkpt lat="41.8390302546" lon="-7.3212775961">
        <ele>963.93</ele>
        <time>2020-09-12T06:01:59Z</time>
      </trkpt>
      <trkpt lat="41.8389984872" lon="-7.3206411581">
        <ele>964.01</ele>
        <time>2020-09-12T06:02:00Z</time>
      </trkpt>
      <trkpt lat="41.8390121497" lon="-7.3199428618">
        <ele>968.64</ele>
        <time>2020-09-12T06:02:01Z</time>
      </trkpt>
      <trkpt lat="41.8390016723" lon="-7.3197136167">
        <ele>971.39</ele>
        <time>2020-09-12T06:02:02Z</time>
      </trkpt>
      <trkpt lat="41.8389709108" lon="-7.3195042368">
        <ele>971.41</ele>
        <time>2020-09-12T06:02:03Z</time>
      </trkpt>
      <trkpt lat="41.8389220443" lon="-7.3193080164">
        <ele>967.46</ele>
        <time>2020-09-12T06:02:05Z</time>
      </trkpt>
      <trkpt lat="41.8388613593" lon="-7.3191092815">
        <ele>967.45</ele>
        <time>2020-09-12T06:02:06Z</time>
      </trkpt>
      <trkpt lat="41.8387298472" lon="-7.318686666">
        <ele>964.29</ele>
        <time>2020-09-12T06:02:08Z</time>
      </trkpt>
      <trkpt lat="41.8386650551" lon="-7.3184625339">
        <ele>964.2</ele>
        <time>2020-09-12T06:02:09Z</time>
      </trkpt>
      <trkpt lat="41.8385560066" lon="-7.3180117551">
        <ele>966.94</ele>
        <time>2020-09-12T06:02:10Z</time>
      </trkpt>
      <trkpt lat="41.8385209702" lon="-7.3177916463">
        <ele>966.96</ele>
        <time>2020-09-12T06:02:11Z</time>
      </trkpt>
      <trkpt lat="41.8385053799" lon="-7.3175732139">
        <ele>964.23</ele>
        <time>2020-09-12T06:02:12Z</time>
      </trkpt>
      <trkpt lat="41.8385187071" lon="-7.3173593078">
        <ele>964.27</ele>
        <time>2020-09-12T06:02:13Z</time>
      </trkpt>
      <trkpt lat="41.8385634664" lon="-7.317149844">
        <ele>964.32</ele>
        <time>2020-09-12T06:02:14Z</time>
      </trkpt>
      <trkpt lat="41.8386223912" lon="-7.3169440683">
        <ele>964.3</ele>
        <time>2020-09-12T06:02:15Z</time>
      </trkpt>
      <trkpt lat="41.8386713415" lon="-7.3167315871">
        <ele>964.31</ele>
        <time>2020-09-12T06:02:16Z</time>
      </trkpt>
      <trkpt lat="41.8387012649" lon="-7.3165061139">
        <ele>962.42</ele>
        <time>2020-09-12T06:02:17Z</time>
      </trkpt>
      <trkpt lat="41.8387105688" lon="-7.3162687384">
        <ele>961.12</ele>
        <time>2020-09-12T06:02:18Z</time>
      </trkpt>
      <trkpt lat="41.8387025222" lon="-7.3160228971">
        <ele>961.05</ele>
        <time>2020-09-12T06:02:19Z</time>
      </trkpt>
      <trkpt lat="41.8386816513" lon="-7.3157709371">
        <ele>961.12</ele>
        <time>2020-09-12T06:02:20Z</time>
      </trkpt>
      <trkpt lat="41.8386495486" lon="-7.3155262694">
        <ele>966.63</ele>
        <time>2020-09-12T06:02:21Z</time>
      </trkpt>
      <trkpt lat="41.8386060465" lon="-7.3153112736">
        <ele>967.76</ele>
        <time>2020-09-12T06:02:22Z</time>
      </trkpt>
      <trkpt lat="41.8385453615" lon="-7.3151303921">
        <ele>969.08</ele>
        <time>2020-09-12T06:02:23Z</time>
      </trkpt>
      <trkpt lat="41.8384568486" lon="-7.3149751592">
        <ele>969.17</ele>
        <time>2020-09-12T06:02:24Z</time>
      </trkpt>
      <trkpt lat="41.8383393344" lon="-7.3148526158">
        <ele>969.16</ele>
        <time>2020-09-12T06:02:25Z</time>
      </trkpt>
      <trkpt lat="41.8381980155" lon="-7.3147545476">
        <ele>964.88</ele>
        <time>2020-09-12T06:02:26Z</time>
      </trkpt>
      <trkpt lat="41.8380440399" lon="-7.3146618437">
        <ele>962.66</ele>
        <time>2020-09-12T06:02:27Z</time>
      </trkpt>
      <trkpt lat="41.8378914054" lon="-7.3145590816">
        <ele>959.14</ele>
        <time>2020-09-12T06:02:28Z</time>
      </trkpt>
      <trkpt lat="41.8377497513" lon="-7.3144334368">
        <ele>955.44</ele>
        <time>2020-09-12T06:02:29Z</time>
      </trkpt>
      <trkpt lat="41.8376215082" lon="-7.3142736778">
        <ele>951.7</ele>
        <time>2020-09-12T06:02:30Z</time>
      </trkpt>
      <trkpt lat="41.8375096936" lon="-7.3140746914">
        <ele>947.75</ele>
        <time>2020-09-12T06:02:31Z</time>
      </trkpt>
      <trkpt lat="41.8374135531" lon="-7.3138410039">
        <ele>944.1</ele>
        <time>2020-09-12T06:02:32Z</time>
      </trkpt>
      <trkpt lat="41.8373345956" lon="-7.313577896">
        <ele>943.99</ele>
        <time>2020-09-12T06:02:33Z</time>
      </trkpt>
      <trkpt lat="41.8372793589" lon="-7.3132980242">
        <ele>944.14</ele>
        <time>2020-09-12T06:02:34Z</time>
      </trkpt>
      <trkpt lat="41.8372438196" lon="-7.3130251933">
        <ele>947.38</ele>
        <time>2020-09-12T06:02:35Z</time>
      </trkpt>
      <trkpt lat="41.8372049276" lon="-7.3127697967">
        <ele>947.51</ele>
        <time>2020-09-12T06:02:36Z</time>
      </trkpt>
      <trkpt lat="41.8371425662" lon="-7.3125280626">
        <ele>943.16</ele>
        <time>2020-09-12T06:02:38Z</time>
      </trkpt>
      <trkpt lat="41.8370570708" lon="-7.312293034">
        <ele>939.58</ele>
        <time>2020-09-12T06:02:39Z</time>
      </trkpt>
      <trkpt lat="41.8368784525" lon="-7.3118092306">
        <ele>936.54</ele>
        <time>2020-09-12T06:02:40Z</time>
      </trkpt>
      <trkpt lat="41.8368056975" lon="-7.3115467094">
        <ele>935.62</ele>
        <time>2020-09-12T06:02:42Z</time>
      </trkpt>
      <trkpt lat="41.8367481977" lon="-7.3112712801">
        <ele>939.37</ele>
        <time>2020-09-12T06:02:44Z</time>
      </trkpt>
      <trkpt lat="41.8366694078" lon="-7.3107294738">
        <ele>942.35</ele>
        <time>2020-09-12T06:02:45Z</time>
      </trkpt>
      <trkpt lat="41.8365958985" lon="-7.3102677986">
        <ele>945.56</ele>
        <time>2020-09-12T06:02:46Z</time>
      </trkpt>
      <trkpt lat="41.8365493789" lon="-7.3100984003">
        <ele>948</ele>
        <time>2020-09-12T06:02:47Z</time>
      </trkpt>
      <trkpt lat="41.8365057092" lon="-7.3099713307">
        <ele>949.74</ele>
        <time>2020-09-12T06:02:48Z</time>
      </trkpt>
      <trkpt lat="41.8364772946" lon="-7.30988089">
        <ele>949.91</ele>
        <time>2020-09-12T06:02:49Z</time>
      </trkpt>
      <trkpt lat="41.8364731036" lon="-7.3098267429">
        <ele>945.54</ele>
        <time>2020-09-12T06:02:53Z</time>
      </trkpt>
      <trkpt lat="41.836490538" lon="-7.3098011781">
        <ele>950.2</ele>
        <time>2020-09-12T06:03:31Z</time>
      </trkpt>
      <trkpt lat="41.8367466889" lon="-7.3098080512">
        <ele>951.38</ele>
        <time>2020-09-12T06:03:35Z</time>
      </trkpt>
      <trkpt lat="41.8369464297" lon="-7.3098336998">
        <ele>948.74</ele>
        <time>2020-09-12T06:03:37Z</time>
      </trkpt>
      <trkpt lat="41.8369274028" lon="-7.309672432">
        <ele>946.38</ele>
        <time>2020-09-12T06:03:39Z</time>
      </trkpt>
      <trkpt lat="41.8369505368" lon="-7.3095098231">
        <ele>944.42</ele>
        <time>2020-09-12T06:03:42Z</time>
      </trkpt>
      <trkpt lat="41.8370401394" lon="-7.309350986">
        <ele>944.5</ele>
        <time>2020-09-12T06:03:43Z</time>
      </trkpt>
      <trkpt lat="41.8372671213" lon="-7.3090754729">
        <ele>944.48</ele>
        <time>2020-09-12T06:03:47Z</time>
      </trkpt>
      <trkpt lat="41.8373488449" lon="-7.308975393">
        <ele>944.44</ele>
        <time>2020-09-12T06:03:54Z</time>
      </trkpt>
      <trkpt lat="41.8376793433" lon="-7.3087477405">
        <ele>942.33</ele>
        <time>2020-09-12T06:03:59Z</time>
      </trkpt>
      <trkpt lat="41.83797491649645" lon="-7.308536765181138">
        <ele>938.33</ele>
        <time>2020-09-12T06:04:03Z</time>
      </trkpt>
      <trkpt lat="41.8381240033" lon="-7.308131922">
        <ele>935.24</ele>
        <time>2020-09-12T06:04:04Z</time>
      </trkpt>
      <trkpt lat="41.8380330596" lon="-7.3073827475">
        <ele>933.8</ele>
        <time>2020-09-12T06:04:06Z</time>
      </trkpt>
      <trkpt lat="41.8378147949" lon="-7.3068049829">
        <ele>930.65</ele>
        <time>2020-09-12T06:04:07Z</time>
      </trkpt>
      <trkpt lat="41.8377605639" lon="-7.306651175">
        <ele>929.55</ele>
        <time>2020-09-12T06:04:08Z</time>
      </trkpt>
      <trkpt lat="41.8376598973" lon="-7.3063345905">
        <ele>928.11</ele>
        <time>2020-09-12T06:04:11Z</time>
      </trkpt>
      <trkpt lat="41.8376142997" lon="-7.3061715625">
        <ele>925.1</ele>
        <time>2020-09-12T06:04:13Z</time>
      </trkpt>
      <trkpt lat="41.8375658523" lon="-7.3060136475">
        <ele>920.78</ele>
        <time>2020-09-12T06:04:15Z</time>
      </trkpt>
      <trkpt lat="41.8373782653" lon="-7.3055830691">
        <ele>920.79</ele>
        <time>2020-09-12T06:04:16Z</time>
      </trkpt>
      <trkpt lat="41.8373056781" lon="-7.3053053766">
        <ele>920.59</ele>
        <time>2020-09-12T06:04:20Z</time>
      </trkpt>
      <trkpt lat="41.8373257946" lon="-7.3049934022">
        <ele>918.84</ele>
        <time>2020-09-12T06:04:28Z</time>
      </trkpt>
      <trkpt lat="41.8373547122" lon="-7.3048433661">
        <ele>921.53</ele>
        <time>2020-09-12T06:04:32Z</time>
      </trkpt>
      <trkpt lat="41.8375695404" lon="-7.3044271208">
        <ele>924.67</ele>
        <time>2020-09-12T06:04:36Z</time>
      </trkpt>
      <trkpt lat="41.8380863685" lon="-7.3035978153">
        <ele>924.68</ele>
        <time>2020-09-12T06:04:40Z</time>
      </trkpt>
      <trkpt lat="41.8382130191" lon="-7.303023655">
        <ele>924.7</ele>
        <time>2020-09-12T06:04:43Z</time>
      </trkpt>
      <trkpt lat="41.8382443674" lon="-7.3026570305">
        <ele>926.58</ele>
        <time>2020-09-12T06:04:46Z</time>
      </trkpt>
      <trkpt lat="41.8383951578" lon="-7.3023428768">
        <ele>923.78</ele>
        <time>2020-09-12T06:04:52Z</time>
      </trkpt>
      <trkpt lat="41.8384747021" lon="-7.3021277133">
        <ele>920.87</ele>
        <time>2020-09-12T06:04:54Z</time>
      </trkpt>
      <trkpt lat="41.8385415059" lon="-7.3021375202">
        <ele>919.5</ele>
        <time>2020-09-12T06:04:56Z</time>
      </trkpt>
      <trkpt lat="41.8388408236" lon="-7.3020282201">
        <ele>917.34</ele>
        <time>2020-09-12T06:04:59Z</time>
      </trkpt>
      <trkpt lat="41.8390306737" lon="-7.3019689601">
        <ele>920.57</ele>
        <time>2020-09-12T06:05:00Z</time>
      </trkpt>
      <trkpt lat="41.8392456695" lon="-7.3018529546">
        <ele>924.05</ele>
        <time>2020-09-12T06:05:02Z</time>
      </trkpt>
      <trkpt lat="41.8395612482" lon="-7.3015576601">
        <ele>924.02</ele>
        <time>2020-09-12T06:05:03Z</time>
      </trkpt>
      <trkpt lat="41.8396364339" lon="-7.3014577478">
        <ele>924</ele>
        <time>2020-09-12T06:05:05Z</time>
      </trkpt>
      <trkpt lat="41.8397306465" lon="-7.3012808897">
        <ele>921.35</ele>
        <time>2020-09-12T06:05:07Z</time>
      </trkpt>
      <trkpt lat="41.8397629168" lon="-7.3011917062">
        <ele>921.36</ele>
        <time>2020-09-12T06:05:08Z</time>
      </trkpt>
      <trkpt lat="41.8398189079" lon="-7.3009689152">
        <ele>924.33</ele>
        <time>2020-09-12T06:05:12Z</time>
      </trkpt>
      <trkpt lat="41.8398789223" lon="-7.3006842658">
        <ele>924.47</ele>
        <time>2020-09-12T06:05:15Z</time>
      </trkpt>
      <trkpt lat="41.8399093486" lon="-7.3005496524">
        <ele>921.51</ele>
        <time>2020-09-12T06:05:18Z</time>
      </trkpt>
      <trkpt lat="41.8401060719" lon="-7.3002159689">
        <ele>925.31</ele>
        <time>2020-09-12T06:05:21Z</time>
      </trkpt>
      <trkpt lat="41.8403967563" lon="-7.3001777474">
        <ele>925.32</ele>
        <time>2020-09-12T06:05:22Z</time>
      </trkpt>
      <trkpt lat="41.8407640513" lon="-7.3002227582">
        <ele>929.97</ele>
        <time>2020-09-12T06:05:23Z</time>
      </trkpt>
      <trkpt lat="41.8411710765" lon="-7.3002222553">
        <ele>932.35</ele>
        <time>2020-09-12T06:05:24Z</time>
      </trkpt>
      <trkpt lat="41.8413001578" lon="-7.3002280388">
        <ele>938.99</ele>
        <time>2020-09-12T06:05:27Z</time>
      </trkpt>
      <trkpt lat="41.8414141517" lon="-7.3002335709">
        <ele>938.99</ele>
        <time>2020-09-12T06:05:28Z</time>
      </trkpt>
      <trkpt lat="41.8415055983" lon="-7.300237678">
        <ele>935.39</ele>
        <time>2020-09-12T06:05:30Z</time>
      </trkpt>
      <trkpt lat="41.8416508567" lon="-7.3002378456">
        <ele>933.16</ele>
        <time>2020-09-12T06:05:32Z</time>
      </trkpt>
      <trkpt lat="41.8416648544" lon="-7.3001907393">
        <ele>931.55</ele>
        <time>2020-09-12T06:05:37Z</time>
      </trkpt>
      <trkpt lat="41.8417070992" lon="-7.3000193294">
        <ele>929.46</ele>
        <time>2020-09-12T06:05:42Z</time>
      </trkpt>
      <trkpt lat="41.8418019824" lon="-7.2998141404">
        <ele>929.46</ele>
        <time>2020-09-12T06:05:45Z</time>
      </trkpt>
      <trkpt lat="41.8420275394" lon="-7.2991845757">
        <ele>931.85</ele>
        <time>2020-09-12T06:05:50Z</time>
      </trkpt>
      <trkpt lat="41.8421266135" lon="-7.2984071542">
        <ele>931.88</ele>
        <time>2020-09-12T06:05:51Z</time>
      </trkpt>
      <trkpt lat="41.8421271164" lon="-7.2979216743">
        <ele>931.83</ele>
        <time>2020-09-12T06:05:52Z</time>
      </trkpt>
      <trkpt lat="41.8422505818" lon="-7.2972263955">
        <ele>934.93</ele>
        <time>2020-09-12T06:05:57Z</time>
      </trkpt>
      <trkpt lat="41.8423122726" lon="-7.2971555684">
        <ele>936.74</ele>
        <time>2020-09-12T06:05:59Z</time>
      </trkpt>
      <trkpt lat="41.8423927389" lon="-7.2971013375">
        <ele>933.54</ele>
        <time>2020-09-12T06:06:01Z</time>
      </trkpt>
      <trkpt lat="41.8428115826" lon="-7.2967520636">
        <ele>930.41</ele>
        <time>2020-09-12T06:06:03Z</time>
      </trkpt>
      <trkpt lat="41.8428482953" lon="-7.2965939809">
        <ele>930.43</ele>
        <time>2020-09-12T06:06:04Z</time>
      </trkpt>
      <trkpt lat="41.8427992612" lon="-7.2963887919">
        <ele>930.45</ele>
        <time>2020-09-12T06:06:08Z</time>
      </trkpt>
      <trkpt lat="41.8426814955" lon="-7.2961790767">
        <ele>927.17</ele>
        <time>2020-09-12T06:06:10Z</time>
      </trkpt>
      <trkpt lat="41.8426227383" lon="-7.2960832715">
        <ele>924.57</ele>
        <time>2020-09-12T06:06:11Z</time>
      </trkpt>
      <trkpt lat="41.8426415138" lon="-7.2957377695">
        <ele>921.36</ele>
        <time>2020-09-12T06:06:13Z</time>
      </trkpt>
      <trkpt lat="41.8427834194" lon="-7.295508692">
        <ele>916.83</ele>
        <time>2020-09-12T06:06:15Z</time>
      </trkpt>
      <trkpt lat="41.8428786378" lon="-7.2953856457">
        <ele>916.95</ele>
        <time>2020-09-12T06:06:16Z</time>
      </trkpt>
      <trkpt lat="41.8431068771" lon="-7.2951304168">
        <ele>920.04</ele>
        <time>2020-09-12T06:06:21Z</time>
      </trkpt>
      <trkpt lat="41.8433476053" lon="-7.2948520537">
        <ele>923.4</ele>
        <time>2020-09-12T06:06:23Z</time>
      </trkpt>
      <trkpt lat="41.8434681371" lon="-7.2947081365">
        <ele>926.61</ele>
        <time>2020-09-12T06:06:26Z</time>
      </trkpt>
      <trkpt lat="41.8439899106" lon="-7.2939770669">
        <ele>919.15</ele>
        <time>2020-09-12T06:06:29Z</time>
      </trkpt>
      <trkpt lat="41.8441396113" lon="-7.2937191557">
        <ele>914.31</ele>
        <time>2020-09-12T06:06:33Z</time>
      </trkpt>
      <trkpt lat="41.8442184012" lon="-7.2933868971">
        <ele>910.22</ele>
        <time>2020-09-12T06:06:36Z</time>
      </trkpt>
      <trkpt lat="41.8440028187" lon="-7.2930341866">
        <ele>906.79</ele>
        <time>2020-09-12T06:06:38Z</time>
      </trkpt>
      <trkpt lat="41.8434923608" lon="-7.2925572563">
        <ele>906.84</ele>
        <time>2020-09-12T06:06:39Z</time>
      </trkpt>
      <trkpt lat="41.8431457691" lon="-7.2922190465">
        <ele>903.55</ele>
        <time>2020-09-12T06:06:40Z</time>
      </trkpt>
      <trkpt lat="41.8429316115" lon="-7.2919453774">
        <ele>901.84</ele>
        <time>2020-09-12T06:06:42Z</time>
      </trkpt>
      <trkpt lat="41.8428181205" lon="-7.2918095905">
        <ele>905.36</ele>
        <time>2020-09-12T06:06:45Z</time>
      </trkpt>
      <trkpt lat="41.8427018635" lon="-7.2916684393">
        <ele>906.62</ele>
        <time>2020-09-12T06:06:48Z</time>
      </trkpt>
      <trkpt lat="41.842491813" lon="-7.2913515195">
        <ele>906.77</ele>
        <time>2020-09-12T06:06:52Z</time>
      </trkpt>
      <trkpt lat="41.8421802577" lon="-7.2909429856">
        <ele>901.45</ele>
        <time>2020-09-12T06:06:57Z</time>
      </trkpt>
      <trkpt lat="41.841905918" lon="-7.290610224">
        <ele>894.61</ele>
        <time>2020-09-12T06:07:00Z</time>
      </trkpt>
      <trkpt lat="41.8416387867" lon="-7.2900542524">
        <ele>889.7</ele>
        <time>2020-09-12T06:07:02Z</time>
      </trkpt>
      <trkpt lat="41.8412735034" lon="-7.2898876201">
        <ele>889.67</ele>
        <time>2020-09-12T06:07:03Z</time>
      </trkpt>
      <trkpt lat="41.8408835772" lon="-7.2900058888">
        <ele>889.7</ele>
        <time>2020-09-12T06:07:05Z</time>
      </trkpt>
      <trkpt lat="41.8405980896" lon="-7.2900909651">
        <ele>889.68</ele>
        <time>2020-09-12T06:07:07Z</time>
      </trkpt>
      <trkpt lat="41.8404683378" lon="-7.2901245765">
        <ele>889.76</ele>
        <time>2020-09-12T06:07:08Z</time>
      </trkpt>
      <trkpt lat="41.8402382545" lon="-7.2901599482">
        <ele>889.75</ele>
        <time>2020-09-12T06:07:09Z</time>
      </trkpt>
      <trkpt lat="41.8400470633" lon="-7.2901419271">
        <ele>889.75</ele>
        <time>2020-09-12T06:07:10Z</time>
      </trkpt>
      <trkpt lat="41.8399720453" lon="-7.2901058011">
        <ele>889.79</ele>
        <time>2020-09-12T06:07:11Z</time>
      </trkpt>
      <trkpt lat="41.8399126176" lon="-7.2900556773">
        <ele>889.78</ele>
        <time>2020-09-12T06:07:12Z</time>
      </trkpt>
      <trkpt lat="41.8398690317" lon="-7.2900011111">
        <ele>889.74</ele>
        <time>2020-09-12T06:07:13Z</time>
      </trkpt>
      <trkpt lat="41.8398453109" lon="-7.28994973">
        <ele>883.99</ele>
        <time>2020-09-12T06:07:17Z</time>
      </trkpt>
      <trkpt lat="41.8398447242" lon="-7.2899031267">
        <ele>882.24</ele>
        <time>2020-09-12T06:07:19Z</time>
      </trkpt>
      <trkpt lat="41.8398685288" lon="-7.2898664977">
        <ele>883.72</ele>
        <time>2020-09-12T06:07:24Z</time>
      </trkpt>
      <trkpt lat="41.8402095046" lon="-7.2896748036">
        <ele>884.92</ele>
        <time>2020-09-12T06:07:26Z</time>
      </trkpt>
      <trkpt lat="41.8404498976" lon="-7.2895006277">
        <ele>885.93</ele>
        <time>2020-09-12T06:07:27Z</time>
      </trkpt>
      <trkpt lat="41.8410984892" lon="-7.2890938539">
        <ele>887.43</ele>
        <time>2020-09-12T06:07:29Z</time>
      </trkpt>
      <trkpt lat="41.8413589988" lon="-7.2889925167">
        <ele>892.16</ele>
        <time>2020-09-12T06:07:32Z</time>
      </trkpt>
      <trkpt lat="41.8414943665" lon="-7.2889573127">
        <ele>892.18</ele>
        <time>2020-09-12T06:07:37Z</time>
      </trkpt>
      <trkpt lat="41.8417595699" lon="-7.2889262158">
        <ele>888.33</ele>
        <time>2020-09-12T06:07:40Z</time>
      </trkpt>
      <trkpt lat="41.8420548644" lon="-7.2888024151">
        <ele>887.43</ele>
        <time>2020-09-12T06:07:42Z</time>
      </trkpt>
      <trkpt lat="41.8425053917" lon="-7.2884876747">
        <ele>887.41</ele>
        <time>2020-09-12T06:07:44Z</time>
      </trkpt>
      <trkpt lat="41.8428671546" lon="-7.288545426">
        <ele>884.6</ele>
        <time>2020-09-12T06:07:47Z</time>
      </trkpt>
      <trkpt lat="41.8431228865" lon="-7.288649613">
        <ele>883.35</ele>
        <time>2020-09-12T06:07:48Z</time>
      </trkpt>
      <trkpt lat="41.8433540594" lon="-7.2887695581">
        <ele>887.3</ele>
        <time>2020-09-12T06:07:52Z</time>
      </trkpt>
      <trkpt lat="41.843645582" lon="-7.2890662774">
        <ele>887.35</ele>
        <time>2020-09-12T06:07:53Z</time>
      </trkpt>
      <trkpt lat="41.843723366" lon="-7.2892039083">
        <ele>888.19</ele>
        <time>2020-09-12T06:07:56Z</time>
      </trkpt>
      <trkpt lat="41.8440131284" lon="-7.2895694431">
        <ele>889.57</ele>
        <time>2020-09-12T06:07:58Z</time>
      </trkpt>
      <trkpt lat="41.8441174831" lon="-7.2895993665">
        <ele>890.62</ele>
        <time>2020-09-12T06:08:00Z</time>
      </trkpt>
      <trkpt lat="41.8444670085" lon="-7.2896527592">
        <ele>887.6</ele>
        <time>2020-09-12T06:08:02Z</time>
      </trkpt>
      <trkpt lat="41.8446820881" lon="-7.2897351533">
        <ele>886.79</ele>
        <time>2020-09-12T06:08:06Z</time>
      </trkpt>
      <trkpt lat="41.8448835053" lon="-7.2899203096">
        <ele>883.37</ele>
        <time>2020-09-12T06:08:09Z</time>
      </trkpt>
      <trkpt lat="41.8450888619" lon="-7.2901677433">
        <ele>883.35</ele>
        <time>2020-09-12T06:08:10Z</time>
      </trkpt>
      <trkpt lat="41.8454431649" lon="-7.2905969806">
        <ele>887.64</ele>
        <time>2020-09-12T06:08:14Z</time>
      </trkpt>
      <trkpt lat="41.8455931172" lon="-7.2909568995">
        <ele>887.6</ele>
        <time>2020-09-12T06:08:15Z</time>
      </trkpt>
      <trkpt lat="41.8456303328" lon="-7.2910964582">
        <ele>887.59</ele>
        <time>2020-09-12T06:08:16Z</time>
      </trkpt>
      <trkpt lat="41.8459209334" lon="-7.2915570438">
        <ele>889.54</ele>
        <time>2020-09-12T06:08:18Z</time>
      </trkpt>
      <trkpt lat="41.8460260425" lon="-7.2916391026">
        <ele>889.56</ele>
        <time>2020-09-12T06:08:22Z</time>
      </trkpt>
      <trkpt lat="41.8461364321" lon="-7.2917071637">
        <ele>885.97</ele>
        <time>2020-09-12T06:08:24Z</time>
      </trkpt>
      <trkpt lat="41.8463442195" lon="-7.291819565">
        <ele>880.98</ele>
        <time>2020-09-12T06:08:26Z</time>
      </trkpt>
      <trkpt lat="41.8466871232" lon="-7.2921156976">
        <ele>880.92</ele>
        <time>2020-09-12T06:08:27Z</time>
      </trkpt>
      <trkpt lat="41.8468001951" lon="-7.2923072241">
        <ele>880.95</ele>
        <time>2020-09-12T06:08:29Z</time>
      </trkpt>
      <trkpt lat="41.8468813319" lon="-7.292600004">
        <ele>880.97</ele>
        <time>2020-09-12T06:08:35Z</time>
      </trkpt>
      <trkpt lat="41.8469231576" lon="-7.2927625291">
        <ele>880.91</ele>
        <time>2020-09-12T06:08:37Z</time>
      </trkpt>
      <trkpt lat="41.8469995167" lon="-7.2930513695">
        <ele>876.42</ele>
        <time>2020-09-12T06:08:41Z</time>
      </trkpt>
      <trkpt lat="41.847158614714736" lon="-7.293344733938214">
        <ele>875.36</ele>
        <time>2020-09-12T06:08:43Z</time>
      </trkpt>
      <trkpt lat="41.8474594317" lon="-7.2934204247">
        <ele>872.25</ele>
        <time>2020-09-12T06:08:46Z</time>
      </trkpt>
      <trkpt lat="41.8476326857" lon="-7.2934657708">
        <ele>868.11</ele>
        <time>2020-09-12T06:08:48Z</time>
      </trkpt>
      <trkpt lat="41.8479903415" lon="-7.2937089298">
        <ele>863.2</ele>
        <time>2020-09-12T06:08:50Z</time>
      </trkpt>
      <trkpt lat="41.848135097" lon="-7.2939134482">
        <ele>861.83</ele>
        <time>2020-09-12T06:08:52Z</time>
      </trkpt>
      <trkpt lat="41.8482558802" lon="-7.2942794021">
        <ele>861.83</ele>
        <time>2020-09-12T06:08:53Z</time>
      </trkpt>
      <trkpt lat="41.8482733145" lon="-7.2945871856">
        <ele>865.78</ele>
        <time>2020-09-12T06:08:56Z</time>
      </trkpt>
      <trkpt lat="41.8482491747" lon="-7.2949160077">
        <ele>865.81</ele>
        <time>2020-09-12T06:08:58Z</time>
      </trkpt>
      <trkpt lat="41.848209193" lon="-7.2952366155">
        <ele>857.66</ele>
        <time>2020-09-12T06:09:01Z</time>
      </trkpt>
      <trkpt lat="41.8481977098" lon="-7.2953615896">
        <ele>854.56</ele>
        <time>2020-09-12T06:09:02Z</time>
      </trkpt>
      <trkpt lat="41.8482350931" lon="-7.2955459915">
        <ele>854.56</ele>
        <time>2020-09-12T06:09:03Z</time>
      </trkpt>
      <trkpt lat="41.8483009748" lon="-7.2955055907">
        <ele>848.89</ele>
        <time>2020-09-12T06:09:07Z</time>
      </trkpt>
      <trkpt lat="41.848467188" lon="-7.2952470928">
        <ele>848.05</ele>
        <time>2020-09-12T06:09:08Z</time>
      </trkpt>
      <trkpt lat="41.8485405296" lon="-7.2951350268">
        <ele>848.2</ele>
        <time>2020-09-12T06:09:14Z</time>
      </trkpt>
      <trkpt lat="41.8486218341" lon="-7.295026565">
        <ele>843.06</ele>
        <time>2020-09-12T06:09:17Z</time>
      </trkpt>
      <trkpt lat="41.8490045518" lon="-7.2946534026">
        <ele>842.25</ele>
        <time>2020-09-12T06:09:18Z</time>
      </trkpt>
      <trkpt lat="41.8490913045" lon="-7.2945609502">
        <ele>840.44</ele>
        <time>2020-09-12T06:09:20Z</time>
      </trkpt>
      <trkpt lat="41.8493575137" lon="-7.2941468842">
        <ele>839.52</ele>
        <time>2020-09-12T06:09:22Z</time>
      </trkpt>
      <trkpt lat="41.8494984973" lon="-7.294308152">
        <ele>834.45</ele>
        <time>2020-09-12T06:09:29Z</time>
      </trkpt>
      <trkpt lat="41.8495379761" lon="-7.2943983413">
        <ele>832.55</ele>
        <time>2020-09-12T06:09:32Z</time>
      </trkpt>
      <trkpt lat="41.8496033549" lon="-7.2945765406">
        <ele>832.55</ele>
        <time>2020-09-12T06:09:33Z</time>
      </trkpt>
      <trkpt lat="41.8496356253" lon="-7.2947241459">
        <ele>829.1</ele>
        <time>2020-09-12T06:09:37Z</time>
      </trkpt>
      <trkpt lat="41.8497984018" lon="-7.2945489641">
        <ele>827.02</ele>
        <time>2020-09-12T06:09:38Z</time>
      </trkpt>
      <trkpt lat="41.8498194404" lon="-7.2942744568">
        <ele>824.78</ele>
        <time>2020-09-12T06:09:41Z</time>
      </trkpt>
      <trkpt lat="41.8498305883" lon="-7.2942203097">
        <ele>822.27</ele>
        <time>2020-09-12T06:09:46Z</time>
      </trkpt>
      <trkpt lat="41.8499575742" lon="-7.2942954954">
        <ele>819.37</ele>
        <time>2020-09-12T06:09:47Z</time>
      </trkpt>
      <trkpt lat="41.849997472" lon="-7.2943917196">
        <ele>817.48</ele>
        <time>2020-09-12T06:09:49Z</time>
      </trkpt>
      <trkpt lat="41.8500955403" lon="-7.294682404">
        <ele>814.02</ele>
        <time>2020-09-12T06:09:50Z</time>
      </trkpt>
      <trkpt lat="41.8502442352" lon="-7.2947325278">
        <ele>811.85</ele>
        <time>2020-09-12T06:09:52Z</time>
      </trkpt>
      <trkpt lat="41.8502501864" lon="-7.2946431767">
        <ele>809.87</ele>
        <time>2020-09-12T06:09:54Z</time>
      </trkpt>
      <trkpt lat="41.850245744" lon="-7.294388786">
        <ele>808.45</ele>
        <time>2020-09-12T06:09:57Z</time>
      </trkpt>
      <trkpt lat="41.8502375297" lon="-7.2942346428">
        <ele>806.48</ele>
        <time>2020-09-12T06:09:59Z</time>
      </trkpt>
      <trkpt lat="41.8501974642" lon="-7.2939097602">
        <ele>804.85</ele>
        <time>2020-09-12T06:10:01Z</time>
      </trkpt>
      <trkpt lat="41.8501797784" lon="-7.2935998812">
        <ele>803.24</ele>
        <time>2020-09-12T06:10:02Z</time>
      </trkpt>
      <trkpt lat="41.850258233" lon="-7.293159496">
        <ele>798.43</ele>
        <time>2020-09-12T06:10:05Z</time>
      </trkpt>
      <trkpt lat="41.8503445666" lon="-7.2928844858">
        <ele>797.16</ele>
        <time>2020-09-12T06:10:07Z</time>
      </trkpt>
      <trkpt lat="41.8504224345" lon="-7.2926233057">
        <ele>797.15</ele>
        <time>2020-09-12T06:10:09Z</time>
      </trkpt>
      <trkpt lat="41.8504519388" lon="-7.2924956493">
        <ele>800.98</ele>
        <time>2020-09-12T06:10:14Z</time>
      </trkpt>
      <trkpt lat="41.850474989" lon="-7.2920853551">
        <ele>797.77</ele>
        <time>2020-09-12T06:10:18Z</time>
      </trkpt>
      <trkpt lat="41.8504505977" lon="-7.2917754762">
        <ele>791.09</ele>
        <time>2020-09-12T06:10:22Z</time>
      </trkpt>
      <trkpt lat="41.8504100293" lon="-7.2915073391">
        <ele>790.39</ele>
        <time>2020-09-12T06:10:23Z</time>
      </trkpt>
      <trkpt lat="41.85021515" lon="-7.2910649423">
        <ele>787.31</ele>
        <time>2020-09-12T06:10:27Z</time>
      </trkpt>
      <trkpt lat="41.8503104523" lon="-7.2909511998">
        <ele>784.59</ele>
        <time>2020-09-12T06:10:28Z</time>
      </trkpt>
      <trkpt lat="41.850589402" lon="-7.2910232842">
        <ele>778.22</ele>
        <time>2020-09-12T06:10:31Z</time>
      </trkpt>
      <trkpt lat="41.8506614026" lon="-7.2910762578">
        <ele>776.81</ele>
        <time>2020-09-12T06:10:33Z</time>
      </trkpt>
      <trkpt lat="41.8509319704" lon="-7.2911889944">
        <ele>775.42</ele>
        <time>2020-09-12T06:10:35Z</time>
      </trkpt>
      <trkpt lat="41.8510193937" lon="-7.2911735717">
        <ele>771.47</ele>
        <time>2020-09-12T06:10:38Z</time>
      </trkpt>
      <trkpt lat="41.8513042107" lon="-7.2911166586">
        <ele>767.72</ele>
        <time>2020-09-12T06:10:40Z</time>
      </trkpt>
      <trkpt lat="41.8514674902" lon="-7.2910896689">
        <ele>767.68</ele>
        <time>2020-09-12T06:10:41Z</time>
      </trkpt>
      <trkpt lat="41.8515853398" lon="-7.2910496034">
        <ele>765.42</ele>
        <time>2020-09-12T06:10:44Z</time>
      </trkpt>
      <trkpt lat="41.8516619503" lon="-7.2908403911">
        <ele>763.98</ele>
        <time>2020-09-12T06:10:46Z</time>
      </trkpt>
      <trkpt lat="41.8516367208" lon="-7.2905875091">
        <ele>764.01</ele>
        <time>2020-09-12T06:10:48Z</time>
      </trkpt>
      <trkpt lat="41.8516047858" lon="-7.290452728">
        <ele>761.91</ele>
        <time>2020-09-12T06:10:52Z</time>
      </trkpt>
      <trkpt lat="41.8514028657" lon="-7.2901359759">
        <ele>761.04</ele>
        <time>2020-09-12T06:10:53Z</time>
      </trkpt>
      <trkpt lat="41.8512076512" lon="-7.2900476307">
        <ele>764.88</ele>
        <time>2020-09-12T06:10:57Z</time>
      </trkpt>
      <trkpt lat="41.8510245904" lon="-7.2900373209">
        <ele>761.59</ele>
        <time>2020-09-12T06:11:00Z</time>
      </trkpt>
      <trkpt lat="41.8506267015" lon="-7.2899923101">
        <ele>759.82</ele>
        <time>2020-09-12T06:11:02Z</time>
      </trkpt>
      <trkpt lat="41.8505367637" lon="-7.289906228">
        <ele>759.83</ele>
        <time>2020-09-12T06:11:06Z</time>
      </trkpt>
      <trkpt lat="41.8503013998" lon="-7.2896829341">
        <ele>759.83</ele>
        <time>2020-09-12T06:11:08Z</time>
      </trkpt>
      <trkpt lat="41.8501566444" lon="-7.2898186371">
        <ele>756.06</ele>
        <time>2020-09-12T06:11:10Z</time>
      </trkpt>
      <trkpt lat="41.8500116374" lon="-7.2899596207">
        <ele>754.4</ele>
        <time>2020-09-12T06:11:12Z</time>
      </trkpt>
      <trkpt lat="41.8498465139" lon="-7.2898993548">
        <ele>754.35</ele>
        <time>2020-09-12T06:11:14Z</time>
      </trkpt>
      <trkpt lat="41.8498494476" lon="-7.2897002846">
        <ele>751.68</ele>
        <time>2020-09-12T06:11:18Z</time>
      </trkpt>
      <trkpt lat="41.8498848192" lon="-7.2894231789">
        <ele>749.84</ele>
        <time>2020-09-12T06:11:20Z</time>
      </trkpt>
      <trkpt lat="41.8499495275" lon="-7.2891237773">
        <ele>747.45</ele>
        <time>2020-09-12T06:11:22Z</time>
      </trkpt>
      <trkpt lat="41.8500014953" lon="-7.2888449114">
        <ele>743.51</ele>
        <time>2020-09-12T06:11:25Z</time>
      </trkpt>
      <trkpt lat="41.8501784373" lon="-7.2883325256">
        <ele>740.66</ele>
        <time>2020-09-12T06:11:28Z</time>
      </trkpt>
      <trkpt lat="41.8502584845" lon="-7.2880758718">
        <ele>739.72</ele>
        <time>2020-09-12T06:11:30Z</time>
      </trkpt>
      <trkpt lat="41.8503283896" lon="-7.2878378257">
        <ele>738.26</ele>
        <time>2020-09-12T06:11:34Z</time>
      </trkpt>
      <trkpt lat="41.8503790163" lon="-7.2874744702">
        <ele>734.57</ele>
        <time>2020-09-12T06:11:36Z</time>
      </trkpt>
      <trkpt lat="41.8503059261" lon="-7.2871046606">
        <ele>727.41</ele>
        <time>2020-09-12T06:11:39Z</time>
      </trkpt>
      <trkpt lat="41.850238787" lon="-7.2869399562">
        <ele>723.96</ele>
        <time>2020-09-12T06:11:41Z</time>
      </trkpt>
      <trkpt lat="41.8502863124" lon="-7.2867962904">
        <ele>722.65</ele>
        <time>2020-09-12T06:11:42Z</time>
      </trkpt>
      <trkpt lat="41.8503933493" lon="-7.2868274711">
        <ele>717.96</ele>
        <time>2020-09-12T06:11:46Z</time>
      </trkpt>
      <trkpt lat="41.850640364" lon="-7.2869619168">
        <ele>713.83</ele>
        <time>2020-09-12T06:11:49Z</time>
      </trkpt>
      <trkpt lat="41.8508177251" lon="-7.2870843764">
        <ele>710.97</ele>
        <time>2020-09-12T06:11:52Z</time>
      </trkpt>
      <trkpt lat="41.8508998677" lon="-7.2871484142">
        <ele>706.92</ele>
        <time>2020-09-12T06:11:54Z</time>
      </trkpt>
      <trkpt lat="41.8511830922" lon="-7.2874737997">
        <ele>702.9</ele>
        <time>2020-09-12T06:11:56Z</time>
      </trkpt>
      <trkpt lat="41.8513032049" lon="-7.2877679206">
        <ele>697.19</ele>
        <time>2020-09-12T06:11:59Z</time>
      </trkpt>
      <trkpt lat="41.8514035363" lon="-7.2879670747">
        <ele>692.66</ele>
        <time>2020-09-12T06:12:03Z</time>
      </trkpt>
      <trkpt lat="41.8515220564" lon="-7.2879825812">
        <ele>691.19</ele>
        <time>2020-09-12T06:12:05Z</time>
      </trkpt>
      <trkpt lat="41.8516664766" lon="-7.2879057191">
        <ele>690.29</ele>
        <time>2020-09-12T06:12:09Z</time>
      </trkpt>
      <trkpt lat="41.8518880941" lon="-7.287712181">
        <ele>692.98</ele>
        <time>2020-09-12T06:12:22Z</time>
      </trkpt>
      <trkpt lat="41.8520583306" lon="-7.2873927467">
        <ele>692.99</ele>
        <time>2020-09-12T06:12:24Z</time>
      </trkpt>
      <trkpt lat="41.8520453386" lon="-7.2871771641">
        <ele>694.35</ele>
        <time>2020-09-12T06:12:28Z</time>
      </trkpt>
      <trkpt lat="41.8518411554" lon="-7.2868501861">
        <ele>695.18</ele>
        <time>2020-09-12T06:12:29Z</time>
      </trkpt>
      <trkpt lat="41.8511227425" lon="-7.2861420829">
        <ele>697.17</ele>
        <time>2020-09-12T06:12:32Z</time>
      </trkpt>
      <trkpt lat="41.8509811722" lon="-7.2859972436">
        <ele>694.63</ele>
        <time>2020-09-12T06:12:34Z</time>
      </trkpt>
      <trkpt lat="41.8507653382" lon="-7.285576053">
        <ele>698.58</ele>
        <time>2020-09-12T06:12:38Z</time>
      </trkpt>
      <trkpt lat="41.8507119454" lon="-7.2854609694">
        <ele>700.19</ele>
        <time>2020-09-12T06:12:40Z</time>
      </trkpt>
      <trkpt lat="41.8505296391" lon="-7.2852039803">
        <ele>697.52</ele>
        <time>2020-09-12T06:12:45Z</time>
      </trkpt>
      <trkpt lat="41.8503607437" lon="-7.2850888968">
        <ele>696.43</ele>
        <time>2020-09-12T06:12:49Z</time>
      </trkpt>
      <trkpt lat="41.8500051834" lon="-7.284961408">
        <ele>694.72</ele>
        <time>2020-09-12T06:12:55Z</time>
      </trkpt>
      <trkpt lat="41.8499319255" lon="-7.2848753259">
        <ele>690.61</ele>
        <time>2020-09-12T06:12:57Z</time>
      </trkpt>
      <trkpt lat="41.8502073549" lon="-7.2845926043">
        <ele>681.31</ele>
        <time>2020-09-12T06:13:00Z</time>
      </trkpt>
      <trkpt lat="41.8505535275" lon="-7.2844163328">
        <ele>676.64</ele>
        <time>2020-09-12T06:13:01Z</time>
      </trkpt>
      <trkpt lat="41.8506268691" lon="-7.2841098066">
        <ele>675.13</ele>
        <time>2020-09-12T06:13:03Z</time>
      </trkpt>
      <trkpt lat="41.8505248614" lon="-7.283970248">
        <ele>675.14</ele>
        <time>2020-09-12T06:13:07Z</time>
      </trkpt>
      <trkpt lat="41.8502806127" lon="-7.2837477922">
        <ele>678.22</ele>
        <time>2020-09-12T06:13:09Z</time>
      </trkpt>
      <trkpt lat="41.850167457" lon="-7.2836560942">
        <ele>678.22</ele>
        <time>2020-09-12T06:13:12Z</time>
      </trkpt>
      <trkpt lat="41.8499380443" lon="-7.2834700998">
        <ele>680.78</ele>
        <time>2020-09-12T06:13:15Z</time>
      </trkpt>
      <trkpt lat="41.8496041093" lon="-7.2830838617">
        <ele>685.25</ele>
        <time>2020-09-12T06:13:18Z</time>
      </trkpt>
      <trkpt lat="41.8495272473" lon="-7.2828870546">
        <ele>689.41</ele>
        <time>2020-09-12T06:13:21Z</time>
      </trkpt>
      <trkpt lat="41.8495174404" lon="-7.2824790236">
        <ele>686.83</ele>
        <time>2020-09-12T06:13:23Z</time>
      </trkpt>
      <trkpt lat="41.8495564163" lon="-7.2820264846">
        <ele>685.07</ele>
        <time>2020-09-12T06:13:26Z</time>
      </trkpt>
      <trkpt lat="41.8496067915" lon="-7.2816351335">
        <ele>687.78</ele>
        <time>2020-09-12T06:13:28Z</time>
      </trkpt>
      <trkpt lat="41.849577371" lon="-7.2813515738">
        <ele>683.8</ele>
        <time>2020-09-12T06:13:31Z</time>
      </trkpt>
      <trkpt lat="41.8494437635" lon="-7.2812117636">
        <ele>683.81</ele>
        <time>2020-09-12T06:13:32Z</time>
      </trkpt>
      <trkpt lat="41.8491280172" lon="-7.280976316">
        <ele>679.3</ele>
        <time>2020-09-12T06:13:36Z</time>
      </trkpt>
      <trkpt lat="41.8489735387" lon="-7.2807945125">
        <ele>674.98</ele>
        <time>2020-09-12T06:13:38Z</time>
      </trkpt>
      <trkpt lat="41.8488005362" lon="-7.2804222722">
        <ele>672.54</ele>
        <time>2020-09-12T06:13:41Z</time>
      </trkpt>
      <trkpt lat="41.8487615604" lon="-7.2802937776">
        <ele>672.55</ele>
        <time>2020-09-12T06:13:43Z</time>
      </trkpt>
      <trkpt lat="41.8486406095" lon="-7.2798023466">
        <ele>672.48</ele>
        <time>2020-09-12T06:13:45Z</time>
      </trkpt>
      <trkpt lat="41.8485593889" lon="-7.2795544099">
        <ele>669.4</ele>
        <time>2020-09-12T06:13:46Z</time>
      </trkpt>
      <trkpt lat="41.8484469038" lon="-7.2792295273">
        <ele>666.91</ele>
        <time>2020-09-12T06:13:47Z</time>
      </trkpt>
      <trkpt lat="41.8484071735" lon="-7.279095836">
        <ele>665.08</ele>
        <time>2020-09-12T06:13:48Z</time>
      </trkpt>
      <trkpt lat="41.8484228477" lon="-7.2789955046">
        <ele>661.23</ele>
        <time>2020-09-12T06:13:49Z</time>
      </trkpt>
      <trkpt lat="41.8484588899" lon="-7.2789248452">
        <ele>659.9</ele>
        <time>2020-09-12T06:13:51Z</time>
      </trkpt>
      <trkpt lat="41.8485180661" lon="-7.2788385116">
        <ele>657.83</ele>
        <time>2020-09-12T06:13:53Z</time>
      </trkpt>
      <trkpt lat="41.8485953473" lon="-7.2787319776">
        <ele>657.88</ele>
        <time>2020-09-12T06:13:55Z</time>
      </trkpt>
      <trkpt lat="41.8486829381" lon="-7.2785996273">
        <ele>657.9</ele>
        <time>2020-09-12T06:13:56Z</time>
      </trkpt>
      <trkpt lat="41.8488808349" lon="-7.278288072">
        <ele>661.96</ele>
        <time>2020-09-12T06:13:58Z</time>
      </trkpt>
      <trkpt lat="41.8490820006" lon="-7.2779115569">
        <ele>663.52</ele>
        <time>2020-09-12T06:13:59Z</time>
      </trkpt>
      <trkpt lat="41.8493187055" lon="-7.2775461059">
        <ele>666.94</ele>
        <time>2020-09-12T06:14:00Z</time>
      </trkpt>
      <trkpt lat="41.8494627066" lon="-7.2773775458">
        <ele>666.97</ele>
        <time>2020-09-12T06:14:01Z</time>
      </trkpt>
      <trkpt lat="41.8497582525" lon="-7.2770281043">
        <ele>671.59</ele>
        <time>2020-09-12T06:14:03Z</time>
      </trkpt>
      <trkpt lat="41.8498901837" lon="-7.2768298723">
        <ele>671.63</ele>
        <time>2020-09-12T06:14:04Z</time>
      </trkpt>
      <trkpt lat="41.8500129785" lon="-7.2766251862">
        <ele>674.7</ele>
        <time>2020-09-12T06:14:05Z</time>
      </trkpt>
      <trkpt lat="41.8501351029" lon="-7.2764251102">
        <ele>676.99</ele>
        <time>2020-09-12T06:14:06Z</time>
      </trkpt>
      <trkpt lat="41.8503905833" lon="-7.2760441527">
        <ele>679.25</ele>
        <time>2020-09-12T06:14:07Z</time>
      </trkpt>
      <trkpt lat="41.8505300581" lon="-7.2758680489">
        <ele>683.91</ele>
        <time>2020-09-12T06:14:09Z</time>
      </trkpt>
      <trkpt lat="41.8506664317" lon="-7.2756948788">
        <ele>683.77</ele>
        <time>2020-09-12T06:14:10Z</time>
      </trkpt>
      <trkpt lat="41.8507831916" lon="-7.2755049448">
        <ele>687.99</ele>
        <time>2020-09-12T06:14:12Z</time>
      </trkpt>
      <trkpt lat="41.8508804217" lon="-7.2752960678">
        <ele>691.06</ele>
        <time>2020-09-12T06:14:14Z</time>
      </trkpt>
      <trkpt lat="41.8510793243" lon="-7.2748755477">
        <ele>695.69</ele>
        <time>2020-09-12T06:14:16Z</time>
      </trkpt>
      <trkpt lat="41.8512001075" lon="-7.2746841051">
        <ele>698.71</ele>
        <time>2020-09-12T06:14:17Z</time>
      </trkpt>
      <trkpt lat="41.8514668196" lon="-7.2743331548">
        <ele>700.67</ele>
        <time>2020-09-12T06:14:18Z</time>
      </trkpt>
      <trkpt lat="41.8517348729" lon="-7.2739923466">
        <ele>702.82</ele>
        <time>2020-09-12T06:14:19Z</time>
      </trkpt>
      <trkpt lat="41.8519836478" lon="-7.2736615967">
        <ele>703.76</ele>
        <time>2020-09-12T06:14:20Z</time>
      </trkpt>
      <trkpt lat="41.8520836439" lon="-7.2734883428">
        <ele>704.99</ele>
        <time>2020-09-12T06:14:21Z</time>
      </trkpt>
      <trkpt lat="41.8521497771" lon="-7.2732984927">
        <ele>707.45</ele>
        <time>2020-09-12T06:14:22Z</time>
      </trkpt>
      <trkpt lat="41.8521761801" lon="-7.2730933037">
        <ele>710.29</ele>
        <time>2020-09-12T06:14:23Z</time>
      </trkpt>
      <trkpt lat="41.8521795329" lon="-7.2728831694">
        <ele>711.95</ele>
        <time>2020-09-12T06:14:24Z</time>
      </trkpt>
      <trkpt lat="41.8521857355" lon="-7.2726680059">
        <ele>714.64</ele>
        <time>2020-09-12T06:14:25Z</time>
      </trkpt>
      <trkpt lat="41.8522102106" lon="-7.2724532615">
        <ele>717</ele>
        <time>2020-09-12T06:14:26Z</time>
      </trkpt>
      <trkpt lat="41.85225036" lon="-7.2722406127">
        <ele>717.01</ele>
        <time>2020-09-12T06:14:27Z</time>
      </trkpt>
      <trkpt lat="41.8522998132" lon="-7.2720349208">
        <ele>717.88</ele>
        <time>2020-09-12T06:14:28Z</time>
      </trkpt>
      <trkpt lat="41.852361504" lon="-7.2718417179">
        <ele>720.73</ele>
        <time>2020-09-12T06:14:30Z</time>
      </trkpt>
      <trkpt lat="41.8524490949" lon="-7.2716759238">
        <ele>722.45</ele>
        <time>2020-09-12T06:14:31Z</time>
      </trkpt>
      <trkpt lat="41.8525647651" lon="-7.2715366166">
        <ele>726.74</ele>
        <time>2020-09-12T06:14:34Z</time>
      </trkpt>
      <trkpt lat="41.8526920862" lon="-7.2714039311">
        <ele>729.8</ele>
        <time>2020-09-12T06:14:35Z</time>
      </trkpt>
      <trkpt lat="41.8529375922" lon="-7.2711052839">
        <ele>732.3</ele>
        <time>2020-09-12T06:14:36Z</time>
      </trkpt>
      <trkpt lat="41.8530376721" lon="-7.2709183674">
        <ele>735.55</ele>
        <time>2020-09-12T06:14:37Z</time>
      </trkpt>
      <trkpt lat="41.8532851059" lon="-7.2703003697">
        <ele>736.71</ele>
        <time>2020-09-12T06:14:38Z</time>
      </trkpt>
      <trkpt lat="41.853333218" lon="-7.2701007128">
        <ele>738.73</ele>
        <time>2020-09-12T06:14:39Z</time>
      </trkpt>
      <trkpt lat="41.8533435278" lon="-7.2699044924">
        <ele>739.73</ele>
        <time>2020-09-12T06:14:40Z</time>
      </trkpt>
      <trkpt lat="41.8533141911" lon="-7.2697183304">
        <ele>741.61</ele>
        <time>2020-09-12T06:14:41Z</time>
      </trkpt>
      <trkpt lat="41.8532710243" lon="-7.269535102">
        <ele>741.6</ele>
        <time>2020-09-12T06:14:42Z</time>
      </trkpt>
      <trkpt lat="41.8532416038" lon="-7.2693428211">
        <ele>744.17</ele>
        <time>2020-09-12T06:14:44Z</time>
      </trkpt>
      <trkpt lat="41.8532373291" lon="-7.2691393085">
        <ele>746.22</ele>
        <time>2020-09-12T06:14:45Z</time>
      </trkpt>
      <trkpt lat="41.8532464653" lon="-7.2689296771">
        <ele>750.46</ele>
        <time>2020-09-12T06:14:47Z</time>
      </trkpt>
      <trkpt lat="41.8532664143" lon="-7.2687170282">
        <ele>750.46</ele>
        <time>2020-09-12T06:14:48Z</time>
      </trkpt>
      <trkpt lat="41.8533191364" lon="-7.2682783194">
        <ele>754</ele>
        <time>2020-09-12T06:14:50Z</time>
      </trkpt>
      <trkpt lat="41.8533273507" lon="-7.2680535167">
        <ele>754.17</ele>
        <time>2020-09-12T06:14:51Z</time>
      </trkpt>
      <trkpt lat="41.8533281889" lon="-7.2676000558">
        <ele>755.57</ele>
        <time>2020-09-12T06:14:52Z</time>
      </trkpt>
      <trkpt lat="41.8533330504" lon="-7.2673767619">
        <ele>756.71</ele>
        <time>2020-09-12T06:14:53Z</time>
      </trkpt>
      <trkpt lat="41.8533545081" lon="-7.2669407353">
        <ele>759.2</ele>
        <time>2020-09-12T06:14:54Z</time>
      </trkpt>
      <trkpt lat="41.8533539213" lon="-7.2667281702">
        <ele>761.85</ele>
        <time>2020-09-12T06:14:55Z</time>
      </trkpt>
      <trkpt lat="41.8533363193" lon="-7.266520299">
        <ele>765.16</ele>
        <time>2020-09-12T06:14:56Z</time>
      </trkpt>
      <trkpt lat="41.8532981817" lon="-7.2663182952">
        <ele>766.57</ele>
        <time>2020-09-12T06:14:57Z</time>
      </trkpt>
      <trkpt lat="41.8532438669" lon="-7.2661246732">
        <ele>767.76</ele>
        <time>2020-09-12T06:14:58Z</time>
      </trkpt>
      <trkpt lat="41.8531789072" lon="-7.2659488209">
        <ele>767.76</ele>
        <time>2020-09-12T06:14:59Z</time>
      </trkpt>
      <trkpt lat="41.8531059008" lon="-7.2657930013">
        <ele>770.89</ele>
        <time>2020-09-12T06:15:00Z</time>
      </trkpt>
      <trkpt lat="41.8530147895" lon="-7.2656550352">
        <ele>775.15</ele>
        <time>2020-09-12T06:15:03Z</time>
      </trkpt>
      <trkpt lat="41.8529090937" lon="-7.265534671">
        <ele>776.56</ele>
        <time>2020-09-12T06:15:04Z</time>
      </trkpt>
      <trkpt lat="41.8527952675" lon="-7.2654236946">
        <ele>776.57</ele>
        <time>2020-09-12T06:15:05Z</time>
      </trkpt>
      <trkpt lat="41.8526808545" lon="-7.2653185017">
        <ele>777.67</ele>
        <time>2020-09-12T06:15:06Z</time>
      </trkpt>
      <trkpt lat="41.852373993" lon="-7.2650314216">
        <ele>777.67</ele>
        <time>2020-09-12T06:15:07Z</time>
      </trkpt>
      <trkpt lat="41.852313811" lon="-7.264916338">
        <ele>779.74</ele>
        <time>2020-09-12T06:15:08Z</time>
      </trkpt>
      <trkpt lat="41.8522903416" lon="-7.2647805512">
        <ele>781.58</ele>
        <time>2020-09-12T06:15:11Z</time>
      </trkpt>
      <trkpt lat="41.8523009866" lon="-7.2646445129">
        <ele>778.47</ele>
        <time>2020-09-12T06:15:13Z</time>
      </trkpt>
      <trkpt lat="41.8523307424" lon="-7.2645261604">
        <ele>775.17</ele>
        <time>2020-09-12T06:15:15Z</time>
      </trkpt>
      <trkpt lat="41.8523650244" lon="-7.2644292656">
        <ele>771.3</ele>
        <time>2020-09-12T06:15:17Z</time>
      </trkpt>
      <trkpt lat="41.8524242006" lon="-7.2642453667">
        <ele>768.23</ele>
        <time>2020-09-12T06:15:18Z</time>
      </trkpt>
      <trkpt lat="41.8524537887" lon="-7.2640550137">
        <ele>765.2</ele>
        <time>2020-09-12T06:15:20Z</time>
      </trkpt>
      <trkpt lat="41.8525148928" lon="-7.263789475">
        <ele>765.2</ele>
        <time>2020-09-12T06:15:21Z</time>
      </trkpt>
      <trkpt lat="41.8525914196" lon="-7.2634520195">
        <ele>765.21</ele>
        <time>2020-09-12T06:15:23Z</time>
      </trkpt>
      <trkpt lat="41.8526263721" lon="-7.2632603254">
        <ele>765.22</ele>
        <time>2020-09-12T06:15:24Z</time>
      </trkpt>
      <trkpt lat="41.8526765797" lon="-7.26284693">
        <ele>767.76</ele>
        <time>2020-09-12T06:15:25Z</time>
      </trkpt>
      <trkpt lat="41.8526897393" lon="-7.2626471054">
        <ele>767.76</ele>
        <time>2020-09-12T06:15:26Z</time>
      </trkpt>
      <trkpt lat="41.8526857998" lon="-7.2622870188">
        <ele>770.04</ele>
        <time>2020-09-12T06:15:27Z</time>
      </trkpt>
      <trkpt lat="41.8526640069" lon="-7.2621264216">
        <ele>770.82</ele>
        <time>2020-09-12T06:15:28Z</time>
      </trkpt>
      <trkpt lat="41.8526274618" lon="-7.261977559">
        <ele>770.79</ele>
        <time>2020-09-12T06:15:29Z</time>
      </trkpt>
      <trkpt lat="41.8525767513" lon="-7.2618440352">
        <ele>770.8</ele>
        <time>2020-09-12T06:15:30Z</time>
      </trkpt>
      <trkpt lat="41.8525195029" lon="-7.2617338132">
        <ele>770.83</ele>
        <time>2020-09-12T06:15:31Z</time>
      </trkpt>
      <trkpt lat="41.8524599075" lon="-7.261632476">
        <ele>770.88</ele>
        <time>2020-09-12T06:15:32Z</time>
      </trkpt>
      <trkpt lat="41.852403162" lon="-7.2615184821">
        <ele>770.86</ele>
        <time>2020-09-12T06:15:33Z</time>
      </trkpt>
      <trkpt lat="41.8523591571" lon="-7.2613900714">
        <ele>768.53</ele>
        <time>2020-09-12T06:15:34Z</time>
      </trkpt>
      <trkpt lat="41.8523417227" lon="-7.2612510156">
        <ele>768.54</ele>
        <time>2020-09-12T06:15:35Z</time>
      </trkpt>
      <trkpt lat="41.8523525354" lon="-7.2610992193">
        <ele>768.56</ele>
        <time>2020-09-12T06:15:37Z</time>
      </trkpt>
      <trkpt lat="41.8523910083" lon="-7.2609390412">
        <ele>768.57</ele>
        <time>2020-09-12T06:15:38Z</time>
      </trkpt>
      <trkpt lat="41.8524482567" lon="-7.2607724927">
        <ele>768.58</ele>
        <time>2020-09-12T06:15:39Z</time>
      </trkpt>
      <trkpt lat="41.8525107857" lon="-7.2605999932">
        <ele>771.56</ele>
        <time>2020-09-12T06:15:40Z</time>
      </trkpt>
      <trkpt lat="41.8526127096" lon="-7.2602389846">
        <ele>772.69</ele>
        <time>2020-09-12T06:15:41Z</time>
      </trkpt>
      <trkpt lat="41.8526405375" lon="-7.2600452788">
        <ele>774.03</ele>
        <time>2020-09-12T06:15:43Z</time>
      </trkpt>
      <trkpt lat="41.8526466563" lon="-7.2598457057">
        <ele>778.37</ele>
        <time>2020-09-12T06:15:46Z</time>
      </trkpt>
      <trkpt lat="41.852627378" lon="-7.2596480604">
        <ele>778.41</ele>
        <time>2020-09-12T06:15:47Z</time>
      </trkpt>
      <trkpt lat="41.8525943533" lon="-7.2594536003">
        <ele>774.35</ele>
        <time>2020-09-12T06:15:49Z</time>
      </trkpt>
      <trkpt lat="41.8525449" lon="-7.259061411">
        <ele>774.36</ele>
        <time>2020-09-12T06:15:50Z</time>
      </trkpt>
      <trkpt lat="41.8525133003" lon="-7.2584609315">
        <ele>770.35</ele>
        <time>2020-09-12T06:15:53Z</time>
      </trkpt>
      <trkpt lat="41.8525165692" lon="-7.2582705785">
        <ele>767.17</ele>
        <time>2020-09-12T06:15:54Z</time>
      </trkpt>
      <trkpt lat="41.8525356799" lon="-7.2578679118">
        <ele>761.78</ele>
        <time>2020-09-12T06:15:56Z</time>
      </trkpt>
      <trkpt lat="41.8525466602" lon="-7.2576647345">
        <ele>758.38</ele>
        <time>2020-09-12T06:15:58Z</time>
      </trkpt>
      <trkpt lat="41.8525516056" lon="-7.2570351698">
        <ele>753.57</ele>
        <time>2020-09-12T06:16:00Z</time>
      </trkpt>
      <trkpt lat="41.8525340036" lon="-7.2568009794">
        <ele>751.02</ele>
        <time>2020-09-12T06:16:02Z</time>
      </trkpt>
      <trkpt lat="41.8524811137" lon="-7.2563155834">
        <ele>749.38</ele>
        <time>2020-09-12T06:16:05Z</time>
      </trkpt>
      <trkpt lat="41.8524226919" lon="-7.2558289301">
        <ele>744.74</ele>
        <time>2020-09-12T06:16:07Z</time>
      </trkpt>
      <trkpt lat="41.8523594923" lon="-7.2553349845">
        <ele>742.04</ele>
        <time>2020-09-12T06:16:08Z</time>
      </trkpt>
      <trkpt lat="41.8522996455" lon="-7.2548406199">
        <ele>738.82</ele>
        <time>2020-09-12T06:16:10Z</time>
      </trkpt>
      <trkpt lat="41.8522209395" lon="-7.2541230451">
        <ele>739.03</ele>
        <time>2020-09-12T06:16:11Z</time>
      </trkpt>
      <trkpt lat="41.8522145692" lon="-7.2536393255">
        <ele>734.11</ele>
        <time>2020-09-12T06:16:13Z</time>
      </trkpt>
      <trkpt lat="41.8522417266" lon="-7.2533908021">
        <ele>729.77</ele>
        <time>2020-09-12T06:16:15Z</time>
      </trkpt>
      <trkpt lat="41.8523294013" lon="-7.2528937552">
        <ele>725.55</ele>
        <time>2020-09-12T06:16:17Z</time>
      </trkpt>
      <trkpt lat="41.8523728196" lon="-7.2526511829">
        <ele>720.66</ele>
        <time>2020-09-12T06:16:19Z</time>
      </trkpt>
      <trkpt lat="41.8524499331" lon="-7.2521602549">
        <ele>715.63</ele>
        <time>2020-09-12T06:16:21Z</time>
      </trkpt>
      <trkpt lat="41.8524925131" lon="-7.2516486235">
        <ele>711.16</ele>
        <time>2020-09-12T06:16:23Z</time>
      </trkpt>
      <trkpt lat="41.8524908368" lon="-7.2511087451">
        <ele>707.36</ele>
        <time>2020-09-12T06:16:26Z</time>
      </trkpt>
      <trkpt lat="41.8524767552" lon="-7.250561323">
        <ele>705.57</ele>
        <time>2020-09-12T06:16:28Z</time>
      </trkpt>
      <trkpt lat="41.8524596561" lon="-7.2500058543">
        <ele>704.71</ele>
        <time>2020-09-12T06:16:31Z</time>
      </trkpt>
      <trkpt lat="41.8524429761" lon="-7.2494490445">
        <ele>704.72</ele>
        <time>2020-09-12T06:16:32Z</time>
      </trkpt>
      <trkpt lat="41.8524172436" lon="-7.2486346588">
        <ele>704.74</ele>
        <time>2020-09-12T06:16:33Z</time>
      </trkpt>
      <trkpt lat="41.8524007313" lon="-7.2481130529">
        <ele>703.67</ele>
        <time>2020-09-12T06:16:34Z</time>
      </trkpt>
      <trkpt lat="41.8523339275" lon="-7.2474266589">
        <ele>702.61</ele>
        <time>2020-09-12T06:16:35Z</time>
      </trkpt>
      <trkpt lat="41.8522650283" lon="-7.2472311929">
        <ele>697.78</ele>
        <time>2020-09-12T06:16:37Z</time>
      </trkpt>
      <trkpt lat="41.8521742523" lon="-7.2470674105">
        <ele>694.43</ele>
        <time>2020-09-12T06:16:38Z</time>
      </trkpt>
      <trkpt lat="41.8520751782" lon="-7.2469316237">
        <ele>690.88</ele>
        <time>2020-09-12T06:16:39Z</time>
      </trkpt>
      <trkpt lat="41.8519713264" lon="-7.2468070686">
        <ele>685.75</ele>
        <time>2020-09-12T06:16:41Z</time>
      </trkpt>
      <trkpt lat="41.8517336156" lon="-7.2465616465">
        <ele>683.73</ele>
        <time>2020-09-12T06:16:44Z</time>
      </trkpt>
      <trkpt lat="41.851595398" lon="-7.2464387678">
        <ele>679.28</ele>
        <time>2020-09-12T06:16:47Z</time>
      </trkpt>
      <trkpt lat="41.8514487986" lon="-7.2463108599">
        <ele>674.97</ele>
        <time>2020-09-12T06:16:48Z</time>
      </trkpt>
      <trkpt lat="41.851138752" lon="-7.2460403759">
        <ele>671.92</ele>
        <time>2020-09-12T06:16:49Z</time>
      </trkpt>
      <trkpt lat="41.8506603967" lon="-7.2456269804">
        <ele>670.66</ele>
        <time>2020-09-12T06:16:51Z</time>
      </trkpt>
      <trkpt lat="41.8502187543" lon="-7.2451743577">
        <ele>667.14</ele>
        <time>2020-09-12T06:16:53Z</time>
      </trkpt>
      <trkpt lat="41.8500878289" lon="-7.2449778859">
        <ele>665.01</ele>
        <time>2020-09-12T06:16:54Z</time>
      </trkpt>
      <trkpt lat="41.8499631062" lon="-7.2447673324">
        <ele>663.15</ele>
        <time>2020-09-12T06:16:55Z</time>
      </trkpt>
      <trkpt lat="41.8497283291" lon="-7.244346058">
        <ele>659</ele>
        <time>2020-09-12T06:16:56Z</time>
      </trkpt>
      <trkpt lat="41.8495041132" lon="-7.2439244483">
        <ele>656.9</ele>
        <time>2020-09-12T06:16:57Z</time>
      </trkpt>
      <trkpt lat="41.8494053744" lon="-7.2437015735">
        <ele>656.02</ele>
        <time>2020-09-12T06:16:58Z</time>
      </trkpt>
      <trkpt lat="41.849322645" lon="-7.2434637789">
        <ele>656.21</ele>
        <time>2020-09-12T06:16:59Z</time>
      </trkpt>
      <trkpt lat="41.8492551707" lon="-7.2432119865">
        <ele>656.07</ele>
        <time>2020-09-12T06:17:00Z</time>
      </trkpt>
      <trkpt lat="41.8492052983" lon="-7.2429513093">
        <ele>656.08</ele>
        <time>2020-09-12T06:17:01Z</time>
      </trkpt>
      <trkpt lat="41.8491669092" lon="-7.2426950745">
        <ele>656.08</ele>
        <time>2020-09-12T06:17:02Z</time>
      </trkpt>
      <trkpt lat="41.8491224851" lon="-7.2424612194">
        <ele>654.67</ele>
        <time>2020-09-12T06:17:03Z</time>
      </trkpt>
      <trkpt lat="41.849065572" lon="-7.2422583774">
        <ele>652.12</ele>
        <time>2020-09-12T06:17:04Z</time>
      </trkpt>
      <trkpt lat="41.8489850219" lon="-7.2420866322">
        <ele>648.82</ele>
        <time>2020-09-12T06:17:05Z</time>
      </trkpt>
      <trkpt lat="41.8488802481" lon="-7.2419580538">
        <ele>643.92</ele>
        <time>2020-09-12T06:17:06Z</time>
      </trkpt>
      <trkpt lat="41.8487496581" lon="-7.241876414">
        <ele>640.55</ele>
        <time>2020-09-12T06:17:07Z</time>
      </trkpt>
      <trkpt lat="41.848597778" lon="-7.2418406233">
        <ele>640.38</ele>
        <time>2020-09-12T06:17:08Z</time>
      </trkpt>
      <trkpt lat="41.8484297208" lon="-7.2418433893">
        <ele>644.02</ele>
        <time>2020-09-12T06:17:12Z</time>
      </trkpt>
      <trkpt lat="41.8482498452" lon="-7.241875995">
        <ele>645.17</ele>
        <time>2020-09-12T06:17:13Z</time>
      </trkpt>
      <trkpt lat="41.8480653595" lon="-7.2419194132">
        <ele>645.09</ele>
        <time>2020-09-12T06:17:14Z</time>
      </trkpt>
      <trkpt lat="41.8478873279" lon="-7.2419633344">
        <ele>641.84</ele>
        <time>2020-09-12T06:17:15Z</time>
      </trkpt>
      <trkpt lat="41.8473567534" lon="-7.2420800105">
        <ele>638.04</ele>
        <time>2020-09-12T06:17:16Z</time>
      </trkpt>
      <trkpt lat="41.8472759519" lon="-7.2420527693">
        <ele>634.35</ele>
        <time>2020-09-12T06:17:17Z</time>
      </trkpt>
      <trkpt lat="41.8472202122" lon="-7.2419754043">
        <ele>631.09</ele>
        <time>2020-09-12T06:17:18Z</time>
      </trkpt>
      <trkpt lat="41.84719624" lon="-7.2418475803">
        <ele>627.99</ele>
        <time>2020-09-12T06:17:19Z</time>
      </trkpt>
      <trkpt lat="41.84719624" lon="-7.2416750807">
        <ele>626.14</ele>
        <time>2020-09-12T06:17:20Z</time>
      </trkpt>
      <trkpt lat="41.8472054601" lon="-7.2414706461">
        <ele>614.8</ele>
        <time>2020-09-12T06:17:21Z</time>
      </trkpt>
      <trkpt lat="41.8472109083" lon="-7.241248861">
        <ele>611.35</ele>
        <time>2020-09-12T06:17:22Z</time>
      </trkpt>
      <trkpt lat="41.8471996766" lon="-7.241024645">
        <ele>610.25</ele>
        <time>2020-09-12T06:17:24Z</time>
      </trkpt>
      <trkpt lat="41.8471598625" lon="-7.2407964896">
        <ele>606.73</ele>
        <time>2020-09-12T06:17:26Z</time>
      </trkpt>
      <trkpt lat="41.8470958248" lon="-7.2405560128">
        <ele>606.6</ele>
        <time>2020-09-12T06:17:27Z</time>
      </trkpt>
      <trkpt lat="41.8470256682" lon="-7.2403080761">
        <ele>606.74</ele>
        <time>2020-09-12T06:17:30Z</time>
      </trkpt>
      <trkpt lat="41.8469071481" lon="-7.2398393601">
        <ele>605.39</ele>
        <time>2020-09-12T06:17:31Z</time>
      </trkpt>
      <trkpt lat="41.8467653263" lon="-7.2394086141">
        <ele>603.06</ele>
        <time>2020-09-12T06:17:32Z</time>
      </trkpt>
      <trkpt lat="41.8466688506" lon="-7.2392153274">
        <ele>599.57</ele>
        <time>2020-09-12T06:17:33Z</time>
      </trkpt>
      <trkpt lat="41.8464335706" lon="-7.238744013">
        <ele>597.93</ele>
        <time>2020-09-12T06:17:34Z</time>
      </trkpt>
      <trkpt lat="41.8464136217" lon="-7.2385834157">
        <ele>595.88</ele>
        <time>2020-09-12T06:17:35Z</time>
      </trkpt>
      <trkpt lat="41.8464390188" lon="-7.2384120058">
        <ele>593.3</ele>
        <time>2020-09-12T06:17:36Z</time>
      </trkpt>
      <trkpt lat="41.8464987818" lon="-7.238233136">
        <ele>591.2</ele>
        <time>2020-09-12T06:17:37Z</time>
      </trkpt>
      <trkpt lat="41.8465640768" lon="-7.2380582895">
        <ele>588.78</ele>
        <time>2020-09-12T06:17:38Z</time>
      </trkpt>
      <trkpt lat="41.846614955" lon="-7.2378784139">
        <ele>585.18</ele>
        <time>2020-09-12T06:17:39Z</time>
      </trkpt>
      <trkpt lat="41.8466390111" lon="-7.2376886476">
        <ele>582.23</ele>
        <time>2020-09-12T06:17:40Z</time>
      </trkpt>
      <trkpt lat="41.8466251809" lon="-7.2374981269">
        <ele>582.06</ele>
        <time>2020-09-12T06:17:41Z</time>
      </trkpt>
      <trkpt lat="41.8465735484" lon="-7.237310037">
        <ele>584.71</ele>
        <time>2020-09-12T06:17:42Z</time>
      </trkpt>
      <trkpt lat="41.846489897" lon="-7.2371258028">
        <ele>584.71</ele>
        <time>2020-09-12T06:17:43Z</time>
      </trkpt>
      <trkpt lat="41.846385207" lon="-7.2369498666">
        <ele>582.07</ele>
        <time>2020-09-12T06:17:44Z</time>
      </trkpt>
      <trkpt lat="41.8462758232" lon="-7.2367962264">
        <ele>580.05</ele>
        <time>2020-09-12T06:17:45Z</time>
      </trkpt>
      <trkpt lat="41.846164763" lon="-7.2366740182">
        <ele>579.3</ele>
        <time>2020-09-12T06:17:46Z</time>
      </trkpt>
      <trkpt lat="41.8460407108" lon="-7.2365824878">
        <ele>577.66</ele>
        <time>2020-09-12T06:17:47Z</time>
      </trkpt>
      <trkpt lat="41.8458962068" lon="-7.2365211323">
        <ele>577.67</ele>
        <time>2020-09-12T06:17:48Z</time>
      </trkpt>
      <trkpt lat="41.8457368668" lon="-7.2364901192">
        <ele>577.67</ele>
        <time>2020-09-12T06:17:49Z</time>
      </trkpt>
      <trkpt lat="41.8455700669" lon="-7.2364943102">
        <ele>580.79</ele>
        <time>2020-09-12T06:17:50Z</time>
      </trkpt>
      <trkpt lat="41.8453988247" lon="-7.2365329508">
        <ele>580.79</ele>
        <time>2020-09-12T06:17:51Z</time>
      </trkpt>
      <trkpt lat="41.845230516" lon="-7.2365958989">
        <ele>582.42</ele>
        <time>2020-09-12T06:17:52Z</time>
      </trkpt>
      <trkpt lat="41.8450726848" lon="-7.2366664745">
        <ele>583.73</ele>
        <time>2020-09-12T06:17:53Z</time>
      </trkpt>
      <trkpt lat="41.8449245766" lon="-7.2367220465">
        <ele>584.73</ele>
        <time>2020-09-12T06:17:54Z</time>
      </trkpt>
      <trkpt lat="41.8447850179" lon="-7.2367419954">
        <ele>584.74</ele>
        <time>2020-09-12T06:17:55Z</time>
      </trkpt>
      <trkpt lat="41.8446567748" lon="-7.2367258184">
        <ele>584.72</ele>
        <time>2020-09-12T06:17:56Z</time>
      </trkpt>
      <trkpt lat="41.8445451278" lon="-7.2366855014">
        <ele>584.75</ele>
        <time>2020-09-12T06:17:57Z</time>
      </trkpt>
      <trkpt lat="41.8444555253" lon="-7.2366226371">
        <ele>580.81</ele>
        <time>2020-09-12T06:17:58Z</time>
      </trkpt>
      <trkpt lat="41.8443947565" lon="-7.2365340404">
        <ele>577.66</ele>
        <time>2020-09-12T06:17:59Z</time>
      </trkpt>
      <trkpt lat="41.8443712872" lon="-7.2364307754">
        <ele>573.32</ele>
        <time>2020-09-12T06:18:00Z</time>
      </trkpt>
      <trkpt lat="41.8443944212" lon="-7.2363158595">
        <ele>570.81</ele>
        <time>2020-09-12T06:18:01Z</time>
      </trkpt>
      <trkpt lat="41.8444634043" lon="-7.2361959983">
        <ele>566.7</ele>
        <time>2020-09-12T06:18:02Z</time>
      </trkpt>
      <trkpt lat="41.8445646577" lon="-7.2360739578">
        <ele>563.32</ele>
        <time>2020-09-12T06:18:03Z</time>
      </trkpt>
      <trkpt lat="41.8446896318" lon="-7.2359520849">
        <ele>559.17</ele>
        <time>2020-09-12T06:18:04Z</time>
      </trkpt>
      <trkpt lat="41.8448326271" lon="-7.2358297091">
        <ele>554.24</ele>
        <time>2020-09-12T06:18:06Z</time>
      </trkpt>
      <trkpt lat="41.8449883629" lon="-7.2357040644">
        <ele>554.24</ele>
        <time>2020-09-12T06:18:07Z</time>
      </trkpt>
      <trkpt lat="41.845150888" lon="-7.2355710436">
        <ele>553.17</ele>
        <time>2020-09-12T06:18:08Z</time>
      </trkpt>
      <trkpt lat="41.8453181069" lon="-7.2354274616">
        <ele>549.1</ele>
        <time>2020-09-12T06:18:09Z</time>
      </trkpt>
      <trkpt lat="41.8456574902" lon="-7.2351251263">
        <ele>544.85</ele>
        <time>2020-09-12T06:18:10Z</time>
      </trkpt>
      <trkpt lat="41.845821524" lon="-7.2349804547">
        <ele>541.27</ele>
        <time>2020-09-12T06:18:11Z</time>
      </trkpt>
      <trkpt lat="41.8459843006" lon="-7.2348595876">
        <ele>541.28</ele>
        <time>2020-09-12T06:18:12Z</time>
      </trkpt>
      <trkpt lat="41.8461621646" lon="-7.234772332">
        <ele>541.3</ele>
        <time>2020-09-12T06:18:14Z</time>
      </trkpt>
      <trkpt lat="41.8463589717" lon="-7.2347164247">
        <ele>539.42</ele>
        <time>2020-09-12T06:18:15Z</time>
      </trkpt>
      <trkpt lat="41.8465653341" lon="-7.2346823942">
        <ele>536.23</ele>
        <time>2020-09-12T06:18:16Z</time>
      </trkpt>
      <trkpt lat="41.8467637338" lon="-7.2346556559">
        <ele>532.24</ele>
        <time>2020-09-12T06:18:17Z</time>
      </trkpt>
      <trkpt lat="41.8471161928" lon="-7.2345900256">
        <ele>528.52</ele>
        <time>2020-09-12T06:18:18Z</time>
      </trkpt>
      <trkpt lat="41.847274024" lon="-7.2345198691">
        <ele>528.52</ele>
        <time>2020-09-12T06:18:19Z</time>
      </trkpt>
      <trkpt lat="41.8474263232" lon="-7.2344002593">
        <ele>531.21</ele>
        <time>2020-09-12T06:18:20Z</time>
      </trkpt>
      <trkpt lat="41.8475737609" lon="-7.234237399">
        <ele>534.45</ele>
        <time>2020-09-12T06:18:22Z</time>
      </trkpt>
      <trkpt lat="41.8477134034" lon="-7.2340515722">
        <ele>537.4</ele>
        <time>2020-09-12T06:18:23Z</time>
      </trkpt>
      <trkpt lat="41.8478380423" lon="-7.2338665836">
        <ele>538.93</ele>
        <time>2020-09-12T06:18:24Z</time>
      </trkpt>
      <trkpt lat="41.8479439896" lon="-7.2336864565">
        <ele>539.74</ele>
        <time>2020-09-12T06:18:25Z</time>
      </trkpt>
      <trkpt lat="41.8481077719" lon="-7.2333996277">
        <ele>539.74</ele>
        <time>2020-09-12T06:18:26Z</time>
      </trkpt>
      <trkpt lat="41.8481734022" lon="-7.2333187424">
        <ele>539.74</ele>
        <time>2020-09-12T06:18:27Z</time>
      </trkpt>
      <trkpt lat="41.8482265435" lon="-7.2332735639">
        <ele>539.73</ele>
        <time>2020-09-12T06:18:28Z</time>
      </trkpt>
      <trkpt lat="41.8482606579" lon="-7.2332542017">
        <ele>539.73</ele>
        <time>2020-09-12T06:18:29Z</time>
      </trkpt>
      <trkpt lat="41.8482775055" lon="-7.2332578059">
        <ele>536.85</ele>
        <time>2020-09-12T06:18:30Z</time>
      </trkpt>
      <trkpt lat="41.8482853845" lon="-7.2332760785">
        <ele>533.83</ele>
        <time>2020-09-12T06:18:31Z</time>
      </trkpt>
      <trkpt lat="41.8482982088" lon="-7.2332989611">
        <ele>531.71</ele>
        <time>2020-09-12T06:18:32Z</time>
      </trkpt>
      <trkpt lat="41.8483229354" lon="-7.2333132941">
        <ele>529.31</ele>
        <time>2020-09-12T06:18:33Z</time>
      </trkpt>
      <trkpt lat="41.8483655155" lon="-7.233312875">
        <ele>525.98</ele>
        <time>2020-09-12T06:18:34Z</time>
      </trkpt>
      <trkpt lat="41.8484295532" lon="-7.2333017271">
        <ele>522.19</ele>
        <time>2020-09-12T06:18:36Z</time>
      </trkpt>
      <trkpt lat="41.8485059123" lon="-7.2332812753">
        <ele>520.29</ele>
        <time>2020-09-12T06:18:37Z</time>
      </trkpt>
      <trkpt lat="41.8485907372" lon="-7.2332371026">
        <ele>519.39</ele>
        <time>2020-09-12T06:18:38Z</time>
      </trkpt>
      <trkpt lat="41.8486863747" lon="-7.2331649344">
        <ele>518.41</ele>
        <time>2020-09-12T06:18:39Z</time>
      </trkpt>
      <trkpt lat="41.8488993589" lon="-7.2329979669">
        <ele>517.37</ele>
        <time>2020-09-12T06:18:41Z</time>
      </trkpt>
      <trkpt lat="41.8490121793" lon="-7.2329291515">
        <ele>517.37</ele>
        <time>2020-09-12T06:18:42Z</time>
      </trkpt>
      <trkpt lat="41.849128101" lon="-7.2328737471">
        <ele>517.36</ele>
        <time>2020-09-12T06:18:43Z</time>
      </trkpt>
      <trkpt lat="41.8492439389" lon="-7.2328299936">
        <ele>516.07</ele>
        <time>2020-09-12T06:18:44Z</time>
      </trkpt>
      <trkpt lat="41.8494569231" lon="-7.2327588312">
        <ele>515.09</ele>
        <time>2020-09-12T06:18:45Z</time>
      </trkpt>
      <trkpt lat="41.8495414965" lon="-7.2327228729">
        <ele>514.02</ele>
        <time>2020-09-12T06:18:46Z</time>
      </trkpt>
      <trkpt lat="41.8496181071" lon="-7.2326702345">
        <ele>512.27</ele>
        <time>2020-09-12T06:18:47Z</time>
      </trkpt>
      <trkpt lat="41.849687174" lon="-7.232597312">
        <ele>512.26</ele>
        <time>2020-09-12T06:18:48Z</time>
      </trkpt>
      <trkpt lat="41.8497492839" lon="-7.2325086314">
        <ele>510.44</ele>
        <time>2020-09-12T06:18:49Z</time>
      </trkpt>
      <trkpt lat="41.8498053588" lon="-7.2324083839">
        <ele>509.28</ele>
        <time>2020-09-12T06:18:50Z</time>
      </trkpt>
      <trkpt lat="41.8498559017" lon="-7.2323010955">
        <ele>508.29</ele>
        <time>2020-09-12T06:18:51Z</time>
      </trkpt>
      <trkpt lat="41.8499001581" lon="-7.2321927175">
        <ele>507.31</ele>
        <time>2020-09-12T06:18:52Z</time>
      </trkpt>
      <trkpt lat="41.8499320932" lon="-7.232077634">
        <ele>504.9</ele>
        <time>2020-09-12T06:18:53Z</time>
      </trkpt>
      <trkpt lat="41.8499494437" lon="-7.2319572698">
        <ele>502.53</ele>
        <time>2020-09-12T06:18:54Z</time>
      </trkpt>
      <trkpt lat="41.8499587476" lon="-7.231833972">
        <ele>502.63</ele>
        <time>2020-09-12T06:18:55Z</time>
      </trkpt>
      <trkpt lat="41.8499812111" lon="-7.2317135241">
        <ele>501.5</ele>
        <time>2020-09-12T06:18:56Z</time>
      </trkpt>
      <trkpt lat="41.8500258867" lon="-7.2315953393">
        <ele>501.43</ele>
        <time>2020-09-12T06:18:57Z</time>
      </trkpt>
      <trkpt lat="41.8500878289" lon="-7.231484782">
        <ele>500.6</ele>
        <time>2020-09-12T06:18:58Z</time>
      </trkpt>
      <trkpt lat="41.8501552194" lon="-7.231388893">
        <ele>500.65</ele>
        <time>2020-09-12T06:18:59Z</time>
      </trkpt>
      <trkpt lat="41.8502214365" lon="-7.2313082591">
        <ele>500.75</ele>
        <time>2020-09-12T06:19:00Z</time>
      </trkpt>
      <trkpt lat="41.8502874859" lon="-7.2312541958">
        <ele>500.75</ele>
        <time>2020-09-12T06:19:01Z</time>
      </trkpt>
      <trkpt lat="41.8503595702" lon="-7.2312357556">
        <ele>500.72</ele>
        <time>2020-09-12T06:19:02Z</time>
      </trkpt>
      <trkpt lat="41.8504329957" lon="-7.2312345821">
        <ele>503.74</ele>
        <time>2020-09-12T06:19:03Z</time>
      </trkpt>
      <trkpt lat="41.850505583" lon="-7.2312381864">
        <ele>503.14</ele>
        <time>2020-09-12T06:19:04Z</time>
      </trkpt>
      <trkpt lat="41.850583367" lon="-7.2312478255">
        <ele>504.53</ele>
        <time>2020-09-12T06:19:05Z</time>
      </trkpt>
      <trkpt lat="41.8506706227" lon="-7.23127448">
        <ele>512.59</ele>
        <time>2020-09-12T06:19:06Z</time>
      </trkpt>
      <trkpt lat="41.8507629074" lon="-7.2313247714">
        <ele>512.47</ele>
        <time>2020-09-12T06:19:07Z</time>
      </trkpt>
      <trkpt lat="41.8508513365" lon="-7.2313947603">
        <ele>513.62</ele>
        <time>2020-09-12T06:19:09Z</time>
      </trkpt>
      <trkpt lat="41.8509244267" lon="-7.2314551938">
        <ele>518.2</ele>
        <time>2020-09-12T06:19:14Z</time>
      </trkpt>
      <trkpt lat="41.8509826809" lon="-7.2314779926">
        <ele>525.34</ele>
        <time>2020-09-12T06:19:17Z</time>
      </trkpt>
      <trkpt lat="41.8510390911" lon="-7.2314600553">
        <ele>527.86</ele>
        <time>2020-09-12T06:19:20Z</time>
      </trkpt>
      <trkpt lat="41.851164652" lon="-7.2313370928">
        <ele>533.7</ele>
        <time>2020-09-12T06:19:23Z</time>
      </trkpt>
      <trkpt lat="41.8516473658" lon="-7.2309784312">
        <ele>534.39</ele>
        <time>2020-09-12T06:19:25Z</time>
      </trkpt>
      <trkpt lat="41.851878874" lon="-7.2307392955">
        <ele>537.89</ele>
        <time>2020-09-12T06:19:27Z</time>
      </trkpt>
      <trkpt lat="41.8520564027" lon="-7.2305242158">
        <ele>543.12</ele>
        <time>2020-09-12T06:19:31Z</time>
      </trkpt>
      <trkpt lat="41.8522514496" lon="-7.2304013371">
        <ele>544.26</ele>
        <time>2020-09-12T06:19:33Z</time>
      </trkpt>
      <trkpt lat="41.8523638509" lon="-7.2304611001">
        <ele>547.35</ele>
        <time>2020-09-12T06:19:37Z</time>
      </trkpt>
      <trkpt lat="41.8524421379" lon="-7.2305694781">
        <ele>548.11</ele>
        <time>2020-09-12T06:19:38Z</time>
      </trkpt>
      <trkpt lat="41.8525585625" lon="-7.2308377828">
        <ele>548.86</ele>
        <time>2020-09-12T06:19:40Z</time>
      </trkpt>
      <trkpt lat="41.8525298126" lon="-7.2309181653">
        <ele>550.14</ele>
        <time>2020-09-12T06:19:48Z</time>
      </trkpt>
      <trkpt lat="41.852337867" lon="-7.2309645172">
        <ele>550.11</ele>
        <time>2020-09-12T06:19:56Z</time>
      </trkpt>
      <trkpt lat="41.8523126375" lon="-7.23097248">
        <ele>550.15</ele>
        <time>2020-09-12T06:19:59Z</time>
      </trkpt>
      <trkpt lat="41.8522570655" lon="-7.2309972905">
        <ele>551.76</ele>
        <time>2020-09-12T06:20:04Z</time>
      </trkpt>
      <trkpt lat="41.8522051815" lon="-7.2310228553">
        <ele>555.46</ele>
        <time>2020-09-12T06:20:07Z</time>
      </trkpt>
      <trkpt lat="41.852197554" lon="-7.2310281359">
        <ele>559.79</ele>
        <time>2020-09-12T06:20:11Z</time>
      </trkpt>
      <trkpt lat="41.8521430716" lon="-7.2310842946">
        <ele>561.73</ele>
        <time>2020-09-12T06:20:14Z</time>
      </trkpt>
      <trkpt lat="41.8520211987" lon="-7.2313977778">
        <ele>563.12</ele>
        <time>2020-09-12T06:20:16Z</time>
      </trkpt>
      <trkpt lat="41.8520403933" lon="-7.2316331416">
        <ele>565.8</ele>
        <time>2020-09-12T06:20:19Z</time>
      </trkpt>
      <trkpt lat="41.8522294052" lon="-7.2318505682">
        <ele>568.61</ele>
        <time>2020-09-12T06:20:24Z</time>
      </trkpt>
      <trkpt lat="41.8524055928" lon="-7.2319810744">
        <ele>571.66</ele>
        <time>2020-09-12T06:20:26Z</time>
      </trkpt>
      <trkpt lat="41.8525024876" lon="-7.2321048751">
        <ele>572.59</ele>
        <time>2020-09-12T06:20:27Z</time>
      </trkpt>
      <trkpt lat="41.8526221812" lon="-7.2322956473">
        <ele>576.49</ele>
        <time>2020-09-12T06:20:30Z</time>
      </trkpt>
      <trkpt lat="41.8528165575" lon="-7.2326749284">
        <ele>577.54</ele>
        <time>2020-09-12T06:20:32Z</time>
      </trkpt>
      <trkpt lat="41.8528943416" lon="-7.2328379564">
        <ele>576.89</ele>
        <time>2020-09-12T06:20:33Z</time>
      </trkpt>
      <trkpt lat="41.852935832" lon="-7.2329150699">
        <ele>580.88</ele>
        <time>2020-09-12T06:20:38Z</time>
      </trkpt>
      <trkpt lat="41.8530540168" lon="-7.233021101">
        <ele>582.43</ele>
        <time>2020-09-12T06:20:41Z</time>
      </trkpt>
      <trkpt lat="41.8530644104" lon="-7.2329811193">
        <ele>585.38</ele>
        <time>2020-09-12T06:20:44Z</time>
      </trkpt>
      <trkpt lat="41.8530390132" lon="-7.2329431493">
        <ele>585.54</ele>
        <time>2020-09-12T06:20:45Z</time>
      </trkpt>
      <trkpt lat="41.8529240973" lon="-7.2326254752">
        <ele>586.07</ele>
        <time>2020-09-12T06:20:47Z</time>
      </trkpt>
      <trkpt lat="41.8529035617" lon="-7.2323741857">
        <ele>591.79</ele>
        <time>2020-09-12T06:20:51Z</time>
      </trkpt>
      <trkpt lat="41.8529516738" lon="-7.2322436795">
        <ele>593.57</ele>
        <time>2020-09-12T06:20:54Z</time>
      </trkpt>
      <trkpt lat="41.8529871292" lon="-7.2322435956">
        <ele>596.04</ele>
        <time>2020-09-12T06:20:59Z</time>
      </trkpt>
      <trkpt lat="41.8530697748" lon="-7.2323001735">
        <ele>597.27</ele>
        <time>2020-09-12T06:21:00Z</time>
      </trkpt>
      <trkpt lat="41.8532441184" lon="-7.2325087152">
        <ele>600.37</ele>
        <time>2020-09-12T06:21:02Z</time>
      </trkpt>
      <trkpt lat="41.853317963" lon="-7.2325837333">
        <ele>601.99</ele>
        <time>2020-09-12T06:21:03Z</time>
      </trkpt>
      <trkpt lat="41.8535513151" lon="-7.2327185981">
        <ele>606.14</ele>
        <time>2020-09-12T06:21:06Z</time>
      </trkpt>
      <trkpt lat="41.8536084797" lon="-7.2327501141">
        <ele>610.11</ele>
        <time>2020-09-12T06:21:08Z</time>
      </trkpt>
      <trkpt lat="41.8537352979" lon="-7.2327968013">
        <ele>614.24</ele>
        <time>2020-09-12T06:21:11Z</time>
      </trkpt>
      <trkpt lat="41.8538029399" lon="-7.2328160796">
        <ele>617.61</ele>
        <time>2020-09-12T06:21:13Z</time>
      </trkpt>
      <trkpt lat="41.8540117331" lon="-7.2328385431">
        <ele>619.04</ele>
        <time>2020-09-12T06:21:15Z</time>
      </trkpt>
      <trkpt lat="41.8541378807" lon="-7.2328517865">
        <ele>622.29</ele>
        <time>2020-09-12T06:21:17Z</time>
      </trkpt>
      <trkpt lat="41.8543342687" lon="-7.2328822128">
        <ele>627.25</ele>
        <time>2020-09-12T06:21:20Z</time>
      </trkpt>
      <trkpt lat="41.8544602487" lon="-7.2328947019">
        <ele>627.21</ele>
        <time>2020-09-12T06:21:21Z</time>
      </trkpt>
      <trkpt lat="41.8545833789" lon="-7.2329112142">
        <ele>631.58</ele>
        <time>2020-09-12T06:21:23Z</time>
      </trkpt>
      <trkpt lat="41.8547156453" lon="-7.2329359408">
        <ele>634.84</ele>
        <time>2020-09-12T06:21:26Z</time>
      </trkpt>
      <trkpt lat="41.854926534" lon="-7.2329523694">
        <ele>634.84</ele>
        <time>2020-09-12T06:21:27Z</time>
      </trkpt>
      <trkpt lat="41.8550008815" lon="-7.2329511121">
        <ele>638.21</ele>
        <time>2020-09-12T06:21:29Z</time>
      </trkpt>
      <trkpt lat="41.8551447988" lon="-7.232930325">
        <ele>638.04</ele>
        <time>2020-09-12T06:21:30Z</time>
      </trkpt>
      <trkpt lat="41.8553583696" lon="-7.2328851465">
        <ele>641.05</ele>
        <time>2020-09-12T06:21:33Z</time>
      </trkpt>
      <trkpt lat="41.855431376" lon="-7.2328665387">
        <ele>642.84</ele>
        <time>2020-09-12T06:21:35Z</time>
      </trkpt>
      <trkpt lat="41.8555766344" lon="-7.2328270599">
        <ele>644.66</ele>
        <time>2020-09-12T06:21:36Z</time>
      </trkpt>
      <trkpt lat="41.8556506466" lon="-7.2328113858">
        <ele>646.74</ele>
        <time>2020-09-12T06:21:39Z</time>
      </trkpt>
      <trkpt lat="41.8558777124" lon="-7.2327687219">
        <ele>649.64</ele>
        <time>2020-09-12T06:21:41Z</time>
      </trkpt>
      <trkpt lat="41.856025653" lon="-7.2327494435">
        <ele>652.67</ele>
        <time>2020-09-12T06:21:43Z</time>
      </trkpt>
      <trkpt lat="41.8560945522" lon="-7.2327444144">
        <ele>657.13</ele>
        <time>2020-09-12T06:21:46Z</time>
      </trkpt>
      <trkpt lat="41.8562895153" lon="-7.2327818815">
        <ele>659.62</ele>
        <time>2020-09-12T06:21:48Z</time>
      </trkpt>
      <trkpt lat="41.8564168364" lon="-7.2328489367">
        <ele>665.47</ele>
        <time>2020-09-12T06:21:51Z</time>
      </trkpt>
      <trkpt lat="41.8565324228" lon="-7.2329288162">
        <ele>669.42</ele>
        <time>2020-09-12T06:21:53Z</time>
      </trkpt>
      <trkpt lat="41.8566801958" lon="-7.2330893297">
        <ele>675.44</ele>
        <time>2020-09-12T06:21:56Z</time>
      </trkpt>
      <trkpt lat="41.8567808624" lon="-7.2332113702">
        <ele>679.49</ele>
        <time>2020-09-12T06:21:58Z</time>
      </trkpt>
      <trkpt lat="41.8569397833" lon="-7.2333767451">
        <ele>682.99</ele>
        <time>2020-09-12T06:22:00Z</time>
      </trkpt>
      <trkpt lat="41.8570348341" lon="-7.2334903199">
        <ele>685.31</ele>
        <time>2020-09-12T06:22:02Z</time>
      </trkpt>
      <trkpt lat="41.8571287952" lon="-7.2337002028">
        <ele>685.97</ele>
        <time>2020-09-12T06:22:05Z</time>
      </trkpt>
      <trkpt lat="41.8571390212" lon="-7.2338586207">
        <ele>690.46</ele>
        <time>2020-09-12T06:22:11Z</time>
      </trkpt>
      <trkpt lat="41.8571536057" lon="-7.233989127">
        <ele>690.3</ele>
        <time>2020-09-12T06:22:12Z</time>
      </trkpt>
      <trkpt lat="41.8571964372" lon="-7.2340627201">
        <ele>691.14</ele>
        <time>2020-09-12T06:22:14Z</time>
      </trkpt>
      <trkpt lat="41.8572737183" lon="-7.2341603693">
        <ele>697.19</ele>
        <time>2020-09-12T06:22:19Z</time>
      </trkpt>
      <trkpt lat="41.8575507402" lon="-7.2343111597">
        <ele>700.84</ele>
        <time>2020-09-12T06:22:22Z</time>
      </trkpt>
      <trkpt lat="41.8576001097" lon="-7.2342912108">
        <ele>700.87</ele>
        <time>2020-09-12T06:22:23Z</time>
      </trkpt>
      <trkpt lat="41.8576999381" lon="-7.2342279274">
        <ele>702.74</ele>
        <time>2020-09-12T06:22:25Z</time>
      </trkpt>
      <trkpt lat="41.8579596933" lon="-7.2340112552">
        <ele>704.68</ele>
        <time>2020-09-12T06:22:28Z</time>
      </trkpt>
      <trkpt lat="41.8581275828" lon="-7.2338715289">
        <ele>708.14</ele>
        <time>2020-09-12T06:22:31Z</time>
      </trkpt>
      <trkpt lat="41.8581886869" lon="-7.2338233329">
        <ele>709.94</ele>
        <time>2020-09-12T06:22:34Z</time>
      </trkpt>
      <trkpt lat="41.8583273236" lon="-7.2337337304">
        <ele>713.46</ele>
        <time>2020-09-12T06:22:36Z</time>
      </trkpt>
      <trkpt lat="41.8585753441" lon="-7.2336298786">
        <ele>717.37</ele>
        <time>2020-09-12T06:22:39Z</time>
      </trkpt>
      <trkpt lat="41.8588270526" lon="-7.2335660085">
        <ele>718.19</ele>
        <time>2020-09-12T06:22:40Z</time>
      </trkpt>
      <trkpt lat="41.8590771686" lon="-7.2335312236">
        <ele>720.57</ele>
        <time>2020-09-12T06:22:43Z</time>
      </trkpt>
      <trkpt lat="41.8592446391" lon="-7.2335184831">
        <ele>721.61</ele>
        <time>2020-09-12T06:22:46Z</time>
      </trkpt>
      <trkpt lat="41.8594987784" lon="-7.2335177287">
        <ele>723.16</ele>
        <time>2020-09-12T06:22:48Z</time>
      </trkpt>
      <trkpt lat="41.8595841061" lon="-7.2335285414">
        <ele>724.76</ele>
        <time>2020-09-12T06:22:52Z</time>
      </trkpt>
      <trkpt lat="41.8598392513" lon="-7.2336043976">
        <ele>726.99</ele>
        <time>2020-09-12T06:22:58Z</time>
      </trkpt>
      <trkpt lat="41.8600957375" lon="-7.2336445469">
        <ele>730.89</ele>
        <time>2020-09-12T06:23:02Z</time>
      </trkpt>
      <trkpt lat="41.8602668121" lon="-7.2336372547">
        <ele>734.28</ele>
        <time>2020-09-12T06:23:04Z</time>
      </trkpt>
      <trkpt lat="41.8605801277" lon="-7.2335737199">
        <ele>734.31</ele>
        <time>2020-09-12T06:23:05Z</time>
      </trkpt>
      <trkpt lat="41.8610699661" lon="-7.2333611548">
        <ele>737.16</ele>
        <time>2020-09-12T06:23:08Z</time>
      </trkpt>
      <trkpt lat="41.8614098523" lon="-7.2332201712">
        <ele>739.09</ele>
        <time>2020-09-12T06:23:11Z</time>
      </trkpt>
      <trkpt lat="41.8615872134" lon="-7.2331453208">
        <ele>741.56</ele>
        <time>2020-09-12T06:23:16Z</time>
      </trkpt>
      <trkpt lat="41.861675391" lon="-7.2331024054">
        <ele>744.19</ele>
        <time>2020-09-12T06:23:21Z</time>
      </trkpt>
      <trkpt lat="41.8619443662" lon="-7.2329423949">
        <ele>744.82</ele>
        <time>2020-09-12T06:23:28Z</time>
      </trkpt>
      <trkpt lat="41.8622076418" lon="-7.2327516228">
        <ele>741.56</ele>
        <time>2020-09-12T06:23:31Z</time>
      </trkpt>
      <trkpt lat="41.8626422435" lon="-7.2323977388">
        <ele>740.7</ele>
        <time>2020-09-12T06:23:33Z</time>
      </trkpt>
      <trkpt lat="41.8630328402" lon="-7.2319975868">
        <ele>737.38</ele>
        <time>2020-09-12T06:23:38Z</time>
      </trkpt>
      <trkpt lat="41.8634072598" lon="-7.2314165533">
        <ele>734.89</ele>
        <time>2020-09-12T06:23:41Z</time>
      </trkpt>
      <trkpt lat="41.8636183161" lon="-7.2311829496">
        <ele>732.87</ele>
        <time>2020-09-12T06:23:43Z</time>
      </trkpt>
      <trkpt lat="41.863769358" lon="-7.2310490906">
        <ele>727.79</ele>
        <time>2020-09-12T06:23:48Z</time>
      </trkpt>
      <trkpt lat="41.864162134" lon="-7.230803417">
        <ele>727.68</ele>
        <time>2020-09-12T06:23:49Z</time>
      </trkpt>
      <trkpt lat="41.8643883616" lon="-7.2306859866">
        <ele>726.38</ele>
        <time>2020-09-12T06:23:52Z</time>
      </trkpt>
      <trkpt lat="41.8645261601" lon="-7.2306120582">
        <ele>725.49</ele>
        <time>2020-09-12T06:24:01Z</time>
      </trkpt>
      <trkpt lat="41.8647714145" lon="-7.2303404007">
        <ele>724.69</ele>
        <time>2020-09-12T06:24:15Z</time>
      </trkpt>
      <trkpt lat="41.8648054451" lon="-7.230284242">
        <ele>724.78</ele>
        <time>2020-09-12T06:24:33Z</time>
      </trkpt>
      <trkpt lat="41.864892533" lon="-7.2301347088">
        <ele>724.76</ele>
        <time>2020-09-12T06:24:53Z</time>
      </trkpt>
      <trkpt lat="41.8650161661" lon="-7.2299884446">
        <ele>723.91</ele>
        <time>2020-09-12T06:25:17Z</time>
      </trkpt>
      <trkpt lat="41.8651196826" lon="-7.2298943996">
        <ele>723.9</ele>
        <time>2020-09-12T06:25:29Z</time>
      </trkpt>
      <trkpt lat="41.8651337642" lon="-7.229881743">
        <ele>723.89</ele>
        <time>2020-09-12T06:25:45Z</time>
      </trkpt>
      <trkpt lat="41.8651581556" lon="-7.229865063">
        <ele>725.34</ele>
        <time>2020-09-12T06:25:52Z</time>
      </trkpt>
      <trkpt lat="41.8651615921" lon="-7.2298643924">
        <ele>722.71</ele>
        <time>2020-09-12T06:25:55Z</time>
      </trkpt>
      <trkpt lat="41.8651933596" lon="-7.2298330441">
        <ele>721.03</ele>
        <time>2020-09-12T06:25:58Z</time>
      </trkpt>
      <trkpt lat="41.8652279768" lon="-7.2298188787">
        <ele>721.03</ele>
        <time>2020-09-12T06:26:12Z</time>
      </trkpt>
      <trkpt lat="41.865311712" lon="-7.2297620494">
        <ele>721.05</ele>
        <time>2020-09-12T06:26:13Z</time>
      </trkpt>
      <trkpt lat="41.8653497659" lon="-7.2297375742">
        <ele>721.07</ele>
        <time>2020-09-12T06:26:18Z</time>
      </trkpt>
      <trkpt lat="41.8654067628" lon="-7.2297059745">
        <ele>721.11</ele>
        <time>2020-09-12T06:26:26Z</time>
      </trkpt>
      <trkpt lat="41.8656211719" lon="-7.229580665">
        <ele>721.1</ele>
        <time>2020-09-12T06:26:30Z</time>
      </trkpt>
      <trkpt lat="41.8656269554" lon="-7.2295711096">
        <ele>721.06</ele>
        <time>2020-09-12T06:26:37Z</time>
      </trkpt>
      <trkpt lat="41.8656970281" lon="-7.2295292001">
        <ele>721.06</ele>
        <time>2020-09-12T06:26:45Z</time>
      </trkpt>
      <trkpt lat="41.8657946773" lon="-7.2294719517">
        <ele>721.02</ele>
        <time>2020-09-12T06:26:50Z</time>
      </trkpt>
      <trkpt lat="41.8658191524" lon="-7.2293851152">
        <ele>720.94</ele>
        <time>2020-09-12T06:26:59Z</time>
      </trkpt>
      <trkpt lat="41.8658970203" lon="-7.229152685">
        <ele>720.9</ele>
        <time>2020-09-12T06:27:01Z</time>
      </trkpt>
      <trkpt lat="41.8659296259" lon="-7.229052186">
        <ele>719.57</ele>
        <time>2020-09-12T06:27:03Z</time>
      </trkpt>
      <trkpt lat="41.8659239262" lon="-7.2289315704">
        <ele>719.58</ele>
        <time>2020-09-12T06:27:10Z</time>
      </trkpt>
      <trkpt lat="41.8659216631" lon="-7.2285166662">
        <ele>719.27</ele>
        <time>2020-09-12T06:29:14Z</time>
      </trkpt>
      <trkpt lat="41.8659233395" lon="-7.2283635288">
        <ele>717.59</ele>
        <time>2020-09-12T06:29:22Z</time>
      </trkpt>
      <trkpt lat="41.8659398519" lon="-7.2281961422">
        <ele>715.91</ele>
        <time>2020-09-12T06:29:25Z</time>
      </trkpt>
      <trkpt lat="41.8660286162" lon="-7.2277868539">
        <ele>715.91</ele>
        <time>2020-09-12T06:29:27Z</time>
      </trkpt>
      <trkpt lat="41.8661335576" lon="-7.227805797">
        <ele>711.19</ele>
        <time>2020-09-12T06:29:30Z</time>
      </trkpt>
      <trkpt lat="41.8666977435" lon="-7.227827087">
        <ele>708.83</ele>
        <time>2020-09-12T06:29:33Z</time>
      </trkpt>
      <trkpt lat="41.8669047765" lon="-7.2277499735">
        <ele>707.55</ele>
        <time>2020-09-12T06:29:36Z</time>
      </trkpt>
      <trkpt lat="41.867002761" lon="-7.2276052181">
        <ele>707.48</ele>
        <time>2020-09-12T06:29:37Z</time>
      </trkpt>
      <trkpt lat="41.8671741709" lon="-7.2272722051">
        <ele>710.72</ele>
        <time>2020-09-12T06:29:40Z</time>
      </trkpt>
      <trkpt lat="41.8674479239" lon="-7.2269702051">
        <ele>713.48</ele>
        <time>2020-09-12T06:29:43Z</time>
      </trkpt>
      <trkpt lat="41.8677987065" lon="-7.2268003039">
        <ele>716.36</ele>
        <time>2020-09-12T06:29:46Z</time>
      </trkpt>
      <trkpt lat="41.8679253571" lon="-7.2267817799">
        <ele>718.95</ele>
        <time>2020-09-12T06:29:48Z</time>
      </trkpt>
      <trkpt lat="41.8682978489" lon="-7.226751605">
        <ele>722.55</ele>
        <time>2020-09-12T06:29:49Z</time>
      </trkpt>
      <trkpt lat="41.8686666526" lon="-7.2267346736">
        <ele>726.37</ele>
        <time>2020-09-12T06:29:51Z</time>
      </trkpt>
      <trkpt lat="41.8690577522" lon="-7.226709025">
        <ele>726.34</ele>
        <time>2020-09-12T06:29:52Z</time>
      </trkpt>
      <trkpt lat="41.8693157472" lon="-7.2266371083">
        <ele>723.1</ele>
        <time>2020-09-12T06:29:54Z</time>
      </trkpt>
      <trkpt lat="41.8694276456" lon="-7.2265843861">
        <ele>719.24</ele>
        <time>2020-09-12T06:29:56Z</time>
      </trkpt>
      <trkpt lat="41.8695998099" lon="-7.2264579032">
        <ele>719.32</ele>
        <time>2020-09-12T06:29:57Z</time>
      </trkpt>
      <trkpt lat="41.8696735706" lon="-7.2263666242">
        <ele>719.14</ele>
        <time>2020-09-12T06:30:01Z</time>
      </trkpt>
      <trkpt lat="41.8698381074" lon="-7.2261503711">
        <ele>714.78</ele>
        <time>2020-09-12T06:30:04Z</time>
      </trkpt>
      <trkpt lat="41.8700177316" lon="-7.2259405721">
        <ele>714.8</ele>
        <time>2020-09-12T06:30:10Z</time>
      </trkpt>
      <trkpt lat="41.8700945098" lon="-7.2258517239">
        <ele>714.79</ele>
        <time>2020-09-12T06:30:14Z</time>
      </trkpt>
      <trkpt lat="41.8703741301" lon="-7.2257449385">
        <ele>712.98</ele>
        <time>2020-09-12T06:30:21Z</time>
      </trkpt>
      <trkpt lat="41.8705843482" lon="-7.2257167753">
        <ele>713</ele>
        <time>2020-09-12T06:30:26Z</time>
      </trkpt>
      <trkpt lat="41.8706377409" lon="-7.2256477084">
        <ele>715.3</ele>
        <time>2020-09-12T06:30:31Z</time>
      </trkpt>
      <trkpt lat="41.8706342205" lon="-7.2256312799">
        <ele>715.29</ele>
        <time>2020-09-12T06:30:32Z</time>
      </trkpt>
      <trkpt lat="41.8705653213" lon="-7.2248918284">
        <ele>710.65</ele>
        <time>2020-09-12T06:30:34Z</time>
      </trkpt>
      <trkpt lat="41.8706741184" lon="-7.2243151534">
        <ele>708.9</ele>
        <time>2020-09-12T06:30:36Z</time>
      </trkpt>
      <trkpt lat="41.8708346318" lon="-7.2238512151">
        <ele>708.14</ele>
        <time>2020-09-12T06:30:38Z</time>
      </trkpt>
      <trkpt lat="41.8707818259" lon="-7.2237698268">
        <ele>702.86</ele>
        <time>2020-09-12T06:30:42Z</time>
      </trkpt>
      <trkpt lat="41.8706378248" lon="-7.2236150131">
        <ele>701.79</ele>
        <time>2020-09-12T06:30:44Z</time>
      </trkpt>
      <trkpt lat="41.8705304526" lon="-7.2234606184">
        <ele>700.05</ele>
        <time>2020-09-12T06:30:48Z</time>
      </trkpt>
      <trkpt lat="41.8705125991" lon="-7.2232884541">
        <ele>703.08</ele>
        <time>2020-09-12T06:30:55Z</time>
      </trkpt>
      <trkpt lat="41.8704781495" lon="-7.222770201">
        <ele>703.37</ele>
        <time>2020-09-12T06:31:02Z</time>
      </trkpt>
      <trkpt lat="41.8704224937" lon="-7.2224578075">
        <ele>699.96</ele>
        <time>2020-09-12T06:31:04Z</time>
      </trkpt>
      <trkpt lat="41.870426517" lon="-7.2217679769">
        <ele>693.25</ele>
        <time>2020-09-12T06:31:08Z</time>
      </trkpt>
      <trkpt lat="41.8703128584" lon="-7.2206308879">
        <ele>689.66</ele>
        <time>2020-09-12T06:31:10Z</time>
      </trkpt>
      <trkpt lat="41.8704867829" lon="-7.2199909296">
        <ele>684.78</ele>
        <time>2020-09-12T06:31:12Z</time>
      </trkpt>
      <trkpt lat="41.8706417643" lon="-7.2200135607">
        <ele>683.16</ele>
        <time>2020-09-12T06:31:14Z</time>
      </trkpt>
      <trkpt lat="41.871033702" lon="-7.2201586515">
        <ele>677.78</ele>
        <time>2020-09-12T06:31:16Z</time>
      </trkpt>
      <trkpt lat="41.8712365441" lon="-7.2202114575">
        <ele>677.81</ele>
        <time>2020-09-12T06:31:17Z</time>
      </trkpt>
      <trkpt lat="41.8714432418" lon="-7.2202920076">
        <ele>671.72</ele>
        <time>2020-09-12T06:31:19Z</time>
      </trkpt>
      <trkpt lat="41.871628901" lon="-7.2204005532">
        <ele>672.09</ele>
        <time>2020-09-12T06:31:25Z</time>
      </trkpt>
      <trkpt lat="41.8718231097" lon="-7.2204940114">
        <ele>674.33</ele>
        <time>2020-09-12T06:31:27Z</time>
      </trkpt>
      <trkpt lat="41.8719240278" lon="-7.2205336578">
        <ele>671.41</ele>
        <time>2020-09-12T06:31:30Z</time>
      </trkpt>
      <trkpt lat="41.8721214216" lon="-7.2206311394">
        <ele>674.73</ele>
        <time>2020-09-12T06:31:32Z</time>
      </trkpt>
      <trkpt lat="41.8724127766" lon="-7.2205675207">
        <ele>676</ele>
        <time>2020-09-12T06:31:34Z</time>
      </trkpt>
      <trkpt lat="41.8723405246" lon="-7.2204065043">
        <ele>671.89</ele>
        <time>2020-09-12T06:31:36Z</time>
      </trkpt>
      <trkpt lat="41.8722108565" lon="-7.2200102918">
        <ele>668.67</ele>
        <time>2020-09-12T06:31:39Z</time>
      </trkpt>
      <trkpt lat="41.8721471541" lon="-7.2197294142">
        <ele>668.72</ele>
        <time>2020-09-12T06:31:40Z</time>
      </trkpt>
      <trkpt lat="41.8720912468" lon="-7.2194396518">
        <ele>671.34</ele>
        <time>2020-09-12T06:31:42Z</time>
      </trkpt>
      <trkpt lat="41.8720327411" lon="-7.2190975863">
        <ele>672.34</ele>
        <time>2020-09-12T06:31:45Z</time>
      </trkpt>
      <trkpt lat="41.8719615787" lon="-7.2185448837">
        <ele>667.81</ele>
        <time>2020-09-12T06:31:48Z</time>
      </trkpt>
      <trkpt lat="41.8719443958" lon="-7.2183768265">
        <ele>662.04</ele>
        <time>2020-09-12T06:31:50Z</time>
      </trkpt>
      <trkpt lat="41.8719115388" lon="-7.2181021515">
        <ele>658.61</ele>
        <time>2020-09-12T06:31:51Z</time>
      </trkpt>
      <trkpt lat="41.8719333317" lon="-7.2177629359">
        <ele>655.86</ele>
        <time>2020-09-12T06:31:54Z</time>
      </trkpt>
      <trkpt lat="41.871911874" lon="-7.21737938">
        <ele>654.12</ele>
        <time>2020-09-12T06:31:56Z</time>
      </trkpt>
      <trkpt lat="41.871757647" lon="-7.217126498">
        <ele>652.36</ele>
        <time>2020-09-12T06:32:04Z</time>
      </trkpt>
      <trkpt lat="41.8716531247" lon="-7.2169975005">
        <ele>650.74</ele>
        <time>2020-09-12T06:32:10Z</time>
      </trkpt>
      <trkpt lat="41.8713326007" lon="-7.2166024614">
        <ele>650.83</ele>
        <time>2020-09-12T06:32:11Z</time>
      </trkpt>
      <trkpt lat="41.8711014278" lon="-7.2163654212">
        <ele>647.06</ele>
        <time>2020-09-12T06:32:15Z</time>
      </trkpt>
      <trkpt lat="41.8703224976" lon="-7.2152979858">
        <ele>644.82</ele>
        <time>2020-09-12T06:32:16Z</time>
      </trkpt>
      <trkpt lat="41.8697789311" lon="-7.2145611327">
        <ele>643.94</ele>
        <time>2020-09-12T06:32:17Z</time>
      </trkpt>
      <trkpt lat="41.8696873169" lon="-7.2144614719">
        <ele>642.63</ele>
        <time>2020-09-12T06:32:18Z</time>
      </trkpt>
      <trkpt lat="41.8693021685" lon="-7.2140687797">
        <ele>640.92</ele>
        <time>2020-09-12T06:32:19Z</time>
      </trkpt>
      <trkpt lat="41.8692197744" lon="-7.213950092">
        <ele>640.99</ele>
        <time>2020-09-12T06:32:20Z</time>
      </trkpt>
      <trkpt lat="41.8691507913" lon="-7.2138133831">
        <ele>640.29</ele>
        <time>2020-09-12T06:32:25Z</time>
      </trkpt>
      <trkpt lat="41.8690937944" lon="-7.2136542946">
        <ele>643.18</ele>
        <time>2020-09-12T06:32:26Z</time>
      </trkpt>
      <trkpt lat="41.8690476939" lon="-7.2134798672">
        <ele>643.27</ele>
        <time>2020-09-12T06:32:27Z</time>
      </trkpt>
      <trkpt lat="41.8690084666" lon="-7.2133037634">
        <ele>643.34</ele>
        <time>2020-09-12T06:32:28Z</time>
      </trkpt>
      <trkpt lat="41.868864717" lon="-7.212591134">
        <ele>643.34</ele>
        <time>2020-09-12T06:32:29Z</time>
      </trkpt>
      <trkpt lat="41.8688643817" lon="-7.2125113383">
        <ele>643.26</ele>
        <time>2020-09-12T06:32:30Z</time>
      </trkpt>
      <trkpt lat="41.8688721769" lon="-7.2124577779">
        <ele>643.16</ele>
        <time>2020-09-12T06:32:31Z</time>
      </trkpt>
      <trkpt lat="41.8688881025" lon="-7.2124229092">
        <ele>638.88</ele>
        <time>2020-09-12T06:32:32Z</time>
      </trkpt>
      <trkpt lat="41.8689169362" lon="-7.2123972606">
        <ele>637.3</ele>
        <time>2020-09-12T06:32:33Z</time>
      </trkpt>
      <trkpt lat="41.8689671438" lon="-7.2123783175">
        <ele>635.12</ele>
        <time>2020-09-12T06:32:34Z</time>
      </trkpt>
      <trkpt lat="41.8690381385" lon="-7.2123721149">
        <ele>632.62</ele>
        <time>2020-09-12T06:32:35Z</time>
      </trkpt>
      <trkpt lat="41.8691285793" lon="-7.2123841848">
        <ele>631.18</ele>
        <time>2020-09-12T06:32:36Z</time>
      </trkpt>
      <trkpt lat="41.8692309223" lon="-7.2124126833">
        <ele>629.22</ele>
        <time>2020-09-12T06:32:37Z</time>
      </trkpt>
      <trkpt lat="41.8693408929" lon="-7.2124580294">
        <ele>629.36</ele>
        <time>2020-09-12T06:32:38Z</time>
      </trkpt>
      <trkpt lat="41.8694480136" lon="-7.2125151101">
        <ele>628.18</ele>
        <time>2020-09-12T06:32:39Z</time>
      </trkpt>
      <trkpt lat="41.8695556372" lon="-7.2125729453">
        <ele>628.16</ele>
        <time>2020-09-12T06:32:40Z</time>
      </trkpt>
      <trkpt lat="41.8696653564" lon="-7.2126171179">
        <ele>628.19</ele>
        <time>2020-09-12T06:32:41Z</time>
      </trkpt>
      <trkpt lat="41.8697791826" lon="-7.2126391623">
        <ele>625.03</ele>
        <time>2020-09-12T06:32:43Z</time>
      </trkpt>
      <trkpt lat="41.8698959425" lon="-7.2126389947">
        <ele>622.62</ele>
        <time>2020-09-12T06:32:45Z</time>
      </trkpt>
      <trkpt lat="41.870012451" lon="-7.212623572">
        <ele>621.07</ele>
        <time>2020-09-12T06:32:46Z</time>
      </trkpt>
      <trkpt lat="41.8701264448" lon="-7.2126006894">
        <ele>621.1</ele>
        <time>2020-09-12T06:32:47Z</time>
      </trkpt>
      <trkpt lat="41.8703543488" lon="-7.2125478834">
        <ele>621.07</ele>
        <time>2020-09-12T06:32:48Z</time>
      </trkpt>
      <trkpt lat="41.8705789838" lon="-7.2124917246">
        <ele>621.08</ele>
        <time>2020-09-12T06:32:49Z</time>
      </trkpt>
      <trkpt lat="41.8706754595" lon="-7.2124564368">
        <ele>619.28</ele>
        <time>2020-09-12T06:32:50Z</time>
      </trkpt>
      <trkpt lat="41.8707462866" lon="-7.2124107555">
        <ele>619.31</ele>
        <time>2020-09-12T06:32:51Z</time>
      </trkpt>
      <trkpt lat="41.8707923032" lon="-7.2123476397">
        <ele>619.37</ele>
        <time>2020-09-12T06:32:52Z</time>
      </trkpt>
      <trkpt lat="41.8708114978" lon="-7.212262312">
        <ele>619.55</ele>
        <time>2020-09-12T06:32:53Z</time>
      </trkpt>
      <trkpt lat="41.8708113302" lon="-7.2121747211">
        <ele>619.63</ele>
        <time>2020-09-12T06:32:54Z</time>
      </trkpt>
      <trkpt lat="41.8708125874" lon="-7.2121028882">
        <ele>618.56</ele>
        <time>2020-09-12T06:32:55Z</time>
      </trkpt>
      <trkpt lat="41.8708231486" lon="-7.2120570391">
        <ele>617.65</ele>
        <time>2020-09-12T06:32:56Z</time>
      </trkpt>
      <trkpt lat="41.8708398286" lon="-7.2120421194">
        <ele>616.23</ele>
        <time>2020-09-12T06:32:57Z</time>
      </trkpt>
      <trkpt lat="41.8708608672" lon="-7.2120540217">
        <ele>613.96</ele>
        <time>2020-09-12T06:32:58Z</time>
      </trkpt>
      <trkpt lat="41.8708856776" lon="-7.2120963503">
        <ele>611.4</ele>
        <time>2020-09-12T06:32:59Z</time>
      </trkpt>
      <trkpt lat="41.8709112424" lon="-7.2121764813">
        <ele>611.3</ele>
        <time>2020-09-12T06:33:00Z</time>
      </trkpt>
      <trkpt lat="41.8709334545" lon="-7.2122950852">
        <ele>608.42</ele>
        <time>2020-09-12T06:33:01Z</time>
      </trkpt>
      <trkpt lat="41.8709496316" lon="-7.212445708">
        <ele>607.51</ele>
        <time>2020-09-12T06:33:02Z</time>
      </trkpt>
      <trkpt lat="41.870954074" lon="-7.2126187943">
        <ele>607.57</ele>
        <time>2020-09-12T06:33:03Z</time>
      </trkpt>
      <trkpt lat="41.8709390704" lon="-7.2128058784">
        <ele>610.22</ele>
        <time>2020-09-12T06:33:04Z</time>
      </trkpt>
      <trkpt lat="41.8709067162" lon="-7.2130015958">
        <ele>613.08</ele>
        <time>2020-09-12T06:33:05Z</time>
      </trkpt>
      <trkpt lat="41.8708768766" lon="-7.2132021748">
        <ele>615.08</ele>
        <time>2020-09-12T06:33:06Z</time>
      </trkpt>
      <trkpt lat="41.8708677404" lon="-7.2134046815">
        <ele>616.68</ele>
        <time>2020-09-12T06:33:07Z</time>
      </trkpt>
      <trkpt lat="41.8708774634" lon="-7.2135983035">
        <ele>616.77</ele>
        <time>2020-09-12T06:33:08Z</time>
      </trkpt>
      <trkpt lat="41.8708998431" lon="-7.2137716413">
        <ele>614.16</ele>
        <time>2020-09-12T06:33:10Z</time>
      </trkpt>
      <trkpt lat="41.8709426746" lon="-7.2139122058">
        <ele>614.08</ele>
        <time>2020-09-12T06:33:11Z</time>
      </trkpt>
      <trkpt lat="41.8710100651" lon="-7.2140245233">
        <ele>614.1</ele>
        <time>2020-09-12T06:33:12Z</time>
      </trkpt>
      <trkpt lat="41.8710908666" lon="-7.2141256928">
        <ele>614.11</ele>
        <time>2020-09-12T06:33:13Z</time>
      </trkpt>
      <trkpt lat="41.8712613545" lon="-7.2143677622">
        <ele>614.04</ele>
        <time>2020-09-12T06:33:14Z</time>
      </trkpt>
      <trkpt lat="41.8713365402" lon="-7.2144894674">
        <ele>611.49</ele>
        <time>2020-09-12T06:33:15Z</time>
      </trkpt>
      <trkpt lat="41.8714047689" lon="-7.2145824227">
        <ele>610.17</ele>
        <time>2020-09-12T06:33:16Z</time>
      </trkpt>
      <trkpt lat="41.8714799546" lon="-7.2146376595">
        <ele>610.18</ele>
        <time>2020-09-12T06:33:17Z</time>
      </trkpt>
      <trkpt lat="41.8715705629" lon="-7.2146496456">
        <ele>609.03</ele>
        <time>2020-09-12T06:33:18Z</time>
      </trkpt>
      <trkpt lat="41.8716744985" lon="-7.214630954">
        <ele>606.98</ele>
        <time>2020-09-12T06:33:19Z</time>
      </trkpt>
      <trkpt lat="41.8717776798" lon="-7.2146194708">
        <ele>605.64</ele>
        <time>2020-09-12T06:33:20Z</time>
      </trkpt>
      <trkpt lat="41.8718695454" lon="-7.2146436106">
        <ele>605.77</ele>
        <time>2020-09-12T06:33:21Z</time>
      </trkpt>
      <trkpt lat="41.8719429709" lon="-7.2147099953">
        <ele>605.78</ele>
        <time>2020-09-12T06:33:22Z</time>
      </trkpt>
      <trkpt lat="41.8720034044" lon="-7.2148020286">
        <ele>605.72</ele>
        <time>2020-09-12T06:33:23Z</time>
      </trkpt>
      <trkpt lat="41.8720674422" lon="-7.2148788068">
        <ele>605.63</ele>
        <time>2020-09-12T06:33:24Z</time>
      </trkpt>
      <trkpt lat="41.8721389398" lon="-7.2149177827">
        <ele>605.64</ele>
        <time>2020-09-12T06:33:25Z</time>
      </trkpt>
      <trkpt lat="41.8722102698" lon="-7.21490697">
        <ele>605.6</ele>
        <time>2020-09-12T06:33:26Z</time>
      </trkpt>
      <trkpt lat="41.8722837791" lon="-7.2148549184">
        <ele>605.62</ele>
        <time>2020-09-12T06:33:27Z</time>
      </trkpt>
      <trkpt lat="41.8723613955" lon="-7.2147911321">
        <ele>605.65</ele>
        <time>2020-09-12T06:33:28Z</time>
      </trkpt>
      <trkpt lat="41.8724511657" lon="-7.2147465404">
        <ele>605.72</ele>
        <time>2020-09-12T06:33:29Z</time>
      </trkpt>
      <trkpt lat="41.8725551013" lon="-7.2147371527">
        <ele>605.79</ele>
        <time>2020-09-12T06:33:30Z</time>
      </trkpt>
      <trkpt lat="41.8726653233" lon="-7.2147683334">
        <ele>605.76</ele>
        <time>2020-09-12T06:33:31Z</time>
      </trkpt>
      <trkpt lat="41.8727800716" lon="-7.2148296051">
        <ele>605.73</ele>
        <time>2020-09-12T06:33:34Z</time>
      </trkpt>
      <trkpt lat="41.8728990108" lon="-7.214909317">
        <ele>605.8</ele>
        <time>2020-09-12T06:33:35Z</time>
      </trkpt>
      <trkpt lat="41.8730183691" lon="-7.2150023561">
        <ele>605.92</ele>
        <time>2020-09-12T06:33:36Z</time>
      </trkpt>
      <trkpt lat="41.8731383141" lon="-7.2151006758">
        <ele>610.95</ele>
        <time>2020-09-12T06:33:37Z</time>
      </trkpt>
      <trkpt lat="41.8735455908" lon="-7.2153616883">
        <ele>610.95</ele>
        <time>2020-09-12T06:33:38Z</time>
      </trkpt>
      <trkpt lat="41.873684898" lon="-7.2153985687">
        <ele>610.95</ele>
        <time>2020-09-12T06:33:39Z</time>
      </trkpt>
      <trkpt lat="41.8738133088" lon="-7.2153908573">
        <ele>608.07</ele>
        <time>2020-09-12T06:33:40Z</time>
      </trkpt>
      <trkpt lat="41.8739339244" lon="-7.2153642867">
        <ele>607.97</ele>
        <time>2020-09-12T06:33:41Z</time>
      </trkpt>
      <trkpt lat="41.8740598205" lon="-7.2153589223">
        <ele>606.52</ele>
        <time>2020-09-12T06:33:42Z</time>
      </trkpt>
      <trkpt lat="41.8741908297" lon="-7.2153896838">
        <ele>606.59</ele>
        <time>2020-09-12T06:33:43Z</time>
      </trkpt>
      <trkpt lat="41.8743211683" lon="-7.215453051">
        <ele>606.59</ele>
        <time>2020-09-12T06:33:44Z</time>
      </trkpt>
      <trkpt lat="41.8744481541" lon="-7.2155518737">
        <ele>606.61</ele>
        <time>2020-09-12T06:33:45Z</time>
      </trkpt>
      <trkpt lat="41.8745767325" lon="-7.2156685498">
        <ele>609.93</ele>
        <time>2020-09-12T06:33:46Z</time>
      </trkpt>
      <trkpt lat="41.8747084122" lon="-7.2157614212">
        <ele>611.79</ele>
        <time>2020-09-12T06:33:47Z</time>
      </trkpt>
      <trkpt lat="41.8748469651" lon="-7.2158151492">
        <ele>615.23</ele>
        <time>2020-09-12T06:33:48Z</time>
      </trkpt>
      <trkpt lat="41.8749930616" lon="-7.215821268">
        <ele>617.68</ele>
        <time>2020-09-12T06:33:49Z</time>
      </trkpt>
      <trkpt lat="41.8751408346" lon="-7.215794865">
        <ele>619.44</ele>
        <time>2020-09-12T06:33:50Z</time>
      </trkpt>
      <trkpt lat="41.8752823211" lon="-7.2157707252">
        <ele>619.39</ele>
        <time>2020-09-12T06:33:51Z</time>
      </trkpt>
      <trkpt lat="41.8754149228" lon="-7.2157713119">
        <ele>615.14</ele>
        <time>2020-09-12T06:33:53Z</time>
      </trkpt>
      <trkpt lat="41.8755443394" lon="-7.2157843877">
        <ele>613.77</ele>
        <time>2020-09-12T06:33:54Z</time>
      </trkpt>
      <trkpt lat="41.8756772764" lon="-7.2157780174">
        <ele>617.6</ele>
        <time>2020-09-12T06:33:57Z</time>
      </trkpt>
      <trkpt lat="41.8758153263" lon="-7.2157367785">
        <ele>623.67</ele>
        <time>2020-09-12T06:33:59Z</time>
      </trkpt>
      <trkpt lat="41.8761016522" lon="-7.2155436594">
        <ele>626.82</ele>
        <time>2020-09-12T06:34:00Z</time>
      </trkpt>
      <trkpt lat="41.8762468267" lon="-7.2154051065">
        <ele>632.48</ele>
        <time>2020-09-12T06:34:02Z</time>
      </trkpt>
      <trkpt lat="41.8766710348" lon="-7.2149671521">
        <ele>638.71</ele>
        <time>2020-09-12T06:34:04Z</time>
      </trkpt>
      <trkpt lat="41.8769388366" lon="-7.2146845143">
        <ele>643.48</ele>
        <time>2020-09-12T06:34:05Z</time>
      </trkpt>
      <trkpt lat="41.8770685047" lon="-7.2145382501">
        <ele>648.5</ele>
        <time>2020-09-12T06:34:07Z</time>
      </trkpt>
      <trkpt lat="41.8773145974" lon="-7.2142222524">
        <ele>648.5</ele>
        <time>2020-09-12T06:34:08Z</time>
      </trkpt>
      <trkpt lat="41.8775349576" lon="-7.2139207553">
        <ele>651.27</ele>
        <time>2020-09-12T06:34:10Z</time>
      </trkpt>
      <trkpt lat="41.8776321039" lon="-7.2138000559">
        <ele>652.39</ele>
        <time>2020-09-12T06:34:11Z</time>
      </trkpt>
      <trkpt lat="41.8778414838" lon="-7.2136181686">
        <ele>652.29</ele>
        <time>2020-09-12T06:34:12Z</time>
      </trkpt>
      <trkpt lat="41.8779568188" lon="-7.2135534603">
        <ele>652.59</ele>
        <time>2020-09-12T06:34:13Z</time>
      </trkpt>
      <trkpt lat="41.8781884946" lon="-7.2134611756">
        <ele>649.71</ele>
        <time>2020-09-12T06:34:14Z</time>
      </trkpt>
      <trkpt lat="41.8783051707" lon="-7.2134513687">
        <ele>649.81</ele>
        <time>2020-09-12T06:34:15Z</time>
      </trkpt>
      <trkpt lat="41.8784199189" lon="-7.2134853154">
        <ele>648.29</ele>
        <time>2020-09-12T06:34:16Z</time>
      </trkpt>
      <trkpt lat="41.878531985" lon="-7.2135608364">
        <ele>648.29</ele>
        <time>2020-09-12T06:34:17Z</time>
      </trkpt>
      <trkpt lat="41.878639441" lon="-7.2136756685">
        <ele>648.17</ele>
        <time>2020-09-12T06:34:18Z</time>
      </trkpt>
      <trkpt lat="41.8787438795" lon="-7.2138157301">
        <ele>651.5</ele>
        <time>2020-09-12T06:34:19Z</time>
      </trkpt>
      <trkpt lat="41.8788494915" lon="-7.2139581386">
        <ele>654.75</ele>
        <time>2020-09-12T06:34:20Z</time>
      </trkpt>
      <trkpt lat="41.8789598811" lon="-7.2140831966">
        <ele>656.75</ele>
        <time>2020-09-12T06:34:21Z</time>
      </trkpt>
      <trkpt lat="41.8790806644" lon="-7.2141786665">
        <ele>656.65</ele>
        <time>2020-09-12T06:34:22Z</time>
      </trkpt>
      <trkpt lat="41.8791984301" lon="-7.2142406926">
        <ele>659.1</ele>
        <time>2020-09-12T06:34:23Z</time>
      </trkpt>
      <trkpt lat="41.879299432" lon="-7.2142788302">
        <ele>660.52</ele>
        <time>2020-09-12T06:42:00Z</time>
      </trkpt>
      <trkpt lat="41.8793881964" lon="-7.2143083345">
        <ele>660.52</ele>
        <time>2020-09-12T06:42:01Z</time>
      </trkpt>
      <trkpt lat="41.8794645555" lon="-7.2143292055">
        <ele>658.16</ele>
        <time>2020-09-12T06:42:02Z</time>
      </trkpt>
      <trkpt lat="41.8795238156" lon="-7.2143328935">
        <ele>658.16</ele>
        <time>2020-09-12T06:42:03Z</time>
      </trkpt>
      <trkpt lat="41.879549794914674" lon="-7.2143590440253496">
        <ele>646.2</ele>
        <time>2020-09-12T06:42:04Z</time>
      </trkpt>
      <trkpt lat="41.87956976529514" lon="-7.214368431949868">
        <ele>669.12</ele>
        <time>2020-09-12T06:42:05Z</time>
      </trkpt>
      <trkpt lat="41.8796029408" lon="-7.2143682651">
        <ele>657.4</ele>
        <time>2020-09-12T06:42:06Z</time>
      </trkpt>
      <trkpt lat="41.8796438444" lon="-7.2144018766">
        <ele>656.16</ele>
        <time>2020-09-12T06:42:08Z</time>
      </trkpt>
      <trkpt lat="41.8796926271" lon="-7.2144458815">
        <ele>655.01</ele>
        <time>2020-09-12T06:42:09Z</time>
      </trkpt>
      <trkpt lat="41.8797465228" lon="-7.2145018727">
        <ele>653.55</ele>
        <time>2020-09-12T06:42:10Z</time>
      </trkpt>
      <trkpt lat="41.8798009213" lon="-7.2145634796">
        <ele>653.5</ele>
        <time>2020-09-12T06:42:11Z</time>
      </trkpt>
      <trkpt lat="41.8798976485" lon="-7.2146976739">
        <ele>653.61</ele>
        <time>2020-09-12T06:42:12Z</time>
      </trkpt>
      <trkpt lat="41.8799352832" lon="-7.2147895396">
        <ele>652.21</ele>
        <time>2020-09-12T06:42:13Z</time>
      </trkpt>
      <trkpt lat="41.879958082" lon="-7.2149072215">
        <ele>652.18</ele>
        <time>2020-09-12T06:42:14Z</time>
      </trkpt>
      <trkpt lat="41.8799688108" lon="-7.2150390688">
        <ele>652.27</ele>
        <time>2020-09-12T06:42:15Z</time>
      </trkpt>
      <trkpt lat="41.8799864128" lon="-7.2151739337">
        <ele>652.29</ele>
        <time>2020-09-12T06:42:16Z</time>
      </trkpt>
      <trkpt lat="41.8800225388" lon="-7.2153092176">
        <ele>658.01</ele>
        <time>2020-09-12T06:42:19Z</time>
      </trkpt>
      <trkpt lat="41.8800794519" lon="-7.2154404782">
        <ele>659.34</ele>
        <time>2020-09-12T06:42:20Z</time>
      </trkpt>
      <trkpt lat="41.8801537156" lon="-7.2155641112">
        <ele>659.39</ele>
        <time>2020-09-12T06:42:21Z</time>
      </trkpt>
      <trkpt lat="41.8802371155" lon="-7.2156871576">
        <ele>663</ele>
        <time>2020-09-12T06:42:28Z</time>
      </trkpt>
      <trkpt lat="41.8804618344" lon="-7.2160126269">
        <ele>663.02</ele>
        <time>2020-09-12T06:42:29Z</time>
      </trkpt>
      <trkpt lat="41.8805385288" lon="-7.2160937637">
        <ele>664.56</ele>
        <time>2020-09-12T06:42:30Z</time>
      </trkpt>
      <trkpt lat="41.8806253653" lon="-7.2161647584">
        <ele>665.56</ele>
        <time>2020-09-12T06:42:31Z</time>
      </trkpt>
      <trkpt lat="41.8813353125" lon="-7.21669944">
        <ele>666.89</ele>
        <time>2020-09-12T06:42:32Z</time>
      </trkpt>
      <trkpt lat="41.8814462889" lon="-7.2167660762">
        <ele>666.94</ele>
        <time>2020-09-12T06:42:33Z</time>
      </trkpt>
      <trkpt lat="41.8815642223" lon="-7.2168128472">
        <ele>666.93</ele>
        <time>2020-09-12T06:42:34Z</time>
      </trkpt>
      <trkpt lat="41.8816867657" lon="-7.2168307845">
        <ele>668.12</ele>
        <time>2020-09-12T06:42:35Z</time>
      </trkpt>
      <trkpt lat="41.8818133324" lon="-7.2168270126">
        <ele>669.22</ele>
        <time>2020-09-12T06:42:36Z</time>
      </trkpt>
      <trkpt lat="41.8819433358" lon="-7.2168224026">
        <ele>670.62</ele>
        <time>2020-09-12T06:42:37Z</time>
      </trkpt>
      <trkpt lat="41.8820741773" lon="-7.2168370709">
        <ele>670.42</ele>
        <time>2020-09-12T06:42:38Z</time>
      </trkpt>
      <trkpt lat="41.8822048511" lon="-7.2168819141">
        <ele>671.85</ele>
        <time>2020-09-12T06:42:39Z</time>
      </trkpt>
      <trkpt lat="41.8823302444" lon="-7.2169576026">
        <ele>676.07</ele>
        <time>2020-09-12T06:42:41Z</time>
      </trkpt>
      <trkpt lat="41.8824470043" lon="-7.2170658968">
        <ele>676.04</ele>
        <time>2020-09-12T06:42:42Z</time>
      </trkpt>
      <trkpt lat="41.8825552147" lon="-7.2171984147">
        <ele>676.96</ele>
        <time>2020-09-12T06:42:43Z</time>
      </trkpt>
      <trkpt lat="41.8826568872" lon="-7.2173440922">
        <ele>677.94</ele>
        <time>2020-09-12T06:42:44Z</time>
      </trkpt>
      <trkpt lat="41.8828568794" lon="-7.2176150791">
        <ele>679.2</ele>
        <time>2020-09-12T06:42:45Z</time>
      </trkpt>
      <trkpt lat="41.8829650898" lon="-7.2177333478">
        <ele>681.11</ele>
        <time>2020-09-12T06:42:46Z</time>
      </trkpt>
      <trkpt lat="41.8830839451" lon="-7.2178333439">
        <ele>681.13</ele>
        <time>2020-09-12T06:42:47Z</time>
      </trkpt>
      <trkpt lat="41.8832182232" lon="-7.2179039195">
        <ele>681.09</ele>
        <time>2020-09-12T06:42:48Z</time>
      </trkpt>
      <trkpt lat="41.8833611347" lon="-7.2179390397">
        <ele>681.1</ele>
        <time>2020-09-12T06:42:49Z</time>
      </trkpt>
      <trkpt lat="41.8835071474" lon="-7.2179361898">
        <ele>680.97</ele>
        <time>2020-09-12T06:42:50Z</time>
      </trkpt>
      <trkpt lat="41.8836485501" lon="-7.2178993095">
        <ele>683.43</ele>
        <time>2020-09-12T06:42:51Z</time>
      </trkpt>
      <trkpt lat="41.8837899528" lon="-7.2178342659">
        <ele>683.41</ele>
        <time>2020-09-12T06:42:52Z</time>
      </trkpt>
      <trkpt lat="41.883927919" lon="-7.2177516203">
        <ele>683.45</ele>
        <time>2020-09-12T06:42:53Z</time>
      </trkpt>
      <trkpt lat="41.8840549048" lon="-7.2176488582">
        <ele>684.35</ele>
        <time>2020-09-12T06:42:54Z</time>
      </trkpt>
      <trkpt lat="41.8841736764" lon="-7.2175281588">
        <ele>686.34</ele>
        <time>2020-09-12T06:42:56Z</time>
      </trkpt>
      <trkpt lat="41.8842974771" lon="-7.217411818">
        <ele>687.86</ele>
        <time>2020-09-12T06:42:57Z</time>
      </trkpt>
      <trkpt lat="41.8844320066" lon="-7.2173069604">
        <ele>687.74</ele>
        <time>2020-09-12T06:42:58Z</time>
      </trkpt>
      <trkpt lat="41.8845674582" lon="-7.2172080539">
        <ele>687.82</ele>
        <time>2020-09-12T06:42:59Z</time>
      </trkpt>
      <trkpt lat="41.8848505151" lon="-7.2170499712">
        <ele>689.63</ele>
        <time>2020-09-12T06:43:00Z</time>
      </trkpt>
      <trkpt lat="41.8850054126" lon="-7.2170094866">
        <ele>692.7</ele>
        <time>2020-09-12T06:43:01Z</time>
      </trkpt>
      <trkpt lat="41.885169195" lon="-7.2169938125">
        <ele>695.76</ele>
        <time>2020-09-12T06:43:02Z</time>
      </trkpt>
      <trkpt lat="41.8853354082" lon="-7.2170010209">
        <ele>699.14</ele>
        <time>2020-09-12T06:43:03Z</time>
      </trkpt>
      <trkpt lat="41.8854992744" lon="-7.2170276754">
        <ele>700.82</ele>
        <time>2020-09-12T06:43:04Z</time>
      </trkpt>
      <trkpt lat="41.8856577761" lon="-7.2170547489">
        <ele>700.79</ele>
        <time>2020-09-12T06:43:05Z</time>
      </trkpt>
      <trkpt lat="41.8858075608" lon="-7.2170674894">
        <ele>702.2</ele>
        <time>2020-09-12T06:43:06Z</time>
      </trkpt>
      <trkpt lat="41.885945024" lon="-7.2170498874">
        <ele>702.06</ele>
        <time>2020-09-12T06:43:07Z</time>
      </trkpt>
      <trkpt lat="41.886067735" lon="-7.2169886995">
        <ele>704.25</ele>
        <time>2020-09-12T06:43:08Z</time>
      </trkpt>
      <trkpt lat="41.8861808069" lon="-7.2168866917">
        <ele>707.7</ele>
        <time>2020-09-12T06:43:09Z</time>
      </trkpt>
      <trkpt lat="41.8862857483" lon="-7.2167650703">
        <ele>707.71</ele>
        <time>2020-09-12T06:43:10Z</time>
      </trkpt>
      <trkpt lat="41.886390103" lon="-7.2166553512">
        <ele>707.56</ele>
        <time>2020-09-12T06:43:11Z</time>
      </trkpt>
      <trkpt lat="41.886495715" lon="-7.2165894695">
        <ele>707.45</ele>
        <time>2020-09-12T06:43:12Z</time>
      </trkpt>
      <trkpt lat="41.8865958788" lon="-7.2165888827">
        <ele>707.59</ele>
        <time>2020-09-12T06:43:13Z</time>
      </trkpt>
      <trkpt lat="41.8866888341" lon="-7.2166518308">
        <ele>707.45</ele>
        <time>2020-09-12T06:43:14Z</time>
      </trkpt>
      <trkpt lat="41.8867823761" lon="-7.2167602926">
        <ele>707.48</ele>
        <time>2020-09-12T06:43:15Z</time>
      </trkpt>
      <trkpt lat="41.886885725" lon="-7.216885183">
        <ele>707.38</ele>
        <time>2020-09-12T06:43:19Z</time>
      </trkpt>
      <trkpt lat="41.8870049156" lon="-7.2169938963">
        <ele>707.3</ele>
        <time>2020-09-12T06:43:20Z</time>
      </trkpt>
      <trkpt lat="41.8871390261" lon="-7.2170725185">
        <ele>708.76</ele>
        <time>2020-09-12T06:43:21Z</time>
      </trkpt>
      <trkpt lat="41.8872831948" lon="-7.2171376459">
        <ele>712.17</ele>
        <time>2020-09-12T06:43:23Z</time>
      </trkpt>
      <trkpt lat="41.8878534157" lon="-7.2175369598">
        <ele>715.86</ele>
        <time>2020-09-12T06:43:25Z</time>
      </trkpt>
      <trkpt lat="41.8879835866" lon="-7.2176814638">
        <ele>720.04</ele>
        <time>2020-09-12T06:43:27Z</time>
      </trkpt>
      <trkpt lat="41.8881035317" lon="-7.2178393789">
        <ele>723.27</ele>
        <time>2020-09-12T06:43:28Z</time>
      </trkpt>
      <trkpt lat="41.8883218803" lon="-7.2181723081">
        <ele>727.42</ele>
        <time>2020-09-12T06:43:29Z</time>
      </trkpt>
      <trkpt lat="41.8885369599" lon="-7.2185038961">
        <ele>729.96</ele>
        <time>2020-09-12T06:43:30Z</time>
      </trkpt>
      <trkpt lat="41.8887556437" lon="-7.218802711">
        <ele>731.44</ele>
        <time>2020-09-12T06:43:31Z</time>
      </trkpt>
      <trkpt lat="41.8888552207" lon="-7.2189117596">
        <ele>732.32</ele>
        <time>2020-09-12T06:43:32Z</time>
      </trkpt>
      <trkpt lat="41.888941722" lon="-7.2189837601">
        <ele>732.51</ele>
        <time>2020-09-12T06:43:33Z</time>
      </trkpt>
      <trkpt lat="41.8890108727" lon="-7.2190208081">
        <ele>732.46</ele>
        <time>2020-09-12T06:43:34Z</time>
      </trkpt>
      <trkpt lat="41.8890563864" lon="-7.2190336324">
        <ele>732.52</ele>
        <time>2020-09-12T06:43:35Z</time>
      </trkpt>
      <trkpt lat="41.8890807778" lon="-7.2190327104">
        <ele>732.32</ele>
        <time>2020-09-12T06:43:36Z</time>
      </trkpt>
      <trkpt lat="41.8890946917" lon="-7.2190292738">
        <ele>732.3</ele>
        <time>2020-09-12T06:43:38Z</time>
      </trkpt>
      <trkpt lat="41.8891041633" lon="-7.2190217301">
        <ele>732.49</ele>
        <time>2020-09-12T06:43:39Z</time>
      </trkpt>
      <trkpt lat="41.8891133834" lon="-7.21901251">
        <ele>731.9</ele>
        <time>2020-09-12T06:43:47Z</time>
      </trkpt>
      <trkpt lat="41.8891222682" lon="-7.2190073971">
        <ele>731.88</ele>
        <time>2020-09-12T06:43:48Z</time>
      </trkpt>
      <trkpt lat="41.8891470786" lon="-7.2189990152">
        <ele>729.49</ele>
        <time>2020-09-12T06:43:49Z</time>
      </trkpt>
      <trkpt lat="41.8891601544" lon="-7.2189802397">
        <ele>729.49</ele>
        <time>2020-09-12T06:43:50Z</time>
      </trkpt>
      <trkpt lat="41.889181193" lon="-7.2189473826">
        <ele>727.09</ele>
        <time>2020-09-12T06:43:51Z</time>
      </trkpt>
      <trkpt lat="41.889200639" lon="-7.2189456224">
        <ele>725.08</ele>
        <time>2020-09-12T06:43:52Z</time>
      </trkpt>
      <trkpt lat="41.8892311491" lon="-7.2189410962">
        <ele>719.48</ele>
        <time>2020-09-12T06:43:54Z</time>
      </trkpt>
      <trkpt lat="41.8892750703" lon="-7.2189348098">
        <ele>714.71</ele>
        <time>2020-09-12T06:43:56Z</time>
      </trkpt>
      <trkpt lat="41.8893358391" lon="-7.218930535">
        <ele>711.98</ele>
        <time>2020-09-12T06:43:59Z</time>
      </trkpt>
      <trkpt lat="41.8894173112" lon="-7.2189298645">
        <ele>711.96</ele>
        <time>2020-09-12T06:44:02Z</time>
      </trkpt>
      <trkpt lat="41.889637839" lon="-7.2189069819">
        <ele>711.92</ele>
        <time>2020-09-12T06:44:03Z</time>
      </trkpt>
      <trkpt lat="41.8899105024" lon="-7.2188398428">
        <ele>715.78</ele>
        <time>2020-09-12T06:44:04Z</time>
      </trkpt>
      <trkpt lat="41.8903510552" lon="-7.2186800838">
        <ele>717.18</ele>
        <time>2020-09-12T06:44:05Z</time>
      </trkpt>
      <trkpt lat="41.8908004928" lon="-7.2184980288">
        <ele>718.73</ele>
        <time>2020-09-12T06:44:06Z</time>
      </trkpt>
      <trkpt lat="41.890937034" lon="-7.218413204">
        <ele>720.23</ele>
        <time>2020-09-12T06:44:07Z</time>
      </trkpt>
      <trkpt lat="41.8910601642" lon="-7.2183162253">
        <ele>720.32</ele>
        <time>2020-09-12T06:44:08Z</time>
      </trkpt>
      <trkpt lat="41.891163094" lon="-7.2182062548">
        <ele>720.4</ele>
        <time>2020-09-12T06:44:09Z</time>
      </trkpt>
      <trkpt lat="41.891243225" lon="-7.2180816159">
        <ele>720.41</ele>
        <time>2020-09-12T06:44:10Z</time>
      </trkpt>
      <trkpt lat="41.8912954442" lon="-7.2179506067">
        <ele>720.41</ele>
        <time>2020-09-12T06:44:11Z</time>
      </trkpt>
      <trkpt lat="41.8913089391" lon="-7.2178134788">
        <ele>717.69</ele>
        <time>2020-09-12T06:44:12Z</time>
      </trkpt>
      <trkpt lat="41.8912783451" lon="-7.2176784463">
        <ele>716.48</ele>
        <time>2020-09-12T06:44:13Z</time>
      </trkpt>
      <trkpt lat="41.891201986" lon="-7.2175550647">
        <ele>716.53</ele>
        <time>2020-09-12T06:44:14Z</time>
      </trkpt>
      <trkpt lat="41.8910956196" lon="-7.2174523864">
        <ele>719.59</ele>
        <time>2020-09-12T06:44:16Z</time>
      </trkpt>
      <trkpt lat="41.8909684662" lon="-7.2173871752">
        <ele>722.69</ele>
        <time>2020-09-12T06:44:18Z</time>
      </trkpt>
      <trkpt lat="41.8908204418" lon="-7.2173642088">
        <ele>728.36</ele>
        <time>2020-09-12T06:44:21Z</time>
      </trkpt>
      <trkpt lat="41.8906687293" lon="-7.2173535638">
        <ele>731.43</ele>
        <time>2020-09-12T06:44:22Z</time>
      </trkpt>
      <trkpt lat="41.8903623708" lon="-7.2173151746">
        <ele>733.1</ele>
        <time>2020-09-12T06:44:23Z</time>
      </trkpt>
      <trkpt lat="41.8900477979" lon="-7.2172368038">
        <ele>733.06</ele>
        <time>2020-09-12T06:44:24Z</time>
      </trkpt>
      <trkpt lat="41.8896138668" lon="-7.2170302738">
        <ele>732.96</ele>
        <time>2020-09-12T06:44:25Z</time>
      </trkpt>
      <trkpt lat="41.8895183969" lon="-7.2169226501">
        <ele>732.86</ele>
        <time>2020-09-12T06:44:26Z</time>
      </trkpt>
      <trkpt lat="41.8894574605" lon="-7.2167888749">
        <ele>730.63</ele>
        <time>2020-09-12T06:44:27Z</time>
      </trkpt>
      <trkpt lat="41.8894190714" lon="-7.2166302055">
        <ele>730.63</ele>
        <time>2020-09-12T06:44:28Z</time>
      </trkpt>
      <trkpt lat="41.8893846218" lon="-7.2164518386">
        <ele>733.8</ele>
        <time>2020-09-12T06:44:29Z</time>
      </trkpt>
      <trkpt lat="41.8893362582" lon="-7.2162692808">
        <ele>733.81</ele>
        <time>2020-09-12T06:44:30Z</time>
      </trkpt>
      <trkpt lat="41.8892649282" lon="-7.216101978">
        <ele>733.82</ele>
        <time>2020-09-12T06:44:31Z</time>
      </trkpt>
      <trkpt lat="41.8891659379" lon="-7.2159747407">
        <ele>733.82</ele>
        <time>2020-09-12T06:44:32Z</time>
      </trkpt>
      <trkpt lat="41.8890425563" lon="-7.2158946097">
        <ele>733.81</ele>
        <time>2020-09-12T06:44:33Z</time>
      </trkpt>
      <trkpt lat="41.8889033329" lon="-7.2158473358">
        <ele>733.81</ele>
        <time>2020-09-12T06:44:34Z</time>
      </trkpt>
      <trkpt lat="41.888757823" lon="-7.2158058453">
        <ele>733.67</ele>
        <time>2020-09-12T06:44:35Z</time>
      </trkpt>
      <trkpt lat="41.8886127323" lon="-7.2157475073">
        <ele>730.78</ele>
        <time>2020-09-12T06:44:36Z</time>
      </trkpt>
      <trkpt lat="41.888473928" lon="-7.2156553064">
        <ele>730.78</ele>
        <time>2020-09-12T06:44:37Z</time>
      </trkpt>
      <trkpt lat="41.8883459363" lon="-7.2155306675">
        <ele>735.21</ele>
        <time>2020-09-12T06:44:40Z</time>
      </trkpt>
      <trkpt lat="41.8882282544" lon="-7.2153772786">
        <ele>739.74</ele>
        <time>2020-09-12T06:44:41Z</time>
      </trkpt>
      <trkpt lat="41.8881161883" lon="-7.2152148373">
        <ele>741.72</ele>
        <time>2020-09-12T06:44:42Z</time>
      </trkpt>
      <trkpt lat="41.8880052119" lon="-7.2150543239">
        <ele>741.74</ele>
        <time>2020-09-12T06:44:43Z</time>
      </trkpt>
      <trkpt lat="41.8876849394" lon="-7.2146004438">
        <ele>741.77</ele>
        <time>2020-09-12T06:44:44Z</time>
      </trkpt>
      <trkpt lat="41.8876115978" lon="-7.2144631483">
        <ele>741.79</ele>
        <time>2020-09-12T06:44:45Z</time>
      </trkpt>
      <trkpt lat="41.8875680957" lon="-7.2143255174">
        <ele>742.76</ele>
        <time>2020-09-12T06:44:46Z</time>
      </trkpt>
      <trkpt lat="41.8875603843" lon="-7.2141749784">
        <ele>742.79</ele>
        <time>2020-09-12T06:44:47Z</time>
      </trkpt>
      <trkpt lat="41.8875924032" lon="-7.2140237689">
        <ele>742.73</ele>
        <time>2020-09-12T06:44:48Z</time>
      </trkpt>
      <trkpt lat="41.8876595423" lon="-7.2138845455">
        <ele>742.75</ele>
        <time>2020-09-12T06:44:49Z</time>
      </trkpt>
      <trkpt lat="41.8877530005" lon="-7.2137733176">
        <ele>743.61</ele>
        <time>2020-09-12T06:44:51Z</time>
      </trkpt>
      <trkpt lat="41.8878749572" lon="-7.2136958688">
        <ele>745.36</ele>
        <time>2020-09-12T06:44:52Z</time>
      </trkpt>
      <trkpt lat="41.8880119175" lon="-7.213634681">
        <ele>745.42</ele>
        <time>2020-09-12T06:44:53Z</time>
      </trkpt>
      <trkpt lat="41.8881549127" lon="-7.2135764267">
        <ele>745.44</ele>
        <time>2020-09-12T06:44:55Z</time>
      </trkpt>
      <trkpt lat="41.888434533" lon="-7.2134265583">
        <ele>745.38</ele>
        <time>2020-09-12T06:44:56Z</time>
      </trkpt>
      <trkpt lat="41.8885610998" lon="-7.2133106366">
        <ele>750.45</ele>
        <time>2020-09-12T06:44:58Z</time>
      </trkpt>
      <trkpt lat="41.8886821344" lon="-7.2131745983">
        <ele>752.55</ele>
        <time>2020-09-12T06:44:59Z</time>
      </trkpt>
      <trkpt lat="41.8889348488" lon="-7.2129313555">
        <ele>753.61</ele>
        <time>2020-09-12T06:45:00Z</time>
      </trkpt>
      <trkpt lat="41.889072312" lon="-7.2128350474">
        <ele>753.61</ele>
        <time>2020-09-12T06:45:01Z</time>
      </trkpt>
      <trkpt lat="41.8893225119" lon="-7.2126473766">
        <ele>755.84</ele>
        <time>2020-09-12T06:45:02Z</time>
      </trkpt>
      <trkpt lat="41.8894078396" lon="-7.2125340533">
        <ele>755.8</ele>
        <time>2020-09-12T06:45:03Z</time>
      </trkpt>
      <trkpt lat="41.8894497491" lon="-7.2124027088">
        <ele>755.81</ele>
        <time>2020-09-12T06:45:04Z</time>
      </trkpt>
      <trkpt lat="41.8894466478" lon="-7.2122604679">
        <ele>753.39</ele>
        <time>2020-09-12T06:45:05Z</time>
      </trkpt>
      <trkpt lat="41.8893983681" lon="-7.2121404391">
        <ele>750.03</ele>
        <time>2020-09-12T06:45:06Z</time>
      </trkpt>
      <trkpt lat="41.8893183209" lon="-7.2120658401">
        <ele>747.95</ele>
        <time>2020-09-12T06:45:07Z</time>
      </trkpt>
      <trkpt lat="41.8892129604" lon="-7.2120442986">
        <ele>746.32</ele>
        <time>2020-09-12T06:45:08Z</time>
      </trkpt>
      <trkpt lat="41.8890882377" lon="-7.2120585479">
        <ele>743.32</ele>
        <time>2020-09-12T06:45:10Z</time>
      </trkpt>
      <trkpt lat="41.8889431469" lon="-7.2120785806">
        <ele>741.92</ele>
        <time>2020-09-12T06:45:11Z</time>
      </trkpt>
      <trkpt lat="41.8887841422" lon="-7.2120841127">
        <ele>741.93</ele>
        <time>2020-09-12T06:45:12Z</time>
      </trkpt>
      <trkpt lat="41.88861751" lon="-7.2120763175">
        <ele>741.97</ele>
        <time>2020-09-12T06:45:13Z</time>
      </trkpt>
      <trkpt lat="41.8882688228" lon="-7.212001048">
        <ele>742.09</ele>
        <time>2020-09-12T06:45:14Z</time>
      </trkpt>
      <trkpt lat="41.888098754" lon="-7.2119188216">
        <ele>742.05</ele>
        <time>2020-09-12T06:45:15Z</time>
      </trkpt>
      <trkpt lat="41.8879470415" lon="-7.2118132934">
        <ele>744.52</ele>
        <time>2020-09-12T06:45:16Z</time>
      </trkpt>
      <trkpt lat="41.8878153618" lon="-7.2116778418">
        <ele>745.46</ele>
        <time>2020-09-12T06:45:17Z</time>
      </trkpt>
      <trkpt lat="41.8877022061" lon="-7.2115111258">
        <ele>745.37</ele>
        <time>2020-09-12T06:45:18Z</time>
      </trkpt>
      <trkpt lat="41.8876081612" lon="-7.2113201022">
        <ele>745.35</ele>
        <time>2020-09-12T06:45:19Z</time>
      </trkpt>
      <trkpt lat="41.8875363283" lon="-7.2111136559">
        <ele>742.78</ele>
        <time>2020-09-12T06:45:20Z</time>
      </trkpt>
      <trkpt lat="41.8874828517" lon="-7.2109028511">
        <ele>742.71</ele>
        <time>2020-09-12T06:45:21Z</time>
      </trkpt>
      <trkpt lat="41.8874535151" lon="-7.2106783837">
        <ele>748.14</ele>
        <time>2020-09-12T06:45:24Z</time>
      </trkpt>
      <trkpt lat="41.8874414451" lon="-7.210446205">
        <ele>753.17</ele>
        <time>2020-09-12T06:45:26Z</time>
      </trkpt>
      <trkpt lat="41.8874359131" lon="-7.2102125175">
        <ele>754.92</ele>
        <time>2020-09-12T06:45:27Z</time>
      </trkpt>
      <trkpt lat="41.8874364998" lon="-7.2099833563">
        <ele>754.91</ele>
        <time>2020-09-12T06:45:28Z</time>
      </trkpt>
      <trkpt lat="41.8874129467" lon="-7.2093889955">
        <ele>754.89</ele>
        <time>2020-09-12T06:45:29Z</time>
      </trkpt>
      <trkpt lat="41.8874064926" lon="-7.2091424">
        <ele>752.34</ele>
        <time>2020-09-12T06:45:30Z</time>
      </trkpt>
      <trkpt lat="41.8874356616" lon="-7.209065035">
        <ele>752.3</ele>
        <time>2020-09-12T06:45:31Z</time>
      </trkpt>
      <trkpt lat="41.8874914013" lon="-7.2090128995">
        <ele>756.55</ele>
        <time>2020-09-12T06:45:38Z</time>
      </trkpt>
      <trkpt lat="41.8875746336" lon="-7.2089836467">
        <ele>757.46</ele>
        <time>2020-09-12T06:45:40Z</time>
      </trkpt>
      <trkpt lat="41.8876809161" lon="-7.2089690622">
        <ele>761.84</ele>
        <time>2020-09-12T06:45:42Z</time>
      </trkpt>
      <trkpt lat="41.8877961673" lon="-7.2089577466">
        <ele>766.38</ele>
        <time>2020-09-12T06:45:44Z</time>
      </trkpt>
      <trkpt lat="41.8887537997" lon="-7.2087355424">
        <ele>768.82</ele>
        <time>2020-09-12T06:45:45Z</time>
      </trkpt>
      <trkpt lat="41.8890557159" lon="-7.2086381447">
        <ele>772.28</ele>
        <time>2020-09-12T06:45:46Z</time>
      </trkpt>
      <trkpt lat="41.8893476576" lon="-7.2084939759">
        <ele>774.05</ele>
        <time>2020-09-12T06:45:47Z</time>
      </trkpt>
      <trkpt lat="41.8896065746" lon="-7.2083597817">
        <ele>774.05</ele>
        <time>2020-09-12T06:45:48Z</time>
      </trkpt>
      <trkpt lat="41.8896979373" lon="-7.2083034553">
        <ele>774.06</ele>
        <time>2020-09-12T06:45:49Z</time>
      </trkpt>
      <trkpt lat="41.8897603825" lon="-7.2082297783">
        <ele>774.06</ele>
        <time>2020-09-12T06:45:50Z</time>
      </trkpt>
      <trkpt lat="41.8897830136" lon="-7.2081364039">
        <ele>774.06</ele>
        <time>2020-09-12T06:45:51Z</time>
      </trkpt>
      <trkpt lat="41.8897608016" lon="-7.2080269363">
        <ele>774.08</ele>
        <time>2020-09-12T06:45:52Z</time>
      </trkpt>
      <trkpt lat="41.889698524" lon="-7.2079184745">
        <ele>775.36</ele>
        <time>2020-09-12T06:45:53Z</time>
      </trkpt>
      <trkpt lat="41.8896095082" lon="-7.2078214958">
        <ele>777.47</ele>
        <time>2020-09-12T06:45:54Z</time>
      </trkpt>
      <trkpt lat="41.8895115238" lon="-7.2077266965">
        <ele>777.43</ele>
        <time>2020-09-12T06:45:55Z</time>
      </trkpt>
      <trkpt lat="41.8894199096" lon="-7.2076249402">
        <ele>777.55</ele>
        <time>2020-09-12T06:45:56Z</time>
      </trkpt>
      <trkpt lat="41.8893559556" lon="-7.2075135447">
        <ele>777.31</ele>
        <time>2020-09-12T06:45:57Z</time>
      </trkpt>
      <trkpt lat="41.889331229" lon="-7.2073899116">
        <ele>774.24</ele>
        <time>2020-09-12T06:45:58Z</time>
      </trkpt>
      <trkpt lat="41.8893474899" lon="-7.2072573937">
        <ele>774.23</ele>
        <time>2020-09-12T06:45:59Z</time>
      </trkpt>
      <trkpt lat="41.8894046545" lon="-7.2071219422">
        <ele>772.92</ele>
        <time>2020-09-12T06:46:02Z</time>
      </trkpt>
      <trkpt lat="41.8894960172" lon="-7.2069891728">
        <ele>772.9</ele>
        <time>2020-09-12T06:46:03Z</time>
      </trkpt>
      <trkpt lat="41.8896041438" lon="-7.2068505362">
        <ele>769.84</ele>
        <time>2020-09-12T06:46:04Z</time>
      </trkpt>
      <trkpt lat="41.889718473" lon="-7.2067129053">
        <ele>769.85</ele>
        <time>2020-09-12T06:46:05Z</time>
      </trkpt>
      <trkpt lat="41.890102867" lon="-7.206309652">
        <ele>773.6</ele>
        <time>2020-09-12T06:46:06Z</time>
      </trkpt>
      <trkpt lat="41.8902548309" lon="-7.2062009387">
        <ele>774.73</ele>
        <time>2020-09-12T06:46:07Z</time>
      </trkpt>
      <trkpt lat="41.8904150929" lon="-7.2061091568">
        <ele>774.74</ele>
        <time>2020-09-12T06:46:08Z</time>
      </trkpt>
      <trkpt lat="41.8905707449" lon="-7.206022907">
        <ele>774.71</ele>
        <time>2020-09-12T06:46:09Z</time>
      </trkpt>
      <trkpt lat="41.8907174282" lon="-7.2059417702">
        <ele>774.78</ele>
        <time>2020-09-12T06:46:11Z</time>
      </trkpt>
      <trkpt lat="41.8908620998" lon="-7.2058799118">
        <ele>778</ele>
        <time>2020-09-12T06:46:12Z</time>
      </trkpt>
      <trkpt lat="41.8910110462" lon="-7.2058526706">
        <ele>780.08</ele>
        <time>2020-09-12T06:46:13Z</time>
      </trkpt>
      <trkpt lat="41.8911666144" lon="-7.2058731224">
        <ele>780.08</ele>
        <time>2020-09-12T06:46:14Z</time>
      </trkpt>
      <trkpt lat="41.891468782" lon="-7.20595669">
        <ele>777.46</ele>
        <time>2020-09-12T06:46:15Z</time>
      </trkpt>
      <trkpt lat="41.8915936723" lon="-7.2059477214">
        <ele>773.79</ele>
        <time>2020-09-12T06:46:16Z</time>
      </trkpt>
      <trkpt lat="41.8916929141" lon="-7.2058847733">
        <ele>772.74</ele>
        <time>2020-09-12T06:46:17Z</time>
      </trkpt>
      <trkpt lat="41.891765669" lon="-7.2057654988">
        <ele>772.8</ele>
        <time>2020-09-12T06:46:18Z</time>
      </trkpt>
      <trkpt lat="41.8918116856" lon="-7.2055935021">
        <ele>776.68</ele>
        <time>2020-09-12T06:46:19Z</time>
      </trkpt>
      <trkpt lat="41.8918322213" lon="-7.2053764109">
        <ele>780.79</ele>
        <time>2020-09-12T06:46:20Z</time>
      </trkpt>
      <trkpt lat="41.891832808" lon="-7.2051394545">
        <ele>781.97</ele>
        <time>2020-09-12T06:46:21Z</time>
      </trkpt>
      <trkpt lat="41.8918101769" lon="-7.2049053479">
        <ele>781.97</ele>
        <time>2020-09-12T06:46:22Z</time>
      </trkpt>
      <trkpt lat="41.8917701114" lon="-7.2047048528">
        <ele>782.02</ele>
        <time>2020-09-12T06:46:23Z</time>
      </trkpt>
      <trkpt lat="41.891711019" lon="-7.2045461833">
        <ele>778.66</ele>
        <time>2020-09-12T06:46:24Z</time>
      </trkpt>
      <trkpt lat="41.8916184828" lon="-7.2044321056">
        <ele>777.13</ele>
        <time>2020-09-12T06:46:25Z</time>
      </trkpt>
      <trkpt lat="41.8914949335" lon="-7.2043491248">
        <ele>777.07</ele>
        <time>2020-09-12T06:46:26Z</time>
      </trkpt>
      <trkpt lat="41.8913494237" lon="-7.204277711">
        <ele>779.78</ele>
        <time>2020-09-12T06:46:27Z</time>
      </trkpt>
      <trkpt lat="41.8911892455" lon="-7.2041891981">
        <ele>784.12</ele>
        <time>2020-09-12T06:46:28Z</time>
      </trkpt>
      <trkpt lat="41.8910232" lon="-7.2040641401">
        <ele>787.51</ele>
        <time>2020-09-12T06:46:29Z</time>
      </trkpt>
      <trkpt lat="41.890864782" lon="-7.2039153613">
        <ele>787.47</ele>
        <time>2020-09-12T06:46:30Z</time>
      </trkpt>
      <trkpt lat="41.8907304201" lon="-7.2037541773">
        <ele>787.37</ele>
        <time>2020-09-12T06:46:31Z</time>
      </trkpt>
      <trkpt lat="41.8906226289" lon="-7.2035891376">
        <ele>787.3</ele>
        <time>2020-09-12T06:46:32Z</time>
      </trkpt>
      <trkpt lat="41.8905416597" lon="-7.2034214158">
        <ele>787.29</ele>
        <time>2020-09-12T06:46:33Z</time>
      </trkpt>
      <trkpt lat="41.8904962298" lon="-7.2032355051">
        <ele>783.71</ele>
        <time>2020-09-12T06:46:36Z</time>
      </trkpt>
      <trkpt lat="41.890483154" lon="-7.2030311543">
        <ele>783.69</ele>
        <time>2020-09-12T06:46:37Z</time>
      </trkpt>
      <trkpt lat="41.8904916197" lon="-7.202808531">
        <ele>789.48</ele>
        <time>2020-09-12T06:46:39Z</time>
      </trkpt>
      <trkpt lat="41.8905106466" lon="-7.2025700659">
        <ele>791.32</ele>
        <time>2020-09-12T06:46:40Z</time>
      </trkpt>
      <trkpt lat="41.8905941304" lon="-7.2018091567">
        <ele>791.36</ele>
        <time>2020-09-12T06:46:41Z</time>
      </trkpt>
      <trkpt lat="41.890632771" lon="-7.2015638184">
        <ele>791.37</ele>
        <time>2020-09-12T06:46:42Z</time>
      </trkpt>
      <trkpt lat="41.8906909414" lon="-7.2011458967">
        <ele>786.7</ele>
        <time>2020-09-12T06:46:43Z</time>
      </trkpt>
      <trkpt lat="41.890677195" lon="-7.2009704635">
        <ele>783.77</ele>
        <time>2020-09-12T06:46:45Z</time>
      </trkpt>
      <trkpt lat="41.8906192761" lon="-7.2008096986">
        <ele>783.75</ele>
        <time>2020-09-12T06:46:46Z</time>
      </trkpt>
      <trkpt lat="41.8905258179" lon="-7.2006563097">
        <ele>783.73</ele>
        <time>2020-09-12T06:46:47Z</time>
      </trkpt>
      <trkpt lat="41.8904158473" lon="-7.2005014122">
        <ele>787.44</ele>
        <time>2020-09-12T06:46:48Z</time>
      </trkpt>
      <trkpt lat="41.8902224768" lon="-7.2001686506">
        <ele>789.44</ele>
        <time>2020-09-12T06:46:49Z</time>
      </trkpt>
      <trkpt lat="41.8901581038" lon="-7.1999813989">
        <ele>789.4</ele>
        <time>2020-09-12T06:46:50Z</time>
      </trkpt>
      <trkpt lat="41.8901236542" lon="-7.1997952368">
        <ele>785.43</ele>
        <time>2020-09-12T06:46:51Z</time>
      </trkpt>
      <trkpt lat="41.8901220616" lon="-7.1996404231">
        <ele>782.43</ele>
        <time>2020-09-12T06:46:52Z</time>
      </trkpt>
      <trkpt lat="41.8901505601" lon="-7.1995273512">
        <ele>777.53</ele>
        <time>2020-09-12T06:46:53Z</time>
      </trkpt>
      <trkpt lat="41.8902119156" lon="-7.1994441189">
        <ele>773.58</ele>
        <time>2020-09-12T06:46:55Z</time>
      </trkpt>
      <trkpt lat="41.8903095648" lon="-7.1993841883">
        <ele>770.96</ele>
        <time>2020-09-12T06:46:57Z</time>
      </trkpt>
      <trkpt lat="41.8904429208" lon="-7.1993501578">
        <ele>774.02</ele>
        <time>2020-09-12T06:46:58Z</time>
      </trkpt>
      <trkpt lat="41.8906041048" lon="-7.1993287839">
        <ele>781.04</ele>
        <time>2020-09-12T06:47:00Z</time>
      </trkpt>
      <trkpt lat="41.8909703102" lon="-7.1992807556">
        <ele>781.07</ele>
        <time>2020-09-12T06:47:01Z</time>
      </trkpt>
      <trkpt lat="41.8913322408" lon="-7.199205989">
        <ele>783.08</ele>
        <time>2020-09-12T06:47:02Z</time>
      </trkpt>
      <trkpt lat="41.8914925028" lon="-7.1991751436">
        <ele>783.21</ele>
        <time>2020-09-12T06:47:03Z</time>
      </trkpt>
      <trkpt lat="41.8917491566" lon="-7.1991246846">
        <ele>783.21</ele>
        <time>2020-09-12T06:47:04Z</time>
      </trkpt>
      <trkpt lat="41.8918415252" lon="-7.1990624908">
        <ele>779.63</ele>
        <time>2020-09-12T06:47:05Z</time>
      </trkpt>
      <trkpt lat="41.8919043895" lon="-7.1989674401">
        <ele>777.17</ele>
        <time>2020-09-12T06:47:06Z</time>
      </trkpt>
      <trkpt lat="41.891929619" lon="-7.1988438908">
        <ele>777.09</ele>
        <time>2020-09-12T06:47:07Z</time>
      </trkpt>
      <trkpt lat="41.8919166271" lon="-7.1987014823">
        <ele>777.09</ele>
        <time>2020-09-12T06:47:08Z</time>
      </trkpt>
      <trkpt lat="41.8918763939" lon="-7.1985380352">
        <ele>777.08</ele>
        <time>2020-09-12T06:47:09Z</time>
      </trkpt>
      <trkpt lat="41.8918334786" lon="-7.1983663738">
        <ele>775.24</ele>
        <time>2020-09-12T06:47:10Z</time>
      </trkpt>
      <trkpt lat="41.8918082491" lon="-7.1981996577">
        <ele>771.78</ele>
        <time>2020-09-12T06:47:11Z</time>
      </trkpt>
      <trkpt lat="41.8918157928" lon="-7.1980409883">
        <ele>771.89</ele>
        <time>2020-09-12T06:47:12Z</time>
      </trkpt>
      <trkpt lat="41.8918641564" lon="-7.19788366">
        <ele>769.46</ele>
        <time>2020-09-12T06:47:14Z</time>
      </trkpt>
      <trkpt lat="41.8919527531" lon="-7.1977283433">
        <ele>772.44</ele>
        <time>2020-09-12T06:47:15Z</time>
      </trkpt>
      <trkpt lat="41.8920645677" lon="-7.1975685004">
        <ele>774.01</ele>
        <time>2020-09-12T06:47:16Z</time>
      </trkpt>
      <trkpt lat="41.8921819143" lon="-7.1974003594">
        <ele>773.9</ele>
        <time>2020-09-12T06:47:17Z</time>
      </trkpt>
      <trkpt lat="41.8924179487" lon="-7.197053181">
        <ele>770.82</ele>
        <time>2020-09-12T06:47:18Z</time>
      </trkpt>
      <trkpt lat="41.8925330322" lon="-7.1969015524">
        <ele>770.79</ele>
        <time>2020-09-12T06:47:19Z</time>
      </trkpt>
      <trkpt lat="41.8926611915" lon="-7.1967778355">
        <ele>775.55</ele>
        <time>2020-09-12T06:47:23Z</time>
      </trkpt>
      <trkpt lat="41.8928108923" lon="-7.1966759954">
        <ele>781.95</ele>
        <time>2020-09-12T06:47:25Z</time>
      </trkpt>
      <trkpt lat="41.8929745909" lon="-7.1965908352">
        <ele>785.25</ele>
        <time>2020-09-12T06:47:26Z</time>
      </trkpt>
      <trkpt lat="41.893145917" lon="-7.1965025738">
        <ele>786.9</ele>
        <time>2020-09-12T06:47:27Z</time>
      </trkpt>
      <trkpt lat="41.8938266952" lon="-7.1960660443">
        <ele>787.75</ele>
        <time>2020-09-12T06:47:28Z</time>
      </trkpt>
      <trkpt lat="41.8941313773" lon="-7.1958495397">
        <ele>788.67</ele>
        <time>2020-09-12T06:47:29Z</time>
      </trkpt>
      <trkpt lat="41.8942595366" lon="-7.1957174409">
        <ele>788.68</ele>
        <time>2020-09-12T06:47:30Z</time>
      </trkpt>
      <trkpt lat="41.8943679985" lon="-7.1955583524">
        <ele>791.96</ele>
        <time>2020-09-12T06:47:32Z</time>
      </trkpt>
      <trkpt lat="41.894457601" lon="-7.1953762975">
        <ele>796.48</ele>
        <time>2020-09-12T06:47:34Z</time>
      </trkpt>
      <trkpt lat="41.8945336249" lon="-7.1951767243">
        <ele>799.9</ele>
        <time>2020-09-12T06:47:35Z</time>
      </trkpt>
      <trkpt lat="41.8946045358" lon="-7.194968015">
        <ele>804.22</ele>
        <time>2020-09-12T06:47:36Z</time>
      </trkpt>
      <trkpt lat="41.894744765" lon="-7.1945423819">
        <ele>805.96</ele>
        <time>2020-09-12T06:47:37Z</time>
      </trkpt>
      <trkpt lat="41.8948880956" lon="-7.1941311657">
        <ele>805.97</ele>
        <time>2020-09-12T06:47:38Z</time>
      </trkpt>
      <trkpt lat="41.8949579168" lon="-7.1939485241">
        <ele>805.97</ele>
        <time>2020-09-12T06:47:39Z</time>
      </trkpt>
      <trkpt lat="41.8950335216" lon="-7.1938016731">
        <ele>805.98</ele>
        <time>2020-09-12T06:47:40Z</time>
      </trkpt>
      <trkpt lat="41.8951293267" lon="-7.193702599">
        <ele>805.98</ele>
        <time>2020-09-12T06:47:41Z</time>
      </trkpt>
      <trkpt lat="41.8952462543" lon="-7.1936574206">
        <ele>805.95</ele>
        <time>2020-09-12T06:47:42Z</time>
      </trkpt>
      <trkpt lat="41.8953822087" lon="-7.1936601866">
        <ele>800.24</ele>
        <time>2020-09-12T06:47:43Z</time>
      </trkpt>
      <trkpt lat="41.8955302332" lon="-7.1937036887">
        <ele>800.19</ele>
        <time>2020-09-12T06:47:44Z</time>
      </trkpt>
      <trkpt lat="41.8956886511" lon="-7.1937755216">
        <ele>798.64</ele>
        <time>2020-09-12T06:47:50Z</time>
      </trkpt>
      <trkpt lat="41.8958593905" lon="-7.1938644536">
        <ele>801.98</ele>
        <time>2020-09-12T06:47:55Z</time>
      </trkpt>
      <trkpt lat="41.8960409425" lon="-7.1939613484">
        <ele>805.06</ele>
        <time>2020-09-12T06:47:56Z</time>
      </trkpt>
      <trkpt lat="41.8962267693" lon="-7.1940593328">
        <ele>808.59</ele>
        <time>2020-09-12T06:47:57Z</time>
      </trkpt>
      <trkpt lat="41.8974080309" lon="-7.1947144624">
        <ele>808.61</ele>
        <time>2020-09-12T06:47:58Z</time>
      </trkpt>
      <trkpt lat="41.8983779848" lon="-7.195290802">
        <ele>808.63</ele>
        <time>2020-09-12T06:47:59Z</time>
      </trkpt>
      <trkpt lat="41.8985533342" lon="-7.1953861043">
        <ele>808.65</ele>
        <time>2020-09-12T06:48:00Z</time>
      </trkpt>
      <trkpt lat="41.898719715" lon="-7.1954495553">
        <ele>810.18</ele>
        <time>2020-09-12T06:48:01Z</time>
      </trkpt>
      <trkpt lat="41.8988861796" lon="-7.1954729408">
        <ele>810.19</ele>
        <time>2020-09-12T06:48:02Z</time>
      </trkpt>
      <trkpt lat="41.8990570027" lon="-7.1954532433">
        <ele>814.06</ele>
        <time>2020-09-12T06:48:04Z</time>
      </trkpt>
      <trkpt lat="41.8992289994" lon="-7.1953975875">
        <ele>817.55</ele>
        <time>2020-09-12T06:48:06Z</time>
      </trkpt>
      <trkpt lat="41.8994005769" lon="-7.1953173727">
        <ele>818.48</ele>
        <time>2020-09-12T06:48:08Z</time>
      </trkpt>
      <trkpt lat="41.899571903" lon="-7.1952233277">
        <ele>821.76</ele>
        <time>2020-09-12T06:48:10Z</time>
      </trkpt>
      <trkpt lat="41.899891505" lon="-7.1950231679">
        <ele>825.11</ele>
        <time>2020-09-12T06:48:11Z</time>
      </trkpt>
      <trkpt lat="41.9001728855" lon="-7.1948152967">
        <ele>828.01</ele>
        <time>2020-09-12T06:48:12Z</time>
      </trkpt>
      <trkpt lat="41.9004458841" lon="-7.1946140472">
        <ele>831.27</ele>
        <time>2020-09-12T06:48:13Z</time>
      </trkpt>
      <trkpt lat="41.9006940722" lon="-7.1944485046">
        <ele>831.17</ele>
        <time>2020-09-12T06:48:14Z</time>
      </trkpt>
      <trkpt lat="41.900789123" lon="-7.1944019012">
        <ele>832.46</ele>
        <time>2020-09-12T06:48:15Z</time>
      </trkpt>
      <trkpt lat="41.9008639734" lon="-7.1943782642">
        <ele>834.77</ele>
        <time>2020-09-12T06:48:25Z</time>
      </trkpt>
      <trkpt lat="41.9009187911" lon="-7.1943728998">
        <ele>834.77</ele>
        <time>2020-09-12T06:48:26Z</time>
      </trkpt>
      <trkpt lat="41.9009576831" lon="-7.1943732351">
        <ele>831.65</ele>
        <time>2020-09-12T06:48:27Z</time>
      </trkpt>
      <trkpt lat="41.900984589" lon="-7.1943758335">
        <ele>838.16</ele>
        <time>2020-09-12T06:48:28Z</time>
      </trkpt>
      <trkpt lat="41.9009995088" lon="-7.1943738218">
        <ele>834.03</ele>
        <time>2020-09-12T06:48:29Z</time>
      </trkpt>
      <trkpt lat="41.900998503" lon="-7.1943738218">
        <ele>832.01</ele>
        <time>2020-09-12T06:48:33Z</time>
      </trkpt>
      <trkpt lat="41.9009974971" lon="-7.1943736542">
        <ele>829.39</ele>
        <time>2020-09-12T06:48:36Z</time>
      </trkpt>
      <trkpt lat="41.9009964913" lon="-7.1943733189">
        <ele>833.99</ele>
        <time>2020-09-12T06:48:38Z</time>
      </trkpt>
      <trkpt lat="41.9009954855" lon="-7.1943732351">
        <ele>834</ele>
        <time>2020-09-12T06:48:39Z</time>
      </trkpt>
      <trkpt lat="41.900992468" lon="-7.1943723131">
        <ele>829.69</ele>
        <time>2020-09-12T06:49:14Z</time>
      </trkpt>
      <trkpt lat="41.9009911269" lon="-7.194372816">
        <ele>833.95</ele>
        <time>2020-09-12T06:49:15Z</time>
      </trkpt>
      <trkpt lat="41.9009907078" lon="-7.1943738218">
        <ele>833.98</ele>
        <time>2020-09-12T06:49:34Z</time>
      </trkpt>
      <trkpt lat="41.9009907078" lon="-7.1943742409">
        <ele>833.99</ele>
        <time>2020-09-12T06:49:45Z</time>
      </trkpt>
      <trkpt lat="41.9009819068" lon="-7.1943831258">
        <ele>831.24</ele>
        <time>2020-09-12T06:49:52Z</time>
      </trkpt>
      <trkpt lat="41.9009824935" lon="-7.1943828743">
        <ele>831.25</ele>
        <time>2020-09-12T06:49:53Z</time>
      </trkpt>
      <trkpt lat="41.9009863492" lon="-7.1943644341">
        <ele>833.9</ele>
        <time>2020-09-12T06:49:55Z</time>
      </trkpt>
      <trkpt lat="41.9010570925" lon="-7.194272317">
        <ele>835</ele>
        <time>2020-09-12T06:49:56Z</time>
      </trkpt>
      <trkpt lat="41.9013419934" lon="-7.1941059362">
        <ele>835</ele>
        <time>2020-09-12T06:49:57Z</time>
      </trkpt>
      <trkpt lat="41.9014137425" lon="-7.1940842271">
        <ele>835</ele>
        <time>2020-09-12T06:49:58Z</time>
      </trkpt>
      <trkpt lat="41.9015313406" lon="-7.1940460894">
        <ele>834.98</ele>
        <time>2020-09-12T06:49:59Z</time>
      </trkpt>
      <trkpt lat="41.9015523791" lon="-7.1940162499">
        <ele>831.29</ele>
        <time>2020-09-12T06:50:00Z</time>
      </trkpt>
      <trkpt lat="41.9015439134" lon="-7.1939760167">
        <ele>829.7</ele>
        <time>2020-09-12T06:50:02Z</time>
      </trkpt>
      <trkpt lat="41.9015144929" lon="-7.1939283237">
        <ele>829.65</ele>
        <time>2020-09-12T06:50:04Z</time>
      </trkpt>
      <trkpt lat="41.901463028" lon="-7.1938738413">
        <ele>827.33</ele>
        <time>2020-09-12T06:50:06Z</time>
      </trkpt>
      <trkpt lat="41.9013937935" lon="-7.1938093845">
        <ele>825.03</ele>
        <time>2020-09-12T06:50:07Z</time>
      </trkpt>
      <trkpt lat="41.9012515526" lon="-7.1936628688">
        <ele>824.17</ele>
        <time>2020-09-12T06:50:08Z</time>
      </trkpt>
      <trkpt lat="41.9011358824" lon="-7.193524735">
        <ele>822.97</ele>
        <time>2020-09-12T06:50:09Z</time>
      </trkpt>
      <trkpt lat="41.901023984" lon="-7.1933467034">
        <ele>821.78</ele>
        <time>2020-09-12T06:50:10Z</time>
      </trkpt>
      <trkpt lat="41.9009691663" lon="-7.1932286862">
        <ele>821.78</ele>
        <time>2020-09-12T06:50:11Z</time>
      </trkpt>
      <trkpt lat="41.9009228982" lon="-7.1931001917">
        <ele>819.4</ele>
        <time>2020-09-12T06:50:13Z</time>
      </trkpt>
      <trkpt lat="41.9008891191" lon="-7.1929665003">
        <ele>818.49</ele>
        <time>2020-09-12T06:50:14Z</time>
      </trkpt>
      <trkpt lat="41.9008700922" lon="-7.1928248461">
        <ele>816.68</ele>
        <time>2020-09-12T06:50:15Z</time>
      </trkpt>
      <trkpt lat="41.900858609" lon="-7.1926702838">
        <ele>816.68</ele>
        <time>2020-09-12T06:50:16Z</time>
      </trkpt>
      <trkpt lat="41.9008150231" lon="-7.1923391148">
        <ele>814.17</ele>
        <time>2020-09-12T06:50:19Z</time>
      </trkpt>
      <trkpt lat="41.9007676654" lon="-7.192172315">
        <ele>811.1</ele>
        <time>2020-09-12T06:50:23Z</time>
      </trkpt>
      <trkpt lat="41.9007060584" lon="-7.1920081973">
        <ele>808.03</ele>
        <time>2020-09-12T06:50:25Z</time>
      </trkpt>
      <trkpt lat="41.9006388355" lon="-7.1918413136">
        <ele>804.37</ele>
        <time>2020-09-12T06:50:27Z</time>
      </trkpt>
      <trkpt lat="41.9004381727" lon="-7.1913130861">
        <ele>801.04</ele>
        <time>2020-09-12T06:50:28Z</time>
      </trkpt>
      <trkpt lat="41.9001870509" lon="-7.1906812582">
        <ele>797.71</ele>
        <time>2020-09-12T06:50:29Z</time>
      </trkpt>
      <trkpt lat="41.9000399485" lon="-7.1904010512">
        <ele>794.8</ele>
        <time>2020-09-12T06:50:30Z</time>
      </trkpt>
      <trkpt lat="41.8998920079" lon="-7.1901557129">
        <ele>794.74</ele>
        <time>2020-09-12T06:50:31Z</time>
      </trkpt>
      <trkpt lat="41.8998009805" lon="-7.1900387015">
        <ele>791.3</ele>
        <time>2020-09-12T06:50:33Z</time>
      </trkpt>
      <trkpt lat="41.8996912614" lon="-7.1899272222">
        <ele>787.94</ele>
        <time>2020-09-12T06:50:34Z</time>
      </trkpt>
      <trkpt lat="41.8995688856" lon="-7.1898222808">
        <ele>784.24</ele>
        <time>2020-09-12T06:50:35Z</time>
      </trkpt>
      <trkpt lat="41.8994450849" lon="-7.1897213627">
        <ele>779.92</ele>
        <time>2020-09-12T06:50:36Z</time>
      </trkpt>
      <trkpt lat="41.899213912" lon="-7.1895006672">
        <ele>776</ele>
        <time>2020-09-12T06:50:37Z</time>
      </trkpt>
      <trkpt lat="41.899104109" lon="-7.1893624496">
        <ele>773.97</ele>
        <time>2020-09-12T06:50:39Z</time>
      </trkpt>
      <trkpt lat="41.8989940546" lon="-7.1892100666">
        <ele>770.2</ele>
        <time>2020-09-12T06:50:42Z</time>
      </trkpt>
      <trkpt lat="41.8988834973" lon="-7.1890475415">
        <ele>770.24</ele>
        <time>2020-09-12T06:50:43Z</time>
      </trkpt>
      <trkpt lat="41.898772018" lon="-7.1888783947">
        <ele>765.08</ele>
        <time>2020-09-12T06:50:45Z</time>
      </trkpt>
      <trkpt lat="41.898557106" lon="-7.1885463037">
        <ele>759.74</ele>
        <time>2020-09-12T06:50:47Z</time>
      </trkpt>
      <trkpt lat="41.8982428685" lon="-7.1881024819">
        <ele>757.95</ele>
        <time>2020-09-12T06:50:49Z</time>
      </trkpt>
      <trkpt lat="41.8981336523" lon="-7.1879758313">
        <ele>752.65</ele>
        <time>2020-09-12T06:50:52Z</time>
      </trkpt>
      <trkpt lat="41.8979013897" lon="-7.1877466701">
        <ele>750.23</ele>
        <time>2020-09-12T06:50:55Z</time>
      </trkpt>
      <trkpt lat="41.8976645172" lon="-7.1875494439">
        <ele>747.94</ele>
        <time>2020-09-12T06:50:57Z</time>
      </trkpt>
      <trkpt lat="41.8974213582" lon="-7.1873880085">
        <ele>746.25</ele>
        <time>2020-09-12T06:51:00Z</time>
      </trkpt>
      <trkpt lat="41.8971327692" lon="-7.1871036105">
        <ele>744.14</ele>
        <time>2020-09-12T06:51:02Z</time>
      </trkpt>
      <trkpt lat="41.8968958966" lon="-7.1867444459">
        <ele>743.26</ele>
        <time>2020-09-12T06:51:04Z</time>
      </trkpt>
      <trkpt lat="41.8967716768" lon="-7.1865078248">
        <ele>742.07</ele>
        <time>2020-09-12T06:51:09Z</time>
      </trkpt>
      <trkpt lat="41.8966648076" lon="-7.1861147974">
        <ele>738.82</ele>
        <time>2020-09-12T06:51:12Z</time>
      </trkpt>
      <trkpt lat="41.896653492" lon="-7.1858697105">
        <ele>735.49</ele>
        <time>2020-09-12T06:51:14Z</time>
      </trkpt>
      <trkpt lat="41.8966951501" lon="-7.1856857277">
        <ele>731.51</ele>
        <time>2020-09-12T06:51:17Z</time>
      </trkpt>
      <trkpt lat="41.89674519" lon="-7.1854108851">
        <ele>727.13</ele>
        <time>2020-09-12T06:51:20Z</time>
      </trkpt>
      <trkpt lat="41.8966285139" lon="-7.1853274852">
        <ele>727.03</ele>
        <time>2020-09-12T06:51:21Z</time>
      </trkpt>
      <trkpt lat="41.896501109" lon="-7.1852823906">
        <ele>725.16</ele>
        <time>2020-09-12T06:51:23Z</time>
      </trkpt>
      <trkpt lat="41.8962991051" lon="-7.1852802951">
        <ele>722.66</ele>
        <time>2020-09-12T06:51:29Z</time>
      </trkpt>
      <trkpt lat="41.8961309642" lon="-7.1854367014">
        <ele>720</ele>
        <time>2020-09-12T06:51:30Z</time>
      </trkpt>
      <trkpt lat="41.8960936647" lon="-7.185524879">
        <ele>712.95</ele>
        <time>2020-09-12T06:51:33Z</time>
      </trkpt>
      <trkpt lat="41.8960540183" lon="-7.1857142262">
        <ele>712.12</ele>
        <time>2020-09-12T06:51:34Z</time>
      </trkpt>
      <trkpt lat="41.8959237635" lon="-7.1858367696">
        <ele>708.05</ele>
        <time>2020-09-12T06:51:37Z</time>
      </trkpt>
      <trkpt lat="41.8959005456" lon="-7.1857494302">
        <ele>703.32</ele>
        <time>2020-09-12T06:51:39Z</time>
      </trkpt>
      <trkpt lat="41.8958012201" lon="-7.1853763517">
        <ele>699.77</ele>
        <time>2020-09-12T06:51:42Z</time>
      </trkpt>
      <trkpt lat="41.8957747333" lon="-7.1852391399">
        <ele>699.82</ele>
        <time>2020-09-12T06:51:43Z</time>
      </trkpt>
      <trkpt lat="41.8957569636" lon="-7.1848335396">
        <ele>697.7</ele>
        <time>2020-09-12T06:51:47Z</time>
      </trkpt>
      <trkpt lat="41.8957931735" lon="-7.1845588647">
        <ele>693.66</ele>
        <time>2020-09-12T06:51:48Z</time>
      </trkpt>
      <trkpt lat="41.8958795071" lon="-7.1841487382">
        <ele>688.66</ele>
        <time>2020-09-12T06:51:50Z</time>
      </trkpt>
      <trkpt lat="41.8959114421" lon="-7.1840255242">
        <ele>688.67</ele>
        <time>2020-09-12T06:51:51Z</time>
      </trkpt>
      <trkpt lat="41.8960644957" lon="-7.1837354265">
        <ele>686.12</ele>
        <time>2020-09-12T06:51:54Z</time>
      </trkpt>
      <trkpt lat="41.8961195648" lon="-7.1837070119">
        <ele>681.88</ele>
        <time>2020-09-12T06:51:58Z</time>
      </trkpt>
      <trkpt lat="41.8962751329" lon="-7.1837081853">
        <ele>678.86</ele>
        <time>2020-09-12T06:52:01Z</time>
      </trkpt>
      <trkpt lat="41.8963559344" lon="-7.1837386116">
        <ele>674.86</ele>
        <time>2020-09-12T06:52:03Z</time>
      </trkpt>
      <trkpt lat="41.896577049" lon="-7.1839053277">
        <ele>672.23</ele>
        <time>2020-09-12T06:52:04Z</time>
      </trkpt>
      <trkpt lat="41.8968829885" lon="-7.1838706266">
        <ele>664.65</ele>
        <time>2020-09-12T06:52:07Z</time>
      </trkpt>
      <trkpt lat="41.8970756885" lon="-7.183801895">
        <ele>659.75</ele>
        <time>2020-09-12T06:52:09Z</time>
      </trkpt>
      <trkpt lat="41.897236621" lon="-7.18386258">
        <ele>659.73</ele>
        <time>2020-09-12T06:52:10Z</time>
      </trkpt>
      <trkpt lat="41.8973248824" lon="-7.1839216724">
        <ele>656.02</ele>
        <time>2020-09-12T06:52:11Z</time>
      </trkpt>
      <trkpt lat="41.8976179138" lon="-7.1841248497">
        <ele>656.01</ele>
        <time>2020-09-12T06:52:12Z</time>
      </trkpt>
      <trkpt lat="41.8978189956" lon="-7.184265079">
        <ele>660.73</ele>
        <time>2020-09-12T06:52:15Z</time>
      </trkpt>
      <trkpt lat="41.8979255296" lon="-7.1843383368">
        <ele>662.19</ele>
        <time>2020-09-12T06:52:17Z</time>
      </trkpt>
      <trkpt lat="41.8980350811" lon="-7.184415618">
        <ele>659.57</ele>
        <time>2020-09-12T06:52:19Z</time>
      </trkpt>
      <trkpt lat="41.8981428724" lon="-7.1844866965">
        <ele>659.84</ele>
        <time>2020-09-12T06:52:26Z</time>
      </trkpt>
      <trkpt lat="41.8984018732" lon="-7.1846756246">
        <ele>662.1</ele>
        <time>2020-09-12T06:52:28Z</time>
      </trkpt>
      <trkpt lat="41.8984571099" lon="-7.1846630517">
        <ele>662.09</ele>
        <time>2020-09-12T06:52:30Z</time>
      </trkpt>
      <trkpt lat="41.8984939903" lon="-7.1844936535">
        <ele>662.12</ele>
        <time>2020-09-12T06:52:33Z</time>
      </trkpt>
      <trkpt lat="41.8985596206" lon="-7.1842825972">
        <ele>659.15</ele>
        <time>2020-09-12T06:52:39Z</time>
      </trkpt>
      <trkpt lat="41.898561297" lon="-7.1842789091">
        <ele>654.82</ele>
        <time>2020-09-12T06:52:43Z</time>
      </trkpt>
      <trkpt lat="41.8985626381" lon="-7.1842748858">
        <ele>654.81</ele>
        <time>2020-09-12T06:52:46Z</time>
      </trkpt>
      <trkpt lat="41.8986028712" lon="-7.1842473093">
        <ele>653.9</ele>
        <time>2020-09-12T06:52:50Z</time>
      </trkpt>
      <trkpt lat="41.8986454513" lon="-7.184035331">
        <ele>653.87</ele>
        <time>2020-09-12T06:52:55Z</time>
      </trkpt>
      <trkpt lat="41.8986313697" lon="-7.1837273799">
        <ele>662.21</ele>
        <time>2020-09-12T06:52:58Z</time>
      </trkpt>
      <trkpt lat="41.8986125104" lon="-7.1836366877">
        <ele>662.21</ele>
        <time>2020-09-12T06:52:59Z</time>
      </trkpt>
      <trkpt lat="41.8986431044" lon="-7.1836537868">
        <ele>656.94</ele>
        <time>2020-09-12T06:53:04Z</time>
      </trkpt>
      <trkpt lat="41.8986380752" lon="-7.1840370912">
        <ele>655.21</ele>
        <time>2020-09-12T06:53:05Z</time>
      </trkpt>
      <trkpt lat="41.8985979259" lon="-7.1842306294">
        <ele>650.27</ele>
        <time>2020-09-12T06:53:09Z</time>
      </trkpt>
      <trkpt lat="41.8985823356" lon="-7.1842373349">
        <ele>649.3</ele>
        <time>2020-09-12T06:53:10Z</time>
      </trkpt>
      <trkpt lat="41.8985843472" lon="-7.1840166394">
        <ele>642.79</ele>
        <time>2020-09-12T06:53:14Z</time>
      </trkpt>
      <trkpt lat="41.8985830061" lon="-7.1839314792">
        <ele>642.75</ele>
        <time>2020-09-12T06:53:15Z</time>
      </trkpt>
      <trkpt lat="41.8985671643" lon="-7.1835977118">
        <ele>637.22</ele>
        <time>2020-09-12T06:53:17Z</time>
      </trkpt>
      <trkpt lat="41.8985642307" lon="-7.1835128032">
        <ele>636.09</ele>
        <time>2020-09-12T06:53:19Z</time>
      </trkpt>
      <trkpt lat="41.89862567" lon="-7.183183562">
        <ele>635.07</ele>
        <time>2020-09-12T06:53:21Z</time>
      </trkpt>
      <trkpt lat="41.8986664899" lon="-7.1831359528">
        <ele>629.63</ele>
        <time>2020-09-12T06:53:25Z</time>
      </trkpt>
      <trkpt lat="41.8988162745" lon="-7.183085829">
        <ele>627.89</ele>
        <time>2020-09-12T06:53:26Z</time>
      </trkpt>
      <trkpt lat="41.8989974074" lon="-7.183076106">
        <ele>621.45</ele>
        <time>2020-09-12T06:53:30Z</time>
      </trkpt>
      <trkpt lat="41.8991508801" lon="-7.1831245534">
        <ele>617.63</ele>
        <time>2020-09-12T06:53:33Z</time>
      </trkpt>
      <trkpt lat="41.8994225375" lon="-7.1831824724">
        <ele>617.63</ele>
        <time>2020-09-12T06:53:34Z</time>
      </trkpt>
      <trkpt lat="41.8994882517" lon="-7.1831133217">
        <ele>617.63</ele>
        <time>2020-09-12T06:53:35Z</time>
      </trkpt>
      <trkpt lat="41.8997640163" lon="-7.182810232">
        <ele>615.34</ele>
        <time>2020-09-12T06:53:40Z</time>
      </trkpt>
      <trkpt lat="41.9000275433" lon="-7.1826396603">
        <ele>605.78</ele>
        <time>2020-09-12T06:53:43Z</time>
      </trkpt>
      <trkpt lat="41.9000963587" lon="-7.1825981699">
        <ele>601.07</ele>
        <time>2020-09-12T06:53:44Z</time>
      </trkpt>
      <trkpt lat="41.9001516793" lon="-7.1825593617">
        <ele>595.44</ele>
        <time>2020-09-12T06:53:46Z</time>
      </trkpt>
      <trkpt lat="41.9001538586" lon="-7.1824208926">
        <ele>595.46</ele>
        <time>2020-09-12T06:53:48Z</time>
      </trkpt>
      <trkpt lat="41.8999272119" lon="-7.1824125107">
        <ele>593.15</ele>
        <time>2020-09-12T06:53:51Z</time>
      </trkpt>
      <trkpt lat="41.8998126313" lon="-7.1823582798">
        <ele>593.16</ele>
        <time>2020-09-12T06:53:53Z</time>
      </trkpt>
      <trkpt lat="41.8996069394" lon="-7.1821989398">
        <ele>588.21</ele>
        <time>2020-09-12T06:53:57Z</time>
      </trkpt>
      <trkpt lat="41.8994195201" lon="-7.1820113529">
        <ele>584.04</ele>
        <time>2020-09-12T06:54:01Z</time>
      </trkpt>
      <trkpt lat="41.8991373014" lon="-7.1818230115">
        <ele>580.6</ele>
        <time>2020-09-12T06:54:04Z</time>
      </trkpt>
      <trkpt lat="41.8989773747" lon="-7.1817645058">
        <ele>576.61</ele>
        <time>2020-09-12T06:54:08Z</time>
      </trkpt>
      <trkpt lat="41.8987375684" lon="-7.1815376077">
        <ele>570.48</ele>
        <time>2020-09-12T06:54:10Z</time>
      </trkpt>
      <trkpt lat="41.8984763045" lon="-7.1812330931">
        <ele>569.64</ele>
        <time>2020-09-12T06:54:12Z</time>
      </trkpt>
      <trkpt lat="41.8982888013" lon="-7.1811040957">
        <ele>566.36</ele>
        <time>2020-09-12T06:54:14Z</time>
      </trkpt>
      <trkpt lat="41.8983141985" lon="-7.1809836477">
        <ele>561.49</ele>
        <time>2020-09-12T06:54:16Z</time>
      </trkpt>
      <trkpt lat="41.8984757178" lon="-7.1809948795">
        <ele>557.45</ele>
        <time>2020-09-12T06:54:18Z</time>
      </trkpt>
      <trkpt lat="41.8986804038" lon="-7.1810482722">
        <ele>554.56</ele>
        <time>2020-09-12T06:54:20Z</time>
      </trkpt>
      <trkpt lat="41.8988775462" lon="-7.1810898464">
        <ele>551.09</ele>
        <time>2020-09-12T06:54:23Z</time>
      </trkpt>
      <trkpt lat="41.8990747724" lon="-7.1811128128">
        <ele>550.96</ele>
        <time>2020-09-12T06:54:24Z</time>
      </trkpt>
      <trkpt lat="41.8992839847" lon="-7.1810670476">
        <ele>550.97</ele>
        <time>2020-09-12T06:54:26Z</time>
      </trkpt>
      <trkpt lat="41.8995016627" lon="-7.1810178459">
        <ele>546.22</ele>
        <time>2020-09-12T06:54:30Z</time>
      </trkpt>
      <trkpt lat="41.8998065125" lon="-7.1809985675">
        <ele>541.57</ele>
        <time>2020-09-12T06:54:33Z</time>
      </trkpt>
      <trkpt lat="41.8998962827" lon="-7.1809417382">
        <ele>541.74</ele>
        <time>2020-09-12T06:54:34Z</time>
      </trkpt>
      <trkpt lat="41.9000171497" lon="-7.1807640418">
        <ele>537.65</ele>
        <time>2020-09-12T06:54:37Z</time>
      </trkpt>
      <trkpt lat="41.9002976082" lon="-7.1804371476">
        <ele>534.54</ele>
        <time>2020-09-12T06:54:38Z</time>
      </trkpt>
      <trkpt lat="41.9006061461" lon="-7.1803282667">
        <ele>530.51</ele>
        <time>2020-09-12T06:54:39Z</time>
      </trkpt>
      <trkpt lat="41.9007050525" lon="-7.1803222317">
        <ele>527</ele>
        <time>2020-09-12T06:54:41Z</time>
      </trkpt>
      <trkpt lat="41.9010159373" lon="-7.1803322062">
        <ele>521.79</ele>
        <time>2020-09-12T06:54:43Z</time>
      </trkpt>
      <trkpt lat="41.901131859" lon="-7.1803363133">
        <ele>516.03</ele>
        <time>2020-09-12T06:54:44Z</time>
      </trkpt>
      <trkpt lat="41.9012508821" lon="-7.1803389117">
        <ele>512.2</ele>
        <time>2020-09-12T06:54:46Z</time>
      </trkpt>
      <trkpt lat="41.9014792051" lon="-7.1803415939">
        <ele>512.2</ele>
        <time>2020-09-12T06:54:47Z</time>
      </trkpt>
      <trkpt lat="41.9017066061" lon="-7.180329524">
        <ele>511.99</ele>
        <time>2020-09-12T06:54:48Z</time>
      </trkpt>
      <trkpt lat="41.9018287305" lon="-7.1803244948">
        <ele>517.08</ele>
        <time>2020-09-12T06:54:50Z</time>
      </trkpt>
      <trkpt lat="41.9020863902" lon="-7.1803144366">
        <ele>512.66</ele>
        <time>2020-09-12T06:54:51Z</time>
      </trkpt>
      <trkpt lat="41.902207844" lon="-7.180325333">
        <ele>505.01</ele>
        <time>2020-09-12T06:54:54Z</time>
      </trkpt>
      <trkpt lat="41.9023127854" lon="-7.1803368162">
        <ele>501.86</ele>
        <time>2020-09-12T06:54:56Z</time>
      </trkpt>
      <trkpt lat="41.9024773221" lon="-7.1802928951">
        <ele>495.43</ele>
        <time>2020-09-12T06:55:00Z</time>
      </trkpt>
      <trkpt lat="41.902559381" lon="-7.1802509855">
        <ele>495.29</ele>
        <time>2020-09-12T06:55:01Z</time>
      </trkpt>
      <trkpt lat="41.9028470479" lon="-7.1802020352">
        <ele>495.32</ele>
        <time>2020-09-12T06:55:04Z</time>
      </trkpt>
      <trkpt lat="41.9030462019" lon="-7.1801767219">
        <ele>488.32</ele>
        <time>2020-09-12T06:55:06Z</time>
      </trkpt>
      <trkpt lat="41.90344912" lon="-7.1801380813">
        <ele>487.06</ele>
        <time>2020-09-12T06:55:08Z</time>
      </trkpt>
      <trkpt lat="41.9035521336" lon="-7.1801273525">
        <ele>490.36</ele>
        <time>2020-09-12T06:55:09Z</time>
      </trkpt>
      <trkpt lat="41.9037680514" lon="-7.1801033802">
        <ele>492.82</ele>
        <time>2020-09-12T06:55:12Z</time>
      </trkpt>
      <trkpt lat="41.903971564" lon="-7.1801232453">
        <ele>496.62</ele>
        <time>2020-09-12T06:55:18Z</time>
      </trkpt>
      <trkpt lat="41.9042005576" lon="-7.1801518276">
        <ele>498.57</ele>
        <time>2020-09-12T06:55:21Z</time>
      </trkpt>
      <trkpt lat="41.9042881485" lon="-7.1801644843">
        <ele>501.96</ele>
        <time>2020-09-12T06:55:23Z</time>
      </trkpt>
      <trkpt lat="41.9044196606" lon="-7.180106733">
        <ele>505.65</ele>
        <time>2020-09-12T06:55:25Z</time>
      </trkpt>
      <trkpt lat="41.9042660203" lon="-7.1797132026">
        <ele>505.65</ele>
        <time>2020-09-12T06:55:26Z</time>
      </trkpt>
      <trkpt lat="41.9040106237" lon="-7.179613458">
        <ele>509.01</ele>
        <time>2020-09-12T06:55:28Z</time>
      </trkpt>
      <trkpt lat="41.9038365316" lon="-7.1795185748">
        <ele>512.9</ele>
        <time>2020-09-12T06:55:31Z</time>
      </trkpt>
      <trkpt lat="41.9036750123" lon="-7.1794244461">
        <ele>515.32</ele>
        <time>2020-09-12T06:55:34Z</time>
      </trkpt>
      <trkpt lat="41.903595468" lon="-7.1793747414">
        <ele>519.19</ele>
        <time>2020-09-12T06:55:36Z</time>
      </trkpt>
      <trkpt lat="41.9034306798" lon="-7.1792952809">
        <ele>523.62</ele>
        <time>2020-09-12T06:55:39Z</time>
      </trkpt>
      <trkpt lat="41.9031814858" lon="-7.1792147309">
        <ele>525.29</ele>
        <time>2020-09-12T06:55:40Z</time>
      </trkpt>
      <trkpt lat="41.9029188808" lon="-7.1791363601">
        <ele>527.74</ele>
        <time>2020-09-12T06:55:43Z</time>
      </trkpt>
      <trkpt lat="41.9027333055" lon="-7.1790607553">
        <ele>530.98</ele>
        <time>2020-09-12T06:55:44Z</time>
      </trkpt>
      <trkpt lat="41.9024376757" lon="-7.1789646149">
        <ele>535.23</ele>
        <time>2020-09-12T06:55:46Z</time>
      </trkpt>
      <trkpt lat="41.9023366738" lon="-7.1789259743">
        <ele>538.51</ele>
        <time>2020-09-12T06:55:48Z</time>
      </trkpt>
      <trkpt lat="41.902049426" lon="-7.1787303407">
        <ele>540.76</ele>
        <time>2020-09-12T06:55:51Z</time>
      </trkpt>
      <trkpt lat="41.9019638468" lon="-7.1786356252">
        <ele>541.6</ele>
        <time>2020-09-12T06:55:55Z</time>
      </trkpt>
      <trkpt lat="41.9018454105" lon="-7.1784243174">
        <ele>543.75</ele>
        <time>2020-09-12T06:55:59Z</time>
      </trkpt>
      <trkpt lat="41.9018133916" lon="-7.1782026999">
        <ele>543.74</ele>
        <time>2020-09-12T06:56:00Z</time>
      </trkpt>
      <trkpt lat="41.9017888326" lon="-7.1778973471">
        <ele>546.94</ele>
        <time>2020-09-12T06:56:03Z</time>
      </trkpt>
      <trkpt lat="41.9014796242" lon="-7.1778551862">
        <ele>559.07</ele>
        <time>2020-09-12T06:56:06Z</time>
      </trkpt>
      <trkpt lat="41.9010386523" lon="-7.1779995225">
        <ele>559.88</ele>
        <time>2020-09-12T06:56:07Z</time>
      </trkpt>
      <trkpt lat="41.9009091519" lon="-7.1779695991">
        <ele>567</ele>
        <time>2020-09-12T06:56:10Z</time>
      </trkpt>
      <trkpt lat="41.900460301" lon="-7.1777911484">
        <ele>567.98</ele>
        <time>2020-09-12T06:56:12Z</time>
      </trkpt>
      <trkpt lat="41.9001670182" lon="-7.1775415353">
        <ele>571.29</ele>
        <time>2020-09-12T06:56:16Z</time>
      </trkpt>
      <trkpt lat="41.9001041539" lon="-7.1774256136">
        <ele>570.88</ele>
        <time>2020-09-12T06:56:17Z</time>
      </trkpt>
      <trkpt lat="41.8998981267" lon="-7.17724666">
        <ele>574.97</ele>
        <time>2020-09-12T06:56:19Z</time>
      </trkpt>
      <trkpt lat="41.8997387029" lon="-7.1772763319">
        <ele>575.14</ele>
        <time>2020-09-12T06:56:20Z</time>
      </trkpt>
      <trkpt lat="41.8992544804" lon="-7.1772854682">
        <ele>579.16</ele>
        <time>2020-09-12T06:56:21Z</time>
      </trkpt>
      <trkpt lat="41.8991132453" lon="-7.1772223525">
        <ele>584.74</ele>
        <time>2020-09-12T06:56:23Z</time>
      </trkpt>
      <trkpt lat="41.8988306914" lon="-7.1770654432">
        <ele>588.31</ele>
        <time>2020-09-12T06:56:25Z</time>
      </trkpt>
      <trkpt lat="41.8986939825" lon="-7.1769732423">
        <ele>594.43</ele>
        <time>2020-09-12T06:56:27Z</time>
      </trkpt>
      <trkpt lat="41.8985576089" lon="-7.1768763475">
        <ele>597.63</ele>
        <time>2020-09-12T06:56:28Z</time>
      </trkpt>
      <trkpt lat="41.8982973509" lon="-7.1766881738">
        <ele>601.31</ele>
        <time>2020-09-12T06:56:31Z</time>
      </trkpt>
      <trkpt lat="41.8980463967" lon="-7.1765303425">
        <ele>607.62</ele>
        <time>2020-09-12T06:56:33Z</time>
      </trkpt>
      <trkpt lat="41.8977885693" lon="-7.1763808094">
        <ele>612.26</ele>
        <time>2020-09-12T06:56:35Z</time>
      </trkpt>
      <trkpt lat="41.897670636" lon="-7.1763205435">
        <ele>612.26</ele>
        <time>2020-09-12T06:56:36Z</time>
      </trkpt>
      <trkpt lat="41.8974278122" lon="-7.1760583576">
        <ele>613.14</ele>
        <time>2020-09-12T06:56:41Z</time>
      </trkpt>
      <trkpt lat="41.8973286543" lon="-7.1758045536">
        <ele>619.76</ele>
        <time>2020-09-12T06:56:44Z</time>
      </trkpt>
      <trkpt lat="41.8972242996" lon="-7.175678825">
        <ele>621.75</ele>
        <time>2020-09-12T06:56:46Z</time>
      </trkpt>
      <trkpt lat="41.897162525" lon="-7.1756846085">
        <ele>626.14</ele>
        <time>2020-09-12T06:56:49Z</time>
      </trkpt>
      <trkpt lat="41.8966698367" lon="-7.175775636">
        <ele>631.68</ele>
        <time>2020-09-12T06:56:51Z</time>
      </trkpt>
      <trkpt lat="41.896244958" lon="-7.1756746341">
        <ele>639.3</ele>
        <time>2020-09-12T06:56:53Z</time>
      </trkpt>
      <trkpt lat="41.8959671818" lon="-7.1755851991">
        <ele>644.97</ele>
        <time>2020-09-12T06:56:54Z</time>
      </trkpt>
      <trkpt lat="41.895527048" lon="-7.1754401922">
        <ele>649.66</ele>
        <time>2020-09-12T06:56:56Z</time>
      </trkpt>
      <trkpt lat="41.895214403" lon="-7.175395349">
        <ele>654.36</ele>
        <time>2020-09-12T06:56:58Z</time>
      </trkpt>
      <trkpt lat="41.8948991597" lon="-7.1753762383">
        <ele>658.25</ele>
        <time>2020-09-12T06:57:00Z</time>
      </trkpt>
      <trkpt lat="41.8947627023" lon="-7.1753655095">
        <ele>660.03</ele>
        <time>2020-09-12T06:57:02Z</time>
      </trkpt>
      <trkpt lat="41.8945435993" lon="-7.1752879769">
        <ele>661.31</ele>
        <time>2020-09-12T06:57:03Z</time>
      </trkpt>
      <trkpt lat="41.8943819124" lon="-7.1751199197">
        <ele>666.01</ele>
        <time>2020-09-12T06:57:07Z</time>
      </trkpt>
      <trkpt lat="41.8943224009" lon="-7.1749702189">
        <ele>670</ele>
        <time>2020-09-12T06:57:09Z</time>
      </trkpt>
      <trkpt lat="41.8943687528" lon="-7.1748811193">
        <ele>669.99</ele>
        <time>2020-09-12T06:57:10Z</time>
      </trkpt>
      <trkpt lat="41.8944285158" lon="-7.1748732403">
        <ele>673.93</ele>
        <time>2020-09-12T06:57:14Z</time>
      </trkpt>
      <trkpt lat="41.8947508" lon="-7.1748368628">
        <ele>677.39</ele>
        <time>2020-09-12T06:57:17Z</time>
      </trkpt>
      <trkpt lat="41.8947983254" lon="-7.1747455839">
        <ele>679.68</ele>
        <time>2020-09-12T06:57:20Z</time>
      </trkpt>
      <trkpt lat="41.8947838247" lon="-7.1746880002">
        <ele>679.47</ele>
        <time>2020-09-12T06:57:22Z</time>
      </trkpt>
      <trkpt lat="41.8946383148" lon="-7.1743565798">
        <ele>691.36</ele>
        <time>2020-09-12T06:57:26Z</time>
      </trkpt>
      <trkpt lat="41.8946934678" lon="-7.1741867624">
        <ele>692.96</ele>
        <time>2020-09-12T06:57:28Z</time>
      </trkpt>
      <trkpt lat="41.8948809709" lon="-7.1742462739">
        <ele>697.96</ele>
        <time>2020-09-12T06:57:33Z</time>
      </trkpt>
      <trkpt lat="41.8950821366" lon="-7.1742502134">
        <ele>698.95</ele>
        <time>2020-09-12T06:57:35Z</time>
      </trkpt>
      <trkpt lat="41.8953120522" lon="-7.1741279215">
        <ele>701.46</ele>
        <time>2020-09-12T06:57:37Z</time>
      </trkpt>
      <trkpt lat="41.8952649459" lon="-7.174013257">
        <ele>703.36</ele>
        <time>2020-09-12T06:57:39Z</time>
      </trkpt>
      <trkpt lat="41.8950565718" lon="-7.1735500731">
        <ele>710.19</ele>
        <time>2020-09-12T06:57:43Z</time>
      </trkpt>
      <trkpt lat="41.8950656243" lon="-7.1733527631">
        <ele>715.31</ele>
        <time>2020-09-12T06:57:47Z</time>
      </trkpt>
      <trkpt lat="41.8951382954" lon="-7.1731349174">
        <ele>715.06</ele>
        <time>2020-09-12T06:57:48Z</time>
      </trkpt>
      <trkpt lat="41.8952423986" lon="-7.1729179099">
        <ele>715</ele>
        <time>2020-09-12T06:58:12Z</time>
      </trkpt>
      <trkpt lat="41.8953377847" lon="-7.1724770218">
        <ele>715</ele>
        <time>2020-09-12T06:58:14Z</time>
      </trkpt>
      <trkpt lat="41.8953365274" lon="-7.1722707432">
        <ele>714.98</ele>
        <time>2020-09-12T06:58:20Z</time>
      </trkpt>
      <trkpt lat="41.8953337613" lon="-7.1722618584">
        <ele>711.99</ele>
        <time>2020-09-12T06:58:22Z</time>
      </trkpt>
      <trkpt lat="41.8953279778" lon="-7.1722897701">
        <ele>716.25</ele>
        <time>2020-09-12T06:58:23Z</time>
      </trkpt>
      <trkpt lat="41.8953283969" lon="-7.1722896863">
        <ele>721.17</ele>
        <time>2020-09-12T06:58:24Z</time>
      </trkpt>
      <trkpt lat="41.8952685501" lon="-7.1718298551">
        <ele>726.93</ele>
        <time>2020-09-12T06:58:26Z</time>
      </trkpt>
      <trkpt lat="41.8951971363" lon="-7.1714379173">
        <ele>726.94</ele>
        <time>2020-09-12T06:58:27Z</time>
      </trkpt>
      <trkpt lat="41.895160256" lon="-7.1712375898">
        <ele>728.5</ele>
        <time>2020-09-12T06:58:29Z</time>
      </trkpt>
      <trkpt lat="41.8951310031" lon="-7.1710589714">
        <ele>731.91</ele>
        <time>2020-09-12T06:58:30Z</time>
      </trkpt>
      <trkpt lat="41.8950950447" lon="-7.1707376093">
        <ele>731.95</ele>
        <time>2020-09-12T06:58:31Z</time>
      </trkpt>
      <trkpt lat="41.8950876687" lon="-7.1705825441">
        <ele>734.54</ele>
        <time>2020-09-12T06:58:32Z</time>
      </trkpt>
      <trkpt lat="41.8950916082" lon="-7.170244921">
        <ele>744</ele>
        <time>2020-09-12T06:58:36Z</time>
      </trkpt>
      <trkpt lat="41.8950957991" lon="-7.17007217">
        <ele>752.69</ele>
        <time>2020-09-12T06:58:42Z</time>
      </trkpt>
      <trkpt lat="41.8950942066" lon="-7.1698938869">
        <ele>757.01</ele>
        <time>2020-09-12T06:58:43Z</time>
      </trkpt>
      <trkpt lat="41.8950834777" lon="-7.1697129216">
        <ele>760.07</ele>
        <time>2020-09-12T06:58:44Z</time>
      </trkpt>
      <trkpt lat="41.8950010836" lon="-7.1691156272">
        <ele>760.07</ele>
        <time>2020-09-12T06:58:45Z</time>
      </trkpt>
      <trkpt lat="41.8951967172" lon="-7.16831767">
        <ele>758.64</ele>
        <time>2020-09-12T06:58:51Z</time>
      </trkpt>
      <trkpt lat="41.8952570669" lon="-7.1682279836">
        <ele>756.8</ele>
        <time>2020-09-12T06:58:53Z</time>
      </trkpt>
      <trkpt lat="41.8953118008" lon="-7.1681754291">
        <ele>756.8</ele>
        <time>2020-09-12T06:58:55Z</time>
      </trkpt>
      <trkpt lat="41.895378856" lon="-7.1681445837">
        <ele>759.9</ele>
        <time>2020-09-12T06:58:57Z</time>
      </trkpt>
      <trkpt lat="41.8958965223" lon="-7.1679694857">
        <ele>762.11</ele>
        <time>2020-09-12T06:58:59Z</time>
      </trkpt>
      <trkpt lat="41.8959850352" lon="-7.1677704155">
        <ele>764.89</ele>
        <time>2020-09-12T06:59:06Z</time>
      </trkpt>
      <trkpt lat="41.8960593827" lon="-7.1675275918">
        <ele>770.4</ele>
        <time>2020-09-12T06:59:09Z</time>
      </trkpt>
      <trkpt lat="41.8961725384" lon="-7.167286193">
        <ele>770.4</ele>
        <time>2020-09-12T06:59:10Z</time>
      </trkpt>
      <trkpt lat="41.8963205628" lon="-7.1670570318">
        <ele>770.4</ele>
        <time>2020-09-12T06:59:11Z</time>
      </trkpt>
      <trkpt lat="41.896962868" lon="-7.1661750041">
        <ele>770.55</ele>
        <time>2020-09-12T06:59:13Z</time>
      </trkpt>
      <trkpt lat="41.8970594276" lon="-7.1658514626">
        <ele>770.56</ele>
        <time>2020-09-12T06:59:14Z</time>
      </trkpt>
      <trkpt lat="41.8970378023" lon="-7.1657607704">
        <ele>770.39</ele>
        <time>2020-09-12T06:59:22Z</time>
      </trkpt>
      <trkpt lat="41.8969954737" lon="-7.1656629536">
        <ele>776.99</ele>
        <time>2020-09-12T06:59:26Z</time>
      </trkpt>
      <trkpt lat="41.8969332799" lon="-7.1654917952">
        <ele>780.37</ele>
        <time>2020-09-12T06:59:28Z</time>
      </trkpt>
      <trkpt lat="41.8969432544" lon="-7.1654094011">
        <ele>781.15</ele>
        <time>2020-09-12T06:59:29Z</time>
      </trkpt>
      <trkpt lat="41.897258414" lon="-7.1644762438">
        <ele>781.15</ele>
        <time>2020-09-12T06:59:30Z</time>
      </trkpt>
      <trkpt lat="41.8974794447" lon="-7.1638997365">
        <ele>783.26</ele>
        <time>2020-09-12T06:59:36Z</time>
      </trkpt>
      <trkpt lat="41.8975628447" lon="-7.1637145802">
        <ele>783.19</ele>
        <time>2020-09-12T06:59:40Z</time>
      </trkpt>
      <trkpt lat="41.8975962885" lon="-7.1636357903">
        <ele>783.19</ele>
        <time>2020-09-12T06:59:41Z</time>
      </trkpt>
      <trkpt lat="41.8976220209" lon="-7.1635578386">
        <ele>783.19</ele>
        <time>2020-09-12T06:59:42Z</time>
      </trkpt>
      <trkpt lat="41.8977319077" lon="-7.1632196289">
        <ele>780.48</ele>
        <time>2020-09-12T06:59:43Z</time>
      </trkpt>
      <trkpt lat="41.8978754058" lon="-7.163052829">
        <ele>778.14</ele>
        <time>2020-09-12T06:59:44Z</time>
      </trkpt>
      <trkpt lat="41.8979127053" lon="-7.1629939042">
        <ele>775.28</ele>
        <time>2020-09-12T06:59:45Z</time>
      </trkpt>
      <trkpt lat="41.8979342468" lon="-7.1629247535">
        <ele>770.13</ele>
        <time>2020-09-12T06:59:47Z</time>
      </trkpt>
      <trkpt lat="41.897931397" lon="-7.1628382523">
        <ele>767.96</ele>
        <time>2020-09-12T06:59:50Z</time>
      </trkpt>
      <trkpt lat="41.8978964444" lon="-7.1627411898">
        <ele>767.99</ele>
        <time>2020-09-12T06:59:51Z</time>
      </trkpt>
      <trkpt lat="41.89784104" lon="-7.1626279503">
        <ele>767.99</ele>
        <time>2020-09-12T06:59:52Z</time>
      </trkpt>
      <trkpt lat="41.8977223523" lon="-7.1623357572">
        <ele>771.04</ele>
        <time>2020-09-12T06:59:53Z</time>
      </trkpt>
      <trkpt lat="41.8975423928" lon="-7.1618518699">
        <ele>771</ele>
        <time>2020-09-12T06:59:54Z</time>
      </trkpt>
      <trkpt lat="41.897464525" lon="-7.1617232915">
        <ele>771.01</ele>
        <time>2020-09-12T07:00:03Z</time>
      </trkpt>
      <trkpt lat="41.8973824661" lon="-7.1616192721">
        <ele>770.98</ele>
        <time>2020-09-12T07:00:13Z</time>
      </trkpt>
      <trkpt lat="41.8973157462" lon="-7.1615403146">
        <ele>770.98</ele>
        <time>2020-09-12T07:00:14Z</time>
      </trkpt>
      <trkpt lat="41.8972667959" lon="-7.1614826471">
        <ele>770.98</ele>
        <time>2020-09-12T07:00:15Z</time>
      </trkpt>
      <trkpt lat="41.8968474492" lon="-7.1610465366">
        <ele>770.97</ele>
        <time>2020-09-12T07:00:16Z</time>
      </trkpt>
      <trkpt lat="41.8968302663" lon="-7.161012087">
        <ele>770.96</ele>
        <time>2020-09-12T07:00:18Z</time>
      </trkpt>
      <trkpt lat="41.8968435936" lon="-7.1609832533">
        <ele>768.41</ele>
        <time>2020-09-12T07:00:19Z</time>
      </trkpt>
      <trkpt lat="41.8968546577" lon="-7.1609293576">
        <ele>768.4</ele>
        <time>2020-09-12T07:00:20Z</time>
      </trkpt>
      <trkpt lat="41.8968655542" lon="-7.1608625539">
        <ele>766.34</ele>
        <time>2020-09-12T07:00:25Z</time>
      </trkpt>
      <trkpt lat="41.896901764" lon="-7.1607313771">
        <ele>765.39</ele>
        <time>2020-09-12T07:00:29Z</time>
      </trkpt>
      <trkpt lat="41.8969308492" lon="-7.1606766433">
        <ele>765.38</ele>
        <time>2020-09-12T07:00:30Z</time>
      </trkpt>
      <trkpt lat="41.896965215" lon="-7.1606261842">
        <ele>764.6</ele>
        <time>2020-09-12T07:00:31Z</time>
      </trkpt>
      <trkpt lat="41.8971320987" lon="-7.1603064146">
        <ele>762.92</ele>
        <time>2020-09-12T07:00:35Z</time>
      </trkpt>
      <trkpt lat="41.8972450867" lon="-7.1599771734">
        <ele>761.47</ele>
        <time>2020-09-12T07:00:38Z</time>
      </trkpt>
      <trkpt lat="41.8972845655" lon="-7.1599055082">
        <ele>759.71</ele>
        <time>2020-09-12T07:00:41Z</time>
      </trkpt>
      <trkpt lat="41.8973275647" lon="-7.159843063">
        <ele>757.73</ele>
        <time>2020-09-12T07:00:45Z</time>
      </trkpt>
      <trkpt lat="41.8974761758" lon="-7.1596349403">
        <ele>756.57</ele>
        <time>2020-09-12T07:00:50Z</time>
      </trkpt>
      <trkpt lat="41.8975482602" lon="-7.1594233811">
        <ele>756.54</ele>
        <time>2020-09-12T07:00:52Z</time>
      </trkpt>
      <trkpt lat="41.8976473343" lon="-7.1592234727">
        <ele>755.76</ele>
        <time>2020-09-12T07:00:57Z</time>
      </trkpt>
      <trkpt lat="41.8978702091" lon="-7.1589961555">
        <ele>755.67</ele>
        <time>2020-09-12T07:01:05Z</time>
      </trkpt>
      <trkpt lat="41.8980568741" lon="-7.1586625557">
        <ele>758.06</ele>
        <time>2020-09-12T07:01:14Z</time>
      </trkpt>
      <trkpt lat="41.8981304672" lon="-7.1585219912">
        <ele>758.05</ele>
        <time>2020-09-12T07:01:21Z</time>
      </trkpt>
      <trkpt lat="41.8983434513" lon="-7.1583985258">
        <ele>761.21</ele>
        <time>2020-09-12T07:01:25Z</time>
      </trkpt>
      <trkpt lat="41.898584934" lon="-7.1581378486">
        <ele>761.43</ele>
        <time>2020-09-12T07:01:26Z</time>
      </trkpt>
      <trkpt lat="41.8988413364" lon="-7.1579064243">
        <ele>762.33</ele>
        <time>2020-09-12T07:01:27Z</time>
      </trkpt>
      <trkpt lat="41.8991303444" lon="-7.1577330865">
        <ele>763.91</ele>
        <time>2020-09-12T07:01:30Z</time>
      </trkpt>
      <trkpt lat="41.8994151615" lon="-7.1576989722">
        <ele>765.11</ele>
        <time>2020-09-12T07:01:31Z</time>
      </trkpt>
      <trkpt lat="41.8994930293" lon="-7.1576936077">
        <ele>772.14</ele>
        <time>2020-09-12T07:01:37Z</time>
      </trkpt>
      <trkpt lat="41.8995754234" lon="-7.1576827113">
        <ele>772.56</ele>
        <time>2020-09-12T07:01:38Z</time>
      </trkpt>
      <trkpt lat="41.8998346757" lon="-7.157561928">
        <ele>778.4</ele>
        <time>2020-09-12T07:01:40Z</time>
      </trkpt>
      <trkpt lat="41.8999273796" lon="-7.1575082839">
        <ele>780.17</ele>
        <time>2020-09-12T07:01:42Z</time>
      </trkpt>
      <trkpt lat="41.9006763864" lon="-7.1573956311">
        <ele>782.67</ele>
        <time>2020-09-12T07:01:44Z</time>
      </trkpt>
      <trkpt lat="41.9007741194" lon="-7.1573755145">
        <ele>786.97</ele>
        <time>2020-09-12T07:01:48Z</time>
      </trkpt>
      <trkpt lat="41.9009301905" lon="-7.1573165059">
        <ele>791.64</ele>
        <time>2020-09-12T07:01:50Z</time>
      </trkpt>
      <trkpt lat="41.9011086412" lon="-7.1572714951">
        <ele>792.85</ele>
        <time>2020-09-12T07:01:51Z</time>
      </trkpt>
      <trkpt lat="41.9013233017" lon="-7.1572393086">
        <ele>802.42</ele>
        <time>2020-09-12T07:01:55Z</time>
      </trkpt>
      <trkpt lat="41.9017597474" lon="-7.1569910366">
        <ele>805.54</ele>
        <time>2020-09-12T07:01:56Z</time>
      </trkpt>
      <trkpt lat="41.901931325" lon="-7.1567731909">
        <ele>809.26</ele>
        <time>2020-09-12T07:01:59Z</time>
      </trkpt>
      <trkpt lat="41.9019978773" lon="-7.1566471271">
        <ele>809.1</ele>
        <time>2020-09-12T07:02:00Z</time>
      </trkpt>
      <trkpt lat="41.902264338" lon="-7.156259967">
        <ele>811.55</ele>
        <time>2020-09-12T07:02:02Z</time>
      </trkpt>
      <trkpt lat="41.9023194909" lon="-7.1561776567">
        <ele>815.09</ele>
        <time>2020-09-12T07:02:06Z</time>
      </trkpt>
      <trkpt lat="41.9023825228" lon="-7.1558833681">
        <ele>817.76</ele>
        <time>2020-09-12T07:02:10Z</time>
      </trkpt>
      <trkpt lat="41.9023850374" lon="-7.1557654347">
        <ele>818.86</ele>
        <time>2020-09-12T07:02:12Z</time>
      </trkpt>
      <trkpt lat="41.9023677707" lon="-7.1555236168">
        <ele>819.68</ele>
        <time>2020-09-12T07:02:18Z</time>
      </trkpt>
      <trkpt lat="41.9023528509" lon="-7.1550458483">
        <ele>822.08</ele>
        <time>2020-09-12T07:02:20Z</time>
      </trkpt>
      <trkpt lat="41.9023360033" lon="-7.1545150224">
        <ele>823.56</ele>
        <time>2020-09-12T07:02:23Z</time>
      </trkpt>
      <trkpt lat="41.9023570418" lon="-7.1542083286">
        <ele>828.16</ele>
        <time>2020-09-12T07:02:26Z</time>
      </trkpt>
      <trkpt lat="41.9027186371" lon="-7.1532792784">
        <ele>830.22</ele>
        <time>2020-09-12T07:02:27Z</time>
      </trkpt>
      <trkpt lat="41.9028886221" lon="-7.1529960539">
        <ele>832.29</ele>
        <time>2020-09-12T07:02:32Z</time>
      </trkpt>
      <trkpt lat="41.903128596" lon="-7.152517112">
        <ele>837.05</ele>
        <time>2020-09-12T07:02:37Z</time>
      </trkpt>
      <trkpt lat="41.9033657201" lon="-7.1521233302">
        <ele>841.27</ele>
        <time>2020-09-12T07:02:40Z</time>
      </trkpt>
      <trkpt lat="41.9034436718" lon="-7.1520115994">
        <ele>841.22</ele>
        <time>2020-09-12T07:02:41Z</time>
      </trkpt>
      <trkpt lat="41.9040297344" lon="-7.1516864654">
        <ele>844.25</ele>
        <time>2020-09-12T07:02:46Z</time>
      </trkpt>
      <trkpt lat="41.9047609717" lon="-7.1515616588">
        <ele>845.83</ele>
        <time>2020-09-12T07:02:48Z</time>
      </trkpt>
      <trkpt lat="41.905148048" lon="-7.151550008">
        <ele>849.81</ele>
        <time>2020-09-12T07:02:49Z</time>
      </trkpt>
      <trkpt lat="41.905282829" lon="-7.1515741479">
        <ele>853.14</ele>
        <time>2020-09-12T07:02:54Z</time>
      </trkpt>
      <trkpt lat="41.9059549738" lon="-7.1519292053">
        <ele>848.73</ele>
        <time>2020-09-12T07:02:56Z</time>
      </trkpt>
      <trkpt lat="41.9062252901" lon="-7.1520530898">
        <ele>852.19</ele>
        <time>2020-09-12T07:02:59Z</time>
      </trkpt>
      <trkpt lat="41.9063477498" lon="-7.1520918142">
        <ele>854.43</ele>
        <time>2020-09-12T07:03:01Z</time>
      </trkpt>
      <trkpt lat="41.9068962615" lon="-7.1523495577">
        <ele>851.43</ele>
        <time>2020-09-12T07:03:04Z</time>
      </trkpt>
      <trkpt lat="41.9071603753" lon="-7.1524145175">
        <ele>849.09</ele>
        <time>2020-09-12T07:03:07Z</time>
      </trkpt>
      <trkpt lat="41.9074973278" lon="-7.1524373163">
        <ele>853.23</ele>
        <time>2020-09-12T07:03:09Z</time>
      </trkpt>
      <trkpt lat="41.9076969847" lon="-7.1524821594">
        <ele>858.15</ele>
        <time>2020-09-12T07:03:11Z</time>
      </trkpt>
      <trkpt lat="41.9080727454" lon="-7.1526403259">
        <ele>860.5</ele>
        <time>2020-09-12T07:03:13Z</time>
      </trkpt>
      <trkpt lat="41.9084441476" lon="-7.1528048627">
        <ele>861.5</ele>
        <time>2020-09-12T07:03:21Z</time>
      </trkpt>
      <trkpt lat="41.9086675253" lon="-7.1529086307">
        <ele>863.27</ele>
        <time>2020-09-12T07:03:24Z</time>
      </trkpt>
      <trkpt lat="41.9088343251" lon="-7.1530023403">
        <ele>866.32</ele>
        <time>2020-09-12T07:03:26Z</time>
      </trkpt>
      <trkpt lat="41.9089921564" lon="-7.1530886739">
        <ele>867.2</ele>
        <time>2020-09-12T07:03:28Z</time>
      </trkpt>
      <trkpt lat="41.9097677339" lon="-7.1536308154">
        <ele>872</ele>
        <time>2020-09-12T07:03:31Z</time>
      </trkpt>
      <trkpt lat="41.9100439176" lon="-7.1537546162">
        <ele>872.76</ele>
        <time>2020-09-12T07:03:33Z</time>
      </trkpt>
      <trkpt lat="41.9101863261" lon="-7.1538127027">
        <ele>876.44</ele>
        <time>2020-09-12T07:03:37Z</time>
      </trkpt>
      <trkpt lat="41.9102783594" lon="-7.1539571229">
        <ele>878.05</ele>
        <time>2020-09-12T07:03:40Z</time>
      </trkpt>
      <trkpt lat="41.9103650283" lon="-7.154185446">
        <ele>879.17</ele>
        <time>2020-09-12T07:03:41Z</time>
      </trkpt>
      <trkpt lat="41.9104975462" lon="-7.1541893855">
        <ele>884.92</ele>
        <time>2020-09-12T07:03:46Z</time>
      </trkpt>
      <trkpt lat="41.9107842911" lon="-7.1541937441">
        <ele>882.16</ele>
        <time>2020-09-12T07:03:50Z</time>
      </trkpt>
      <trkpt lat="41.9109236822" lon="-7.154468419">
        <ele>884.42</ele>
        <time>2020-09-12T07:03:52Z</time>
      </trkpt>
      <trkpt lat="41.9109893125" lon="-7.1545783896">
        <ele>885.76</ele>
        <time>2020-09-12T07:03:56Z</time>
      </trkpt>
      <trkpt lat="41.911431374" lon="-7.154964041">
        <ele>887.76</ele>
        <time>2020-09-12T07:03:59Z</time>
      </trkpt>
      <trkpt lat="41.9119699951" lon="-7.1550975647">
        <ele>890.45</ele>
        <time>2020-09-12T07:04:02Z</time>
      </trkpt>
      <trkpt lat="41.9122315943" lon="-7.1551937051">
        <ele>892.87</ele>
        <time>2020-09-12T07:04:03Z</time>
      </trkpt>
      <trkpt lat="41.9126599934" lon="-7.1555602457">
        <ele>895.9</ele>
        <time>2020-09-12T07:04:04Z</time>
      </trkpt>
      <trkpt lat="41.9129577186" lon="-7.1558145527">
        <ele>898.58</ele>
        <time>2020-09-12T07:04:06Z</time>
      </trkpt>
      <trkpt lat="41.9132521749" lon="-7.1559908241">
        <ele>897.88</ele>
        <time>2020-09-12T07:04:07Z</time>
      </trkpt>
      <trkpt lat="41.9133225828" lon="-7.1560251061">
        <ele>898.51</ele>
        <time>2020-09-12T07:04:08Z</time>
      </trkpt>
      <trkpt lat="41.9133709464" lon="-7.1560296323">
        <ele>898.58</ele>
        <time>2020-09-12T07:04:09Z</time>
      </trkpt>
      <trkpt lat="41.9134027977" lon="-7.1559686121">
        <ele>898.56</ele>
        <time>2020-09-12T07:04:10Z</time>
      </trkpt>
      <trkpt lat="41.9133830164" lon="-7.1559039038">
        <ele>895.47</ele>
        <time>2020-09-12T07:04:11Z</time>
      </trkpt>
      <trkpt lat="41.9133465551" lon="-7.1558214258">
        <ele>892.94</ele>
        <time>2020-09-12T07:04:13Z</time>
      </trkpt>
      <trkpt lat="41.9133012928" lon="-7.1557334159">
        <ele>888.53</ele>
        <time>2020-09-12T07:04:15Z</time>
      </trkpt>
      <trkpt lat="41.9132485706" lon="-7.1556287259">
        <ele>888.58</ele>
        <time>2020-09-12T07:04:16Z</time>
      </trkpt>
      <trkpt lat="41.9131883886" lon="-7.1554946993">
        <ele>888.43</ele>
        <time>2020-09-12T07:04:17Z</time>
      </trkpt>
      <trkpt lat="41.9130553678" lon="-7.1551685594">
        <ele>888.24</ele>
        <time>2020-09-12T07:04:18Z</time>
      </trkpt>
      <trkpt lat="41.9129268732" lon="-7.1547778789">
        <ele>887.32</ele>
        <time>2020-09-12T07:04:19Z</time>
      </trkpt>
      <trkpt lat="41.9128752407" lon="-7.1545607876">
        <ele>884.68</ele>
        <time>2020-09-12T07:04:22Z</time>
      </trkpt>
      <trkpt lat="41.912839869" lon="-7.1543320455">
        <ele>888.42</ele>
        <time>2020-09-12T07:04:23Z</time>
      </trkpt>
      <trkpt lat="41.9128245302" lon="-7.1540820971">
        <ele>889.86</ele>
        <time>2020-09-12T07:04:25Z</time>
      </trkpt>
      <trkpt lat="41.912828302" lon="-7.153813038">
        <ele>895.15</ele>
        <time>2020-09-12T07:04:27Z</time>
      </trkpt>
      <trkpt lat="41.9128758274" lon="-7.1529486123">
        <ele>898.39</ele>
        <time>2020-09-12T07:04:28Z</time>
      </trkpt>
      <trkpt lat="41.9128910825" lon="-7.1526570059">
        <ele>900.73</ele>
        <time>2020-09-12T07:04:29Z</time>
      </trkpt>
      <trkpt lat="41.912927879" lon="-7.1520682611">
        <ele>904.3</ele>
        <time>2020-09-12T07:04:30Z</time>
      </trkpt>
      <trkpt lat="41.9129690342" lon="-7.1515280474">
        <ele>905.36</ele>
        <time>2020-09-12T07:04:31Z</time>
      </trkpt>
      <trkpt lat="41.9129847921" lon="-7.1512876544">
        <ele>905.3</ele>
        <time>2020-09-12T07:04:32Z</time>
      </trkpt>
      <trkpt lat="41.9129890669" lon="-7.1510625165">
        <ele>905.56</ele>
        <time>2020-09-12T07:04:34Z</time>
      </trkpt>
      <trkpt lat="41.9129741471" lon="-7.1508453414">
        <ele>906.44</ele>
        <time>2020-09-12T07:04:35Z</time>
      </trkpt>
      <trkpt lat="41.9129443914" lon="-7.1506283339">
        <ele>906.46</ele>
        <time>2020-09-12T07:04:36Z</time>
      </trkpt>
      <trkpt lat="41.912911199" lon="-7.150414763">
        <ele>906.52</ele>
        <time>2020-09-12T07:04:37Z</time>
      </trkpt>
      <trkpt lat="41.9128777552" lon="-7.1500185505">
        <ele>902.15</ele>
        <time>2020-09-12T07:04:38Z</time>
      </trkpt>
      <trkpt lat="41.9128921721" lon="-7.1498372499">
        <ele>900.01</ele>
        <time>2020-09-12T07:04:40Z</time>
      </trkpt>
      <trkpt lat="41.9129298069" lon="-7.1496555302">
        <ele>899.95</ele>
        <time>2020-09-12T07:04:41Z</time>
      </trkpt>
      <trkpt lat="41.9129859656" lon="-7.1494664345">
        <ele>899.83</ele>
        <time>2020-09-12T07:04:42Z</time>
      </trkpt>
      <trkpt lat="41.9130511768" lon="-7.1492690407">
        <ele>894.37</ele>
        <time>2020-09-12T07:04:43Z</time>
      </trkpt>
      <trkpt lat="41.9131712895" lon="-7.1488643624">
        <ele>894.62</ele>
        <time>2020-09-12T07:04:44Z</time>
      </trkpt>
      <trkpt lat="41.9132072479" lon="-7.1486616042">
        <ele>889.69</ele>
        <time>2020-09-12T07:04:45Z</time>
      </trkpt>
      <trkpt lat="41.9132254366" lon="-7.1484490391">
        <ele>886.06</ele>
        <time>2020-09-12T07:04:46Z</time>
      </trkpt>
      <trkpt lat="41.9132319745" lon="-7.1482202969">
        <ele>882.74</ele>
        <time>2020-09-12T07:04:48Z</time>
      </trkpt>
      <trkpt lat="41.9132334832" lon="-7.147974791">
        <ele>881.89</ele>
        <time>2020-09-12T07:04:50Z</time>
      </trkpt>
      <trkpt lat="41.9132353272" lon="-7.1477185562">
        <ele>885.36</ele>
        <time>2020-09-12T07:04:51Z</time>
      </trkpt>
      <trkpt lat="41.9132383447" lon="-7.1474600583">
        <ele>888.57</ele>
        <time>2020-09-12T07:04:52Z</time>
      </trkpt>
      <trkpt lat="41.9132459722" lon="-7.1469497681">
        <ele>888.59</ele>
        <time>2020-09-12T07:04:53Z</time>
      </trkpt>
      <trkpt lat="41.9132477324" lon="-7.1464752685">
        <ele>886.13</ele>
        <time>2020-09-12T07:04:57Z</time>
      </trkpt>
      <trkpt lat="41.9132455532" lon="-7.1462870948">
        <ele>886.46</ele>
        <time>2020-09-12T07:04:59Z</time>
      </trkpt>
      <trkpt lat="41.9132420328" lon="-7.1461166069">
        <ele>889.59</ele>
        <time>2020-09-12T07:05:00Z</time>
      </trkpt>
      <trkpt lat="41.9132353272" lon="-7.1459474601">
        <ele>890.94</ele>
        <time>2020-09-12T07:05:01Z</time>
      </trkpt>
      <trkpt lat="41.9131305534" lon="-7.1452790871">
        <ele>890.97</ele>
        <time>2020-09-12T07:05:02Z</time>
      </trkpt>
      <trkpt lat="41.9130917452" lon="-7.145043388">
        <ele>890.94</ele>
        <time>2020-09-12T07:05:03Z</time>
      </trkpt>
      <trkpt lat="41.9131038152" lon="-7.1449656878">
        <ele>890.98</ele>
        <time>2020-09-12T07:05:04Z</time>
      </trkpt>
      <trkpt lat="41.913140947" lon="-7.1449130494">
        <ele>887.18</ele>
        <time>2020-09-12T07:05:05Z</time>
      </trkpt>
      <trkpt lat="41.9132020511" lon="-7.1448884904">
        <ele>887.28</ele>
        <time>2020-09-12T07:05:06Z</time>
      </trkpt>
      <trkpt lat="41.9132819306" lon="-7.144889161">
        <ele>890.38</ele>
        <time>2020-09-12T07:05:09Z</time>
      </trkpt>
      <trkpt lat="41.9133825973" lon="-7.1449081879">
        <ele>891.31</ele>
        <time>2020-09-12T07:05:10Z</time>
      </trkpt>
      <trkpt lat="41.9134929031" lon="-7.1449319925">
        <ele>891.05</ele>
        <time>2020-09-12T07:05:12Z</time>
      </trkpt>
      <trkpt lat="41.9136028737" lon="-7.1449542884">
        <ele>891.07</ele>
        <time>2020-09-12T07:05:13Z</time>
      </trkpt>
      <trkpt lat="41.9138858467" lon="-7.1450103633">
        <ele>891.06</ele>
        <time>2020-09-12T07:05:14Z</time>
      </trkpt>
      <trkpt lat="41.9139629602" lon="-7.1450510155">
        <ele>891.07</ele>
        <time>2020-09-12T07:05:15Z</time>
      </trkpt>
      <trkpt lat="41.9141136669" lon="-7.1451585554">
        <ele>888.03</ele>
        <time>2020-09-12T07:05:16Z</time>
      </trkpt>
      <trkpt lat="41.9141813926" lon="-7.1452256944">
        <ele>887.9</ele>
        <time>2020-09-12T07:05:17Z</time>
      </trkpt>
      <trkpt lat="41.9142382219" lon="-7.1453054063">
        <ele>885.37</ele>
        <time>2020-09-12T07:05:18Z</time>
      </trkpt>
      <trkpt lat="41.9142832328" lon="-7.1454002056">
        <ele>884.37</ele>
        <time>2020-09-12T07:05:19Z</time>
      </trkpt>
      <trkpt lat="41.9143162575" lon="-7.1455148701">
        <ele>882.71</ele>
        <time>2020-09-12T07:05:20Z</time>
      </trkpt>
      <trkpt lat="41.9143356197" lon="-7.1456477232">
        <ele>882.71</ele>
        <time>2020-09-12T07:05:21Z</time>
      </trkpt>
      <trkpt lat="41.9143367931" lon="-7.145796502">
        <ele>880.53</ele>
        <time>2020-09-12T07:05:24Z</time>
      </trkpt>
      <trkpt lat="41.9143200293" lon="-7.1459451132">
        <ele>876.29</ele>
        <time>2020-09-12T07:05:28Z</time>
      </trkpt>
      <trkpt lat="41.9142916147" lon="-7.1460856777">
        <ele>876.21</ele>
        <time>2020-09-12T07:05:29Z</time>
      </trkpt>
      <trkpt lat="41.9142597634" lon="-7.146221213">
        <ele>871.03</ele>
        <time>2020-09-12T07:05:32Z</time>
      </trkpt>
      <trkpt lat="41.9141883496" lon="-7.1465858258">
        <ele>870.19</ele>
        <time>2020-09-12T07:05:34Z</time>
      </trkpt>
      <trkpt lat="41.914343331" lon="-7.1469034161">
        <ele>870.39</ele>
        <time>2020-09-12T07:05:35Z</time>
      </trkpt>
      <trkpt lat="41.9144294132" lon="-7.146911798">
        <ele>870.38</ele>
        <time>2020-09-12T07:05:39Z</time>
      </trkpt>
      <trkpt lat="41.9147569779" lon="-7.146883551">
        <ele>867.71</ele>
        <time>2020-09-12T07:05:43Z</time>
      </trkpt>
      <trkpt lat="41.914987145" lon="-7.1468933579">
        <ele>867.87</ele>
        <time>2020-09-12T07:05:44Z</time>
      </trkpt>
      <trkpt lat="41.9150929246" lon="-7.1469131391">
        <ele>865.5</ele>
        <time>2020-09-12T07:05:49Z</time>
      </trkpt>
      <trkpt lat="41.9154473115" lon="-7.1471334994">
        <ele>864.69</ele>
        <time>2020-09-12T07:05:53Z</time>
      </trkpt>
      <trkpt lat="41.9156575296" lon="-7.1475893073">
        <ele>866.86</ele>
        <time>2020-09-12T07:05:59Z</time>
      </trkpt>
      <trkpt lat="41.9156487286" lon="-7.1477178019">
        <ele>866.92</ele>
        <time>2020-09-12T07:06:00Z</time>
      </trkpt>
      <trkpt lat="41.9157482218" lon="-7.1483091451">
        <ele>863.4</ele>
        <time>2020-09-12T07:06:03Z</time>
      </trkpt>
      <trkpt lat="41.9160567597" lon="-7.1486794576">
        <ele>863.49</ele>
        <time>2020-09-12T07:06:04Z</time>
      </trkpt>
      <trkpt lat="41.9164800458" lon="-7.1491713915">
        <ele>867.1</ele>
        <time>2020-09-12T07:06:06Z</time>
      </trkpt>
      <trkpt lat="41.9165638648" lon="-7.1491562203">
        <ele>867.18</ele>
        <time>2020-09-12T07:06:07Z</time>
      </trkpt>
      <trkpt lat="41.916796295" lon="-7.1488655359">
        <ele>864.53</ele>
        <time>2020-09-12T07:06:11Z</time>
      </trkpt>
      <trkpt lat="41.9168474246" lon="-7.1487353649">
        <ele>862.22</ele>
        <time>2020-09-12T07:06:14Z</time>
      </trkpt>
      <trkpt lat="41.9169438165" lon="-7.1485521365">
        <ele>857.84</ele>
        <time>2020-09-12T07:06:16Z</time>
      </trkpt>
      <trkpt lat="41.917014895" lon="-7.1484880149">
        <ele>851.32</ele>
        <time>2020-09-12T07:06:19Z</time>
      </trkpt>
      <trkpt lat="41.9174152147" lon="-7.1484441776">
        <ele>851.4</ele>
        <time>2020-09-12T07:06:20Z</time>
      </trkpt>
      <trkpt lat="41.9177007023" lon="-7.1485740133">
        <ele>851.39</ele>
        <time>2020-09-12T07:06:21Z</time>
      </trkpt>
      <trkpt lat="41.9178789854" lon="-7.1487590857">
        <ele>850.5</ele>
        <time>2020-09-12T07:06:27Z</time>
      </trkpt>
      <trkpt lat="41.9181493018" lon="-7.1491312422">
        <ele>849.13</ele>
        <time>2020-09-12T07:06:31Z</time>
      </trkpt>
      <trkpt lat="41.9182411674" lon="-7.1492413804">
        <ele>848.04</ele>
        <time>2020-09-12T07:06:33Z</time>
      </trkpt>
      <trkpt lat="41.9183280878" lon="-7.149345316">
        <ele>844.25</ele>
        <time>2020-09-12T07:06:38Z</time>
      </trkpt>
      <trkpt lat="41.9184915349" lon="-7.1499962546">
        <ele>843.11</ele>
        <time>2020-09-12T07:06:40Z</time>
      </trkpt>
      <trkpt lat="41.9187344424" lon="-7.1503441036">
        <ele>839.74</ele>
        <time>2020-09-12T07:06:44Z</time>
      </trkpt>
      <trkpt lat="41.9189185929" lon="-7.1503966581">
        <ele>838.22</ele>
        <time>2020-09-12T07:06:46Z</time>
      </trkpt>
      <trkpt lat="41.9193374366" lon="-7.1506663878">
        <ele>838.05</ele>
        <time>2020-09-12T07:06:49Z</time>
      </trkpt>
      <trkpt lat="41.9194479939" lon="-7.1509355307">
        <ele>836.45</ele>
        <time>2020-09-12T07:06:53Z</time>
      </trkpt>
      <trkpt lat="41.9197323918" lon="-7.1513793524">
        <ele>832.81</ele>
        <time>2020-09-12T07:06:56Z</time>
      </trkpt>
      <trkpt lat="41.919941688" lon="-7.1515341662">
        <ele>828.08</ele>
        <time>2020-09-12T07:07:01Z</time>
      </trkpt>
      <trkpt lat="41.9202093221" lon="-7.1517932508">
        <ele>827.17</ele>
        <time>2020-09-12T07:07:03Z</time>
      </trkpt>
      <trkpt lat="41.9204591867" lon="-7.1522155311">
        <ele>820.38</ele>
        <time>2020-09-12T07:07:07Z</time>
      </trkpt>
      <trkpt lat="41.9204999227" lon="-7.1525537409">
        <ele>820.58</ele>
        <time>2020-09-12T07:07:08Z</time>
      </trkpt>
      <trkpt lat="41.9206343684" lon="-7.1530794539">
        <ele>819.62</ele>
        <time>2020-09-12T07:07:10Z</time>
      </trkpt>
      <trkpt lat="41.9208026771" lon="-7.153248433">
        <ele>817.51</ele>
        <time>2020-09-12T07:07:12Z</time>
      </trkpt>
      <trkpt lat="41.9212170783" lon="-7.1535644308">
        <ele>816.73</ele>
        <time>2020-09-12T07:07:15Z</time>
      </trkpt>
      <trkpt lat="41.9213197567" lon="-7.1536397003">
        <ele>816.79</ele>
        <time>2020-09-12T07:07:17Z</time>
      </trkpt>
      <trkpt lat="41.9215055835" lon="-7.1538163908">
        <ele>816.28</ele>
        <time>2020-09-12T07:07:23Z</time>
      </trkpt>
      <trkpt lat="41.9216546137" lon="-7.1540292073">
        <ele>814.8</ele>
        <time>2020-09-12T07:07:25Z</time>
      </trkpt>
      <trkpt lat="41.9217623211" lon="-7.1544166189">
        <ele>814.92</ele>
        <time>2020-09-12T07:07:29Z</time>
      </trkpt>
      <trkpt lat="41.9217786659" lon="-7.1546586044">
        <ele>817.32</ele>
        <time>2020-09-12T07:07:33Z</time>
      </trkpt>
      <trkpt lat="41.9220839348" lon="-7.1552161686">
        <ele>821.17</ele>
        <time>2020-09-12T07:07:35Z</time>
      </trkpt>
      <trkpt lat="41.922187116" lon="-7.1554487664">
        <ele>822.69</ele>
        <time>2020-09-12T07:07:37Z</time>
      </trkpt>
      <trkpt lat="41.9224981684" lon="-7.1558098588">
        <ele>823.79</ele>
        <time>2020-09-12T07:07:41Z</time>
      </trkpt>
      <trkpt lat="41.9228316844" lon="-7.1562193986">
        <ele>823.8</ele>
        <time>2020-09-12T07:07:43Z</time>
      </trkpt>
      <trkpt lat="41.9229737576" lon="-7.1563553531">
        <ele>825.53</ele>
        <time>2020-09-12T07:07:49Z</time>
      </trkpt>
      <trkpt lat="41.9230617676" lon="-7.1565208957">
        <ele>826.44</ele>
        <time>2020-09-12T07:07:55Z</time>
      </trkpt>
      <trkpt lat="41.9232038409" lon="-7.1569650527">
        <ele>824.07</ele>
        <time>2020-09-12T07:07:58Z</time>
      </trkpt>
      <trkpt lat="41.9233565591" lon="-7.1571699064">
        <ele>823.2</ele>
        <time>2020-09-12T07:08:00Z</time>
      </trkpt>
      <trkpt lat="41.9238930847" lon="-7.1576376166">
        <ele>817.21</ele>
        <time>2020-09-12T07:08:03Z</time>
      </trkpt>
      <trkpt lat="41.9244641438" lon="-7.1578960307">
        <ele>817.14</ele>
        <time>2020-09-12T07:08:04Z</time>
      </trkpt>
      <trkpt lat="41.9247867633" lon="-7.1579923388">
        <ele>815.12</ele>
        <time>2020-09-12T07:08:06Z</time>
      </trkpt>
      <trkpt lat="41.9249803014" lon="-7.1581277903">
        <ele>811.62</ele>
        <time>2020-09-12T07:08:08Z</time>
      </trkpt>
      <trkpt lat="41.9253008254" lon="-7.1583059896">
        <ele>811.62</ele>
        <time>2020-09-12T07:08:09Z</time>
      </trkpt>
      <trkpt lat="41.9254024979" lon="-7.1583862044">
        <ele>811.58</ele>
        <time>2020-09-12T07:08:10Z</time>
      </trkpt>
      <trkpt lat="41.9255994726" lon="-7.1585597098">
        <ele>807.27</ele>
        <time>2020-09-12T07:08:14Z</time>
      </trkpt>
      <trkpt lat="41.9258000515" lon="-7.1587210614">
        <ele>804.56</ele>
        <time>2020-09-12T07:08:16Z</time>
      </trkpt>
      <trkpt lat="41.9259038195" lon="-7.1587935649">
        <ele>800.75</ele>
        <time>2020-09-12T07:08:21Z</time>
      </trkpt>
      <trkpt lat="41.9260099344" lon="-7.158858357">
        <ele>798.95</ele>
        <time>2020-09-12T07:08:22Z</time>
      </trkpt>
      <trkpt lat="41.9264508225" lon="-7.1589451935">
        <ele>802.37</ele>
        <time>2020-09-12T07:08:26Z</time>
      </trkpt>
      <trkpt lat="41.9267008547" lon="-7.158964891">
        <ele>802.52</ele>
        <time>2020-09-12T07:08:27Z</time>
      </trkpt>
      <trkpt lat="41.9273457583" lon="-7.1591656376">
        <ele>803.9</ele>
        <time>2020-09-12T07:08:28Z</time>
      </trkpt>
      <trkpt lat="41.9274725765" lon="-7.1592114866">
        <ele>806.88</ele>
        <time>2020-09-12T07:08:33Z</time>
      </trkpt>
      <trkpt lat="41.9278758299" lon="-7.1595041826">
        <ele>807.04</ele>
        <time>2020-09-12T07:08:34Z</time>
      </trkpt>
      <trkpt lat="41.9279562961" lon="-7.1595585812">
        <ele>798.95</ele>
        <time>2020-09-12T07:09:00Z</time>
      </trkpt>
      <trkpt lat="41.92805041989557" lon="-7.159561516012127">
        <ele>797.93</ele>
        <time>2020-09-12T07:09:01Z</time>
      </trkpt>
      <trkpt lat="41.9281871130024" lon="-7.159650033411676">
        <ele>796.48</ele>
        <time>2020-09-12T07:09:02Z</time>
      </trkpt>
      <trkpt lat="41.928236003166596" lon="-7.159706358205964">
        <ele>796.35</ele>
        <time>2020-09-12T07:09:03Z</time>
      </trkpt>
      <trkpt lat="41.92826693365926" lon="-7.159762681662504">
        <ele>796.43</ele>
        <time>2020-09-12T07:09:04Z</time>
      </trkpt>
      <trkpt lat="41.9283669256" lon="-7.159956554">
        <ele>799.85</ele>
        <time>2020-09-12T07:09:05Z</time>
      </trkpt>
      <trkpt lat="41.92838965772436" lon="-7.160091253090069">
        <ele>803.08</ele>
        <time>2020-09-12T07:09:06Z</time>
      </trkpt>
      <trkpt lat="41.92843555446852" lon="-7.16032996768574">
        <ele>803.02</ele>
        <time>2020-09-12T07:09:07Z</time>
      </trkpt>
      <trkpt lat="41.928464489355505" lon="-7.160478830852053">
        <ele>806.04</ele>
        <time>2020-09-12T07:10:34Z</time>
      </trkpt>
      <trkpt lat="41.92847346914533" lon="-7.160553934659648">
        <ele>806.07</ele>
        <time>2020-09-12T07:11:14Z</time>
      </trkpt>
      <trkpt lat="41.92848145117971" lon="-7.160599534168096">
        <ele>802.97</ele>
        <time>2020-09-12T07:11:16Z</time>
      </trkpt>
      <trkpt lat="41.92848943321304" lon="-7.16063708663787">
        <ele>802</ele>
        <time>2020-09-12T07:11:17Z</time>
      </trkpt>
      <trkpt lat="41.928500408507276" lon="-7.1606008835820365">
        <ele>801.98</ele>
        <time>2020-09-12T07:11:18Z</time>
      </trkpt>
      <trkpt lat="41.92850839053824" lon="-7.1605244292028285">
        <ele>801.14</ele>
        <time>2020-09-12T07:11:20Z</time>
      </trkpt>
      <trkpt lat="41.9285266846" lon="-7.1603648365">
        <ele>801.14</ele>
        <time>2020-09-12T07:11:21Z</time>
      </trkpt>
      <trkpt lat="41.9285074901" lon="-7.1602484956">
        <ele>800.41</ele>
        <time>2020-09-12T07:11:23Z</time>
      </trkpt>
      <trkpt lat="41.9284831826" lon="-7.1601272933">
        <ele>799.07</ele>
        <time>2020-09-12T07:11:26Z</time>
      </trkpt>
      <trkpt lat="41.9284214918" lon="-7.1598893311">
        <ele>802.46</ele>
        <time>2020-09-12T07:11:30Z</time>
      </trkpt>
      <trkpt lat="41.9283789117" lon="-7.1597745828">
        <ele>804.44</ele>
        <time>2020-09-12T07:11:33Z</time>
      </trkpt>
      <trkpt lat="41.9282969367" lon="-7.1595385484">
        <ele>804.47</ele>
        <time>2020-09-12T07:11:37Z</time>
      </trkpt>
      <trkpt lat="41.9282506686" lon="-7.1591435932">
        <ele>800.98</ele>
        <time>2020-09-12T07:11:40Z</time>
      </trkpt>
      <trkpt lat="41.9282564521" lon="-7.1586079895">
        <ele>797.52</ele>
        <time>2020-09-12T07:11:42Z</time>
      </trkpt>
      <trkpt lat="41.9282598048" lon="-7.1581920795">
        <ele>796.76</ele>
        <time>2020-09-12T07:11:44Z</time>
      </trkpt>
      <trkpt lat="41.928192582" lon="-7.1576615889">
        <ele>796.75</ele>
        <time>2020-09-12T07:11:45Z</time>
      </trkpt>
      <trkpt lat="41.928061489" lon="-7.1573467646">
        <ele>791.17</ele>
        <time>2020-09-12T07:11:48Z</time>
      </trkpt>
      <trkpt lat="41.9279033225" lon="-7.1571799647">
        <ele>787.73</ele>
        <time>2020-09-12T07:11:50Z</time>
      </trkpt>
      <trkpt lat="41.9277588185" lon="-7.1570079681">
        <ele>787.62</ele>
        <time>2020-09-12T07:11:51Z</time>
      </trkpt>
      <trkpt lat="41.9277133048" lon="-7.156891292">
        <ele>786.16</ele>
        <time>2020-09-12T07:11:53Z</time>
      </trkpt>
      <trkpt lat="41.9275972992" lon="-7.1564561874">
        <ele>782.08</ele>
        <time>2020-09-12T07:11:56Z</time>
      </trkpt>
      <trkpt lat="41.9275013264" lon="-7.1561535168">
        <ele>781.21</ele>
        <time>2020-09-12T07:12:00Z</time>
      </trkpt>
      <trkpt lat="41.9274525438" lon="-7.1560042351">
        <ele>779.1</ele>
        <time>2020-09-12T07:12:03Z</time>
      </trkpt>
      <trkpt lat="41.9273564871" lon="-7.1557213459">
        <ele>776.15</ele>
        <time>2020-09-12T07:12:09Z</time>
      </trkpt>
      <trkpt lat="41.9271759409" lon="-7.1553765982">
        <ele>770.83</ele>
        <time>2020-09-12T07:12:12Z</time>
      </trkpt>
      <trkpt lat="41.9269917067" lon="-7.1550176851">
        <ele>767.11</ele>
        <time>2020-09-12T07:12:14Z</time>
      </trkpt>
      <trkpt lat="41.9270147569" lon="-7.1546094865">
        <ele>767.02</ele>
        <time>2020-09-12T07:12:15Z</time>
      </trkpt>
      <trkpt lat="41.9269886054" lon="-7.1538349986">
        <ele>772.34</ele>
        <time>2020-09-12T07:12:24Z</time>
      </trkpt>
      <trkpt lat="41.9268851727" lon="-7.1534441505">
        <ele>769.07</ele>
        <time>2020-09-12T07:12:27Z</time>
      </trkpt>
      <trkpt lat="41.9267643057" lon="-7.1532045957">
        <ele>763.84</ele>
        <time>2020-09-12T07:12:29Z</time>
      </trkpt>
      <trkpt lat="41.9267247431" lon="-7.1531124786">
        <ele>759.18</ele>
        <time>2020-09-12T07:12:32Z</time>
      </trkpt>
      <trkpt lat="41.9267304428" lon="-7.1530540567">
        <ele>755.18</ele>
        <time>2020-09-12T07:12:34Z</time>
      </trkpt>
      <trkpt lat="41.9267677423" lon="-7.1528185252">
        <ele>750.88</ele>
        <time>2020-09-12T07:12:36Z</time>
      </trkpt>
      <trkpt lat="41.9267644733" lon="-7.152551394">
        <ele>750.75</ele>
        <time>2020-09-12T07:12:37Z</time>
      </trkpt>
      <trkpt lat="41.926783165" lon="-7.1520948317">
        <ele>750.89</ele>
        <time>2020-09-12T07:12:40Z</time>
      </trkpt>
      <trkpt lat="41.9268099871" lon="-7.1517640818">
        <ele>747.41</ele>
        <time>2020-09-12T07:12:45Z</time>
      </trkpt>
      <trkpt lat="41.9268262479" lon="-7.1514474135">
        <ele>743.36</ele>
        <time>2020-09-12T07:12:47Z</time>
      </trkpt>
      <trkpt lat="41.9268287625" lon="-7.1513075195">
        <ele>743.38</ele>
        <time>2020-09-12T07:12:49Z</time>
      </trkpt>
      <trkpt lat="41.9268145971" lon="-7.1510083694">
        <ele>743.08</ele>
        <time>2020-09-12T07:12:53Z</time>
      </trkpt>
      <trkpt lat="41.9269915391" lon="-7.1508437488">
        <ele>737.88</ele>
        <time>2020-09-12T07:12:56Z</time>
      </trkpt>
      <trkpt lat="41.9271206204" lon="-7.1509662922">
        <ele>734.06</ele>
        <time>2020-09-12T07:12:58Z</time>
      </trkpt>
      <trkpt lat="41.9271994103" lon="-7.1510637738">
        <ele>734.18</ele>
        <time>2020-09-12T07:12:59Z</time>
      </trkpt>
      <trkpt lat="41.9272605982" lon="-7.1509308368">
        <ele>732.59</ele>
        <time>2020-09-12T07:13:01Z</time>
      </trkpt>
      <trkpt lat="41.927230591" lon="-7.1506327763">
        <ele>727.28</ele>
        <time>2020-09-12T07:13:06Z</time>
      </trkpt>
      <trkpt lat="41.9271909446" lon="-7.1504191216">
        <ele>719.2</ele>
        <time>2020-09-12T07:13:09Z</time>
      </trkpt>
      <trkpt lat="41.9271674752" lon="-7.1503335424">
        <ele>715.68</ele>
        <time>2020-09-12T07:13:11Z</time>
      </trkpt>
      <trkpt lat="41.927141156" lon="-7.1502054669">
        <ele>711.06</ele>
        <time>2020-09-12T07:13:13Z</time>
      </trkpt>
      <trkpt lat="41.9273382984" lon="-7.150284173">
        <ele>706.81</ele>
        <time>2020-09-12T07:13:15Z</time>
      </trkpt>
      <trkpt lat="41.9275665376" lon="-7.1505780425">
        <ele>703.27</ele>
        <time>2020-09-12T07:13:16Z</time>
      </trkpt>
      <trkpt lat="41.9277185854" lon="-7.1507841535">
        <ele>703.35</ele>
        <time>2020-09-12T07:13:17Z</time>
      </trkpt>
      <trkpt lat="41.9278707169" lon="-7.1509925276">
        <ele>701.9</ele>
        <time>2020-09-12T07:13:19Z</time>
      </trkpt>
      <trkpt lat="41.9280163106" lon="-7.1512046736">
        <ele>698.7</ele>
        <time>2020-09-12T07:13:22Z</time>
      </trkpt>
      <trkpt lat="41.9280853774" lon="-7.1513016522">
        <ele>696.35</ele>
        <time>2020-09-12T07:13:23Z</time>
      </trkpt>
      <trkpt lat="41.9281452242" lon="-7.151390668">
        <ele>695.54</ele>
        <time>2020-09-12T07:13:27Z</time>
      </trkpt>
      <trkpt lat="41.9282271992" lon="-7.1515513491">
        <ele>692.34</ele>
        <time>2020-09-12T07:13:31Z</time>
      </trkpt>
      <trkpt lat="41.9283054024" lon="-7.1517450549">
        <ele>692.55</ele>
        <time>2020-09-12T07:13:32Z</time>
      </trkpt>
      <trkpt lat="41.9283378404" lon="-7.1518229228">
        <ele>689.66</ele>
        <time>2020-09-12T07:13:34Z</time>
      </trkpt>
      <trkpt lat="41.92853163" lon="-7.1519717854">
        <ele>688.12</ele>
        <time>2020-09-12T07:13:36Z</time>
      </trkpt>
      <trkpt lat="41.9287014473" lon="-7.1521902177">
        <ele>688.13</ele>
        <time>2020-09-12T07:13:38Z</time>
      </trkpt>
      <trkpt lat="41.9287283532" lon="-7.1522784792">
        <ele>688.28</ele>
        <time>2020-09-12T07:13:44Z</time>
      </trkpt>
      <trkpt lat="41.9287618808" lon="-7.1524840035">
        <ele>687.38</ele>
        <time>2020-09-12T07:13:50Z</time>
      </trkpt>
      <trkpt lat="41.9287809916" lon="-7.1526863426">
        <ele>683.87</ele>
        <time>2020-09-12T07:13:54Z</time>
      </trkpt>
      <trkpt lat="41.9287902955" lon="-7.1528683137">
        <ele>681.49</ele>
        <time>2020-09-12T07:13:56Z</time>
      </trkpt>
      <trkpt lat="41.9289492164" lon="-7.1530022565">
        <ele>680.59</ele>
        <time>2020-09-12T07:13:58Z</time>
      </trkpt>
      <trkpt lat="41.9292668067" lon="-7.1527507156">
        <ele>679.12</ele>
        <time>2020-09-12T07:14:00Z</time>
      </trkpt>
      <trkpt lat="41.929579787" lon="-7.1527715027">
        <ele>676.78</ele>
        <time>2020-09-12T07:14:02Z</time>
      </trkpt>
      <trkpt lat="41.9297598302" lon="-7.152866805">
        <ele>674.9</ele>
        <time>2020-09-12T07:14:04Z</time>
      </trkpt>
      <trkpt lat="41.9299273007" lon="-7.1529844031">
        <ele>671.69</ele>
        <time>2020-09-12T07:14:06Z</time>
      </trkpt>
      <trkpt lat="41.930088317" lon="-7.1531371213">
        <ele>668.43</ele>
        <time>2020-09-12T07:14:09Z</time>
      </trkpt>
      <trkpt lat="41.9302356709" lon="-7.1533335093">
        <ele>667.53</ele>
        <time>2020-09-12T07:14:11Z</time>
      </trkpt>
      <trkpt lat="41.9303583819" lon="-7.1535657719">
        <ele>663.53</ele>
        <time>2020-09-12T07:14:14Z</time>
      </trkpt>
      <trkpt lat="41.9304642454" lon="-7.1538127866">
        <ele>663.53</ele>
        <time>2020-09-12T07:14:15Z</time>
      </trkpt>
      <trkpt lat="41.9306064863" lon="-7.1542114299">
        <ele>663.57</ele>
        <time>2020-09-12T07:14:16Z</time>
      </trkpt>
      <trkpt lat="41.93072333" lon="-7.1544606239">
        <ele>663.58</ele>
        <time>2020-09-12T07:14:19Z</time>
      </trkpt>
      <trkpt lat="41.930944277" lon="-7.1548324451">
        <ele>660.54</ele>
        <time>2020-09-12T07:14:24Z</time>
      </trkpt>
      <trkpt lat="41.9310154393" lon="-7.1549365483">
        <ele>654.47</ele>
        <time>2020-09-12T07:14:26Z</time>
      </trkpt>
      <trkpt lat="41.9310783036" lon="-7.1550247259">
        <ele>645.52</ele>
        <time>2020-09-12T07:14:29Z</time>
      </trkpt>
      <trkpt lat="41.9311990868" lon="-7.1552259754">
        <ele>645.4</ele>
        <time>2020-09-12T07:14:30Z</time>
      </trkpt>
      <trkpt lat="41.931202691" lon="-7.1549641248">
        <ele>641.99</ele>
        <time>2020-09-12T07:14:31Z</time>
      </trkpt>
      <trkpt lat="41.9311122503" lon="-7.1546729375">
        <ele>637.58</ele>
        <time>2020-09-12T07:14:34Z</time>
      </trkpt>
      <trkpt lat="41.9310487155" lon="-7.1541180555">
        <ele>635.71</ele>
        <time>2020-09-12T07:14:37Z</time>
      </trkpt>
      <trkpt lat="41.9310445245" lon="-7.1539276186">
        <ele>634.1</ele>
        <time>2020-09-12T07:14:39Z</time>
      </trkpt>
      <trkpt lat="41.9310392439" lon="-7.1537378523">
        <ele>630.87</ele>
        <time>2020-09-12T07:14:44Z</time>
      </trkpt>
      <trkpt lat="41.9310329575" lon="-7.1531828027">
        <ele>626.18</ele>
        <time>2020-09-12T07:14:47Z</time>
      </trkpt>
      <trkpt lat="41.9310372323" lon="-7.1526894439">
        <ele>619.36</ele>
        <time>2020-09-12T07:14:49Z</time>
      </trkpt>
      <trkpt lat="41.9310223963" lon="-7.1524236538">
        <ele>616.01</ele>
        <time>2020-09-12T07:14:50Z</time>
      </trkpt>
      <trkpt lat="41.9311092328" lon="-7.1521508228">
        <ele>612.4</ele>
        <time>2020-09-12T07:14:51Z</time>
      </trkpt>
      <trkpt lat="41.9312487915" lon="-7.1523281001">
        <ele>607.79</ele>
        <time>2020-09-12T07:14:53Z</time>
      </trkpt>
      <trkpt lat="41.9313607737" lon="-7.1525933873">
        <ele>604.39</ele>
        <time>2020-09-12T07:14:57Z</time>
      </trkpt>
      <trkpt lat="41.9314198662" lon="-7.1527596842">
        <ele>602.48</ele>
        <time>2020-09-12T07:14:59Z</time>
      </trkpt>
      <trkpt lat="41.9314872567" lon="-7.1529388893">
        <ele>600.79</ele>
        <time>2020-09-12T07:15:00Z</time>
      </trkpt>
      <trkpt lat="41.9316520449" lon="-7.1533031669">
        <ele>599.54</ele>
        <time>2020-09-12T07:15:02Z</time>
      </trkpt>
      <trkpt lat="41.9320883229" lon="-7.1539225057">
        <ele>599.54</ele>
        <time>2020-09-12T07:15:03Z</time>
      </trkpt>
      <trkpt lat="41.9323217589" lon="-7.1541993599">
        <ele>598.47</ele>
        <time>2020-09-12T07:15:08Z</time>
      </trkpt>
      <trkpt lat="41.9324272033" lon="-7.154344283">
        <ele>594.62</ele>
        <time>2020-09-12T07:15:09Z</time>
      </trkpt>
      <trkpt lat="41.9326030556" lon="-7.1546512283">
        <ele>583.65</ele>
        <time>2020-09-12T07:15:12Z</time>
      </trkpt>
      <trkpt lat="41.9326786604" lon="-7.1547874343">
        <ele>582.18</ele>
        <time>2020-09-12T07:15:15Z</time>
      </trkpt>
      <trkpt lat="41.9330749568" lon="-7.154836636">
        <ele>578.12</ele>
        <time>2020-09-12T07:15:17Z</time>
      </trkpt>
      <trkpt lat="41.9331411738" lon="-7.1547039505">
        <ele>578.24</ele>
        <time>2020-09-12T07:15:18Z</time>
      </trkpt>
      <trkpt lat="41.9333209656" lon="-7.1542025451">
        <ele>574.12</ele>
        <time>2020-09-12T07:15:22Z</time>
      </trkpt>
      <trkpt lat="41.9333566725" lon="-7.1537294704">
        <ele>567.38</ele>
        <time>2020-09-12T07:15:24Z</time>
      </trkpt>
      <trkpt lat="41.9332400803" lon="-7.1534460783">
        <ele>566.29</ele>
        <time>2020-09-12T07:15:26Z</time>
      </trkpt>
      <trkpt lat="41.9331767969" lon="-7.153323032">
        <ele>564.1</ele>
        <time>2020-09-12T07:15:27Z</time>
      </trkpt>
      <trkpt lat="41.9331364799" lon="-7.1528129093">
        <ele>560.76</ele>
        <time>2020-09-12T07:15:30Z</time>
      </trkpt>
      <trkpt lat="41.9331964105" lon="-7.1524890326">
        <ele>559.31</ele>
        <time>2020-09-12T07:15:32Z</time>
      </trkpt>
      <trkpt lat="41.9332483783" lon="-7.152156774">
        <ele>558.28</ele>
        <time>2020-09-12T07:15:33Z</time>
      </trkpt>
      <trkpt lat="41.9332752842" lon="-7.1519998647">
        <ele>555.85</ele>
        <time>2020-09-12T07:15:35Z</time>
      </trkpt>
      <trkpt lat="41.9334173575" lon="-7.1516153868">
        <ele>554.87</ele>
        <time>2020-09-12T07:15:37Z</time>
      </trkpt>
      <trkpt lat="41.9335523061" lon="-7.1515161451">
        <ele>554.84</ele>
        <time>2020-09-12T07:15:40Z</time>
      </trkpt>
      <trkpt lat="41.9336308446" lon="-7.1515183244">
        <ele>555.52</ele>
        <time>2020-09-12T07:19:05Z</time>
      </trkpt>
      <trkpt lat="41.9337772764" lon="-7.1515551209">
        <ele>554.7</ele>
        <time>2020-09-12T07:19:13Z</time>
      </trkpt>
      <trkpt lat="41.9338664599" lon="-7.1515693702">
        <ele>553.83</ele>
        <time>2020-09-12T07:19:15Z</time>
      </trkpt>
      <trkpt lat="41.9339007419" lon="-7.1515552886">
        <ele>553.84</ele>
        <time>2020-09-12T07:19:23Z</time>
      </trkpt>
      <trkpt lat="41.9339163322" lon="-7.1516248584">
        <ele>553.83</ele>
        <time>2020-09-12T07:19:25Z</time>
      </trkpt>
      <trkpt lat="41.9337743428" lon="-7.1514574718">
        <ele>553.98</ele>
        <time>2020-09-12T07:19:36Z</time>
      </trkpt>
      <trkpt lat="41.9337562378" lon="-7.1513892431">
        <ele>553.98</ele>
        <time>2020-09-12T07:19:37Z</time>
      </trkpt>
      <trkpt lat="41.9336776156" lon="-7.1510874946">
        <ele>557.5</ele>
        <time>2020-09-12T07:19:42Z</time>
      </trkpt>
      <trkpt lat="41.9336613547" lon="-7.1509912703">
        <ele>561.45</ele>
        <time>2020-09-12T07:19:45Z</time>
      </trkpt>
      <trkpt lat="41.9336867519" lon="-7.1509164199">
        <ele>561.44</ele>
        <time>2020-09-12T07:19:46Z</time>
      </trkpt>
      <trkpt lat="41.9336888473" lon="-7.1509152465">
        <ele>562.73</ele>
        <time>2020-09-12T07:19:47Z</time>
      </trkpt>
      <trkpt lat="41.9338675495" lon="-7.1509123128">
        <ele>557.62</ele>
        <time>2020-09-12T07:19:52Z</time>
      </trkpt>
      <trkpt lat="41.9339244626" lon="-7.1508168429">
        <ele>556.33</ele>
        <time>2020-09-12T07:19:54Z</time>
      </trkpt>
      <trkpt lat="41.9339123927" lon="-7.1507787053">
        <ele>563.17</ele>
        <time>2020-09-12T07:19:55Z</time>
      </trkpt>
      <trkpt lat="41.9338776916" lon="-7.1507387236">
        <ele>575.11</ele>
        <time>2020-09-12T07:19:57Z</time>
      </trkpt>
      <trkpt lat="41.9334597699" lon="-7.1502270922">
        <ele>575.11</ele>
        <time>2020-09-12T07:19:58Z</time>
      </trkpt>
      <trkpt lat="41.9331951533" lon="-7.1498402674">
        <ele>578.88</ele>
        <time>2020-09-12T07:20:02Z</time>
      </trkpt>
      <trkpt lat="41.9330846798" lon="-7.1496664267">
        <ele>585.15</ele>
        <time>2020-09-12T07:20:03Z</time>
      </trkpt>
      <trkpt lat="41.9328476395" lon="-7.1494209208">
        <ele>590.67</ele>
        <time>2020-09-12T07:20:04Z</time>
      </trkpt>
      <trkpt lat="41.9327010401" lon="-7.1493058372">
        <ele>595.91</ele>
        <time>2020-09-12T07:20:05Z</time>
      </trkpt>
      <trkpt lat="41.9320604112" lon="-7.1487187687">
        <ele>607.18</ele>
        <time>2020-09-12T07:20:08Z</time>
      </trkpt>
      <trkpt lat="41.9319153205" lon="-7.1486002486">
        <ele>611.18</ele>
        <time>2020-09-12T07:20:10Z</time>
      </trkpt>
      <trkpt lat="41.9317893405" lon="-7.1485013422">
        <ele>615.72</ele>
        <time>2020-09-12T07:20:13Z</time>
      </trkpt>
      <trkpt lat="41.9316842314" lon="-7.1484109852">
        <ele>615.6</ele>
        <time>2020-09-12T07:20:14Z</time>
      </trkpt>
      <trkpt lat="41.9315184373" lon="-7.1481235698">
        <ele>620.69</ele>
        <time>2020-09-12T07:20:17Z</time>
      </trkpt>
      <trkpt lat="41.931542661" lon="-7.1479272656">
        <ele>622.37</ele>
        <time>2020-09-12T07:20:19Z</time>
      </trkpt>
      <trkpt lat="41.9317115564" lon="-7.1478346456">
        <ele>625.73</ele>
        <time>2020-09-12T07:20:20Z</time>
      </trkpt>
      <trkpt lat="41.9317896757" lon="-7.1478655748">
        <ele>635.05</ele>
        <time>2020-09-12T07:20:21Z</time>
      </trkpt>
      <trkpt lat="41.9320630096" lon="-7.1479745395">
        <ele>628.03</ele>
        <time>2020-09-12T07:20:22Z</time>
      </trkpt>
      <trkpt lat="41.9322224334" lon="-7.1480119228">
        <ele>631.53</ele>
        <time>2020-09-12T07:20:23Z</time>
      </trkpt>
      <trkpt lat="41.9323021453" lon="-7.1480280999">
        <ele>634.38</ele>
        <time>2020-09-12T07:20:29Z</time>
      </trkpt>
      <trkpt lat="41.9323803484" lon="-7.1480421815">
        <ele>640.72</ele>
        <time>2020-09-12T07:20:32Z</time>
      </trkpt>
      <trkpt lat="41.9324567076" lon="-7.1480514854">
        <ele>641.59</ele>
        <time>2020-09-12T07:20:34Z</time>
      </trkpt>
      <trkpt lat="41.9325337373" lon="-7.1480601188">
        <ele>643.51</ele>
        <time>2020-09-12T07:20:38Z</time>
      </trkpt>
      <trkpt lat="41.9330554269" lon="-7.1481371485">
        <ele>644.37</ele>
        <time>2020-09-12T07:20:39Z</time>
      </trkpt>
      <trkpt lat="41.9332075585" lon="-7.148118373">
        <ele>644.31</ele>
        <time>2020-09-12T07:20:41Z</time>
      </trkpt>
      <trkpt lat="41.9331954047" lon="-7.1480494738">
        <ele>649.32</ele>
        <time>2020-09-12T07:20:44Z</time>
      </trkpt>
      <trkpt lat="41.9330489729" lon="-7.1479225717">
        <ele>651.95</ele>
        <time>2020-09-12T07:20:47Z</time>
      </trkpt>
      <trkpt lat="41.9330170378" lon="-7.1478783153">
        <ele>655.79</ele>
        <time>2020-09-12T07:20:51Z</time>
      </trkpt>
      <trkpt lat="41.9329069834" lon="-7.1477194782">
        <ele>657.78</ele>
        <time>2020-09-12T07:20:53Z</time>
      </trkpt>
      <trkpt lat="41.9328047242" lon="-7.1474256087">
        <ele>660.39</ele>
        <time>2020-09-12T07:20:55Z</time>
      </trkpt>
      <trkpt lat="41.9328895491" lon="-7.1471349243">
        <ele>663.48</ele>
        <time>2020-09-12T07:20:56Z</time>
      </trkpt>
      <trkpt lat="41.933146622" lon="-7.1466782782">
        <ele>668.83</ele>
        <time>2020-09-12T07:20:59Z</time>
      </trkpt>
      <trkpt lat="41.9332569279" lon="-7.14642548">
        <ele>670.32</ele>
        <time>2020-09-12T07:21:01Z</time>
      </trkpt>
      <trkpt lat="41.9333528168" lon="-7.1461661439">
        <ele>667.35</ele>
        <time>2020-09-12T07:21:05Z</time>
      </trkpt>
      <trkpt lat="41.9333986659" lon="-7.14604754">
        <ele>670.98</ele>
        <time>2020-09-12T07:21:06Z</time>
      </trkpt>
      <trkpt lat="41.9334507175" lon="-7.1457151137">
        <ele>674.31</ele>
        <time>2020-09-12T07:21:07Z</time>
      </trkpt>
      <trkpt lat="41.9333796389" lon="-7.1454976872">
        <ele>681.19</ele>
        <time>2020-09-12T07:21:10Z</time>
      </trkpt>
      <trkpt lat="41.9331337977" lon="-7.1449184977">
        <ele>682.1</ele>
        <time>2020-09-12T07:21:12Z</time>
      </trkpt>
      <trkpt lat="41.9330691732" lon="-7.1447829623">
        <ele>685.18</ele>
        <time>2020-09-12T07:21:15Z</time>
      </trkpt>
      <trkpt lat="41.9330125954" lon="-7.1446641069">
        <ele>690.59</ele>
        <time>2020-09-12T07:21:17Z</time>
      </trkpt>
      <trkpt lat="41.9329602923" lon="-7.1443658788">
        <ele>692.49</ele>
        <time>2020-09-12T07:21:19Z</time>
      </trkpt>
      <trkpt lat="41.9330638926" lon="-7.1442566626">
        <ele>696.51</ele>
        <time>2020-09-12T07:21:21Z</time>
      </trkpt>
      <trkpt lat="41.9333656412" lon="-7.1442248113">
        <ele>699.13</ele>
        <time>2020-09-12T07:21:22Z</time>
      </trkpt>
      <trkpt lat="41.9335290883" lon="-7.1443415713">
        <ele>702.67</ele>
        <time>2020-09-12T07:21:24Z</time>
      </trkpt>
      <trkpt lat="41.9336306769" lon="-7.1445688047">
        <ele>706.29</ele>
        <time>2020-09-12T07:21:25Z</time>
      </trkpt>
      <trkpt lat="41.9337484427" lon="-7.1448289789">
        <ele>710.28</ele>
        <time>2020-09-12T07:21:27Z</time>
      </trkpt>
      <trkpt lat="41.9338242989" lon="-7.1449536178">
        <ele>709.88</ele>
        <time>2020-09-12T07:21:28Z</time>
      </trkpt>
      <trkpt lat="41.9339652825" lon="-7.1451623272">
        <ele>709.11</ele>
        <time>2020-09-12T07:22:16Z</time>
      </trkpt>
      <trkpt lat="41.9340039231" lon="-7.1452246886">
        <ele>709.06</ele>
        <time>2020-09-12T07:22:38Z</time>
      </trkpt>
      <trkpt lat="41.9340305775" lon="-7.1452741418">
        <ele>709.07</ele>
        <time>2020-09-12T07:22:39Z</time>
      </trkpt>
      <trkpt lat="41.9340313319" lon="-7.1452741418">
        <ele>714.84</ele>
        <time>2020-09-12T07:22:41Z</time>
      </trkpt>
      <trkpt lat="41.9340119697" lon="-7.1452658437">
        <ele>717.11</ele>
        <time>2020-09-12T07:22:43Z</time>
      </trkpt>
      <trkpt lat="41.9341900852" lon="-7.145528784">
        <ele>718.39</ele>
        <time>2020-09-12T07:22:45Z</time>
      </trkpt>
      <trkpt lat="41.9342476688" lon="-7.1456136089">
        <ele>718.33</ele>
        <time>2020-09-12T07:22:46Z</time>
      </trkpt>
      <trkpt lat="41.9343517721" lon="-7.1457439475">
        <ele>718.31</ele>
        <time>2020-09-12T07:22:48Z</time>
      </trkpt>
      <trkpt lat="41.9344145525" lon="-7.1457544249">
        <ele>724.54</ele>
        <time>2020-09-12T07:22:54Z</time>
      </trkpt>
      <trkpt lat="41.9344350044" lon="-7.1456736233">
        <ele>728.94</ele>
        <time>2020-09-12T07:22:56Z</time>
      </trkpt>
      <trkpt lat="41.9344259519" lon="-7.1455947496">
        <ele>734.53</ele>
        <time>2020-09-12T07:22:58Z</time>
      </trkpt>
      <trkpt lat="41.9343969505" lon="-7.1453785803">
        <ele>739.08</ele>
        <time>2020-09-12T07:23:00Z</time>
      </trkpt>
      <trkpt lat="41.9345705397" lon="-7.1444837283">
        <ele>739.08</ele>
        <time>2020-09-12T07:23:01Z</time>
      </trkpt>
      <trkpt lat="41.9347466435" lon="-7.1443217061">
        <ele>736.61</ele>
        <time>2020-09-12T07:23:05Z</time>
      </trkpt>
      <trkpt lat="41.9349243399" lon="-7.1442988236">
        <ele>734.88</ele>
        <time>2020-09-12T07:23:06Z</time>
      </trkpt>
      <trkpt lat="41.9349918142" lon="-7.1443885099">
        <ele>744.11</ele>
        <time>2020-09-12T07:23:10Z</time>
      </trkpt>
      <trkpt lat="41.9349870365" lon="-7.1444616839">
        <ele>745.91</ele>
        <time>2020-09-12T07:23:14Z</time>
      </trkpt>
      <trkpt lat="41.9349767268" lon="-7.1450527757">
        <ele>745.76</ele>
        <time>2020-09-12T07:23:15Z</time>
      </trkpt>
      <trkpt lat="41.9350002799" lon="-7.1452475712">
        <ele>738.97</ele>
        <time>2020-09-12T07:23:18Z</time>
      </trkpt>
      <trkpt lat="41.9351501483" lon="-7.1457729489">
        <ele>741.51</ele>
        <time>2020-09-12T07:23:20Z</time>
      </trkpt>
      <trkpt lat="41.9355299324" lon="-7.1460622083">
        <ele>743.67</ele>
        <time>2020-09-12T07:23:22Z</time>
      </trkpt>
      <trkpt lat="41.9356698263" lon="-7.1460903715">
        <ele>748.03</ele>
        <time>2020-09-12T07:23:24Z</time>
      </trkpt>
      <trkpt lat="41.9361644424" lon="-7.146139238">
        <ele>753.77</ele>
        <time>2020-09-12T07:23:25Z</time>
      </trkpt>
      <trkpt lat="41.936476836" lon="-7.1462792158">
        <ele>757.25</ele>
        <time>2020-09-12T07:23:26Z</time>
      </trkpt>
      <trkpt lat="41.9367554504" lon="-7.1465704031">
        <ele>759.3</ele>
        <time>2020-09-12T07:23:28Z</time>
      </trkpt>
      <trkpt lat="41.9370180555" lon="-7.1468975488">
        <ele>763.47</ele>
        <time>2020-09-12T07:23:30Z</time>
      </trkpt>
      <trkpt lat="41.9371355698" lon="-7.1470307373">
        <ele>769.51</ele>
        <time>2020-09-12T07:23:32Z</time>
      </trkpt>
      <trkpt lat="41.9372473843" lon="-7.1471434738">
        <ele>772.1</ele>
        <time>2020-09-12T07:23:35Z</time>
      </trkpt>
      <trkpt lat="41.9374993443" lon="-7.1473313123">
        <ele>776.48</ele>
        <time>2020-09-12T07:23:37Z</time>
      </trkpt>
      <trkpt lat="41.9377772044" lon="-7.1474177297">
        <ele>776.44</ele>
        <time>2020-09-12T07:23:38Z</time>
      </trkpt>
      <trkpt lat="41.9380453415" lon="-7.1473859623">
        <ele>780.89</ele>
        <time>2020-09-12T07:23:43Z</time>
      </trkpt>
      <trkpt lat="41.9383599143" lon="-7.1470971219">
        <ele>782.55</ele>
        <time>2020-09-12T07:23:45Z</time>
      </trkpt>
      <trkpt lat="41.9384981319" lon="-7.1467822138">
        <ele>782.35</ele>
        <time>2020-09-12T07:23:46Z</time>
      </trkpt>
      <trkpt lat="41.9385483395" lon="-7.1465942916">
        <ele>782.36</ele>
        <time>2020-09-12T07:23:47Z</time>
      </trkpt>
      <trkpt lat="41.9387779199" lon="-7.1457677521">
        <ele>779.19</ele>
        <time>2020-09-12T07:23:48Z</time>
      </trkpt>
      <trkpt lat="41.9388105255" lon="-7.145528784">
        <ele>779.36</ele>
        <time>2020-09-12T07:23:49Z</time>
      </trkpt>
      <trkpt lat="41.9388031494" lon="-7.1453913208">
        <ele>782.15</ele>
        <time>2020-09-12T07:23:51Z</time>
      </trkpt>
      <trkpt lat="41.938777836" lon="-7.145244386">
        <ele>784.82</ele>
        <time>2020-09-12T07:23:52Z</time>
      </trkpt>
      <trkpt lat="41.9387386087" lon="-7.1451002173">
        <ele>786.47</ele>
        <time>2020-09-12T07:23:53Z</time>
      </trkpt>
      <trkpt lat="41.9386952743" lon="-7.1449664421">
        <ele>786.46</ele>
        <time>2020-09-12T07:23:54Z</time>
      </trkpt>
      <trkpt lat="41.9386134669" lon="-7.144745579">
        <ele>786.2</ele>
        <time>2020-09-12T07:23:58Z</time>
      </trkpt>
      <trkpt lat="41.938576838" lon="-7.1446679626">
        <ele>786.14</ele>
        <time>2020-09-12T07:23:59Z</time>
      </trkpt>
      <trkpt lat="41.9385417178" lon="-7.1446181741">
        <ele>786.08</ele>
        <time>2020-09-12T07:24:00Z</time>
      </trkpt>
      <trkpt lat="41.9385077711" lon="-7.1445801202">
        <ele>786.08</ele>
        <time>2020-09-12T07:24:01Z</time>
      </trkpt>
      <trkpt lat="41.9383227825" lon="-7.144396808">
        <ele>786.01</ele>
        <time>2020-09-12T07:24:02Z</time>
      </trkpt>
      <trkpt lat="41.9382758439" lon="-7.1443328541">
        <ele>785.98</ele>
        <time>2020-09-12T07:24:03Z</time>
      </trkpt>
      <trkpt lat="41.9382460881" lon="-7.144276863">
        <ele>783.1</ele>
        <time>2020-09-12T07:24:04Z</time>
      </trkpt>
      <trkpt lat="41.9382439088" lon="-7.1442352887">
        <ele>783.1</ele>
        <time>2020-09-12T07:24:05Z</time>
      </trkpt>
      <trkpt lat="41.9382676296" lon="-7.1442011744">
        <ele>781.62</ele>
        <time>2020-09-12T07:24:06Z</time>
      </trkpt>
      <trkpt lat="41.938311886" lon="-7.1441668924">
        <ele>780.37</ele>
        <time>2020-09-12T07:24:07Z</time>
      </trkpt>
      <trkpt lat="41.9383665361" lon="-7.1441293415">
        <ele>778.19</ele>
        <time>2020-09-12T07:24:08Z</time>
      </trkpt>
      <trkpt lat="41.9384306576" lon="-7.1440742724">
        <ele>775.37</ele>
        <time>2020-09-12T07:24:09Z</time>
      </trkpt>
      <trkpt lat="41.9384989701" lon="-7.1439845022">
        <ele>772.03</ele>
        <time>2020-09-12T07:24:10Z</time>
      </trkpt>
      <trkpt lat="41.938566193" lon="-7.1438684966">
        <ele>769.9</ele>
        <time>2020-09-12T07:24:11Z</time>
      </trkpt>
      <trkpt lat="41.9386455696" lon="-7.1437387448">
        <ele>764.68</ele>
        <time>2020-09-12T07:24:13Z</time>
      </trkpt>
      <trkpt lat="41.9387478288" lon="-7.1436048858">
        <ele>764.69</ele>
        <time>2020-09-12T07:24:14Z</time>
      </trkpt>
      <trkpt lat="41.9388713781" lon="-7.1434792411">
        <ele>761.96</ele>
        <time>2020-09-12T07:24:17Z</time>
      </trkpt>
      <trkpt lat="41.9390091766" lon="-7.1433589607">
        <ele>765.23</ele>
        <time>2020-09-12T07:24:18Z</time>
      </trkpt>
      <trkpt lat="41.9393217377" lon="-7.1431088448">
        <ele>765.12</ele>
        <time>2020-09-12T07:24:19Z</time>
      </trkpt>
      <trkpt lat="41.9394916389" lon="-7.1429775003">
        <ele>768.16</ele>
        <time>2020-09-12T07:24:22Z</time>
      </trkpt>
      <trkpt lat="41.9400288351" lon="-7.1425708104">
        <ele>773.93</ele>
        <time>2020-09-12T07:24:24Z</time>
      </trkpt>
      <trkpt lat="41.9402069505" lon="-7.142440388">
        <ele>775.72</ele>
        <time>2020-09-12T07:24:25Z</time>
      </trkpt>
      <trkpt lat="41.9403838087" lon="-7.1423107199">
        <ele>779.14</ele>
        <time>2020-09-12T07:24:26Z</time>
      </trkpt>
      <trkpt lat="41.9409070909" lon="-7.1419158485">
        <ele>779.04</ele>
        <time>2020-09-12T07:24:27Z</time>
      </trkpt>
      <trkpt lat="41.9412079174" lon="-7.1416203026">
        <ele>779.23</ele>
        <time>2020-09-12T07:24:28Z</time>
      </trkpt>
      <trkpt lat="41.9413200673" lon="-7.1414462943">
        <ele>779.28</ele>
        <time>2020-09-12T07:24:32Z</time>
      </trkpt>
      <trkpt lat="41.9413967617" lon="-7.1412481461">
        <ele>779.29</ele>
        <time>2020-09-12T07:24:33Z</time>
      </trkpt>
      <trkpt lat="41.9414457958" lon="-7.1410262771">
        <ele>779.3</ele>
        <time>2020-09-12T07:24:34Z</time>
      </trkpt>
      <trkpt lat="41.9414826762" lon="-7.1407872252">
        <ele>779.31</ele>
        <time>2020-09-12T07:24:35Z</time>
      </trkpt>
      <trkpt lat="41.9416729454" lon="-7.1397658065">
        <ele>779.27</ele>
        <time>2020-09-12T07:24:36Z</time>
      </trkpt>
      <trkpt lat="41.9417656492" lon="-7.1395269223">
        <ele>782.98</ele>
        <time>2020-09-12T07:24:42Z</time>
      </trkpt>
      <trkpt lat="41.9418899529" lon="-7.1393027902">
        <ele>791.78</ele>
        <time>2020-09-12T07:24:44Z</time>
      </trkpt>
      <trkpt lat="41.9420414977" lon="-7.1390919015">
        <ele>795.93</ele>
        <time>2020-09-12T07:24:47Z</time>
      </trkpt>
      <trkpt lat="41.9422106445" lon="-7.1388867125">
        <ele>797.44</ele>
        <time>2020-09-12T07:24:49Z</time>
      </trkpt>
      <trkpt lat="41.943320157" lon="-7.1375810634">
        <ele>800.72</ele>
        <time>2020-09-12T07:24:52Z</time>
      </trkpt>
      <trkpt lat="41.9436851889" lon="-7.1371605434">
        <ele>805.91</ele>
        <time>2020-09-12T07:24:54Z</time>
      </trkpt>
      <trkpt lat="41.9442688208" lon="-7.1366421226">
        <ele>813</ele>
        <time>2020-09-12T07:24:55Z</time>
      </trkpt>
      <trkpt lat="41.9446854852" lon="-7.1363269631">
        <ele>817.89</ele>
        <time>2020-09-12T07:24:56Z</time>
      </trkpt>
      <trkpt lat="41.9453217555" lon="-7.1358398069">
        <ele>820.98</ele>
        <time>2020-09-12T07:24:57Z</time>
      </trkpt>
      <trkpt lat="41.9457306247" lon="-7.1355270781">
        <ele>822.2</ele>
        <time>2020-09-12T07:24:58Z</time>
      </trkpt>
      <trkpt lat="41.9459041301" lon="-7.1353850886">
        <ele>821.96</ele>
        <time>2020-09-12T07:24:59Z</time>
      </trkpt>
      <trkpt lat="41.9460501429" lon="-7.1352358907">
        <ele>817.52</ele>
        <time>2020-09-12T07:25:00Z</time>
      </trkpt>
      <trkpt lat="41.946165897" lon="-7.1350714378">
        <ele>816.66</ele>
        <time>2020-09-12T07:25:01Z</time>
      </trkpt>
      <trkpt lat="41.9462529849" lon="-7.1348831803">
        <ele>819.54</ele>
        <time>2020-09-12T07:25:02Z</time>
      </trkpt>
      <trkpt lat="41.9463161007" lon="-7.1346614789">
        <ele>821.5</ele>
        <time>2020-09-12T07:25:03Z</time>
      </trkpt>
      <trkpt lat="41.9463626202" lon="-7.1344142128">
        <ele>822.95</ele>
        <time>2020-09-12T07:25:04Z</time>
      </trkpt>
      <trkpt lat="41.9464055356" lon="-7.1341696288">
        <ele>823.09</ele>
        <time>2020-09-12T07:25:05Z</time>
      </trkpt>
      <trkpt lat="41.9464601018" lon="-7.1339519508">
        <ele>822.91</ele>
        <time>2020-09-12T07:25:06Z</time>
      </trkpt>
      <trkpt lat="41.9465384725" lon="-7.1337688901">
        <ele>817.03</ele>
        <time>2020-09-12T07:25:07Z</time>
      </trkpt>
      <trkpt lat="41.9466441683" lon="-7.1336226258">
        <ele>814.21</ele>
        <time>2020-09-12T07:25:08Z</time>
      </trkpt>
      <trkpt lat="41.9467845652" lon="-7.1335238032">
        <ele>813.26</ele>
        <time>2020-09-12T07:25:10Z</time>
      </trkpt>
      <trkpt lat="41.9469593279" lon="-7.133466471">
        <ele>810.71</ele>
        <time>2020-09-12T07:25:15Z</time>
      </trkpt>
      <trkpt lat="41.9471597392" lon="-7.1334280819">
        <ele>814.39</ele>
        <time>2020-09-12T07:25:17Z</time>
      </trkpt>
      <trkpt lat="41.9473800156" lon="-7.1333958115">
        <ele>821.7</ele>
        <time>2020-09-12T07:25:18Z</time>
      </trkpt>
      <trkpt lat="41.9478390925" lon="-7.133315932">
        <ele>828.21</ele>
        <time>2020-09-12T07:25:19Z</time>
      </trkpt>
      <trkpt lat="41.9491068553" lon="-7.1330344677">
        <ele>834.22</ele>
        <time>2020-09-12T07:25:20Z</time>
      </trkpt>
      <trkpt lat="41.949618319" lon="-7.1329155285">
        <ele>839.67</ele>
        <time>2020-09-12T07:25:21Z</time>
      </trkpt>
      <trkpt lat="41.9498418644" lon="-7.1328591183">
        <ele>843.96</ele>
        <time>2020-09-12T07:25:22Z</time>
      </trkpt>
      <trkpt lat="41.950041689" lon="-7.1328100841">
        <ele>847.43</ele>
        <time>2020-09-12T07:25:23Z</time>
      </trkpt>
      <trkpt lat="41.9502143562" lon="-7.1327724494">
        <ele>849.45</ele>
        <time>2020-09-12T07:25:24Z</time>
      </trkpt>
      <trkpt lat="41.9503576029" lon="-7.1327394247">
        <ele>849.42</ele>
        <time>2020-09-12T07:25:25Z</time>
      </trkpt>
      <trkpt lat="41.9504707586" lon="-7.1327020414">
        <ele>849.49</ele>
        <time>2020-09-12T07:25:26Z</time>
      </trkpt>
      <trkpt lat="41.9505539071" lon="-7.1326504089">
        <ele>844.84</ele>
        <time>2020-09-12T07:25:27Z</time>
      </trkpt>
      <trkpt lat="41.9506080542" lon="-7.1325746365">
        <ele>841.42</ele>
        <time>2020-09-12T07:25:28Z</time>
      </trkpt>
      <trkpt lat="41.9506307691" lon="-7.1324681863">
        <ele>837.74</ele>
        <time>2020-09-12T07:25:29Z</time>
      </trkpt>
      <trkpt lat="41.9506181125" lon="-7.1323277056">
        <ele>836.5</ele>
        <time>2020-09-12T07:25:30Z</time>
      </trkpt>
      <trkpt lat="41.950580813" lon="-7.1321543679">
        <ele>832.1</ele>
        <time>2020-09-12T07:25:31Z</time>
      </trkpt>
      <trkpt lat="41.9505352993" lon="-7.1319467481">
        <ele>826.77</ele>
        <time>2020-09-12T07:25:32Z</time>
      </trkpt>
      <trkpt lat="41.9504942279" lon="-7.1317134798">
        <ele>825.1</ele>
        <time>2020-09-12T07:25:36Z</time>
      </trkpt>
      <trkpt lat="41.9504701719" lon="-7.1314604301">
        <ele>828.33</ele>
        <time>2020-09-12T07:25:37Z</time>
      </trkpt>
      <trkpt lat="41.9504706748" lon="-7.1311824862">
        <ele>834.07</ele>
        <time>2020-09-12T07:25:39Z</time>
      </trkpt>
      <trkpt lat="41.9504935574" lon="-7.130882917">
        <ele>836.37</ele>
        <time>2020-09-12T07:25:40Z</time>
      </trkpt>
      <trkpt lat="41.9505909551" lon="-7.1296715643">
        <ele>836.2</ele>
        <time>2020-09-12T07:25:41Z</time>
      </trkpt>
      <trkpt lat="41.9505708385" lon="-7.1293792874">
        <ele>832.94</ele>
        <time>2020-09-12T07:25:42Z</time>
      </trkpt>
      <trkpt lat="41.9505187031" lon="-7.1288669016">
        <ele>832.92</ele>
        <time>2020-09-12T07:25:43Z</time>
      </trkpt>
      <trkpt lat="41.9505244866" lon="-7.1286385786">
        <ele>832.92</ele>
        <time>2020-09-12T07:25:44Z</time>
      </trkpt>
      <trkpt lat="41.9505745266" lon="-7.1284218226">
        <ele>839.26</ele>
        <time>2020-09-12T07:25:45Z</time>
      </trkpt>
      <trkpt lat="41.9506642129" lon="-7.1282209922">
        <ele>839.4</ele>
        <time>2020-09-12T07:25:46Z</time>
      </trkpt>
      <trkpt lat="41.9507616106" lon="-7.1280365903">
        <ele>839.47</ele>
        <time>2020-09-12T07:25:49Z</time>
      </trkpt>
      <trkpt lat="41.950831851" lon="-7.1278518531">
        <ele>839.5</ele>
        <time>2020-09-12T07:25:50Z</time>
      </trkpt>
      <trkpt lat="41.9508544821" lon="-7.1276589856">
        <ele>839.56</ele>
        <time>2020-09-12T07:25:51Z</time>
      </trkpt>
      <trkpt lat="41.950838808" lon="-7.1274542995">
        <ele>839.57</ele>
        <time>2020-09-12T07:25:52Z</time>
      </trkpt>
      <trkpt lat="41.9507610239" lon="-7.1267510578">
        <ele>837.11</ele>
        <time>2020-09-12T07:25:53Z</time>
      </trkpt>
      <trkpt lat="41.9507724233" lon="-7.126499936">
        <ele>837.12</ele>
        <time>2020-09-12T07:25:54Z</time>
      </trkpt>
      <trkpt lat="41.9508102257" lon="-7.1262411028">
        <ele>837.12</ele>
        <time>2020-09-12T07:25:56Z</time>
      </trkpt>
      <trkpt lat="41.9508685637" lon="-7.1259746421">
        <ele>837.13</ele>
        <time>2020-09-12T07:25:57Z</time>
      </trkpt>
      <trkpt lat="41.9509440009" lon="-7.1257047448">
        <ele>839.99</ele>
        <time>2020-09-12T07:25:59Z</time>
      </trkpt>
      <trkpt lat="41.9510325138" lon="-7.1254322492">
        <ele>836.72</ele>
        <time>2020-09-12T07:26:00Z</time>
      </trkpt>
      <trkpt lat="41.9511909317" lon="-7.1248619445">
        <ele>833.55</ele>
        <time>2020-09-12T07:26:02Z</time>
      </trkpt>
      <trkpt lat="41.9512341823" lon="-7.1245599445">
        <ele>829.94</ele>
        <time>2020-09-12T07:26:03Z</time>
      </trkpt>
      <trkpt lat="41.9513064343" lon="-7.1239441261">
        <ele>825.99</ele>
        <time>2020-09-12T07:26:04Z</time>
      </trkpt>
      <trkpt lat="41.9513569772" lon="-7.1236333251">
        <ele>819.33</ele>
        <time>2020-09-12T07:26:06Z</time>
      </trkpt>
      <trkpt lat="41.9514954463" lon="-7.1229994856">
        <ele>814.03</ele>
        <time>2020-09-12T07:26:08Z</time>
      </trkpt>
      <trkpt lat="41.9515739009" lon="-7.1226751059">
        <ele>810.29</ele>
        <time>2020-09-12T07:26:10Z</time>
      </trkpt>
      <trkpt lat="41.9516556244" lon="-7.1223481279">
        <ele>810.17</ele>
        <time>2020-09-12T07:26:11Z</time>
      </trkpt>
      <trkpt lat="41.9518237654" lon="-7.121686209">
        <ele>814.55</ele>
        <time>2020-09-12T07:26:13Z</time>
      </trkpt>
      <trkpt lat="41.9519986957" lon="-7.1210107114">
        <ele>819.65</ele>
        <time>2020-09-12T07:26:15Z</time>
      </trkpt>
      <trkpt lat="41.9521742966" lon="-7.1203269996">
        <ele>822.54</ele>
        <time>2020-09-12T07:26:16Z</time>
      </trkpt>
      <trkpt lat="41.9522628095" lon="-7.1199878678">
        <ele>823.74</ele>
        <time>2020-09-12T07:26:17Z</time>
      </trkpt>
      <trkpt lat="41.952421898" lon="-7.1193522681">
        <ele>820.73</ele>
        <time>2020-09-12T07:26:18Z</time>
      </trkpt>
      <trkpt lat="41.9525668211" lon="-7.1187993139">
        <ele>818.39</ele>
        <time>2020-09-12T07:26:19Z</time>
      </trkpt>
      <trkpt lat="41.9526568428" lon="-7.1185701527">
        <ele>813.8</ele>
        <time>2020-09-12T07:26:20Z</time>
      </trkpt>
      <trkpt lat="41.9527752791" lon="-7.1183772013">
        <ele>810.46</ele>
        <time>2020-09-12T07:26:21Z</time>
      </trkpt>
      <trkpt lat="41.9529292546" lon="-7.1182163525">
        <ele>805.46</ele>
        <time>2020-09-12T07:26:23Z</time>
      </trkpt>
      <trkpt lat="41.9531161711" lon="-7.1180821583">
        <ele>801.37</ele>
        <time>2020-09-12T07:26:24Z</time>
      </trkpt>
      <trkpt lat="41.953327395" lon="-7.1179670747">
        <ele>805.02</ele>
        <time>2020-09-12T07:26:27Z</time>
      </trkpt>
      <trkpt lat="41.9535514433" lon="-7.1178602893">
        <ele>805.27</ele>
        <time>2020-09-12T07:26:28Z</time>
      </trkpt>
      <trkpt lat="41.9540306367" lon="-7.1176908072">
        <ele>805.29</ele>
        <time>2020-09-12T07:26:29Z</time>
      </trkpt>
      <trkpt lat="41.9542844407" lon="-7.117635319">
        <ele>798.85</ele>
        <time>2020-09-12T07:26:31Z</time>
      </trkpt>
      <trkpt lat="41.9550041109" lon="-7.1174587961">
        <ele>802.96</ele>
        <time>2020-09-12T07:26:32Z</time>
      </trkpt>
      <trkpt lat="41.9552253932" lon="-7.117342623">
        <ele>807.46</ele>
        <time>2020-09-12T07:26:33Z</time>
      </trkpt>
      <trkpt lat="41.9554395508" lon="-7.1171924192">
        <ele>813.72</ele>
        <time>2020-09-12T07:26:36Z</time>
      </trkpt>
      <trkpt lat="41.9558690395" lon="-7.1168641839">
        <ele>817.69</ele>
        <time>2020-09-12T07:26:37Z</time>
      </trkpt>
      <trkpt lat="41.9560733065" lon="-7.1167080291">
        <ele>821.4</ele>
        <time>2020-09-12T07:26:38Z</time>
      </trkpt>
      <trkpt lat="41.9562614802" lon="-7.1165560652">
        <ele>825.23</ele>
        <time>2020-09-12T07:26:39Z</time>
      </trkpt>
      <trkpt lat="41.9567786437" lon="-7.1161339525">
        <ele>827.1</ele>
        <time>2020-09-12T07:26:40Z</time>
      </trkpt>
      <trkpt lat="41.9569138438" lon="-7.1160222217">
        <ele>827.04</ele>
        <time>2020-09-12T07:26:41Z</time>
      </trkpt>
      <trkpt lat="41.9570196234" lon="-7.1159133408">
        <ele>827.12</ele>
        <time>2020-09-12T07:26:42Z</time>
      </trkpt>
      <trkpt lat="41.9570939709" lon="-7.1158063877">
        <ele>827.15</ele>
        <time>2020-09-12T07:26:43Z</time>
      </trkpt>
      <trkpt lat="41.9571388979" lon="-7.1156995185">
        <ele>822.72</ele>
        <time>2020-09-12T07:26:44Z</time>
      </trkpt>
      <trkpt lat="41.9571562484" lon="-7.1155813336">
        <ele>821.05</ele>
        <time>2020-09-12T07:26:45Z</time>
      </trkpt>
      <trkpt lat="41.9571451005" lon="-7.1154467203">
        <ele>819.17</ele>
        <time>2020-09-12T07:26:46Z</time>
      </trkpt>
      <trkpt lat="41.9571046159" lon="-7.1152976062">
        <ele>815.67</ele>
        <time>2020-09-12T07:26:47Z</time>
      </trkpt>
      <trkpt lat="41.957035549" lon="-7.1151378471">
        <ele>812.5</ele>
        <time>2020-09-12T07:26:48Z</time>
      </trkpt>
      <trkpt lat="41.9569473714" lon="-7.1149728075">
        <ele>810.02</ele>
        <time>2020-09-12T07:26:49Z</time>
      </trkpt>
      <trkpt lat="41.9568573497" lon="-7.1147994697">
        <ele>806.37</ele>
        <time>2020-09-12T07:26:50Z</time>
      </trkpt>
      <trkpt lat="41.9567794818" lon="-7.1146038361">
        <ele>802.81</ele>
        <time>2020-09-12T07:26:52Z</time>
      </trkpt>
      <trkpt lat="41.9567223173" lon="-7.1143797878">
        <ele>802.7</ele>
        <time>2020-09-12T07:26:53Z</time>
      </trkpt>
      <trkpt lat="41.956686778" lon="-7.1141231339">
        <ele>807.84</ele>
        <time>2020-09-12T07:26:56Z</time>
      </trkpt>
      <trkpt lat="41.9566618837" lon="-7.1138455253">
        <ele>812.27</ele>
        <time>2020-09-12T07:26:57Z</time>
      </trkpt>
      <trkpt lat="41.956604803" lon="-7.1132707782">
        <ele>814.84</ele>
        <time>2020-09-12T07:26:58Z</time>
      </trkpt>
      <trkpt lat="41.9565712754" lon="-7.1129732206">
        <ele>816.55</ele>
        <time>2020-09-12T07:26:59Z</time>
      </trkpt>
      <trkpt lat="41.9564741291" lon="-7.1121134888">
        <ele>816.59</ele>
        <time>2020-09-12T07:27:00Z</time>
      </trkpt>
      <trkpt lat="41.9564249273" lon="-7.1118717548">
        <ele>816.35</ele>
        <time>2020-09-12T07:27:01Z</time>
      </trkpt>
      <trkpt lat="41.9563467242" lon="-7.1116524003">
        <ele>816.67</ele>
        <time>2020-09-12T07:27:02Z</time>
      </trkpt>
      <trkpt lat="41.9562379271" lon="-7.1114516538">
        <ele>823.96</ele>
        <time>2020-09-12T07:27:04Z</time>
      </trkpt>
      <trkpt lat="41.9561052416" lon="-7.1112633962">
        <ele>826.15</ele>
        <time>2020-09-12T07:27:05Z</time>
      </trkpt>
      <trkpt lat="41.955955876" lon="-7.1110858675">
        <ele>826.24</ele>
        <time>2020-09-12T07:27:06Z</time>
      </trkpt>
      <trkpt lat="41.9558001403" lon="-7.1109184809"/>
      <trkpt lat="41.9554993976" lon="-7.1106568817"/>
      <trkpt lat="41.9553382136" lon="-7.110589575"/>
      <trkpt lat="41.9551627804" lon="-7.1105562989"/>
      <trkpt lat="41.9546278473" lon="-7.110408023">
        <ele>826.43</ele>
      </trkpt>
      <trkpt lat="41.9544383325" lon="-7.1103015728">
        <ele>820.73</ele>
      </trkpt>
      <trkpt lat="41.954242615" lon="-7.1101788618">
        <ele>817.4</ele>
      </trkpt>
      <trkpt lat="41.9540410303" lon="-7.1100538876">
        <ele>817.31</ele>
      </trkpt>
      <trkpt lat="41.9534261338" lon="-7.1096457727">
        <ele>814.35</ele>
      </trkpt>
      <trkpt lat="41.9532367028" lon="-7.109470088">
        <ele>813.05</ele>
      </trkpt>
      <trkpt lat="41.9530628622" lon="-7.109263055">
        <ele>812.99</ele>
      </trkpt>
      <trkpt lat="41.9529076293" lon="-7.1090228297">
        <ele>811.61</ele>
      </trkpt>
      <trkpt lat="41.9527736027" lon="-7.108753603">
        <ele>810.61</ele>
      </trkpt>
      <trkpt lat="41.9526568428" lon="-7.1084614936">
        <ele>810.64</ele>
      </trkpt>
      <trkpt lat="41.9525503088" lon="-7.1081564762">
        <ele>808.4</ele>
      </trkpt>
      <trkpt lat="41.9524457864" lon="-7.1078481898">
        <ele>808.4</ele>
      </trkpt>
      <trkpt lat="41.9519859552" lon="-7.1067197341">
        <ele>812.85</ele>
      </trkpt>
      <trkpt lat="41.9518738892" lon="-7.1065059118">
        <ele>817</ele>
      </trkpt>
      <trkpt lat="41.9517518487" lon="-7.10633073">
        <ele>819.97</ele>
      </trkpt>
      <trkpt lat="41.9516055007" lon="-7.106180694">
        <ele>819.89</ele>
      </trkpt>
      <trkpt lat="41.9514402933" lon="-7.1060510259">
        <ele>816.21</ele>
      </trkpt>
      <trkpt lat="41.9512696378" lon="-7.1059532929">
        <ele>816.19</ele>
      </trkpt>
      <trkpt lat="41.9510902651" lon="-7.1058926918">
        <ele>816.4</ele>
      </trkpt>
      <trkpt lat="41.9508922845" lon="-7.1058809571">
        <ele>813.94</ele>
      </trkpt>
      <trkpt lat="41.9506777916" lon="-7.1059074439">
        <ele>811.71</ele>
      </trkpt>
      <trkpt lat="41.9504544139" lon="-7.1059513651">
        <ele>808.59</ele>
      </trkpt>
      <trkpt lat="41.9499932416" lon="-7.1060441528">
        <ele>805.02</ele>
      </trkpt>
      <trkpt lat="41.9495293871" lon="-7.1061361022">
        <ele>802.76</ele>
      </trkpt>
      <trkpt lat="41.9493107032" lon="-7.1061687917">
        <ele>806.01</ele>
      </trkpt>
      <trkpt lat="41.9490922708" lon="-7.1061795205">
        <ele>805.92</ele>
      </trkpt>
      <trkpt lat="41.9488698989" lon="-7.1061701328">
        <ele>802.46</ele>
      </trkpt>
      <trkpt lat="41.9484292623" lon="-7.1061351802">
        <ele>800.2</ele>
      </trkpt>
      <trkpt lat="41.9480200578" lon="-7.1061275527">
        <ele>802.5</ele>
      </trkpt>
      <trkpt lat="41.9478224125" lon="-7.1061583143">
        <ele>802.36</ele>
      </trkpt>
      <trkpt lat="41.9476253539" lon="-7.1062242799">
        <ele>799.41</ele>
      </trkpt>
      <trkpt lat="41.947429385" lon="-7.1063282993">
        <ele>796.84</ele>
      </trkpt>
      <trkpt lat="41.9472378585" lon="-7.1064666845">
        <ele>795.55</ele>
      </trkpt>
      <trkpt lat="41.9470572285" lon="-7.1066251025">
        <ele>792.45</ele>
      </trkpt>
      <trkpt lat="41.9468956254" lon="-7.1067882143">
        <ele>792.73</ele>
      </trkpt>
      <trkpt lat="41.9467610959" lon="-7.1069641504">
        <ele>796.3</ele>
      </trkpt>
      <trkpt lat="41.9466554839" lon="-7.1071692556">
        <ele>796.53</ele>
      </trkpt>
      <trkpt lat="41.9465804659" lon="-7.1074073017">
        <ele>792.89</ele>
      </trkpt>
      <trkpt lat="41.9465284143" lon="-7.1076648775">
        <ele>793.04</ele>
      </trkpt>
      <trkpt lat="41.9464777876" lon="-7.1079137363">
        <ele>790.7</ele>
      </trkpt>
      <trkpt lat="41.9464104809" lon="-7.1081330068">
        <ele>790.66</ele>
      </trkpt>
      <trkpt lat="41.9463207107" lon="-7.1083134692">
        <ele>793.89</ele>
      </trkpt>
      <trkpt lat="41.9461947307" lon="-7.1084541176">
        <ele>793.92</ele>
      </trkpt>
      <trkpt lat="41.9460379053" lon="-7.108576661">
        <ele>790.61</ele>
      </trkpt>
      <trkpt lat="41.9458671659" lon="-7.108701719">
        <ele>787.8</ele>
      </trkpt>
      <trkpt lat="41.9455204066" lon="-7.1089910623">
        <ele>784.24</ele>
      </trkpt>
      <trkpt lat="41.945358552" lon="-7.1091714408">
        <ele>782.82</ele>
      </trkpt>
      <trkpt lat="41.945215473" lon="-7.1093726903">
        <ele>780.74</ele>
      </trkpt>
      <trkpt lat="41.9450928457" lon="-7.109590536">
        <ele>780.61</ele>
      </trkpt>
      <trkpt lat="41.944991257" lon="-7.1098338626">
        <ele>778.77</ele>
      </trkpt>
      <trkpt lat="41.9449117128" lon="-7.1101062745">
        <ele>775.93</ele>
      </trkpt>
      <trkpt lat="41.944850944" lon="-7.1103915107">
        <ele>773.79</ele>
      </trkpt>
      <trkpt lat="41.9447989762" lon="-7.1106625814">
        <ele>773.77</ele>
      </trkpt>
      <trkpt lat="41.9447387941" lon="-7.1109029744">
        <ele>773.79</ele>
      </trkpt>
      <trkpt lat="41.9446581602" lon="-7.1110963449">
        <ele>773.69</ele>
      </trkpt>
      <trkpt lat="41.9445548113" lon="-7.1112312935">
        <ele>776.98</ele>
      </trkpt>
      <trkpt lat="41.9444283284" lon="-7.1113059763">
        <ele>776.99</ele>
      </trkpt>
      <trkpt lat="41.94428307" lon="-7.1113265958">
        <ele>774.48</ele>
      </trkpt>
      <trkpt lat="41.9441229757" lon="-7.1113162022">
        <ele>772.43</ele>
      </trkpt>
      <trkpt lat="41.943960283" lon="-7.1112967562">
        <ele>771.74</ele>
      </trkpt>
      <trkpt lat="41.9436403457" lon="-7.1112598758">
        <ele>770.79</ele>
      </trkpt>
      <trkpt lat="41.943312278" lon="-7.111246381">
        <ele>767.6</ele>
      </trkpt>
      <trkpt lat="41.9431484956" lon="-7.1112741251">
        <ele>766.57</ele>
      </trkpt>
      <trkpt lat="41.9429911673" lon="-7.1113379113">
        <ele>766.62</ele>
      </trkpt>
      <trkpt lat="41.9428427238" lon="-7.1114390809">
        <ele>766.53</ele>
      </trkpt>
      <trkpt lat="41.9427016564" lon="-7.1115709282">
        <ele>764.87</ele>
      </trkpt>
      <trkpt lat="41.9425637741" lon="-7.1117208805">
        <ele>762.49</ele>
      </trkpt>
      <trkpt lat="41.9424274005" lon="-7.1118764486">
        <ele>762.65</ele>
      </trkpt>
      <trkpt lat="41.9421647955" lon="-7.1121799573">
        <ele>761.2</ele>
      </trkpt>
      <trkpt lat="41.9418970775" lon="-7.1124434844">
        <ele>759.19</ele>
      </trkpt>
      <trkpt lat="41.9417454489" lon="-7.1125387028">
        <ele>757.03</ele>
      </trkpt>
      <trkpt lat="41.9415802415" lon="-7.1126086079">
        <ele>754.02</ele>
      </trkpt>
      <trkpt lat="41.9412373379" lon="-7.1127416287">
        <ele>752.88</ele>
      </trkpt>
      <trkpt lat="41.9408909976" lon="-7.1128823608">
        <ele>749.64</ele>
      </trkpt>
      <trkpt lat="41.9405357726" lon="-7.1130200755">
        <ele>746.09</ele>
      </trkpt>
      <trkpt lat="41.9401709083" lon="-7.113106912">
        <ele>742.41</ele>
      </trkpt>
      <trkpt lat="41.939986255" lon="-7.1131043136">
        <ele>742.21</ele>
      </trkpt>
      <trkpt lat="41.9398092292" lon="-7.1130525135">
        <ele>741.64</ele>
      </trkpt>
      <trkpt lat="41.9396505598" lon="-7.1129498351">
        <ele>741.47</ele>
      </trkpt>
      <trkpt lat="41.9395146053" lon="-7.1128186584">
        <ele>744.09</ele>
      </trkpt>
      <trkpt lat="41.9393977616" lon="-7.1126772556">
        <ele>747.17</ele>
      </trkpt>
      <trkpt lat="41.939289635" lon="-7.1125366911">
        <ele>748.56</ele>
      </trkpt>
      <trkpt lat="41.9390700292" lon="-7.1122714039">
        <ele>752.5</ele>
      </trkpt>
      <trkpt lat="41.9387228508" lon="-7.1118783765">
        <ele>754.86</ele>
      </trkpt>
      <trkpt lat="41.9385881536" lon="-7.1117796376">
        <ele>754.85</ele>
      </trkpt>
      <trkpt lat="41.9384406321" lon="-7.1117168572">
        <ele>754.97</ele>
      </trkpt>
      <trkpt lat="41.9382874947" lon="-7.1116989199">
        <ele>755</ele>
      </trkpt>
      <trkpt lat="41.9381331" lon="-7.1117311064">
        <ele>754.99</ele>
      </trkpt>
      <trkpt lat="41.9379823934" lon="-7.1118127462">
        <ele>754.98</ele>
      </trkpt>
      <trkpt lat="41.9378395658" lon="-7.1119373851">
        <ele>754.97</ele>
      </trkpt>
      <trkpt lat="41.9377040304" lon="-7.1120912768">
        <ele>751.68</ele>
      </trkpt>
      <trkpt lat="41.9375719316" lon="-7.1122581605">
        <ele>748.46</ele>
      </trkpt>
      <trkpt lat="41.9373041298" lon="-7.1125985496">
        <ele>744.46</ele>
      </trkpt>
      <trkpt lat="41.9371731207" lon="-7.1127661038">
        <ele>744.44</ele>
      </trkpt>
      <trkpt lat="41.9370536786" lon="-7.1129405312">
        <ele>744.39</ele>
      </trkpt>
      <trkpt lat="41.9369522575" lon="-7.1131311357">
        <ele>743.07</ele>
      </trkpt>
      <trkpt lat="41.9368700311" lon="-7.1133332234">
        <ele>740.02</ele>
      </trkpt>
      <trkpt lat="41.9368097652" lon="-7.1135450341">
        <ele>738.34</ele>
      </trkpt>
      <trkpt lat="41.9367670175" lon="-7.1137564257">
        <ele>738.37</ele>
      </trkpt>
      <trkpt lat="41.9367324002" lon="-7.1139642131">
        <ele>734.57</ele>
      </trkpt>
      <trkpt lat="41.9366582204" lon="-7.1143491939">
        <ele>732.57</ele>
      </trkpt>
      <trkpt lat="41.9366056658" lon="-7.1145121381">
        <ele>731.53</ele>
      </trkpt>
      <trkpt lat="41.9365329109" lon="-7.1146500204">
        <ele>730.64</ele>
      </trkpt>
      <trkpt lat="41.9364368543" lon="-7.1147516929">
        <ele>729.8</ele>
      </trkpt>
      <trkpt lat="41.9363186695" lon="-7.1148064267">
        <ele>727.85</ele>
      </trkpt>
      <trkpt lat="41.9361796975" lon="-7.1148167364">
        <ele>724.27</ele>
      </trkpt>
      <trkpt lat="41.936026644" lon="-7.1148046665">
        <ele>720.72</ele>
      </trkpt>
      <trkpt lat="41.9357064553" lon="-7.114771558">
        <ele>716.19</ele>
      </trkpt>
      <trkpt lat="41.935547702" lon="-7.1147496812">
        <ele>716.26</ele>
      </trkpt>
      <trkpt lat="41.9353932235" lon="-7.1147102024">
        <ele>713.82</ele>
      </trkpt>
      <trkpt lat="41.9352492224" lon="-7.1146390401">
        <ele>711.8</ele>
      </trkpt>
      <trkpt lat="41.9351198059" lon="-7.114532087">
        <ele>710.09</ele>
      </trkpt>
      <trkpt lat="41.9350040518" lon="-7.1143944561">
        <ele>710.04</ele>
      </trkpt>
      <trkpt lat="41.9349046424" lon="-7.1142289136">
        <ele>708.34</ele>
      </trkpt>
      <trkpt lat="41.9348152913" lon="-7.1140435059">
        <ele>705.92</ele>
      </trkpt>
      <trkpt lat="41.934732059" lon="-7.1138437651">
        <ele>702.8</ele>
      </trkpt>
      <trkpt lat="41.9345702883" lon="-7.1134172939">
        <ele>696.27</ele>
      </trkpt>
      <trkpt lat="41.9344228506" lon="-7.1129764896">
        <ele>692.6</ele>
      </trkpt>
      <trkpt lat="41.9343793485" lon="-7.1127472445">
        <ele>691</ele>
      </trkpt>
      <trkpt lat="41.9343650993" lon="-7.112508947">
        <ele>688.91</ele>
      </trkpt>
      <trkpt lat="41.9343725592" lon="-7.1122635249">
        <ele>686.36</ele>
      </trkpt>
      <trkpt lat="41.9343847129" lon="-7.112020785">
        <ele>683.98</ele>
      </trkpt>
      <trkpt lat="41.9344231859" lon="-7.1113132685">
        <ele>679.44</ele>
      </trkpt>
      <trkpt lat="41.9344562106" lon="-7.1110950038">
        <ele>679.38</ele>
      </trkpt>
      <trkpt lat="41.9345203321" lon="-7.1108884737">
        <ele>679.46</ele>
      </trkpt>
      <trkpt lat="41.9346116949" lon="-7.1107019763">
        <ele>676.21</ele>
      </trkpt>
      <trkpt lat="41.9347209111" lon="-7.1105341706">
        <ele>674.45</ele>
      </trkpt>
      <trkpt lat="41.9348407723" lon="-7.1103917621">
        <ele>674.57</ele>
      </trkpt>
      <trkpt lat="41.9349746313" lon="-7.110282965">
        <ele>672.81</ele>
      </trkpt>
      <trkpt lat="41.9351246674" lon="-7.1102085337">
        <ele>670.2</ele>
      </trkpt>
      <trkpt lat="41.9352845103" lon="-7.1101527102">
        <ele>668.65</ele>
      </trkpt>
      <trkpt lat="41.9356147572" lon="-7.1100428235">
        <ele>663.23</ele>
      </trkpt>
      <trkpt lat="41.9359576609" lon="-7.109925393">
        <ele>657.7</ele>
      </trkpt>
      <trkpt lat="41.9363079406" lon="-7.1097911149">
        <ele>653.59</ele>
      </trkpt>
      <trkpt lat="41.9364732318" lon="-7.1096899454">
        <ele>652.77</ele>
      </trkpt>
      <trkpt lat="41.9367733877" lon="-7.10944972">
        <ele>651.22</ele>
      </trkpt>
      <trkpt lat="41.9369026367" lon="-7.1093157772">
        <ele>651.17</ele>
      </trkpt>
      <trkpt lat="41.937010847" lon="-7.1091655735">
        <ele>651.4</ele>
      </trkpt>
      <trkpt lat="41.9371949974" lon="-7.1088748053">
        <ele>649.73</ele>
      </trkpt>
      <trkpt lat="41.9373024534" lon="-7.1087737195">
        <ele>649.71</ele>
      </trkpt>
      <trkpt lat="41.9374234043" lon="-7.1087164711">
        <ele>649.76</ele>
      </trkpt>
      <trkpt lat="41.9375508092" lon="-7.1086893138">
        <ele>649.76</ele>
      </trkpt>
      <trkpt lat="41.9376758672" lon="-7.1086728852">
        <ele>648.09</ele>
      </trkpt>
      <trkpt lat="41.9377915375" lon="-7.1086490806">
        <ele>648.13</ele>
      </trkpt>
      <trkpt lat="41.9378874265" lon="-7.1085938439">
        <ele>648.16</ele>
      </trkpt>
      <trkpt lat="41.937951548" lon="-7.1084958594">
        <ele>646.32</ele>
      </trkpt>
      <trkpt lat="41.9379817229" lon="-7.1083567198">
        <ele>645.18</ele>
      </trkpt>
      <trkpt lat="41.9379915297" lon="-7.1081925184">
        <ele>643.94</ele>
      </trkpt>
      <trkpt lat="41.9379991572" lon="-7.1080130618">
        <ele>641.09</ele>
      </trkpt>
      <trkpt lat="41.9380253926" lon="-7.1078285761">
        <ele>639.09</ele>
      </trkpt>
      <trkpt lat="41.9380846526" lon="-7.1076461021">
        <ele>636.6</ele>
      </trkpt>
      <trkpt lat="41.9381783623" lon="-7.1074746083">
        <ele>633.71</ele>
      </trkpt>
      <trkpt lat="41.9382955413" lon="-7.1073125023">
        <ele>630.29</ele>
      </trkpt>
      <trkpt lat="41.9384241197" lon="-7.1071531624">
        <ele>627.72</ele>
      </trkpt>
      <trkpt lat="41.9386883173" lon="-7.1068268549">
        <ele>622.57</ele>
      </trkpt>
      <trkpt lat="41.9389533531" lon="-7.1065111924">
        <ele>618.67</ele>
      </trkpt>
      <trkpt lat="41.9390945882" lon="-7.1063819434">
        <ele>616.38</ele>
      </trkpt>
      <trkpt lat="41.9392457977" lon="-7.1062835399">
        <ele>613.63</ele>
      </trkpt>
      <trkpt lat="41.9393935706" lon="-7.1062097792">
        <ele>611.31</ele>
      </trkpt>
      <trkpt lat="41.939524496" lon="-7.1061487589">
        <ele>611.33</ele>
      </trkpt>
      <trkpt lat="41.9396358076" lon="-7.1060874872">
        <ele>614.02</ele>
      </trkpt>
      <trkpt lat="41.9397251587" lon="-7.1060124692">
        <ele>614</ele>
      </trkpt>
      <trkpt lat="41.9397840835" lon="-7.1059124731">
        <ele>613.75</ele>
      </trkpt>
      <trkpt lat="41.939804703" lon="-7.1057874989">
        <ele>613.52</ele>
      </trkpt>
      <trkpt lat="41.9397834968" lon="-7.105648946">
        <ele>610.98</ele>
      </trkpt>
      <trkpt lat="41.9397385698" lon="-7.1054964792">
        <ele>609.05</ele>
      </trkpt>
      <trkpt lat="41.9396860152" lon="-7.1053288411">
        <ele>607.14</ele>
      </trkpt>
      <trkpt lat="41.9396318682" lon="-7.1051524859">
        <ele>603.74</ele>
      </trkpt>
      <trkpt lat="41.9395077322" lon="-7.1047778986">
        <ele>599.17</ele>
      </trkpt>
      <trkpt lat="41.9393501524" lon="-7.104388224">
        <ele>595.22</ele>
      </trkpt>
      <trkpt lat="41.9392514974" lon="-7.1042194124">
        <ele>594.12</ele>
      </trkpt>
      <trkpt lat="41.9391351566" lon="-7.1040936001">
        <ele>593.85</ele>
      </trkpt>
      <trkpt lat="41.9390062429" lon="-7.1040251199">
        <ele>594.19</ele>
      </trkpt>
      <trkpt lat="41.9388703723" lon="-7.104025539">
        <ele>594.14</ele>
      </trkpt>
      <trkpt lat="41.9387340825" lon="-7.1040886547">
        <ele>594.22</ele>
      </trkpt>
      <trkpt lat="41.938606007" lon="-7.1041758265">
        <ele>594.34</ele>
      </trkpt>
      <trkpt lat="41.9382292405" lon="-7.1044158004">
        <ele>599.55</ele>
      </trkpt>
      <trkpt lat="41.9381000753" lon="-7.1044987813">
        <ele>599.4</ele>
      </trkpt>
      <trkpt lat="41.9372794032" lon="-7.1050252486">
        <ele>604.1</ele>
      </trkpt>
      <trkpt lat="41.9371390063" lon="-7.105055172">
        <ele>603.98</ele>
      </trkpt>
      <trkpt lat="41.9369945023" lon="-7.1050438564">
        <ele>605.7</ele>
      </trkpt>
      <trkpt lat="41.9365312345" lon="-7.1049697604">
        <ele>609.49</ele>
      </trkpt>
      <trkpt lat="41.9362119678" lon="-7.1049246658">
        <ele>613.45</ele>
      </trkpt>
      <trkpt lat="41.9360550586" lon="-7.1049154457">
        <ele>615.95</ele>
      </trkpt>
      <trkpt lat="41.9358984008" lon="-7.1049307007">
        <ele>617.65</ele>
      </trkpt>
      <trkpt lat="41.9357429165" lon="-7.1049629711">
        <ele>618.96</ele>
      </trkpt>
      <trkpt lat="41.9352712668" lon="-7.1050429344">
        <ele>623.58</ele>
      </trkpt>
      <trkpt lat="41.9351110887" lon="-7.1050248295">
        <ele>625.01</ele>
      </trkpt>
      <trkpt lat="41.9347909" lon="-7.1049488895">
        <ele>629.38</ele>
      </trkpt>
      <trkpt lat="41.9346335717" lon="-7.1048915572">
        <ele>631.24</ele>
      </trkpt>
      <trkpt lat="41.9344827812" lon="-7.1048079897">
        <ele>632.58</ele>
      </trkpt>
      <trkpt lat="41.9343421329" lon="-7.1046972647">
        <ele>634.07</ele>
      </trkpt>
      <trkpt lat="41.9340738282" lon="-7.1044522617">
        <ele>637.29</ele>
      </trkpt>
      <trkpt lat="41.9339455012" lon="-7.1043390222">
        <ele>640.67</ele>
      </trkpt>
      <trkpt lat="41.9338241313" lon="-7.1042523533">
        <ele>645.08</ele>
      </trkpt>
      <trkpt lat="41.9337101374" lon="-7.1042092703">
        <ele>649.67</ele>
      </trkpt>
      <trkpt lat="41.9336101413" lon="-7.1042189095">
        <ele>652.89</ele>
      </trkpt>
      <trkpt lat="41.9335359614" lon="-7.104284456">
        <ele>654.73</ele>
      </trkpt>
      <trkpt lat="41.9335003383" lon="-7.104391912">
        <ele>657.09</ele>
      </trkpt>
      <trkpt lat="41.9335035235" lon="-7.1045276988">
        <ele>658.09</ele>
      </trkpt>
      <trkpt lat="41.9335379731" lon="-7.1046831831">
        <ele>658.09</ele>
      </trkpt>
      <trkpt lat="41.9335872587" lon="-7.1048563533">
        <ele>658.03</ele>
      </trkpt>
      <trkpt lat="41.9337210339" lon="-7.1053825691">
        <ele>663.99</ele>
      </trkpt>
      <trkpt lat="41.9338279869" lon="-7.1058329288">
        <ele>670.03</ele>
      </trkpt>
      <trkpt lat="41.9338416494" lon="-7.1059853118">
        <ele>669.81</ele>
      </trkpt>
      <trkpt lat="41.9338271488" lon="-7.1061456576">
        <ele>669.85</ele>
      </trkpt>
      <trkpt lat="41.9337758515" lon="-7.106298795">
        <ele>670.87</ele>
      </trkpt>
      <trkpt lat="41.9336933736" lon="-7.106425697">
        <ele>670.99</ele>
      </trkpt>
      <trkpt lat="41.9335881807" lon="-7.1065160539">
        <ele>670.9</ele>
      </trkpt>
      <trkpt lat="41.9334657211" lon="-7.1065608971">
        <ele>673.89</ele>
      </trkpt>
      <trkpt lat="41.933336556" lon="-7.1065600589">
        <ele>674.59</ele>
      </trkpt>
      <trkpt lat="41.9332062174" lon="-7.106530387">
        <ele>676.31</ele>
      </trkpt>
      <trkpt lat="41.9330762979" lon="-7.1064945124">
        <ele>678.41</ele>
      </trkpt>
      <trkpt lat="41.9326518383" lon="-7.1064175665">
        <ele>682.77</ele>
      </trkpt>
      <trkpt lat="41.9324990362" lon="-7.1064267866">
        <ele>682.61</ele>
      </trkpt>
      <trkpt lat="41.9323443063" lon="-7.1064748149">
        <ele>684.96</ele>
      </trkpt>
      <trkpt lat="41.9321920071" lon="-7.1065573767">
        <ele>684.94</ele>
      </trkpt>
      <trkpt lat="41.9320444856" lon="-7.1066593006">
        <ele>685.78</ele>
      </trkpt>
      <trkpt lat="41.9317418151" lon="-7.1068240888">
        <ele>689.54</ele>
      </trkpt>
      <trkpt lat="41.9315776974" lon="-7.1068520006">
        <ele>690.45</ele>
      </trkpt>
      <trkpt lat="41.9314103946" lon="-7.1068533417">
        <ele>691.74</ele>
      </trkpt>
      <trkpt lat="41.9310762081" lon="-7.1068492346">
        <ele>695.38</ele>
      </trkpt>
      <trkpt lat="41.9309100788" lon="-7.1068665013">
        <ele>698.15</ele>
      </trkpt>
      <trkpt lat="41.9307485595" lon="-7.1069132723">
        <ele>701.2</ele>
      </trkpt>
      <trkpt lat="41.9305989426" lon="-7.107004635">
        <ele>702.21</ele>
      </trkpt>
      <trkpt lat="41.9304624014" lon="-7.1071359795">
        <ele>703.52</ele>
      </trkpt>
      <trkpt lat="41.930332901" lon="-7.1072840877">
        <ele>706.24</ele>
      </trkpt>
      <trkpt lat="41.9300966989" lon="-7.1075462736">
        <ele>711.33</ele>
      </trkpt>
      <trkpt lat="41.9299791008" lon="-7.1076238062">
        <ele>714.72</ele>
      </trkpt>
      <trkpt lat="41.9298524503" lon="-7.1076520532">
        <ele>715.28</ele>
      </trkpt>
      <trkpt lat="41.9297180884" lon="-7.1076340321">
        <ele>715.28</ele>
      </trkpt>
      <trkpt lat="41.9295789488" lon="-7.107587764">
        <ele>715.26</ele>
      </trkpt>
      <trkpt lat="41.9294354506" lon="-7.1075309347">
        <ele>716.94</ele>
      </trkpt>
      <trkpt lat="41.9291452691" lon="-7.1073758695">
        <ele>717.98</ele>
      </trkpt>
      <trkpt lat="41.9290109072" lon="-7.1072521526">
        <ele>718.72</ele>
      </trkpt>
      <trkpt lat="41.9288855139" lon="-7.1071003564">
        <ele>719.55</ele>
      </trkpt>
      <trkpt lat="41.9286426902" lon="-7.106780922">
        <ele>723.03</ele>
      </trkpt>
      <trkpt lat="41.9284173846" lon="-7.1064700373">
        <ele>726.95</ele>
      </trkpt>
      <trkpt lat="41.9283244293" lon="-7.1063058358">
        <ele>730.02</ele>
      </trkpt>
      <trkpt lat="41.9282521773" lon="-7.1061312407">
        <ele>730.06</ele>
      </trkpt>
      <trkpt lat="41.9282010477" lon="-7.1059399657">
        <ele>731.25</ele>
      </trkpt>
      <trkpt lat="41.9281686936" lon="-7.1057373751">
        <ele>732.51</ele>
      </trkpt>
      <trkpt lat="41.9281477388" lon="-7.1055341139">
        <ele>734.29</ele>
      </trkpt>
      <trkpt lat="41.9281225093" lon="-7.1053505503">
        <ele>738.01</ele>
      </trkpt>
      <trkpt lat="41.9280755706" lon="-7.1052003466">
        <ele>740.26</ele>
      </trkpt>
      <trkpt lat="41.9280010555" lon="-7.1051030327">
        <ele>742.25</ele>
      </trkpt>
      <trkpt lat="41.9279068429" lon="-7.1050729416">
        <ele>743.36</ele>
      </trkpt>
      <trkpt lat="41.9278046675" lon="-7.1051080618">
        <ele>743.49</ele>
      </trkpt>
      <trkpt lat="41.9276990555" lon="-7.1051912103">
        <ele>743.26</ele>
      </trkpt>
      <trkpt lat="41.9275870733" lon="-7.1052973252">
        <ele>743.44</ele>
      </trkpt>
      <trkpt lat="41.9269237295" lon="-7.1058204398">
        <ele>745.33</ele>
      </trkpt>
      <trkpt lat="41.9264925644" lon="-7.106149178">
        <ele>748.72</ele>
      </trkpt>
      <trkpt lat="41.9263400976" lon="-7.1062578075">
        <ele>748.67</ele>
      </trkpt>
      <trkpt lat="41.9260424562" lon="-7.1064933389">
        <ele>749.45</ele>
      </trkpt>
      <trkpt lat="41.925921673" lon="-7.1066410281">
        <ele>752.83</ele>
      </trkpt>
      <trkpt lat="41.9258334953" lon="-7.1068119351">
        <ele>755</ele>
      </trkpt>
      <trkpt lat="41.9257823657" lon="-7.1070032939">
        <ele>754.96</ele>
      </trkpt>
      <trkpt lat="41.9257593155" lon="-7.1072058845">
        <ele>754.93</ele>
      </trkpt>
      <trkpt lat="41.9257392827" lon="-7.1074005123">
        <ele>757.24</ele>
      </trkpt>
      <trkpt lat="41.9257070962" lon="-7.1075730957">
        <ele>757.18</ele>
      </trkpt>
      <trkpt lat="41.925653955" lon="-7.1077123191">
        <ele>759.32</ele>
      </trkpt>
      <trkpt lat="41.9255775958" lon="-7.1078115609">
        <ele>759.22</ele>
      </trkpt>
      <trkpt lat="41.9254781865" lon="-7.107874006">
        <ele>759.3</ele>
      </trkpt>
      <trkpt lat="41.9253608398" lon="-7.1079075336">
        <ele>759.29</ele>
      </trkpt>
      <trkpt lat="41.9252362009" lon="-7.1079318412">
        <ele>756.66</ele>
      </trkpt>
      <trkpt lat="41.9249730092" lon="-7.10798054">
        <ele>755.84</ele>
      </trkpt>
      <trkpt lat="41.924709063" lon="-7.1080089547">
        <ele>755.77</ele>
      </trkpt>
      <trkpt lat="41.9245882798" lon="-7.107983809">
        <ele>755.77</ele>
      </trkpt>
      <trkpt lat="41.9244832546" lon="-7.1079179272">
        <ele>755.78</ele>
      </trkpt>
      <trkpt lat="41.924389964" lon="-7.107819356">
        <ele>755.77</ele>
      </trkpt>
      <trkpt lat="41.9243030436" lon="-7.1076971479">
        <ele>755.78</ele>
      </trkpt>
      <trkpt lat="41.9242209848" lon="-7.1075597685">
        <ele>755.75</ele>
      </trkpt>
      <trkpt lat="41.9241400156" lon="-7.1074127499">
        <ele>755.74</ele>
      </trkpt>
      <trkpt lat="41.9239695277" lon="-7.1071104985">
        <ele>758.06</ele>
      </trkpt>
      <trkpt lat="41.9237913284" lon="-7.106790226">
        <ele>760.41</ele>
      </trkpt>
      <trkpt lat="41.9236362632" lon="-7.1064912435">
        <ele>765.15</ele>
      </trkpt>
      <trkpt lat="41.9235951919" lon="-7.1063688677">
        <ele>768.28</ele>
      </trkpt>
      <trkpt lat="41.9235889055" lon="-7.1062623337">
        <ele>770.2</ele>
      </trkpt>
      <trkpt lat="41.9236204214" lon="-7.1061760839">
        <ele>771.88</ele>
      </trkpt>
      <trkpt lat="41.9236831181" lon="-7.1061257087">
        <ele>772.97</ele>
      </trkpt>
      <trkpt lat="41.9237681944" lon="-7.1061184164">
        <ele>774.12</ele>
      </trkpt>
      <trkpt lat="41.923868861" lon="-7.1061438974">
        <ele>774.12</ele>
      </trkpt>
      <trkpt lat="41.9239811786" lon="-7.1061790176">
        <ele>774.18</ele>
      </trkpt>
      <trkpt lat="41.9246630464" lon="-7.1063207556">
        <ele>777.89</ele>
      </trkpt>
      <trkpt lat="41.9247975759" lon="-7.1062966995">
        <ele>779.94</ele>
      </trkpt>
      <trkpt lat="41.9249136653" lon="-7.1062249504">
        <ele>781.84</ele>
      </trkpt>
      <trkpt lat="41.925011063" lon="-7.1061091963">
        <ele>783.81</ele>
      </trkpt>
      <trkpt lat="41.9250933733" lon="-7.1059609205">
        <ele>783.77</ele>
      </trkpt>
      <trkpt lat="41.9251734205" lon="-7.1057978086">
        <ele>784.97</ele>
      </trkpt>
      <trkpt lat="41.9257637579" lon="-7.1047472209">
        <ele>788.82</ele>
      </trkpt>
      <trkpt lat="41.9260024745" lon="-7.1044056583">
        <ele>791.93</ele>
      </trkpt>
      <trkpt lat="41.9263654947" lon="-7.1038715634">
        <ele>797</ele>
      </trkpt>
      <trkpt lat="41.9267379027" lon="-7.1033292543">
        <ele>801.61</ele>
      </trkpt>
      <trkpt lat="41.9270181935" lon="-7.1030039527">
        <ele>804.42</ele>
      </trkpt>
      <trkpt lat="41.927184239" lon="-7.1028812416">
        <ele>805.48</ele>
      </trkpt>
      <trkpt lat="41.9273592532" lon="-7.1027768869">
        <ele>805.37</ele>
      </trkpt>
      <trkpt lat="41.9275332615" lon="-7.1026737895">
        <ele>808.9</ele>
      </trkpt>
      <trkpt lat="41.9280433003" lon="-7.1023650002">
        <ele>814.19</ele>
      </trkpt>
      <trkpt lat="41.928527439" lon="-7.1020644251">
        <ele>816.55</ele>
      </trkpt>
      <trkpt lat="41.9286764693" lon="-7.1019639261">
        <ele>819.78</ele>
      </trkpt>
      <trkpt lat="41.9288060535" lon="-7.1018564701">
        <ele>821.93</ele>
      </trkpt>
      <trkpt lat="41.9289085642" lon="-7.1017324179">
        <ele>825.72</ele>
      </trkpt>
      <trkpt lat="41.9289775472" lon="-7.101585567">
        <ele>828.16</ele>
      </trkpt>
      <trkpt lat="41.9290099014" lon="-7.1014134027">
        <ele>828.13</ele>
      </trkpt>
      <trkpt lat="41.9290078059" lon="-7.1012221277">
        <ele>829.66</ele>
      </trkpt>
      <trkpt lat="41.9289826602" lon="-7.1010168549">
        <ele>829.57</ele>
      </trkpt>
      <trkpt lat="41.9289497193" lon="-7.1007993445">
        <ele>829.64</ele>
      </trkpt>
      <trkpt lat="41.9289177004" lon="-7.1005714405">
        <ele>825.03</ele>
      </trkpt>
      <trkpt lat="41.9288849272" lon="-7.1003363281">
        <ele>827.42</ele>
      </trkpt>
      <trkpt lat="41.9288510643" lon="-7.1000973601">
        <ele>833.94</ele>
      </trkpt>
      <trkpt lat="41.9287818298" lon="-7.0996183343">
        <ele>827.29</ele>
      </trkpt>
      <trkpt lat="41.9287488051" lon="-7.0993855689">
        <ele>830.94</ele>
      </trkpt>
      <trkpt lat="41.9287179597" lon="-7.0991575811">
        <ele>839.18</ele>
      </trkpt>
      <trkpt lat="41.9286873657" lon="-7.0989342872">
        <ele>838.86</ele>
      </trkpt>
      <trkpt lat="41.9285324682" lon="-7.0979063306">
        <ele>846.5</ele>
      </trkpt>
      <trkpt lat="41.9285021257" lon="-7.0977158938">
        <ele>846.52</ele>
      </trkpt>
      <trkpt lat="41.9283867907" lon="-7.0969408192">
        <ele>852.51</ele>
      </trkpt>
      <trkpt lat="41.9283589628" lon="-7.0967390668">
        <ele>852.51</ele>
      </trkpt>
      <trkpt lat="41.9283309672" lon="-7.0965347998">
        <ele>843.8</ele>
      </trkpt>
      <trkpt lat="41.9283066597" lon="-7.0963291917">
        <ele>854.78</ele>
      </trkpt>
      <trkpt lat="41.9282904826" lon="-7.0961208176">
        <ele>854.6</ele>
      </trkpt>
      <trkpt lat="41.9282883871" lon="-7.0959090907">
        <ele>854.63</ele>
      </trkpt>
      <trkpt lat="41.9283058215" lon="-7.0956948493">
        <ele>854.63</ele>
      </trkpt>
      <trkpt lat="41.9283355772" lon="-7.0954806078">
        <ele>854.63</ele>
      </trkpt>
      <trkpt lat="41.9284603838" lon="-7.0946654677">
        <ele>858.82</ele>
      </trkpt>
      <trkpt lat="41.9284587074" lon="-7.0944749471">
        <ele>858.89</ele>
      </trkpt>
      <trkpt lat="41.9284368306" lon="-7.0942861028">
        <ele>858.86</ele>
      </trkpt>
      <trkpt lat="41.9284003694" lon="-7.0940973423">
        <ele>855.14</ele>
      </trkpt>
      <trkpt lat="41.9283561129" lon="-7.0939076599">
        <ele>855.13</ele>
      </trkpt>
      <trkpt lat="41.9282612298" lon="-7.0935281273">
        <ele>851.06</ele>
      </trkpt>
      <trkpt lat="41.9281614013" lon="-7.093147086">
        <ele>848.95</ele>
      </trkpt>
      <trkpt lat="41.9280096889" lon="-7.092624139">
        <ele>846.09</ele>
      </trkpt>
      <trkpt lat="41.9279749878" lon="-7.0924612787">
        <ele>846.12</ele>
      </trkpt>
      <trkpt lat="41.9279624987" lon="-7.0923025254">
        <ele>846.12</ele>
      </trkpt>
      <trkpt lat="41.9279805198" lon="-7.0921534114">
        <ele>844.84</ele>
      </trkpt>
      <trkpt lat="41.9280334935" lon="-7.0920205582">
        <ele>843.11</ele>
      </trkpt>
      <trkpt lat="41.9281183183" lon="-7.0919058938">
        <ele>840.95</ele>
      </trkpt>
      <trkpt lat="41.9282183982" lon="-7.0918000303">
        <ele>838.56</ele>
      </trkpt>
      <trkpt lat="41.9283074141" lon="-7.0916815102">
        <ele>836.7</ele>
      </trkpt>
      <trkpt lat="41.9283694401" lon="-7.0915387664">
        <ele>836.59</ele>
      </trkpt>
      <trkpt lat="41.928401459" lon="-7.0913735591">
        <ele>834.69</ele>
      </trkpt>
      <trkpt lat="41.9284105953" lon="-7.0911940187">
        <ele>832.93</ele>
      </trkpt>
      <trkpt lat="41.9284087513" lon="-7.0910073537">
        <ele>830.98</ele>
      </trkpt>
      <trkpt lat="41.9284006208" lon="-7.0904476941">
        <ele>827.08</ele>
      </trkpt>
      <trkpt lat="41.928336164" lon="-7.089891471">
        <ele>823</ele>
      </trkpt>
      <trkpt lat="41.9282975234" lon="-7.0897130203">
        <ele>823.15</ele>
      </trkpt>
      <trkpt lat="41.9282153808" lon="-7.0893684402">
        <ele>818.19</ele>
      </trkpt>
      <trkpt lat="41.9281835295" lon="-7.0892002154">
        <ele>818.07</ele>
      </trkpt>
      <trkpt lat="41.9281699508" lon="-7.0890335832">
        <ele>824.44</ele>
      </trkpt>
      <trkpt lat="41.9281788357" lon="-7.0888698008">
        <ele>819.67</ele>
      </trkpt>
      <trkpt lat="41.9282098487" lon="-7.088713143">
        <ele>819.55</ele>
      </trkpt>
      <trkpt lat="41.9282584637" lon="-7.0885645319">
        <ele>816.92</ele>
      </trkpt>
      <trkpt lat="41.9283235073" lon="-7.0884206984">
        <ele>820.1</ele>
      </trkpt>
      <trkpt lat="41.9284002017" lon="-7.088279631">
        <ele>816.83</ele>
      </trkpt>
      <trkpt lat="41.928482512" lon="-7.0881375577">
        <ele>816.75</ele>
      </trkpt>
      <trkpt lat="41.928565409" lon="-7.0879921317">
        <ele>810.32</ele>
      </trkpt>
      <trkpt lat="41.928647384" lon="-7.087844694">
        <ele>813.34</ele>
      </trkpt>
      <trkpt lat="41.9288047962" lon="-7.0875514951">
        <ele>808.19</ele>
      </trkpt>
      <trkpt lat="41.928864643" lon="-7.087400537">
        <ele>810.83</ele>
      </trkpt>
      <trkpt lat="41.9288911298" lon="-7.0872395206">
        <ele>810.81</ele>
      </trkpt>
      <trkpt lat="41.9288722705" lon="-7.0870769117">
        <ele>807.85</ele>
      </trkpt>
      <trkpt lat="41.9288156088" lon="-7.0869169012">
        <ele>806.32</ele>
      </trkpt>
      <trkpt lat="41.9287364837" lon="-7.0867568068">
        <ele>804</ele>
      </trkpt>
      <trkpt lat="41.9286459591" lon="-7.0865926892">
        <ele>797.91</ele>
      </trkpt>
      <trkpt lat="41.9285513274" lon="-7.0864240453">
        <ele>800.39</ele>
      </trkpt>
      <trkpt lat="41.9284565281" lon="-7.0862543955">
        <ele>793.01</ele>
      </trkpt>
      <trkpt lat="41.9283619802" lon="-7.0860844105">
        <ele>797.52</ele>
      </trkpt>
      <trkpt lat="41.9282697793" lon="-7.0859157667">
        <ele>791.33</ele>
      </trkpt>
      <trkpt lat="41.9281798415" lon="-7.0857503917">
        <ele>795.59</ele>
      </trkpt>
      <trkpt lat="41.9280912448" lon="-7.0855881181">
        <ele>789.08</ele>
      </trkpt>
      <trkpt lat="41.9280028157" lon="-7.0854317956">
        <ele>796.16</ele>
      </trkpt>
      <trkpt lat="41.9279111177" lon="-7.0852845255">
        <ele>792.1</ele>
      </trkpt>
      <trkpt lat="41.9278138038" lon="-7.0851510018">
        <ele>792.25</ele>
      </trkpt>
      <trkpt lat="41.9277104549" lon="-7.0850335713">
        <ele>792.28</ele>
      </trkpt>
      <trkpt lat="41.9276029151" lon="-7.0849249419">
        <ele>787.66</ele>
      </trkpt>
      <trkpt lat="41.9274912681" lon="-7.084818827">
        <ele>787.52</ele>
      </trkpt>
      <trkpt lat="41.927114334" lon="-7.0844708942">
        <ele>783.69</ele>
      </trkpt>
      <trkpt lat="41.9268488791" lon="-7.0842132345">
        <ele>780.87</ele>
      </trkpt>
      <trkpt lat="41.9267296884" lon="-7.0840752684">
        <ele>779.95</ele>
      </trkpt>
      <trkpt lat="41.926628435" lon="-7.0839197002">
        <ele>779.1</ele>
      </trkpt>
      <trkpt lat="41.9265519083" lon="-7.0837444346">
        <ele>779.1</ele>
      </trkpt>
      <trkpt lat="41.926501533" lon="-7.0835456997">
        <ele>775.87</ele>
      </trkpt>
      <trkpt lat="41.9264791533" lon="-7.0833285246">
        <ele>774.55</ele>
      </trkpt>
      <trkpt lat="41.9264720287" lon="-7.0831112657">
        <ele>774.58</ele>
      </trkpt>
      <trkpt lat="41.926442273" lon="-7.0827304758">
        <ele>774.61</ele>
      </trkpt>
      <trkpt lat="41.926400112" lon="-7.0825791825">
        <ele>777.94</ele>
      </trkpt>
      <trkpt lat="41.9263353199" lon="-7.0824613329">
        <ele>777.98</ele>
      </trkpt>
      <trkpt lat="41.9262543507" lon="-7.082382543">
        <ele>779.92</ele>
      </trkpt>
      <trkpt lat="41.9261587132" lon="-7.0823607501">
        <ele>779.88</ele>
      </trkpt>
      <trkpt lat="41.9260533527" lon="-7.0823971275">
        <ele>779.93</ele>
      </trkpt>
      <trkpt lat="41.9259576313" lon="-7.0824952796">
        <ele>779.87</ele>
      </trkpt>
      <trkpt lat="41.925877165" lon="-7.0826402865">
        <ele>779.89</ele>
      </trkpt>
      <trkpt lat="41.9258011412" lon="-7.082816558">
        <ele>779.94</ele>
      </trkpt>
      <trkpt lat="41.9256412983" lon="-7.0832012873">
        <ele>777.36</ele>
      </trkpt>
      <trkpt lat="41.9255717285" lon="-7.0833856054">
        <ele>782.44</ele>
      </trkpt>
      <trkpt lat="41.9255313277" lon="-7.083572438">
        <ele>784.11</ele>
      </trkpt>
      <trkpt lat="41.9255327526" lon="-7.0837659761">
        <ele>784.17</ele>
      </trkpt>
      <trkpt lat="41.9255671185" lon="-7.0839673933">
        <ele>785.04</ele>
      </trkpt>
      <trkpt lat="41.9256234448" lon="-7.0841751806">
        <ele>785.04</ele>
      </trkpt>
      <trkpt lat="41.9256955292" lon="-7.0843873266">
        <ele>785.04</ele>
      </trkpt>
      <trkpt lat="41.9257788453" lon="-7.084603915">
        <ele>785.08</ele>
      </trkpt>
      <trkpt lat="41.9262582902" lon="-7.0857142657">
        <ele>789.34</ele>
      </trkpt>
      <trkpt lat="41.9263581187" lon="-7.085909145">
        <ele>793.47</ele>
      </trkpt>
      <trkpt lat="41.9264395069" lon="-7.086094385">
        <ele>796.33</ele>
      </trkpt>
      <trkpt lat="41.9265005272" lon="-7.0862825587">
        <ele>798.7</ele>
      </trkpt>
      <trkpt lat="41.9265350606" lon="-7.0864800364">
        <ele>798.71</ele>
      </trkpt>
      <trkpt lat="41.9265327975" lon="-7.0866766758">
        <ele>800.94</ele>
      </trkpt>
      <trkpt lat="41.9264911395" lon="-7.0868479181">
        <ele>803.47</ele>
      </trkpt>
      <trkpt lat="41.926411679" lon="-7.0869814418">
        <ele>805.54</ele>
      </trkpt>
      <trkpt lat="41.9262961764" lon="-7.0870810188">
        <ele>805.63</ele>
      </trkpt>
      <trkpt lat="41.9261511695" lon="-7.0871516783">
        <ele>805.68</ele>
      </trkpt>
      <trkpt lat="41.9259884767" lon="-7.0872117765">
        <ele>805.61</ele>
      </trkpt>
      <trkpt lat="41.9245489687" lon="-7.0877339691">
        <ele>805.66</ele>
      </trkpt>
      <trkpt lat="41.9238365907" lon="-7.0879700873">
        <ele>808.91</ele>
      </trkpt>
      <trkpt lat="41.9236167334" lon="-7.0880291797">
        <ele>812.31</ele>
      </trkpt>
      <trkpt lat="41.9234029949" lon="-7.0880622044">
        <ele>815.55</ele>
      </trkpt>
      <trkpt lat="41.9231902622" lon="-7.0880570076">
        <ele>815.55</ele>
      </trkpt>
      <trkpt lat="41.9229767751" lon="-7.0880083926">
        <ele>815.55</ele>
      </trkpt>
      <trkpt lat="41.9227632042" lon="-7.087920215">
        <ele>815.58</ele>
      </trkpt>
      <trkpt lat="41.9225471187" lon="-7.0878133457">
        <ele>815.56</ele>
      </trkpt>
      <trkpt lat="41.9218706153" lon="-7.0874877088">
        <ele>817.23</ele>
      </trkpt>
      <trkpt lat="41.9211633503" lon="-7.0871378481">
        <ele>821.96</ele>
      </trkpt>
      <trkpt lat="41.9209543895" lon="-7.0870339125">
        <ele>826.43</ele>
      </trkpt>
      <trkpt lat="41.9207614381" lon="-7.086940119">
        <ele>831.22</ele>
      </trkpt>
      <trkpt lat="41.9204339571" lon="-7.0867718942">
        <ele>838.73</ele>
      </trkpt>
      <trkpt lat="41.9202135131" lon="-7.0866473392">
        <ele>844.34</ele>
      </trkpt>
      <trkpt lat="41.9200843479" lon="-7.0865608379">
        <ele>847.07</ele>
      </trkpt>
      <trkpt lat="41.9200555142" lon="-7.0865107141">
        <ele>847.05</ele>
      </trkpt>
      <trkpt lat="41.9200489763" lon="-7.086456567">
        <ele>847.05</ele>
      </trkpt>
      <trkpt lat="41.9200586993" lon="-7.0863993187">
        <ele>847.99</ele>
      </trkpt>
      <trkpt lat="41.9200774748" lon="-7.0863368735">
        <ele>847.98</ele>
      </trkpt>
      <trkpt lat="41.9200963341" lon="-7.086266214">
        <ele>847.98</ele>
      </trkpt>
      <trkpt lat="41.9201133493" lon="-7.0861864183">
        <ele>847.96</ele>
      </trkpt>
      <trkpt lat="41.9201384112" lon="-7.0860013459">
        <ele>847.94</ele>
      </trkpt>
      <trkpt lat="41.9201401714" lon="-7.0859017689">
        <ele>848.05</ele>
      </trkpt>
      <trkpt lat="41.9201343041" lon="-7.0858068857">
        <ele>847.91</ele>
      </trkpt>
      <trkpt lat="41.9201235753" lon="-7.085726168">
        <ele>849.26</ele>
      </trkpt>
      <trkpt lat="41.9201110862" lon="-7.0856562629">
        <ele>849.94</ele>
      </trkpt>
      <trkpt lat="41.9200965017" lon="-7.0855894592">
        <ele>849.69</ele>
      </trkpt>
      <trkpt lat="41.9200493116" lon="-7.0854493976">
        <ele>850.11</ele>
      </trkpt>
      <trkpt lat="41.9200123474" lon="-7.0853788219">
        <ele>850.11</ele>
      </trkpt>
      <trkpt lat="41.9199651573" lon="-7.0853090845">
        <ele>850.13</ele>
      </trkpt>
      <trkpt lat="41.9199078251" lon="-7.0852433704">
        <ele>850.11</ele>
      </trkpt>
      <trkpt lat="41.9198414404" lon="-7.085182853">
        <ele>850.11</ele>
      </trkpt>
      <trkpt lat="41.9197685178" lon="-7.085129125">
        <ele>850.11</ele>
      </trkpt>
      <trkpt lat="41.9196913205" lon="-7.0850836113">
        <ele>850.11</ele>
      </trkpt>
      <trkpt lat="41.9196135364" lon="-7.0850409474">
        <ele>850.11</ele>
      </trkpt>
      <trkpt lat="41.919546565" lon="-7.0849925">
        <ele>851.09</ele>
      </trkpt>
      <trkpt lat="41.9195039012" lon="-7.0849314798">
        <ele>851.08</ele>
      </trkpt>
      <trkpt lat="41.9194946811" lon="-7.0848599821">
        <ele>853.44</ele>
      </trkpt>
      <trkpt lat="41.9195230957" lon="-7.0847930945">
        <ele>853.44</ele>
      </trkpt>
      <trkpt lat="41.9195752311" lon="-7.084745653">
        <ele>853.46</ele>
      </trkpt>
      <trkpt lat="41.9196450524" lon="-7.0847162325">
        <ele>854.36</ele>
      </trkpt>
      <trkpt lat="41.9197260216" lon="-7.0846913382">
        <ele>854.38</ele>
      </trkpt>
      <trkpt lat="41.9198147021" lon="-7.084659487">
        <ele>854.36</ele>
      </trkpt>
      <trkpt lat="41.9203244895" lon="-7.0844113827">
        <ele>858.05</ele>
      </trkpt>
      <trkpt lat="41.9204337895" lon="-7.0843465906">
        <ele>858.05</ele>
      </trkpt>
      <trkpt lat="41.9210392144" lon="-7.0838325284">
        <ele>859.97</ele>
      </trkpt>
      <trkpt lat="41.9215967786" lon="-7.0832867827">
        <ele>864.22</ele>
      </trkpt>
      <trkpt lat="41.9218664244" lon="-7.0829951763">
        <ele>868.37</ele>
      </trkpt>
      <trkpt lat="41.9219781552" lon="-7.0828265324">
        <ele>870.16</ele>
      </trkpt>
      <trkpt lat="41.9220734574" lon="-7.08263685">
        <ele>873.34</ele>
      </trkpt>
      <trkpt lat="41.9221609645" lon="-7.082433505">
        <ele>873.35</ele>
      </trkpt>
      <trkpt lat="41.922332542" lon="-7.0820211153">
        <ele>877.42</ele>
      </trkpt>
      <trkpt lat="41.9224278443" lon="-7.0818409044">
        <ele>881.4</ele>
      </trkpt>
      <trkpt lat="41.9225439336" lon="-7.0816932153">
        <ele>883.79</ele>
      </trkpt>
      <trkpt lat="41.9226787146" lon="-7.0815785509">
        <ele>886.55</ele>
      </trkpt>
      <trkpt lat="41.9228159264" lon="-7.0814961568">
        <ele>889.78</ele>
      </trkpt>
      <trkpt lat="41.9229396433" lon="-7.0814303588">
        <ele>894.03</ele>
      </trkpt>
      <trkpt lat="41.9230373763" lon="-7.0813593641">
        <ele>896.81</ele>
      </trkpt>
      <trkpt lat="41.9231069461" lon="-7.0812723599">
        <ele>899.8</ele>
      </trkpt>
      <trkpt lat="41.9231624343" lon="-7.0811724477">
        <ele>900.76</ele>
      </trkpt>
      <trkpt lat="41.9233480096" lon="-7.0808665082">
        <ele>904.66</ele>
      </trkpt>
      <trkpt lat="41.9235043321" lon="-7.0805355068">
        <ele>907.13</ele>
      </trkpt>
      <trkpt lat="41.9235716388" lon="-7.0803102851">
        <ele>911.12</ele>
      </trkpt>
      <trkpt lat="41.9236011431" lon="-7.080194531">
        <ele>911.14</ele>
      </trkpt>
      <trkpt lat="41.9236536138" lon="-7.0797103923">
        <ele>915.57</ele>
      </trkpt>
      <trkpt lat="41.9236547034" lon="-7.0795892738">
        <ele>916.86</ele>
      </trkpt>
      <trkpt lat="41.9236231036" lon="-7.0792224817">
        <ele>919.48</ele>
      </trkpt>
      <trkpt lat="41.9235288911" lon="-7.0788992755">
        <ele>923.04</ele>
      </trkpt>
      <trkpt lat="41.9234174956" lon="-7.0787748881">
        <ele>924.62</ele>
      </trkpt>
      <trkpt lat="41.9232909288" lon="-7.0787310507">
        <ele>926.23</ele>
      </trkpt>
      <trkpt lat="41.9228778686" lon="-7.0786346588">
        <ele>928.28</ele>
      </trkpt>
      <trkpt lat="41.9224845897" lon="-7.0785020571">
        <ele>931.18</ele>
      </trkpt>
      <trkpt lat="41.9223232381" lon="-7.0784492511">
        <ele>934.57</ele>
      </trkpt>
      <trkpt lat="41.9222424366" lon="-7.0784333255">
        <ele>934.56</ele>
      </trkpt>
      <trkpt lat="41.9221591204" lon="-7.078423351">
        <ele>935.77</ele>
      </trkpt>
      <trkpt lat="41.9219261035" lon="-7.0783205889">
        <ele>938.17</ele>
      </trkpt>
      <trkpt lat="41.9217978604" lon="-7.078062091">
        <ele>941.9</ele>
      </trkpt>
      <trkpt lat="41.9217993692" lon="-7.0779614244">
        <ele>941.73</ele>
      </trkpt>
      <trkpt lat="41.9218627363" lon="-7.0777460933">
        <ele>944.23</ele>
      </trkpt>
      <trkpt lat="41.9219443761" lon="-7.0775181055">
        <ele>945.1</ele>
      </trkpt>
      <trkpt lat="41.9219774846" lon="-7.0773976576">
        <ele>947.71</ele>
      </trkpt>
      <trkpt lat="41.9219890516" lon="-7.0769212302">
        <ele>951.27</ele>
      </trkpt>
      <trkpt lat="41.9219709467" lon="-7.076792568">
        <ele>951.26</ele>
      </trkpt>
      <trkpt lat="41.9218782429" lon="-7.0761189144">
        <ele>953.33</ele>
      </trkpt>
      <trkpt lat="41.9218521751" lon="-7.0759922639">
        <ele>954.96</ele>
      </trkpt>
      <trkpt lat="41.9217542745" lon="-7.0756913535">
        <ele>957.08</ele>
      </trkpt>
      <trkpt lat="41.9215848763" lon="-7.0752072148">
        <ele>960.11</ele>
      </trkpt>
      <trkpt lat="41.9215533603" lon="-7.075104285">
        <ele>960.11</ele>
      </trkpt>
      <trkpt lat="41.9214733131" lon="-7.0749168657">
        <ele>961.92</ele>
      </trkpt>
      <trkpt lat="41.9212555513" lon="-7.0747960825">
        <ele>963.18</ele>
      </trkpt>
      <trkpt lat="41.9211637694" lon="-7.074818043">
        <ele>963.13</ele>
      </trkpt>
      <trkpt lat="41.9206709974" lon="-7.074840758">
        <ele>966.83</ele>
      </trkpt>
      <trkpt lat="41.9206139166" lon="-7.0747276861">
        <ele>970.22</ele>
      </trkpt>
      <trkpt lat="41.9206296746" lon="-7.0746562723">
        <ele>970.27</ele>
      </trkpt>
      <trkpt lat="41.9207353704" lon="-7.0743528474">
        <ele>971.82</ele>
      </trkpt>
      <trkpt lat="41.9208451733" lon="-7.0739681181">
        <ele>974.76</ele>
      </trkpt>
      <trkpt lat="41.9208753482" lon="-7.0737223607">
        <ele>977.11</ele>
      </trkpt>
      <trkpt lat="41.9208542258" lon="-7.0734845661">
        <ele>981.25</ele>
      </trkpt>
      <trkpt lat="41.9208080415" lon="-7.0732985716">
        <ele>984.89</ele>
      </trkpt>
      <trkpt lat="41.920726737" lon="-7.0731712505">
        <ele>987.9</ele>
      </trkpt>
      <trkpt lat="41.9206098095" lon="-7.0730731823">
        <ele>990.42</ele>
      </trkpt>
      <trkpt lat="41.9201758783" lon="-7.0727634709">
        <ele>994.05</ele>
      </trkpt>
      <trkpt lat="41.9199659955" lon="-7.0725957491">
        <ele>997.19</ele>
      </trkpt>
      <trkpt lat="41.9198411889" lon="-7.0724954177">
        <ele>998.92</ele>
      </trkpt>
      <trkpt lat="41.9195845351" lon="-7.0722782426">
        <ele>1002.11</ele>
      </trkpt>
      <trkpt lat="41.9195202459" lon="-7.0722180605">
        <ele>1003.44</ele>
      </trkpt>
      <trkpt lat="41.91940533" lon="-7.0719158091">
        <ele>1008.43</ele>
      </trkpt>
      <trkpt lat="41.9194339123" lon="-7.0718321577">
        <ele>1009.67</ele>
      </trkpt>
      <trkpt lat="41.9195245206" lon="-7.071565697">
        <ele>1011.97</ele>
      </trkpt>
      <trkpt lat="41.9195017219" lon="-7.0713987295">
        <ele>1016.43</ele>
      </trkpt>
      <trkpt lat="41.9194578007" lon="-7.0713345241">
        <ele>1016.32</ele>
      </trkpt>
      <trkpt lat="41.9192748237" lon="-7.0712137409">
        <ele>1019.42</ele>
      </trkpt>
      <trkpt lat="41.9190257136" lon="-7.0710340329">
        <ele>1023.73</ele>
      </trkpt>
      <trkpt lat="41.9189805351" lon="-7.0707596932">
        <ele>1027.72</ele>
      </trkpt>
      <trkpt lat="41.9189887494" lon="-7.0704529993">
        <ele>1029.77</ele>
      </trkpt>
      <trkpt lat="41.9187330175" lon="-7.0695347618">
        <ele>1031.64</ele>
      </trkpt>
      <trkpt lat="41.9186663814" lon="-7.0691056084">
        <ele>1027.81</ele>
      </trkpt>
      <trkpt lat="41.9186492823" lon="-7.0689954702">
        <ele>1024.36</ele>
      </trkpt>
      <trkpt lat="41.9185372163" lon="-7.0686974935">
        <ele>1022.76</ele>
      </trkpt>
      <trkpt lat="41.9184682332" lon="-7.0686316956">
        <ele>1022.76</ele>
      </trkpt>
      <trkpt lat="41.9181703404" lon="-7.0682428591">
        <ele>1025.08</ele>
      </trkpt>
      <trkpt lat="41.9180499762" lon="-7.0678999554">
        <ele>1026.96</ele>
      </trkpt>
      <trkpt lat="41.9180025347" lon="-7.0677890629">
        <ele>1026.96</ele>
      </trkpt>
      <trkpt lat="41.9175460562" lon="-7.0669556502">
        <ele>1027.86</ele>
      </trkpt>
      <trkpt lat="41.9174266141" lon="-7.0665650535">
        <ele>1029.24</ele>
      </trkpt>
      <trkpt lat="41.9173445553" lon="-7.0655298047">
        <ele>1026.57</ele>
      </trkpt>
      <trkpt lat="41.9170962833" lon="-7.0639002789">
        <ele>1026.61</ele>
      </trkpt>
      <trkpt lat="41.9170205109" lon="-7.0634615701">
        <ele>1026.63</ele>
      </trkpt>
      <trkpt lat="41.9172927551" lon="-7.0625727531">
        <ele>1029.96</ele>
      </trkpt>
      <trkpt lat="41.9173433818" lon="-7.0624151733">
        <ele>1029.97</ele>
      </trkpt>
      <trkpt lat="41.9174699485" lon="-7.0619337168">
        <ele>1027.12</ele>
      </trkpt>
      <trkpt lat="41.9175777398" lon="-7.061622832">
        <ele>1030.06</ele>
      </trkpt>
      <trkpt lat="41.9177762233" lon="-7.0611909125">
        <ele>1032.05</ele>
      </trkpt>
      <trkpt lat="41.9180485513" lon="-7.0608441532">
        <ele>1036.89</ele>
      </trkpt>
      <trkpt lat="41.9181542471" lon="-7.0607460849">
        <ele>1040.03</ele>
      </trkpt>
      <trkpt lat="41.9182584342" lon="-7.0606451668">
        <ele>1036.87</ele>
      </trkpt>
      <trkpt lat="41.9183609448" lon="-7.060541315">
        <ele>1040</ele>
      </trkpt>
      <trkpt lat="41.9185722526" lon="-7.0603377186">
        <ele>1042.54</ele>
      </trkpt>
      <trkpt lat="41.9191859756" lon="-7.0599601977">
        <ele>1045.15</ele>
      </trkpt>
      <trkpt lat="41.9195108581" lon="-7.0596274361">
        <ele>1049.79</ele>
      </trkpt>
      <trkpt lat="41.9196819328" lon="-7.059387546">
        <ele>1053.27</ele>
      </trkpt>
      <trkpt lat="41.9198172167" lon="-7.0591210015">
        <ele>1054.29</ele>
      </trkpt>
      <trkpt lat="41.9199654087" lon="-7.0588510204">
        <ele>1055.92</ele>
      </trkpt>
      <trkpt lat="41.9201158639" lon="-7.0585801173">
        <ele>1055.85</ele>
      </trkpt>
      <trkpt lat="41.9203101564" lon="-7.057999922">
        <ele>1056.87</ele>
      </trkpt>
      <trkpt lat="41.9203819055" lon="-7.0575887058">
        <ele>1057.27</ele>
      </trkpt>
      <trkpt lat="41.9202783052" lon="-7.0571066625">
        <ele>1056.88</ele>
      </trkpt>
      <trkpt lat="41.9201374892" lon="-7.0568581391">
        <ele>1052.91</ele>
      </trkpt>
      <trkpt lat="41.9200612977" lon="-7.0567175746">
        <ele>1049.39</ele>
      </trkpt>
      <trkpt lat="41.9199868664" lon="-7.0565688796">
        <ele>1049.4</ele>
      </trkpt>
      <trkpt lat="41.9195925817" lon="-7.0555885322">
        <ele>1049.32</ele>
      </trkpt>
      <trkpt lat="41.919448832" lon="-7.055309331">
        <ele>1052.93</ele>
      </trkpt>
      <trkpt lat="41.9192591496" lon="-7.0550478157">
        <ele>1050.88</ele>
      </trkpt>
      <trkpt lat="41.9190709759" lon="-7.05472528">
        <ele>1046.75</ele>
      </trkpt>
      <trkpt lat="41.9188908488" lon="-7.0544007327">
        <ele>1045.1</ele>
      </trkpt>
      <trkpt lat="41.9188054372" lon="-7.0542403031">
        <ele>1045.33</ele>
      </trkpt>
      <trkpt lat="41.9186704885" lon="-7.0537328627">
        <ele>1049.83</ele>
      </trkpt>
      <trkpt lat="41.9186668005" lon="-7.053548377">
        <ele>1045.51</ele>
      </trkpt>
      <trkpt lat="41.9186341949" lon="-7.0525319036">
        <ele>1042.31</ele>
      </trkpt>
      <trkpt lat="41.918608211" lon="-7.0523145609">
        <ele>1042.18</ele>
      </trkpt>
      <trkpt lat="41.918467395" lon="-7.0510327164">
        <ele>1040.8</ele>
      </trkpt>
      <trkpt lat="41.9186388887" lon="-7.0497899316">
        <ele>1043.61</ele>
      </trkpt>
      <trkpt lat="41.918894453" lon="-7.0487780683">
        <ele>1045.2</ele>
      </trkpt>
      <trkpt lat="41.9191128016" lon="-7.0479929354">
        <ele>1049.47</ele>
      </trkpt>
      <trkpt lat="41.9191698823" lon="-7.0478001516">
        <ele>1049.49</ele>
      </trkpt>
      <trkpt lat="41.9194908254" lon="-7.0468318742">
        <ele>1049.53</ele>
      </trkpt>
      <trkpt lat="41.919585038" lon="-7.0462699514">
        <ele>1046.58</ele>
      </trkpt>
      <trkpt lat="41.9195765723" lon="-7.0460764971">
        <ele>1046.72</ele>
      </trkpt>
      <trkpt lat="41.9195659272" lon="-7.0456820447">
        <ele>1044.3</ele>
      </trkpt>
      <trkpt lat="41.9195530191" lon="-7.0450839959">
        <ele>1047.89</ele>
      </trkpt>
      <trkpt lat="41.9195658434" lon="-7.0448860154">
        <ele>1047.8</ele>
      </trkpt>
      <trkpt lat="41.9196018856" lon="-7.0444992743">
        <ele>1045.23</ele>
      </trkpt>
      <trkpt lat="41.9195451401" lon="-7.0437146444">
        <ele>1048.07</ele>
      </trkpt>
      <trkpt lat="41.9195344951" lon="-7.0435190108">
        <ele>1045.17</ele>
      </trkpt>
      <trkpt lat="41.9195691962" lon="-7.0431481116">
        <ele>1045.11</ele>
      </trkpt>
      <trkpt lat="41.919623008" lon="-7.0429668948">
        <ele>1045.12</ele>
      </trkpt>
      <trkpt lat="41.9196978584" lon="-7.0427892823">
        <ele>1045.23</ele>
      </trkpt>
      <trkpt lat="41.9197836891" lon="-7.0426156092">
        <ele>1044.44</ele>
      </trkpt>
      <trkpt lat="41.9199654087" lon="-7.0422739629">
        <ele>1043</ele>
      </trkpt>
      <trkpt lat="41.9202902075" lon="-7.0415603276">
        <ele>1045.6</ele>
      </trkpt>
      <trkpt lat="41.920495145" lon="-7.0409957226">
        <ele>1047.92</ele>
      </trkpt>
      <trkpt lat="41.920613246" lon="-7.0406092331">
        <ele>1049.21</ele>
      </trkpt>
      <trkpt lat="41.920771664" lon="-7.0400058199">
        <ele>1052.64</ele>
      </trkpt>
      <trkpt lat="41.921107443" lon="-7.0385481231">
        <ele>1057.87</ele>
      </trkpt>
      <trkpt lat="41.9211469218" lon="-7.0383374859">
        <ele>1057.9</ele>
      </trkpt>
      <trkpt lat="41.921188999" lon="-7.0381265972">
        <ele>1061.85</ele>
      </trkpt>
      <trkpt lat="41.9212350156" lon="-7.0379178878">
        <ele>1061.76</ele>
      </trkpt>
      <trkpt lat="41.9213405438" lon="-7.0375168975">
        <ele>1066.06</ele>
      </trkpt>
      <trkpt lat="41.9213998038" lon="-7.0373193361">
        <ele>1065.92</ele>
      </trkpt>
      <trkpt lat="41.9215107802" lon="-7.0369198546">
        <ele>1069.54</ele>
      </trkpt>
      <trkpt lat="41.9215565454" lon="-7.0367167611">
        <ele>1070.17</ele>
      </trkpt>
      <trkpt lat="41.9215937611" lon="-7.0361494739">
        <ele>1078.07</ele>
      </trkpt>
      <trkpt lat="41.9215828646" lon="-7.0359571092">
        <ele>1078.04</ele>
      </trkpt>
      <trkpt lat="41.9215730578" lon="-7.0357582066">
        <ele>1074.56</ele>
      </trkpt>
      <trkpt lat="41.9215663522" lon="-7.0355518442">
        <ele>1075.52</ele>
      </trkpt>
      <trkpt lat="41.9215547852" lon="-7.0351400413">
        <ele>1081.06</ele>
      </trkpt>
      <trkpt lat="41.9215476606" lon="-7.0349400491">
        <ele>1081.14</ele>
      </trkpt>
      <trkpt lat="41.9215376023" lon="-7.0347512886">
        <ele>1084.59</ele>
      </trkpt>
      <trkpt lat="41.9215304777" lon="-7.0345706586">
        <ele>1086.96</ele>
      </trkpt>
      <trkpt lat="41.9216500875" lon="-7.0334624033">
        <ele>1092.78</ele>
      </trkpt>
      <trkpt lat="41.9216710422" lon="-7.0332660154">
        <ele>1092.49</ele>
      </trkpt>
      <trkpt lat="41.9216842856" lon="-7.0330653526">
        <ele>1092.24</ele>
      </trkpt>
      <trkpt lat="41.9215969462" lon="-7.0322451834">
        <ele>1093.11</ele>
      </trkpt>
      <trkpt lat="41.921472894" lon="-7.0316130202">
        <ele>1087.59</ele>
      </trkpt>
      <trkpt lat="41.9214325771" lon="-7.0314109325">
        <ele>1087.62</ele>
      </trkpt>
      <trkpt lat="41.9213869795" lon="-7.0312184002">
        <ele>1091.69</ele>
      </trkpt>
      <trkpt lat="41.9213330839" lon="-7.0310302265">
        <ele>1087.45</ele>
      </trkpt>
      <trkpt lat="41.9211110473" lon="-7.030462604">
        <ele>1082.64</ele>
      </trkpt>
      <trkpt lat="41.9210285693" lon="-7.0302730892">
        <ele>1082.47</ele>
      </trkpt>
      <trkpt lat="41.9208665472" lon="-7.0298997592">
        <ele>1081.02</ele>
      </trkpt>
      <trkpt lat="41.9206333626" lon="-7.029357953">
        <ele>1076.68</ele>
      </trkpt>
      <trkpt lat="41.9205492921" lon="-7.029192159">
        <ele>1079.78</ele>
      </trkpt>
      <trkpt lat="41.9204649702" lon="-7.0290183183">
        <ele>1081.52</ele>
      </trkpt>
      <trkpt lat="41.920336308" lon="-7.0286420546">
        <ele>1077.7</ele>
      </trkpt>
      <trkpt lat="41.9202986732" lon="-7.028448265">
        <ele>1077.59</ele>
      </trkpt>
      <trkpt lat="41.9203488808" lon="-7.0276424289">
        <ele>1078.74</ele>
      </trkpt>
      <trkpt lat="41.9204320293" lon="-7.0272511616">
        <ele>1081.22</ele>
      </trkpt>
      <trkpt lat="41.9204819016" lon="-7.0268664323">
        <ele>1083.31</ele>
      </trkpt>
      <trkpt lat="41.9204990007" lon="-7.0264711417">
        <ele>1085.13</ele>
      </trkpt>
      <trkpt lat="41.9204692449" lon="-7.0256622043">
        <ele>1089.59</ele>
      </trkpt>
      <trkpt lat="41.9204585161" lon="-7.0254644752">
        <ele>1089.36</ele>
      </trkpt>
      <trkpt lat="41.9204463623" lon="-7.0250591263">
        <ele>1085.98</ele>
      </trkpt>
      <trkpt lat="41.9204455242" lon="-7.0248581283">
        <ele>1085.98</ele>
      </trkpt>
      <trkpt lat="41.9204519782" lon="-7.0245226845">
        <ele>1089</ele>
      </trkpt>
      <trkpt lat="41.9204573426" lon="-7.0243990514">
        <ele>1092.98</ele>
      </trkpt>
      <trkpt lat="41.9204620365" lon="-7.02429411">
        <ele>1095.35</ele>
      </trkpt>
      <trkpt lat="41.9204369746" lon="-7.0240410604">
        <ele>1096.83</ele>
      </trkpt>
      <trkpt lat="41.9202694204" lon="-7.0235232264">
        <ele>1092.76</ele>
      </trkpt>
      <trkpt lat="41.9202304445" lon="-7.023424739">
        <ele>1092.7</ele>
      </trkpt>
      <trkpt lat="41.9201449491" lon="-7.0232120063">
        <ele>1090.74</ele>
      </trkpt>
      <trkpt lat="41.9200529158" lon="-7.0229971781">
        <ele>1086.99</ele>
      </trkpt>
      <trkpt lat="41.9200084917" lon="-7.0228965953">
        <ele>1087.03</ele>
      </trkpt>
      <trkpt lat="41.9198181387" lon="-7.0226313081">
        <ele>1089.25</ele>
      </trkpt>
      <trkpt lat="41.9196291268" lon="-7.0225017238">
        <ele>1085.99</ele>
      </trkpt>
      <trkpt lat="41.9193001371" lon="-7.0223438088">
        <ele>1084.6</ele>
      </trkpt>
      <trkpt lat="41.9190959539" lon="-7.0222384483">
        <ele>1084.63</ele>
      </trkpt>
      <trkpt lat="41.918950947" lon="-7.0221883245">
        <ele>1088.58</ele>
      </trkpt>
      <trkpt lat="41.9188389648" lon="-7.0221924316">
        <ele>1090.41</ele>
      </trkpt>
      <trkpt lat="41.9185047783" lon="-7.0221001469">
        <ele>1088.27</ele>
      </trkpt>
      <trkpt lat="41.9181681611" lon="-7.0220290683">
        <ele>1086.73</ele>
      </trkpt>
      <trkpt lat="41.9175722916" lon="-7.0218987297">
        <ele>1087.22</ele>
      </trkpt>
      <trkpt lat="41.9173867162" lon="-7.0219490211">
        <ele>1091.98</ele>
      </trkpt>
      <trkpt lat="41.9172961079" lon="-7.0220203511">
        <ele>1091.99</ele>
      </trkpt>
      <trkpt lat="41.9170905836" lon="-7.0221665315">
        <ele>1088.8</ele>
      </trkpt>
      <trkpt lat="41.9169746619" lon="-7.0222191699">
        <ele>1086.9</ele>
      </trkpt>
      <trkpt lat="41.916749943" lon="-7.0223026536">
        <ele>1086.76</ele>
      </trkpt>
      <trkpt lat="41.9165825564" lon="-7.0223282184">
        <ele>1090.67</ele>
      </trkpt>
      <trkpt lat="41.9164946303" lon="-7.0222336706">
        <ele>1092.72</ele>
      </trkpt>
      <trkpt lat="41.916501252" lon="-7.0220419765">
        <ele>1092.74</ele>
      </trkpt>
      <trkpt lat="41.9165465981" lon="-7.0218296628">
        <ele>1092.83</ele>
      </trkpt>
      <trkpt lat="41.9164631143" lon="-7.0210936479">
        <ele>1092.75</ele>
      </trkpt>
      <trkpt lat="41.9163401518" lon="-7.0207546838">
        <ele>1094.59</ele>
      </trkpt>
      <trkpt lat="41.9162547402" lon="-7.0200879034">
        <ele>1099.72</ele>
      </trkpt>
      <trkpt lat="41.9162251521" lon="-7.0198631845">
        <ele>1100.66</ele>
      </trkpt>
      <trkpt lat="41.9161912054" lon="-7.0195048582">
        <ele>1103.1</ele>
      </trkpt>
      <trkpt lat="41.9161687419" lon="-7.0191115793">
        <ele>1104.41</ele>
      </trkpt>
      <trkpt lat="41.9161286764" lon="-7.0185582899">
        <ele>1107.48</ele>
      </trkpt>
      <trkpt lat="41.9161182828" lon="-7.0184145402">
        <ele>1107.22</ele>
      </trkpt>
      <trkpt lat="41.9160882756" lon="-7.017743066">
        <ele>1110.62</ele>
      </trkpt>
      <trkpt lat="41.9160933048" lon="-7.017632341">
        <ele>1110.57</ele>
      </trkpt>
      <trkpt lat="41.9160782173" lon="-7.017436875">
        <ele>1112.18</ele>
      </trkpt>
      <trkpt lat="41.9160171971" lon="-7.0172547363">
        <ele>1114.58</ele>
      </trkpt>
      <trkpt lat="41.9159048796" lon="-7.0167263411">
        <ele>1111.42</ele>
      </trkpt>
      <trkpt lat="41.9159170333" lon="-7.0161107741">
        <ele>1108.91</ele>
      </trkpt>
      <trkpt lat="41.9158706814" lon="-7.0151954703">
        <ele>1112.18</ele>
      </trkpt>
      <trkpt lat="41.9158700947" lon="-7.0150620304">
        <ele>1112.19</ele>
      </trkpt>
      <trkpt lat="41.9158938993" lon="-7.0147988386">
        <ele>1115.36</ele>
      </trkpt>
      <trkpt lat="41.9159612898" lon="-7.014548555">
        <ele>1112.58</ele>
      </trkpt>
      <trkpt lat="41.9160108268" lon="-7.0144283585">
        <ele>1112.62</ele>
      </trkpt>
      <trkpt lat="41.9161211327" lon="-7.0141810924">
        <ele>1116.65</ele>
      </trkpt>
      <trkpt lat="41.9164376333" lon="-7.013520766">
        <ele>1118.33</ele>
      </trkpt>
      <trkpt lat="41.9164982345" lon="-7.013378609">
        <ele>1118.6</ele>
      </trkpt>
      <trkpt lat="41.9166276511" lon="-7.0129158441">
        <ele>1123.18</ele>
      </trkpt>
      <trkpt lat="41.9166546408" lon="-7.0127461106">
        <ele>1123.08</ele>
      </trkpt>
      <trkpt lat="41.9166884199" lon="-7.0125715993">
        <ele>1122.97</ele>
      </trkpt>
      <trkpt lat="41.9168080296" lon="-7.0122079086">
        <ele>1118.88</ele>
      </trkpt>
      <trkpt lat="41.9168859813" lon="-7.0120325591">
        <ele>1119.16</ele>
      </trkpt>
      <trkpt lat="41.9170393702" lon="-7.0116862189">
        <ele>1123.09</ele>
      </trkpt>
      <trkpt lat="41.9171051681" lon="-7.0115080196">
        <ele>1123.19</ele>
      </trkpt>
      <trkpt lat="41.9172123726" lon="-7.0111445803">
        <ele>1129.54</ele>
      </trkpt>
      <trkpt lat="41.9172564615" lon="-7.010976607">
        <ele>1134.02</ele>
      </trkpt>
      <trkpt lat="41.9172958564" lon="-7.0108215418">
        <ele>1137.89</ele>
      </trkpt>
      <trkpt lat="41.9173313119" lon="-7.0106731821">
        <ele>1141.45</ele>
      </trkpt>
      <trkpt lat="41.9173629954" lon="-7.0105324499">
        <ele>1145.92</ele>
      </trkpt>
      <trkpt lat="41.9173974451" lon="-7.0103959925">
        <ele>1150.16</ele>
      </trkpt>
      <trkpt lat="41.91747481" lon="-7.0101322979">
        <ele>1153.72</ele>
      </trkpt>
      <trkpt lat="41.9175056554" lon="-7.0100144483">
        <ele>1156.23</ele>
      </trkpt>
      <trkpt lat="41.9175188988" lon="-7.0098635741">
        <ele>1161.96</ele>
      </trkpt>
      <trkpt lat="41.9175146241" lon="-7.00984044">
        <ele>1165.01</ele>
      </trkpt>
      <trkpt lat="41.9175113551" lon="-7.0098465588">
        <ele>1167.01</ele>
      </trkpt>
      <trkpt lat="41.9174797554" lon="-7.00951715">
        <ele>1162.75</ele>
      </trkpt>
      <trkpt lat="41.9174699485" lon="-7.0092218556">
        <ele>1159.23</ele>
      </trkpt>
      <trkpt lat="41.9174788333" lon="-7.009050278">
        <ele>1159.07</ele>
      </trkpt>
      <trkpt lat="41.9177051447" lon="-7.0076743886">
        <ele>1162.08</ele>
      </trkpt>
      <trkpt lat="41.917745797" lon="-7.0074862987">
        <ele>1165.34</ele>
      </trkpt>
      <trkpt lat="41.9177780673" lon="-7.0069369487">
        <ele>1171.91</ele>
      </trkpt>
      <trkpt lat="41.9177991059" lon="-7.0067586657">
        <ele>1175.28</ele>
      </trkpt>
      <trkpt lat="41.9178363215" lon="-7.0065847412">
        <ele>1175.33</ele>
      </trkpt>
      <trkpt lat="41.9178881217" lon="-7.0062345453">
        <ele>1179.41</ele>
      </trkpt>
      <trkpt lat="41.9178846851" lon="-7.0060455333">
        <ele>1180.84</ele>
      </trkpt>
      <trkpt lat="41.9178369921" lon="-7.0054275356">
        <ele>1184.46</ele>
      </trkpt>
      <trkpt lat="41.9178195577" lon="-7.0052148029">
        <ele>1188.01</ele>
      </trkpt>
      <trkpt lat="41.9177857786" lon="-7.0047989767">
        <ele>1193.73</ele>
      </trkpt>
      <trkpt lat="41.9177808333" lon="-7.004606612">
        <ele>1199.56</ele>
      </trkpt>
      <trkpt lat="41.9178130198" lon="-7.0042826515">
        <ele>1208.01</ele>
      </trkpt>
      <trkpt lat="41.9178438652" lon="-7.0041639637">
        <ele>1212.47</ele>
      </trkpt>
      <trkpt lat="41.917888457" lon="-7.0040759537">
        <ele>1216.7</ele>
      </trkpt>
      <trkpt lat="41.9179648161" lon="-7.004004037">
        <ele>1216.41</ele>
      </trkpt>
      <trkpt lat="41.9180787262" lon="-7.0039472077">
        <ele>1212.38</ele>
      </trkpt>
      <trkpt lat="41.9182139263" lon="-7.0039022807">
        <ele>1209.04</ele>
      </trkpt>
      <trkpt lat="41.918642493" lon="-7.003738163">
        <ele>1201.41</ele>
      </trkpt>
      <trkpt lat="41.9189407211" lon="-7.0036105067">
        <ele>1196.66</ele>
      </trkpt>
      <trkpt lat="41.9195344113" lon="-7.0035475586">
        <ele>1190.41</ele>
      </trkpt>
      <trkpt lat="41.9198043086" lon="-7.0035093371">
        <ele>1187.72</ele>
      </trkpt>
      <trkpt lat="41.9199317135" lon="-7.0034862868">
        <ele>1186.85</ele>
      </trkpt>
      <trkpt lat="41.9203144312" lon="-7.0035421103">
        <ele>1179.67</ele>
      </trkpt>
      <trkpt lat="41.9205852505" lon="-7.0036177989">
        <ele>1174.49</ele>
      </trkpt>
      <trkpt lat="41.9208645355" lon="-7.0037003607">
        <ele>1168.28</ele>
      </trkpt>
      <trkpt lat="41.9211470895" lon="-7.0037788991">
        <ele>1162.59</ele>
      </trkpt>
      <trkpt lat="41.9212891627" lon="-7.0038079843">
        <ele>1162.77</ele>
      </trkpt>
      <trkpt lat="41.9214355107" lon="-7.0038330462">
        <ele>1158.24</ele>
      </trkpt>
      <trkpt lat="41.9217060786" lon="-7.0038856007">
        <ele>1156.38</ele>
      </trkpt>
      <trkpt lat="41.9218197372" lon="-7.0039047115">
        <ele>1156.26</ele>
      </trkpt>
      <trkpt lat="41.9221544266" lon="-7.0038795657">
        <ele>1152.38</ele>
      </trkpt>
      <trkpt lat="41.922364058" lon="-7.003832208">
        <ele>1150.67</ele>
      </trkpt>
      <trkpt lat="41.9225560036" lon="-7.0034156274">
        <ele>1150.45</ele>
      </trkpt>
      <trkpt lat="41.9225058798" lon="-7.0033038128">
        <ele>1150.81</ele>
      </trkpt>
      <trkpt lat="41.9222155306" lon="-7.0027203485">
        <ele>1145.08</ele>
      </trkpt>
      <trkpt lat="41.9220676739" lon="-7.002356071">
        <ele>1143.97</ele>
      </trkpt>
      <trkpt lat="41.9218654186" lon="-7.0015653223">
        <ele>1140.32</ele>
      </trkpt>
      <trkpt lat="41.9218000397" lon="-7.0011824369">
        <ele>1137.88</ele>
      </trkpt>
      <trkpt lat="41.9217685238" lon="-7.0010072552">
        <ele>1134.79</ele>
      </trkpt>
      <trkpt lat="41.9217348285" lon="-7.0008460712">
        <ele>1134.77</ele>
      </trkpt>
      <trkpt lat="41.9216992892" lon="-7.0006942749">
        <ele>1134.89</ele>
      </trkpt>
      <trkpt lat="41.9213340059" lon="-7.0003376249">
        <ele>1137.56</ele>
      </trkpt>
      <trkpt lat="41.9212582335" lon="-7.0003920235">
        <ele>1137.6</ele>
      </trkpt>
      <trkpt lat="41.9211791083" lon="-7.0004827995">
        <ele>1132.38</ele>
      </trkpt>
      <trkpt lat="41.9210168347" lon="-7.0006416366">
        <ele>1128.95</ele>
      </trkpt>
      <trkpt lat="41.9209302496" lon="-7.0006713085">
        <ele>1128.93</ele>
      </trkpt>
      <trkpt lat="41.920516016" lon="-7.0005004015">
        <ele>1127.06</ele>
      </trkpt>
      <trkpt lat="41.9204218872" lon="-7.0003971364">
        <ele>1125.29</ele>
      </trkpt>
      <trkpt lat="41.920255255" lon="-7.0001874212">
        <ele>1123.74</ele>
      </trkpt>
      <trkpt lat="41.9200886227" lon="-7.0000631176">
        <ele>1127.1</ele>
      </trkpt>
      <trkpt lat="41.9199799094" lon="-7.0000338648">
        <ele>1127.12</ele>
      </trkpt>
      <trkpt lat="41.9198553544" lon="-7.0000032708">
        <ele>1123.02</ele>
      </trkpt>
      <trkpt lat="41.9196275342" lon="-6.9999220502">
        <ele>1121.33</ele>
      </trkpt>
      <trkpt lat="41.9194350857" lon="-6.9996969122">
        <ele>1124.49</ele>
      </trkpt>
      <trkpt lat="41.9194201659" lon="-6.9995508995">
        <ele>1121.25</ele>
      </trkpt>
      <trkpt lat="41.9194262009" lon="-6.9993712753">
        <ele>1117.42</ele>
      </trkpt>
      <trkpt lat="41.9194456469" lon="-6.9991771504">
        <ele>1114.86</ele>
      </trkpt>
      <trkpt lat="41.9194765761" lon="-6.9987930078">
        <ele>1115.15</ele>
      </trkpt>
      <trkpt lat="41.9194485806" lon="-6.998202838">
        <ele>1113.79</ele>
      </trkpt>
      <trkpt lat="41.9193900749" lon="-6.9977652188">
        <ele>1109.57</ele>
      </trkpt>
      <trkpt lat="41.9193047471" lon="-6.9973066449">
        <ele>1105.24</ele>
      </trkpt>
      <trkpt lat="41.919256635" lon="-6.9970795792">
        <ele>1105.61</ele>
      </trkpt>
      <trkpt lat="41.9189461693" lon="-6.9959911052">
        <ele>1104.9</ele>
      </trkpt>
      <trkpt lat="41.9188605063" lon="-6.9957045279">
        <ele>1108.44</ele>
      </trkpt>
      <trkpt lat="41.9188329298" lon="-6.9953406695">
        <ele>1102.95</ele>
      </trkpt>
      <trkpt lat="41.9188363664" lon="-6.9951324631">
        <ele>1101.51</ele>
      </trkpt>
      <trkpt lat="41.9188685529" lon="-6.9944785908">
        <ele>1096.74</ele>
      </trkpt>
      <trkpt lat="41.9188880827" lon="-6.9940652791">
        <ele>1094.53</ele>
      </trkpt>
      <trkpt lat="41.9189090375" lon="-6.9938869961">
        <ele>1094.62</ele>
      </trkpt>
      <trkpt lat="41.9190643542" lon="-6.9933725148">
        <ele>1090.67</ele>
      </trkpt>
      <trkpt lat="41.9191490114" lon="-6.9931967463">
        <ele>1087.16</ele>
      </trkpt>
      <trkpt lat="41.9192404579" lon="-6.9930119254">
        <ele>1083.46</ele>
      </trkpt>
      <trkpt lat="41.9193352573" lon="-6.9928276073">
        <ele>1080.18</ele>
      </trkpt>
      <trkpt lat="41.9195303041" lon="-6.9924453925">
        <ele>1074.31</ele>
      </trkpt>
      <trkpt lat="41.9196320605" lon="-6.9922530279">
        <ele>1070.83</ele>
      </trkpt>
      <trkpt lat="41.9198270235" lon="-6.9918610062">
        <ele>1066.76</ele>
      </trkpt>
      <trkpt lat="41.9200001936" lon="-6.9914746843">
        <ele>1064.69</ele>
      </trkpt>
      <trkpt lat="41.9201446977" lon="-6.9910679106">
        <ele>1060.14</ele>
      </trkpt>
      <trkpt lat="41.9202730246" lon="-6.9906576164">
        <ele>1056.91</ele>
      </trkpt>
      <trkpt lat="41.9203416724" lon="-6.9904478174">
        <ele>1053.74</ele>
      </trkpt>
      <trkpt lat="41.920472933" lon="-6.99002143">
        <ele>1048.51</ele>
      </trkpt>
      <trkpt lat="41.9205388147" lon="-6.9898080267">
        <ele>1048.38</ele>
      </trkpt>
      <trkpt lat="41.9206725061" lon="-6.9893750176">
        <ele>1041.66</ele>
      </trkpt>
      <trkpt lat="41.9207589235" lon="-6.9890512247">
        <ele>1054.27</ele>
      </trkpt>
      <trkpt lat="41.9207249768" lon="-6.9890578464">
        <ele>1055.29</ele>
      </trkpt>
      <trkpt lat="41.9205415808" lon="-6.9889239874">
        <ele>1054.5</ele>
      </trkpt>
      <trkpt lat="41.9204132538" lon="-6.9888606202">
        <ele>1049.93</ele>
      </trkpt>
      <trkpt lat="41.9203341287" lon="-6.9888280984">
        <ele>1048.5</ele>
      </trkpt>
      <trkpt lat="41.9201775547" lon="-6.9887999352">
        <ele>1046.54</ele>
      </trkpt>
      <trkpt lat="41.9199504051" lon="-6.9889094867">
        <ele>1042.48</ele>
      </trkpt>
      <trkpt lat="41.91954294265303" lon="-6.989010575366287">
        <ele>1040.71</ele>
      </trkpt>
      <trkpt lat="41.919215632574684" lon="-6.989251976492995">
        <ele>1040.76</ele>
      </trkpt>
      <trkpt lat="41.9191550463" lon="-6.9897517841">
        <ele>1041.05</ele>
      </trkpt>
      <trkpt lat="41.9191096164" lon="-6.9902609009">
        <ele>1041.18</ele>
      </trkpt>
      <trkpt lat="41.9191235304" lon="-6.9905929919">
        <ele>1045.55</ele>
      </trkpt>
      <trkpt lat="41.9190508593" lon="-6.9909716863">
        <ele>1045.55</ele>
      </trkpt>
      <trkpt lat="41.9189857319" lon="-6.9910983369">
        <ele>1045.56</ele>
      </trkpt>
      <trkpt lat="41.9188360311" lon="-6.9913441781">
        <ele>1045.65</ele>
      </trkpt>
      <trkpt lat="41.9184610248" lon="-6.9916455913">
        <ele>1046.85</ele>
      </trkpt>
      <trkpt lat="41.9181309454" lon="-6.9917486049">
        <ele>1047.67</ele>
      </trkpt>
      <trkpt lat="41.91766687431659" lon="-6.991955645135082">
        <ele>1047.66</ele>
      </trkpt>
      <trkpt lat="41.9173493329" lon="-6.9924607314">
        <ele>1049.33</ele>
      </trkpt>
      <trkpt lat="41.9171562139" lon="-6.9929136895">
        <ele>1046.47</ele>
      </trkpt>
      <trkpt lat="41.9170537032" lon="-6.9934064616">
        <ele>1051.45</ele>
      </trkpt>
      <trkpt lat="41.9168491848" lon="-6.9941363577">
        <ele>1057.84</ele>
      </trkpt>
      <trkpt lat="41.9166115578" lon="-6.9946199097">
        <ele>1059.4</ele>
      </trkpt>
      <trkpt lat="41.9164700713" lon="-6.9950469676">
        <ele>1062.96</ele>
      </trkpt>
      <trkpt lat="41.9164165109" lon="-6.9951905496">
        <ele>1062.97</ele>
      </trkpt>
      <trkpt lat="41.9162493758" lon="-6.9963571429">
        <ele>1063.88</ele>
      </trkpt>
      <trkpt lat="41.9162411615" lon="-6.9965223502">
        <ele>1067.82</ele>
      </trkpt>
      <trkpt lat="41.916229846" lon="-6.9966710452">
        <ele>1067.75</ele>
      </trkpt>
      <trkpt lat="41.9160412531" lon="-6.9968423713">
        <ele>1060.17</ele>
      </trkpt>
      <trkpt lat="41.9159801491" lon="-6.9967241865">
        <ele>1059.15</ele>
      </trkpt>
      <trkpt lat="41.9158275984" lon="-6.996378433">
        <ele>1059.18</ele>
      </trkpt>
      <trkpt lat="41.9157177117" lon="-6.9961276464">
        <ele>1063.02</ele>
      </trkpt>
      <trkpt lat="41.9156602118" lon="-6.9960095454">
        <ele>1062.95</ele>
      </trkpt>
      <trkpt lat="41.9154708646" lon="-6.9958243892">
        <ele>1062.76</ele>
      </trkpt>
      <trkpt lat="41.9154178072" lon="-6.9958131574">
        <ele>1055.69</ele>
      </trkpt>
      <trkpt lat="41.9152875524" lon="-6.9956358802">
        <ele>1054.62</ele>
      </trkpt>
      <trkpt lat="41.9151038211" lon="-6.9949679263">
        <ele>1052.37</ele>
      </trkpt>
      <trkpt lat="41.9150556251" lon="-6.9948202372">
        <ele>1050.27</ele>
      </trkpt>
      <trkpt lat="41.9147424772" lon="-6.9941754173">
        <ele>1049.67</ele>
      </trkpt>
      <trkpt lat="41.9145909324" lon="-6.993941227">
        <ele>1052.77</ele>
      </trkpt>
      <trkpt lat="41.9141398184" lon="-6.9932102412">
        <ele>1052.81</ele>
      </trkpt>
      <trkpt lat="41.9140130002" lon="-6.9931072276">
        <ele>1052.78</ele>
      </trkpt>
      <trkpt lat="41.9139512256" lon="-6.9931104966">
        <ele>1050.18</ele>
      </trkpt>
      <trkpt lat="41.9138726033" lon="-6.9931278471">
        <ele>1046.67</ele>
      </trkpt>
      <trkpt lat="41.9135687593" lon="-6.9931560941">
        <ele>1046.69</ele>
      </trkpt>
      <trkpt lat="41.9130873866" lon="-6.9931963272">
        <ele>1043.46</ele>
      </trkpt>
      <trkpt lat="41.9129894022" lon="-6.9932156894">
        <ele>1041.55</ele>
      </trkpt>
      <trkpt lat="41.9126020744" lon="-6.9929922279">
        <ele>1041.57</ele>
      </trkpt>
      <trkpt lat="41.9124962948" lon="-6.9928007014">
        <ele>1038.04</ele>
      </trkpt>
      <trkpt lat="41.9122842327" lon="-6.9927483145">
        <ele>1040.59</ele>
      </trkpt>
      <trkpt lat="41.9119797181" lon="-6.9927650783">
        <ele>1037.2</ele>
      </trkpt>
      <trkpt lat="41.9118331186" lon="-6.9927069917">
        <ele>1037.16</ele>
      </trkpt>
      <trkpt lat="41.9116881117" lon="-6.9925687741">
        <ele>1037.17</ele>
      </trkpt>
      <trkpt lat="41.9116088189" lon="-6.9925138727">
        <ele>1038.3</ele>
      </trkpt>
      <trkpt lat="41.9115207251" lon="-6.992476657">
        <ele>1032.28</ele>
      </trkpt>
      <trkpt lat="41.911288714" lon="-6.9923558738">
        <ele>1025.31</ele>
      </trkpt>
      <trkpt lat="41.9113550149" lon="-6.9920594897">
        <ele>1025.23</ele>
      </trkpt>
      <trkpt lat="41.9117715955" lon="-6.99123119">
        <ele>1024.08</ele>
      </trkpt>
      <trkpt lat="41.9118937198" lon="-6.9909379072">
        <ele>1022.24</ele>
      </trkpt>
      <trkpt lat="41.9119793829" lon="-6.9902346656">
        <ele>1022.37</ele>
      </trkpt>
      <trkpt lat="41.9118273351" lon="-6.9897735771">
        <ele>1021.43</ele>
      </trkpt>
      <trkpt lat="41.9118391536" lon="-6.9896034244">
        <ele>1020.17</ele>
      </trkpt>
      <trkpt lat="41.9119157642" lon="-6.9893997442">
        <ele>1018.58</ele>
      </trkpt>
      <trkpt lat="41.9119723421" lon="-6.9891513884">
        <ele>1014.12</ele>
      </trkpt>
      <trkpt lat="41.9119520579" lon="-6.98891812">
        <ele>1012.39</ele>
      </trkpt>
      <trkpt lat="41.9118476193" lon="-6.9887042139">
        <ele>1006.6</ele>
      </trkpt>
      <trkpt lat="41.9117776304" lon="-6.9886016194">
        <ele>1003.82</ele>
      </trkpt>
      <trkpt lat="41.9115329627" lon="-6.9882236794">
        <ele>998.26</ele>
      </trkpt>
      <trkpt lat="41.9116835855" lon="-6.9878546242">
        <ele>998.45</ele>
      </trkpt>
      <trkpt lat="41.9120632857" lon="-6.9875821285">
        <ele>998.7</ele>
      </trkpt>
      <trkpt lat="41.9121963903" lon="-6.9874763489">
        <ele>1003.18</ele>
      </trkpt>
      <trkpt lat="41.9126417208" lon="-6.9870417472">
        <ele>1000.57</ele>
      </trkpt>
      <trkpt lat="41.9128157292" lon="-6.9867204688">
        <ele>996.31</ele>
      </trkpt>
      <trkpt lat="41.912719002" lon="-6.9861536007">
        <ele>992.17</ele>
      </trkpt>
      <trkpt lat="41.9125487655" lon="-6.9859356713">
        <ele>992.2</ele>
      </trkpt>
      <trkpt lat="41.9123557303" lon="-6.9856775925">
        <ele>992.53</ele>
      </trkpt>
      <trkpt lat="41.9122536387" lon="-6.9855487626"/>
      <trkpt lat="41.9120130781" lon="-6.9852126483"/>
      <trkpt lat="41.91187865637195" lon="-6.984949828124923"/>
      <trkpt lat="41.911607196023695" lon="-6.985003469732619"/>
      <trkpt lat="41.9115612935" lon="-6.9848964829">
        <ele>1007.72</ele>
        <time>2020-09-12T08:36:25Z</time>
      </trkpt>
      <trkpt lat="41.9116313662" lon="-6.9847140089">
        <ele>1002.17</ele>
        <time>2020-09-12T08:36:28Z</time>
      </trkpt>
      <trkpt lat="41.9118042849" lon="-6.9844727777">
        <ele>998.1</ele>
        <time>2020-09-12T08:36:31Z</time>
      </trkpt>
      <trkpt lat="41.91203353" lon="-6.9842214882">
        <ele>994.65</ele>
        <time>2020-09-12T08:36:34Z</time>
      </trkpt>
      <trkpt lat="41.9121056981" lon="-6.9841375854">
        <ele>994.54</ele>
        <time>2020-09-12T08:36:35Z</time>
      </trkpt>
      <trkpt lat="41.9122448377" lon="-6.9839723781">
        <ele>993.2</ele>
        <time>2020-09-12T08:36:37Z</time>
      </trkpt>
      <trkpt lat="41.9125224464" lon="-6.9837536942">
        <ele>990.34</ele>
        <time>2020-09-12T08:36:40Z</time>
      </trkpt>
      <trkpt lat="41.9132217485" lon="-6.983323535">
        <ele>992.84</ele>
        <time>2020-09-12T08:36:48Z</time>
      </trkpt>
      <trkpt lat="41.913466081" lon="-6.9831010792">
        <ele>993.06</ele>
        <time>2020-09-12T08:36:51Z</time>
      </trkpt>
      <trkpt lat="41.9139072206" lon="-6.982011348">
        <ele>995.19</ele>
        <time>2020-09-12T08:37:00Z</time>
      </trkpt>
      <trkpt lat="41.9139295164" lon="-6.9817154668">
        <ele>992.67</ele>
        <time>2020-09-12T08:37:02Z</time>
      </trkpt>
      <trkpt lat="41.9139307737" lon="-6.9815765787">
        <ele>992.72</ele>
        <time>2020-09-12T08:37:03Z</time>
      </trkpt>
      <trkpt lat="41.9137946516" lon="-6.9810953736">
        <ele>992.68</ele>
        <time>2020-09-12T08:37:07Z</time>
      </trkpt>
      <trkpt lat="41.9136404246" lon="-6.9806993287">
        <ele>989.9</ele>
        <time>2020-09-12T08:37:10Z</time>
      </trkpt>
      <trkpt lat="41.9135462958" lon="-6.980125336">
        <ele>989.92</ele>
        <time>2020-09-12T08:37:14Z</time>
      </trkpt>
      <trkpt lat="41.9135510735" lon="-6.9792215154">
        <ele>987.36</ele>
        <time>2020-09-12T08:37:20Z</time>
      </trkpt>
      <trkpt lat="41.9136276841" lon="-6.9784653001">
        <ele>985.9</ele>
        <time>2020-09-12T08:37:25Z</time>
      </trkpt>
      <trkpt lat="41.9136946555" lon="-6.9782116637">
        <ele>985.95</ele>
        <time>2020-09-12T08:37:27Z</time>
      </trkpt>
      <trkpt lat="41.9137492217" lon="-6.9778538402">
        <ele>988.26</ele>
        <time>2020-09-12T08:37:30Z</time>
      </trkpt>
      <trkpt lat="41.9137147721" lon="-6.9773053285">
        <ele>988.24</ele>
        <time>2020-09-12T08:37:34Z</time>
      </trkpt>
      <trkpt lat="41.9134933222" lon="-6.9763415772">
        <ele>988.29</ele>
        <time>2020-09-12T08:37:41Z</time>
      </trkpt>
      <trkpt lat="41.9130147155" lon="-6.9757945742">
        <ele>992.08</ele>
        <time>2020-09-12T08:37:48Z</time>
      </trkpt>
      <trkpt lat="41.9129474927" lon="-6.9758038782">
        <ele>992.13</ele>
        <time>2020-09-12T08:37:49Z</time>
      </trkpt>
      <trkpt lat="41.9128417131" lon="-6.9759139325">
        <ele>994</ele>
        <time>2020-09-12T08:37:51Z</time>
      </trkpt>
      <trkpt lat="41.9127925951" lon="-6.9760132581">
        <ele>994.01</ele>
        <time>2020-09-12T08:37:52Z</time>
      </trkpt>
      <trkpt lat="41.9126207661" lon="-6.9764034357">
        <ele>989.73</ele>
        <time>2020-09-12T08:37:55Z</time>
      </trkpt>
      <trkpt lat="41.9124859013" lon="-6.976841893">
        <ele>989.73</ele>
        <time>2020-09-12T08:37:58Z</time>
      </trkpt>
      <trkpt lat="41.9122475199" lon="-6.9774080906">
        <ele>987.77</ele>
        <time>2020-09-12T08:38:02Z</time>
      </trkpt>
      <trkpt lat="41.912077032" lon="-6.9778228272">
        <ele>987.71</ele>
        <time>2020-09-12T08:38:05Z</time>
      </trkpt>
      <trkpt lat="41.9116878603" lon="-6.9783528987">
        <ele>987.65</ele>
        <time>2020-09-12T08:38:10Z</time>
      </trkpt>
      <trkpt lat="41.911311429" lon="-6.9787021726">
        <ele>987.69</ele>
        <time>2020-09-12T08:38:14Z</time>
      </trkpt>
      <trkpt lat="41.9111575373" lon="-6.9788814615">
        <ele>987.67</ele>
        <time>2020-09-12T08:38:16Z</time>
      </trkpt>
      <trkpt lat="41.9109952636" lon="-6.9789422303">
        <ele>991.24</ele>
        <time>2020-09-12T08:38:19Z</time>
      </trkpt>
      <trkpt lat="41.9109704532" lon="-6.978884479">
        <ele>991.24</ele>
        <time>2020-09-12T08:38:20Z</time>
      </trkpt>
      <trkpt lat="41.9109106064" lon="-6.9786808826">
        <ele>987.85</ele>
        <time>2020-09-12T08:38:22Z</time>
      </trkpt>
      <trkpt lat="41.9108302239" lon="-6.97841065">
        <ele>984.23</ele>
        <time>2020-09-12T08:38:24Z</time>
      </trkpt>
      <trkpt lat="41.9107821118" lon="-6.9782717619">
        <ele>984.16</ele>
        <time>2020-09-12T08:38:25Z</time>
      </trkpt>
      <trkpt lat="41.9106696267" lon="-6.9780266751">
        <ele>983.03</ele>
        <time>2020-09-12T08:38:27Z</time>
      </trkpt>
      <trkpt lat="41.9105424732" lon="-6.9778442848">
        <ele>981.55</ele>
        <time>2020-09-12T08:38:29Z</time>
      </trkpt>
      <trkpt lat="41.910204431" lon="-6.9776267745">
        <ele>980.12</ele>
        <time>2020-09-12T08:38:33Z</time>
      </trkpt>
      <trkpt lat="41.9100433309" lon="-6.9775338192">
        <ele>980.19</ele>
        <time>2020-09-12T08:38:35Z</time>
      </trkpt>
      <trkpt lat="41.9099891838" lon="-6.9774090964">
        <ele>981.79</ele>
        <time>2020-09-12T08:38:37Z</time>
      </trkpt>
      <trkpt lat="41.9099911954" lon="-6.9772025663">
        <ele>979.24</ele>
        <time>2020-09-12T08:38:39Z</time>
      </trkpt>
      <trkpt lat="41.9100040197" lon="-6.9767615106">
        <ele>976.81</ele>
        <time>2020-09-12T08:38:42Z</time>
      </trkpt>
      <trkpt lat="41.9098898582" lon="-6.9761643">
        <ele>976.92</ele>
        <time>2020-09-12T08:38:46Z</time>
      </trkpt>
      <trkpt lat="41.9097451866" lon="-6.9757834263">
        <ele>976.93</ele>
        <time>2020-09-12T08:38:49Z</time>
      </trkpt>
      <trkpt lat="41.9096130878" lon="-6.9755886309">
        <ele>979.71</ele>
        <time>2020-09-12T08:38:51Z</time>
      </trkpt>
      <trkpt lat="41.9095539115" lon="-6.9750801008">
        <ele>976.91</ele>
        <time>2020-09-12T08:38:56Z</time>
      </trkpt>
      <trkpt lat="41.9096164405" lon="-6.9747860637">
        <ele>975.96</ele>
        <time>2020-09-12T08:38:58Z</time>
      </trkpt>
      <trkpt lat="41.9095358066" lon="-6.9740693271">
        <ele>976.09</ele>
        <time>2020-09-12T08:39:03Z</time>
      </trkpt>
      <trkpt lat="41.9093733653" lon="-6.9734651595">
        <ele>978.75</ele>
        <time>2020-09-12T08:39:07Z</time>
      </trkpt>
      <trkpt lat="41.909282757" lon="-6.9728029892">
        <ele>980.76</ele>
        <time>2020-09-12T08:39:11Z</time>
      </trkpt>
      <trkpt lat="41.9092389196" lon="-6.9724790286">
        <ele>984.07</ele>
        <time>2020-09-12T08:39:13Z</time>
      </trkpt>
      <trkpt lat="41.9091126882" lon="-6.9720668066">
        <ele>986.08</ele>
        <time>2020-09-12T08:39:16Z</time>
      </trkpt>
      <trkpt lat="41.9089680165" lon="-6.9718669821">
        <ele>987.57</ele>
        <time>2020-09-12T08:39:18Z</time>
      </trkpt>
      <trkpt lat="41.9086631667" lon="-6.9716661517">
        <ele>989.35</ele>
        <time>2020-09-12T08:39:21Z</time>
      </trkpt>
      <trkpt lat="41.9080519583" lon="-6.97142886">
        <ele>991.87</ele>
        <time>2020-09-12T08:39:26Z</time>
      </trkpt>
      <trkpt lat="41.9078046083" lon="-6.971363984">
        <ele>995.59</ele>
        <time>2020-09-12T08:39:28Z</time>
      </trkpt>
      <trkpt lat="41.907530101" lon="-6.971389465">
        <ele>1002.01</ele>
        <time>2020-09-12T08:39:31Z</time>
      </trkpt>
      <trkpt lat="41.9074529875" lon="-6.9714644831">
        <ele>1001.95</ele>
        <time>2020-09-12T08:39:32Z</time>
      </trkpt>
      <trkpt lat="41.9073769636" lon="-6.9715638924">
        <ele>1001.92</ele>
        <time>2020-09-12T08:39:33Z</time>
      </trkpt>
      <trkpt lat="41.9070895482" lon="-6.9719844963">
        <ele>1002.85</ele>
        <time>2020-09-12T08:39:37Z</time>
      </trkpt>
      <trkpt lat="41.9067588821" lon="-6.9721274916">
        <ele>1004.85</ele>
        <time>2020-09-12T08:39:41Z</time>
      </trkpt>
      <trkpt lat="41.9064759929" lon="-6.9721715804">
        <ele>1004.76</ele>
        <time>2020-09-12T08:39:44Z</time>
      </trkpt>
      <trkpt lat="41.9063438103" lon="-6.9721466862">
        <ele>1006.08</ele>
        <time>2020-09-12T08:39:46Z</time>
      </trkpt>
      <trkpt lat="41.9063645974" lon="-6.9716931414">
        <ele>1004.31</ele>
        <time>2020-09-12T08:39:51Z</time>
      </trkpt>
      <trkpt lat="41.9064508472" lon="-6.971438583">
        <ele>1003.47</ele>
        <time>2020-09-12T08:39:53Z</time>
      </trkpt>
      <trkpt lat="41.906488901" lon="-6.97130749">
        <ele>1002.14</ele>
        <time>2020-09-12T08:39:54Z</time>
      </trkpt>
      <trkpt lat="41.9065491669" lon="-6.9705772586">
        <ele>1000.69</ele>
        <time>2020-09-12T08:39:59Z</time>
      </trkpt>
      <trkpt lat="41.9066003803" lon="-6.9697366375">
        <ele>999.12</ele>
        <time>2020-09-12T08:40:04Z</time>
      </trkpt>
      <trkpt lat="41.9066369254" lon="-6.9692753814">
        <ele>1001.57</ele>
        <time>2020-09-12T08:40:07Z</time>
      </trkpt>
      <trkpt lat="41.9066186529" lon="-6.9689188991">
        <ele>1005.18</ele>
        <time>2020-09-12T08:40:10Z</time>
      </trkpt>
      <trkpt lat="41.9066493306" lon="-6.9687206671">
        <ele>1007.13</ele>
        <time>2020-09-12T08:40:12Z</time>
      </trkpt>
      <trkpt lat="41.9071341399" lon="-6.968093114">
        <ele>1004.64</ele>
        <time>2020-09-12T08:40:20Z</time>
      </trkpt>
      <trkpt lat="41.9072102476" lon="-6.968013905">
        <ele>1001.38</ele>
        <time>2020-09-12T08:40:21Z</time>
      </trkpt>
      <trkpt lat="41.9073871057" lon="-6.9678481948">
        <ele>996.72</ele>
        <time>2020-09-12T08:40:23Z</time>
      </trkpt>
      <trkpt lat="41.9074719306" lon="-6.9677666388">
        <ele>996.72</ele>
        <time>2020-09-12T08:40:24Z</time>
      </trkpt>
      <trkpt lat="41.9075470325" lon="-6.9676857535">
        <ele>999.8</ele>
        <time>2020-09-12T08:40:25Z</time>
      </trkpt>
      <trkpt lat="41.9076191168" lon="-6.9675964862">
        <ele>999.84</ele>
        <time>2020-09-12T08:40:26Z</time>
      </trkpt>
      <trkpt lat="41.9077586755" lon="-6.9674068037">
        <ele>1001.59</ele>
        <time>2020-09-12T08:40:28Z</time>
      </trkpt>
      <trkpt lat="41.907904353" lon="-6.9672247488">
        <ele>1004.8</ele>
        <time>2020-09-12T08:40:30Z</time>
      </trkpt>
      <trkpt lat="41.9079819694" lon="-6.9671372417">
        <ele>1004.76</ele>
        <time>2020-09-12T08:40:31Z</time>
      </trkpt>
      <trkpt lat="41.9084276352" lon="-6.9666681904">
        <ele>1005.83</ele>
        <time>2020-09-12T08:40:36Z</time>
      </trkpt>
      <trkpt lat="41.9088671822" lon="-6.9664174039">
        <ele>1003.04</ele>
        <time>2020-09-12T08:40:40Z</time>
      </trkpt>
      <trkpt lat="41.9092089124" lon="-6.9662569743">
        <ele>999.72</ele>
        <time>2020-09-12T08:40:43Z</time>
      </trkpt>
      <trkpt lat="41.9094524905" lon="-6.9661572296">
        <ele>996.03</ele>
        <time>2020-09-12T08:40:45Z</time>
      </trkpt>
      <trkpt lat="41.909689866" lon="-6.9660636038">
        <ele>992.43</ele>
        <time>2020-09-12T08:40:47Z</time>
      </trkpt>
      <trkpt lat="41.9099322706" lon="-6.9659490231">
        <ele>988.01</ele>
        <time>2020-09-12T08:40:49Z</time>
      </trkpt>
      <trkpt lat="41.9103055168" lon="-6.9657750987">
        <ele>984.6</ele>
        <time>2020-09-12T08:40:52Z</time>
      </trkpt>
      <trkpt lat="41.9104256295" lon="-6.9657172635">
        <ele>984.69</ele>
        <time>2020-09-12T08:40:53Z</time>
      </trkpt>
      <trkpt lat="41.9110347424" lon="-6.9653477892">
        <ele>979.29</ele>
        <time>2020-09-12T08:40:59Z</time>
      </trkpt>
      <trkpt lat="41.9111311343" lon="-6.9652856793">
        <ele>979.45</ele>
        <time>2020-09-12T08:41:00Z</time>
      </trkpt>
      <trkpt lat="41.9112997781" lon="-6.9651657343">
        <ele>975.32</ele>
        <time>2020-09-12T08:41:02Z</time>
      </trkpt>
      <trkpt lat="41.9113204814" lon="-6.9648266863">
        <ele>974.61</ele>
        <time>2020-09-12T08:41:07Z</time>
      </trkpt>
      <trkpt lat="41.9111929927" lon="-6.9646342378">
        <ele>973.15</ele>
        <time>2020-09-12T08:41:09Z</time>
      </trkpt>
      <trkpt lat="41.9110005442" lon="-6.9642691221">
        <ele>970.63</ele>
        <time>2020-09-12T08:41:12Z</time>
      </trkpt>
      <trkpt lat="41.910655126" lon="-6.9639734086">
        <ele>969.34</ele>
        <time>2020-09-12T08:41:17Z</time>
      </trkpt>
      <trkpt lat="41.9105657749" lon="-6.9640045054">
        <ele>968.42</ele>
        <time>2020-09-12T08:41:18Z</time>
      </trkpt>
      <trkpt lat="41.910359161" lon="-6.964092264">
        <ele>962.84</ele>
        <time>2020-09-12T08:41:20Z</time>
      </trkpt>
      <trkpt lat="41.910082642" lon="-6.9640793558">
        <ele>964.97</ele>
        <time>2020-09-12T08:41:23Z</time>
      </trkpt>
      <trkpt lat="41.9100209512" lon="-6.9639977161">
        <ele>964.97</ele>
        <time>2020-09-12T08:41:24Z</time>
      </trkpt>
      <trkpt lat="41.9099736772" lon="-6.9638862368">
        <ele>964.9</ele>
        <time>2020-09-12T08:41:25Z</time>
      </trkpt>
      <trkpt lat="41.9098766148" lon="-6.9636321813">
        <ele>962.13</ele>
        <time>2020-09-12T08:41:27Z</time>
      </trkpt>
      <trkpt lat="41.9097180292" lon="-6.9632189535">
        <ele>960.07</ele>
        <time>2020-09-12T08:41:30Z</time>
      </trkpt>
      <trkpt lat="41.9096264988" lon="-6.9629168697">
        <ele>958.72</ele>
        <time>2020-09-12T08:41:32Z</time>
      </trkpt>
      <trkpt lat="41.9095329568" lon="-6.9626240898">
        <ele>955.23</ele>
        <time>2020-09-12T08:41:34Z</time>
      </trkpt>
      <trkpt lat="41.9094804022" lon="-6.9624801725">
        <ele>954.11</ele>
        <time>2020-09-12T08:41:35Z</time>
      </trkpt>
      <trkpt lat="41.9092799909" lon="-6.9620992988">
        <ele>951.19</ele>
        <time>2020-09-12T08:41:38Z</time>
      </trkpt>
      <trkpt lat="41.9092039671" lon="-6.9619887415">
        <ele>951.19</ele>
        <time>2020-09-12T08:41:39Z</time>
      </trkpt>
      <trkpt lat="41.9090533443" lon="-6.9617639389">
        <ele>948.06</ele>
        <time>2020-09-12T08:41:41Z</time>
      </trkpt>
      <trkpt lat="41.9089793321" lon="-6.961649945">
        <ele>948.08</ele>
        <time>2020-09-12T08:41:42Z</time>
      </trkpt>
      <trkpt lat="41.9088348281" lon="-6.9614144135">
        <ele>943.76</ele>
        <time>2020-09-12T08:41:44Z</time>
      </trkpt>
      <trkpt lat="41.9086973649" lon="-6.961172428">
        <ele>940.85</ele>
        <time>2020-09-12T08:41:46Z</time>
      </trkpt>
      <trkpt lat="41.9085661881" lon="-6.960924156">
        <ele>936.73</ele>
        <time>2020-09-12T08:41:48Z</time>
      </trkpt>
      <trkpt lat="41.9085100293" lon="-6.9607907161">
        <ele>936.6</ele>
        <time>2020-09-12T08:41:49Z</time>
      </trkpt>
      <trkpt lat="41.9084614981" lon="-6.9606500678">
        <ele>932.81</ele>
        <time>2020-09-12T08:41:50Z</time>
      </trkpt>
      <trkpt lat="41.9083737396" lon="-6.9601846207">
        <ele>928.25</ele>
        <time>2020-09-12T08:41:53Z</time>
      </trkpt>
      <trkpt lat="41.9083393738" lon="-6.9597006496">
        <ele>925.88</ele>
        <time>2020-09-12T08:41:56Z</time>
      </trkpt>
      <trkpt lat="41.9083143957" lon="-6.9596970454">
        <ele>931.39</ele>
        <time>2020-09-12T08:42:10Z</time>
      </trkpt>
      <trkpt lat="41.9082788564" lon="-6.9597385358">
        <ele>931.55</ele>
        <time>2020-09-12T08:42:11Z</time>
      </trkpt>
      <trkpt lat="41.9079525489" lon="-6.9596439879">
        <ele>926.06</ele>
        <time>2020-09-12T08:42:16Z</time>
      </trkpt>
      <trkpt lat="41.907788096" lon="-6.9594330154">
        <ele>921.94</ele>
        <time>2020-09-12T08:42:19Z</time>
      </trkpt>
      <trkpt lat="41.9077531435" lon="-6.9593441673">
        <ele>920.99</ele>
        <time>2020-09-12T08:42:20Z</time>
      </trkpt>
      <trkpt lat="41.9076313544" lon="-6.9589089788">
        <ele>913.22</ele>
        <time>2020-09-12T08:42:24Z</time>
      </trkpt>
      <trkpt lat="41.9075202104" lon="-6.9585993513">
        <ele>908.58</ele>
        <time>2020-09-12T08:42:27Z</time>
      </trkpt>
      <trkpt lat="41.9074688293" lon="-6.9584923983">
        <ele>905.46</ele>
        <time>2020-09-12T08:42:28Z</time>
      </trkpt>
      <trkpt lat="41.9073588587" lon="-6.9582660869">
        <ele>900.97</ele>
        <time>2020-09-12T08:42:30Z</time>
      </trkpt>
      <trkpt lat="41.9072467927" lon="-6.9580372609">
        <ele>897.93</ele>
        <time>2020-09-12T08:42:32Z</time>
      </trkpt>
      <trkpt lat="41.907198932" lon="-6.9579312298">
        <ele>897.92</ele>
        <time>2020-09-12T08:42:33Z</time>
      </trkpt>
      <trkpt lat="41.907080831" lon="-6.9576269668">
        <ele>893.1</ele>
        <time>2020-09-12T08:42:36Z</time>
      </trkpt>
      <trkpt lat="41.9069241732" lon="-6.9573227875">
        <ele>887.76</ele>
        <time>2020-09-12T08:42:39Z</time>
      </trkpt>
      <trkpt lat="41.9068630692" lon="-6.9572109729">
        <ele>884.59</ele>
        <time>2020-09-12T08:42:40Z</time>
      </trkpt>
      <trkpt lat="41.9068016298" lon="-6.9570965599">
        <ele>881.11</ele>
        <time>2020-09-12T08:42:41Z</time>
      </trkpt>
      <trkpt lat="41.9066358358" lon="-6.9567887764">
        <ele>877.87</ele>
        <time>2020-09-12T08:42:44Z</time>
      </trkpt>
      <trkpt lat="41.9065179024" lon="-6.9566303585">
        <ele>876.17</ele>
        <time>2020-09-12T08:42:46Z</time>
      </trkpt>
      <trkpt lat="41.9063790143" lon="-6.9565387443">
        <ele>871.45</ele>
        <time>2020-09-12T08:42:48Z</time>
      </trkpt>
      <trkpt lat="41.9061735738" lon="-6.9562291168">
        <ele>865.04</ele>
        <time>2020-09-12T08:42:53Z</time>
      </trkpt>
      <trkpt lat="41.9061538763" lon="-6.9560952578">
        <ele>861.22</ele>
        <time>2020-09-12T08:42:54Z</time>
      </trkpt>
      <trkpt lat="41.9061227795" lon="-6.9558085967">
        <ele>857.55</ele>
        <time>2020-09-12T08:42:56Z</time>
      </trkpt>
      <trkpt lat="41.9061436504" lon="-6.9554185029">
        <ele>852.26</ele>
        <time>2020-09-12T08:42:59Z</time>
      </trkpt>
      <trkpt lat="41.9061726518" lon="-6.9551849831">
        <ele>849.98</ele>
        <time>2020-09-12T08:43:01Z</time>
      </trkpt>
      <trkpt lat="41.9060399663" lon="-6.954910811">
        <ele>848.87</ele>
        <time>2020-09-12T08:43:06Z</time>
      </trkpt>
      <trkpt lat="41.9056679774" lon="-6.9548849948">
        <ele>839.66</ele>
        <time>2020-09-12T08:43:10Z</time>
      </trkpt>
      <trkpt lat="41.9054626208" lon="-6.9548709132">
        <ele>838.56</ele>
        <time>2020-09-12T08:43:12Z</time>
      </trkpt>
      <trkpt lat="41.9052113313" lon="-6.9550930336">
        <ele>833.96</ele>
        <time>2020-09-12T08:43:15Z</time>
      </trkpt>
      <trkpt lat="41.9050837588" lon="-6.955386987">
        <ele>829.47</ele>
        <time>2020-09-12T08:43:17Z</time>
      </trkpt>
      <trkpt lat="41.9049820025" lon="-6.9557220954">
        <ele>826.46</ele>
        <time>2020-09-12T08:43:19Z</time>
      </trkpt>
      <trkpt lat="41.9046598021" lon="-6.9561596308">
        <ele>821.12</ele>
        <time>2020-09-12T08:43:23Z</time>
      </trkpt>
      <trkpt lat="41.9044758193" lon="-6.9563369919">
        <ele>819.24</ele>
        <time>2020-09-12T08:43:25Z</time>
      </trkpt>
      <trkpt lat="41.9043536112" lon="-6.9566131756">
        <ele>815.03</ele>
        <time>2020-09-12T08:43:27Z</time>
      </trkpt>
      <trkpt lat="41.9043117017" lon="-6.9569860026">
        <ele>811.09</ele>
        <time>2020-09-12T08:43:29Z</time>
      </trkpt>
      <trkpt lat="41.904315725" lon="-6.9571978971">
        <ele>808.74</ele>
        <time>2020-09-12T08:43:30Z</time>
      </trkpt>
      <trkpt lat="41.9043406192" lon="-6.9576335046">
        <ele>805.11</ele>
        <time>2020-09-12T08:43:32Z</time>
      </trkpt>
      <trkpt lat="41.904351851" lon="-6.9578065071">
        <ele>808.76</ele>
        <time>2020-09-12T08:43:33Z</time>
      </trkpt>
      <trkpt lat="41.9043626636" lon="-6.9579291344">
        <ele>812.98</ele>
        <time>2020-09-12T08:43:34Z</time>
      </trkpt>
      <trkpt lat="41.9043842051" lon="-6.95812108">
        <ele>816.63</ele>
        <time>2020-09-12T08:43:36Z</time>
      </trkpt>
      <trkpt lat="41.9042158965" lon="-6.958519388">
        <ele>814.61</ele>
        <time>2020-09-12T08:43:42Z</time>
      </trkpt>
      <trkpt lat="41.9041338377" lon="-6.9584558532">
        <ele>811.99</ele>
        <time>2020-09-12T08:43:43Z</time>
      </trkpt>
      <trkpt lat="41.9036179315" lon="-6.9581426214">
        <ele>806.29</ele>
        <time>2020-09-12T08:43:48Z</time>
      </trkpt>
      <trkpt lat="41.9035104755" lon="-6.9581290428">
        <ele>806.29</ele>
        <time>2020-09-12T08:43:49Z</time>
      </trkpt>
      <trkpt lat="41.9032336213" lon="-6.9584326353">
        <ele>806.17</ele>
        <time>2020-09-12T08:43:53Z</time>
      </trkpt>
      <trkpt lat="41.9031831622" lon="-6.9585914724">
        <ele>805.11</ele>
        <time>2020-09-12T08:43:54Z</time>
      </trkpt>
      <trkpt lat="41.9030645583" lon="-6.9591515511">
        <ele>800.28</ele>
        <time>2020-09-12T08:43:57Z</time>
      </trkpt>
      <trkpt lat="41.9030455314" lon="-6.9595511165">
        <ele>799.13</ele>
        <time>2020-09-12T08:43:59Z</time>
      </trkpt>
      <trkpt lat="41.9030731916" lon="-6.9601641688">
        <ele>799.21</ele>
        <time>2020-09-12T08:44:02Z</time>
      </trkpt>
      <trkpt lat="41.9029347226" lon="-6.9611963164">
        <ele>801.87</ele>
        <time>2020-09-12T08:44:07Z</time>
      </trkpt>
      <trkpt lat="41.9027648214" lon="-6.9620051701">
        <ele>805.32</ele>
        <time>2020-09-12T08:44:11Z</time>
      </trkpt>
      <trkpt lat="41.9027198944" lon="-6.962191835">
        <ele>805.31</ele>
        <time>2020-09-12T08:44:12Z</time>
      </trkpt>
      <trkpt lat="41.9025499932" lon="-6.9626481459">
        <ele>806.6</ele>
        <time>2020-09-12T08:44:15Z</time>
      </trkpt>
      <trkpt lat="41.9023546949" lon="-6.9628949929">
        <ele>808.52</ele>
        <time>2020-09-12T08:44:18Z</time>
      </trkpt>
      <trkpt lat="41.9020780083" lon="-6.9626465533">
        <ele>805.05</ele>
        <time>2020-09-12T08:44:22Z</time>
      </trkpt>
      <trkpt lat="41.9019476697" lon="-6.962356288">
        <ele>803.27</ele>
        <time>2020-09-12T08:44:24Z</time>
      </trkpt>
      <trkpt lat="41.9017470069" lon="-6.9618553016">
        <ele>800.75</ele>
        <time>2020-09-12T08:44:27Z</time>
      </trkpt>
      <trkpt lat="41.9016905129" lon="-6.9612296764">
        <ele>798.27</ele>
        <time>2020-09-12T08:44:30Z</time>
      </trkpt>
      <trkpt lat="41.9017073605" lon="-6.9607908837">
        <ele>796.57</ele>
        <time>2020-09-12T08:44:32Z</time>
      </trkpt>
      <trkpt lat="41.9016092923" lon="-6.9602139574">
        <ele>796.55</ele>
        <time>2020-09-12T08:44:35Z</time>
      </trkpt>
      <trkpt lat="41.9014822226" lon="-6.9598770887">
        <ele>796.59</ele>
        <time>2020-09-12T08:44:37Z</time>
      </trkpt>
      <trkpt lat="41.9012285862" lon="-6.9596222788">
        <ele>803.95</ele>
        <time>2020-09-12T08:44:41Z</time>
      </trkpt>
      <trkpt lat="41.9011243153" lon="-6.959637953">
        <ele>801.1</ele>
        <time>2020-09-12T08:44:42Z</time>
      </trkpt>
      <trkpt lat="41.9008657336" lon="-6.9597086962">
        <ele>793.88</ele>
        <time>2020-09-12T08:44:44Z</time>
      </trkpt>
      <trkpt lat="41.9005779829" lon="-6.9597891625">
        <ele>789.08</ele>
        <time>2020-09-12T08:44:46Z</time>
      </trkpt>
      <trkpt lat="41.9004416093" lon="-6.9598300662">
        <ele>788.33</ele>
        <time>2020-09-12T08:44:47Z</time>
      </trkpt>
      <trkpt lat="41.9000716321" lon="-6.9603040628">
        <ele>785.7</ele>
        <time>2020-09-12T08:44:52Z</time>
      </trkpt>
      <trkpt lat="41.9000029005" lon="-6.9606539235">
        <ele>780.95</ele>
        <time>2020-09-12T08:44:54Z</time>
      </trkpt>
      <trkpt lat="41.8998257909" lon="-6.9611719251">
        <ele>779.68</ele>
        <time>2020-09-12T08:44:57Z</time>
      </trkpt>
      <trkpt lat="41.8997028284" lon="-6.9617029186">
        <ele>781.08</ele>
        <time>2020-09-12T08:45:00Z</time>
      </trkpt>
      <trkpt lat="41.899642311" lon="-6.9619420543">
        <ele>785.51</ele>
        <time>2020-09-12T08:45:02Z</time>
      </trkpt>
      <trkpt lat="41.8995432369" lon="-6.9619982969">
        <ele>786.77</ele>
        <time>2020-09-12T08:45:04Z</time>
      </trkpt>
      <trkpt lat="41.8993692286" lon="-6.9617717341">
        <ele>786.75</ele>
        <time>2020-09-12T08:45:07Z</time>
      </trkpt>
      <trkpt lat="41.8992968928" lon="-6.9614596758">
        <ele>781.16</ele>
        <time>2020-09-12T08:45:09Z</time>
      </trkpt>
      <trkpt lat="41.8992660474" lon="-6.9612813089">
        <ele>781.2</ele>
        <time>2020-09-12T08:45:10Z</time>
      </trkpt>
      <trkpt lat="41.8992025964" lon="-6.9607462082">
        <ele>781.31</ele>
        <time>2020-09-12T08:45:13Z</time>
      </trkpt>
      <trkpt lat="41.8992345314" lon="-6.9601857942">
        <ele>777.81</ele>
        <time>2020-09-12T08:45:16Z</time>
      </trkpt>
      <trkpt lat="41.8992417399" lon="-6.9599966984">
        <ele>776.54</ele>
        <time>2020-09-12T08:45:17Z</time>
      </trkpt>
      <trkpt lat="41.8990762811" lon="-6.958502708">
        <ele>775.34</ele>
        <time>2020-09-12T08:45:26Z</time>
      </trkpt>
      <trkpt lat="41.8991081323" lon="-6.9579880591">
        <ele>771.58</ele>
        <time>2020-09-12T08:45:29Z</time>
      </trkpt>
      <trkpt lat="41.8991693202" lon="-6.9576381147">
        <ele>770.36</ele>
        <time>2020-09-12T08:45:31Z</time>
      </trkpt>
      <trkpt lat="41.8991929572" lon="-6.9574576523">
        <ele>768.81</ele>
        <time>2020-09-12T08:45:32Z</time>
      </trkpt>
      <trkpt lat="41.899201842" lon="-6.9568857551">
        <ele>764.55</ele>
        <time>2020-09-12T08:45:35Z</time>
      </trkpt>
      <trkpt lat="41.8991978187" lon="-6.9562958367">
        <ele>761.49</ele>
        <time>2020-09-12T08:45:38Z</time>
      </trkpt>
      <trkpt lat="41.8992036022" lon="-6.9561105128">
        <ele>761.41</ele>
        <time>2020-09-12T08:45:39Z</time>
      </trkpt>
      <trkpt lat="41.8992056977" lon="-6.9559296314">
        <ele>761.35</ele>
        <time>2020-09-12T08:45:40Z</time>
      </trkpt>
      <trkpt lat="41.8990677316" lon="-6.955228569">
        <ele>756.98</ele>
        <time>2020-09-12T08:45:44Z</time>
      </trkpt>
      <trkpt lat="41.898960527" lon="-6.9547077175">
        <ele>754.94</ele>
        <time>2020-09-12T08:45:47Z</time>
      </trkpt>
      <trkpt lat="41.8988508917" lon="-6.9538592175">
        <ele>750.73</ele>
        <time>2020-09-12T08:45:52Z</time>
      </trkpt>
      <trkpt lat="41.8988238182" lon="-6.9536513463">
        <ele>746.53</ele>
        <time>2020-09-12T08:45:53Z</time>
      </trkpt>
      <trkpt lat="41.898797499" lon="-6.9534277171">
        <ele>742.64</ele>
        <time>2020-09-12T08:45:54Z</time>
      </trkpt>
      <trkpt lat="41.8987793941" lon="-6.9531978853">
        <ele>739.57</ele>
        <time>2020-09-12T08:45:55Z</time>
      </trkpt>
      <trkpt lat="41.8987751193" lon="-6.952751549">
        <ele>736.24</ele>
        <time>2020-09-12T08:45:57Z</time>
      </trkpt>
      <trkpt lat="41.8987783883" lon="-6.952545438">
        <ele>736.36</ele>
        <time>2020-09-12T08:45:58Z</time>
      </trkpt>
      <trkpt lat="41.8987653125" lon="-6.9520493131">
        <ele>735.59</ele>
        <time>2020-09-12T08:46:01Z</time>
      </trkpt>
      <trkpt lat="41.8987316173" lon="-6.9519134425">
        <ele>735.65</ele>
        <time>2020-09-12T08:46:02Z</time>
      </trkpt>
      <trkpt lat="41.8986840919" lon="-6.9517779909">
        <ele>735.71</ele>
        <time>2020-09-12T08:46:03Z</time>
      </trkpt>
      <trkpt lat="41.898518214" lon="-6.9514010567">
        <ele>738</ele>
        <time>2020-09-12T08:46:07Z</time>
      </trkpt>
      <trkpt lat="41.89842836" lon="-6.9512676168">
        <ele>737.93</ele>
        <time>2020-09-12T08:46:09Z</time>
      </trkpt>
      <trkpt lat="41.898360718" lon="-6.9512239471">
        <ele>737.94</ele>
        <time>2020-09-12T08:46:10Z</time>
      </trkpt>
      <trkpt lat="41.8982853647" lon="-6.9511933532">
        <ele>734.82</ele>
        <time>2020-09-12T08:46:11Z</time>
      </trkpt>
      <trkpt lat="41.8982107658" lon="-6.9511543773">
        <ele>733.73</ele>
        <time>2020-09-12T08:46:12Z</time>
      </trkpt>
      <trkpt lat="41.8981399387" lon="-6.9510900881">
        <ele>731.88</ele>
        <time>2020-09-12T08:46:13Z</time>
      </trkpt>
      <trkpt lat="41.8980848696" lon="-6.9509954564">
        <ele>729.2</ele>
        <time>2020-09-12T08:46:14Z</time>
      </trkpt>
      <trkpt lat="41.8980408646" lon="-6.9508827198">
        <ele>728.31</ele>
        <time>2020-09-12T08:46:15Z</time>
      </trkpt>
      <trkpt lat="41.8980002124" lon="-6.9507683069">
        <ele>727.26</ele>
        <time>2020-09-12T08:46:16Z</time>
      </trkpt>
      <trkpt lat="41.8979200814" lon="-6.9505360443">
        <ele>725.85</ele>
        <time>2020-09-12T08:46:18Z</time>
      </trkpt>
      <trkpt lat="41.8978775013" lon="-6.950439401">
        <ele>724.8</ele>
        <time>2020-09-12T08:46:19Z</time>
      </trkpt>
      <trkpt lat="41.8978296407" lon="-6.9503647182">
        <ele>724.86</ele>
        <time>2020-09-12T08:46:20Z</time>
      </trkpt>
      <trkpt lat="41.8977738172" lon="-6.9503175281">
        <ele>724.86</ele>
        <time>2020-09-12T08:46:21Z</time>
      </trkpt>
      <trkpt lat="41.8977076001" lon="-6.9503103197">
        <ele>724.88</ele>
        <time>2020-09-12T08:46:22Z</time>
      </trkpt>
      <trkpt lat="41.897633085" lon="-6.9503302686">
        <ele>724.58</ele>
        <time>2020-09-12T08:46:23Z</time>
      </trkpt>
      <trkpt lat="41.8975449074" lon="-6.9503758661">
        <ele>721.4</ele>
        <time>2020-09-12T08:46:24Z</time>
      </trkpt>
      <trkpt lat="41.8974369485" lon="-6.9504213799">
        <ele>718.93</ele>
        <time>2020-09-12T08:46:25Z</time>
      </trkpt>
      <trkpt lat="41.8973294087" lon="-6.9504578412">
        <ele>716.12</ele>
        <time>2020-09-12T08:46:26Z</time>
      </trkpt>
      <trkpt lat="41.8972257245" lon="-6.9504935481">
        <ele>716.21</ele>
        <time>2020-09-12T08:46:27Z</time>
      </trkpt>
      <trkpt lat="41.8969922047" lon="-6.9505728409">
        <ele>712.02</ele>
        <time>2020-09-12T08:46:29Z</time>
      </trkpt>
      <trkpt lat="41.8968712538" lon="-6.9505887665">
        <ele>712.05</ele>
        <time>2020-09-12T08:46:30Z</time>
      </trkpt>
      <trkpt lat="41.8967552483" lon="-6.9505608547">
        <ele>712.06</ele>
        <time>2020-09-12T08:46:31Z</time>
      </trkpt>
      <trkpt lat="41.8966479599" lon="-6.9504866749">
        <ele>712.02</ele>
        <time>2020-09-12T08:46:32Z</time>
      </trkpt>
      <trkpt lat="41.896545114" lon="-6.9503853377">
        <ele>712.15</ele>
        <time>2020-09-12T08:46:33Z</time>
      </trkpt>
      <trkpt lat="41.8964421842" lon="-6.9502738584">
        <ele>712.17</ele>
        <time>2020-09-12T08:46:34Z</time>
      </trkpt>
      <trkpt lat="41.8962445389" lon="-6.9500180427">
        <ele>714.56</ele>
        <time>2020-09-12T08:46:36Z</time>
      </trkpt>
      <trkpt lat="41.8961644918" lon="-6.9498640671">
        <ele>715.42</ele>
        <time>2020-09-12T08:46:37Z</time>
      </trkpt>
      <trkpt lat="41.8960982747" lon="-6.9496900588">
        <ele>715.43</ele>
        <time>2020-09-12T08:46:38Z</time>
      </trkpt>
      <trkpt lat="41.8960416131" lon="-6.9495036453">
        <ele>715.43</ele>
        <time>2020-09-12T08:46:39Z</time>
      </trkpt>
      <trkpt lat="41.8959934171" lon="-6.9493112806">
        <ele>716.59</ele>
        <time>2020-09-12T08:46:40Z</time>
      </trkpt>
      <trkpt lat="41.8959800899" lon="-6.9490124658">
        <ele>728.57</ele>
        <time>2020-09-12T08:47:37Z</time>
      </trkpt>
      <trkpt lat="41.8960019667" lon="-6.948939627">
        <ele>727.51</ele>
        <time>2020-09-12T08:47:41Z</time>
      </trkpt>
      <trkpt lat="41.8960135337" lon="-6.9488402177">
        <ele>724.07</ele>
        <time>2020-09-12T08:47:43Z</time>
      </trkpt>
      <trkpt lat="41.8960349075" lon="-6.9487768505">
        <ele>724.1</ele>
        <time>2020-09-12T08:47:44Z</time>
      </trkpt>
      <trkpt lat="41.8961052317" lon="-6.9486389682">
        <ele>723.33</ele>
        <time>2020-09-12T08:47:46Z</time>
      </trkpt>
      <trkpt lat="41.8961702753" lon="-6.9484893512">
        <ele>722.61</ele>
        <time>2020-09-12T08:47:48Z</time>
      </trkpt>
      <trkpt lat="41.8962141126" lon="-6.9483332802">
        <ele>717.47</ele>
        <time>2020-09-12T08:47:50Z</time>
      </trkpt>
      <trkpt lat="41.8962283619" lon="-6.9482574239">
        <ele>721.62</ele>
        <time>2020-09-12T08:47:51Z</time>
      </trkpt>
      <trkpt lat="41.8962593749" lon="-6.948023485">
        <ele>721.67</ele>
        <time>2020-09-12T08:47:54Z</time>
      </trkpt>
      <trkpt lat="41.8961836863" lon="-6.9476975966">
        <ele>719.29</ele>
        <time>2020-09-12T08:47:58Z</time>
      </trkpt>
      <trkpt lat="41.8961401004" lon="-6.9476243388">
        <ele>718.2</ele>
        <time>2020-09-12T08:47:59Z</time>
      </trkpt>
      <trkpt lat="41.8959634099" lon="-6.9473242667">
        <ele>714.72</ele>
        <time>2020-09-12T08:48:03Z</time>
      </trkpt>
      <trkpt lat="41.895859139" lon="-6.9471952692">
        <ele>713.84</ele>
        <time>2020-09-12T08:48:05Z</time>
      </trkpt>
      <trkpt lat="41.8956421316" lon="-6.9471381884">
        <ele>710.18</ele>
        <time>2020-09-12T08:48:08Z</time>
      </trkpt>
      <trkpt lat="41.8954982981" lon="-6.9471313991">
        <ele>710.13</ele>
        <time>2020-09-12T08:48:10Z</time>
      </trkpt>
      <trkpt lat="41.8949392252" lon="-6.946997121">
        <ele>707.41</ele>
        <time>2020-09-12T08:48:18Z</time>
      </trkpt>
      <trkpt lat="41.8948482815" lon="-6.946589509">
        <ele>706.49</ele>
        <time>2020-09-12T08:48:23Z</time>
      </trkpt>
      <trkpt lat="41.8948960584" lon="-6.946373675">
        <ele>706.46</ele>
        <time>2020-09-12T08:48:25Z</time>
      </trkpt>
      <trkpt lat="41.894915672" lon="-6.9460359681">
        <ele>710.15</ele>
        <time>2020-09-12T08:48:28Z</time>
      </trkpt>
      <trkpt lat="41.8949598446" lon="-6.9456506521">
        <ele>713.97</ele>
        <time>2020-09-12T08:48:32Z</time>
      </trkpt>
      <trkpt lat="41.8949699029" lon="-6.9455665816">
        <ele>713.96</ele>
        <time>2020-09-12T08:48:33Z</time>
      </trkpt>
      <trkpt lat="41.8948538974" lon="-6.9451563712">
        <ele>713.89</ele>
        <time>2020-09-12T08:48:39Z</time>
      </trkpt>
      <trkpt lat="41.8946319446" lon="-6.9447232783">
        <ele>711.04</ele>
        <time>2020-09-12T08:48:46Z</time>
      </trkpt>
      <trkpt lat="41.894666981" lon="-6.9445185084">
        <ele>709.68</ele>
        <time>2020-09-12T08:48:48Z</time>
      </trkpt>
      <trkpt lat="41.8947873451" lon="-6.9440835714">
        <ele>713.15</ele>
        <time>2020-09-12T08:49:15Z</time>
      </trkpt>
      <trkpt lat="41.8948019296" lon="-6.9438950624">
        <ele>713.14</ele>
        <time>2020-09-12T08:49:18Z</time>
      </trkpt>
      <trkpt lat="41.8949605152" lon="-6.9433864485">
        <ele>709.06</ele>
        <time>2020-09-12T08:49:22Z</time>
      </trkpt>
      <trkpt lat="41.8949944619" lon="-6.9432281982">
        <ele>709.09</ele>
        <time>2020-09-12T08:49:23Z</time>
      </trkpt>
      <trkpt lat="41.8950225413" lon="-6.9430764858">
        <ele>709.05</ele>
        <time>2020-09-12T08:49:24Z</time>
      </trkpt>
      <trkpt lat="41.8950363714" lon="-6.9424072746">
        <ele>704.75</ele>
        <time>2020-09-12T08:49:28Z</time>
      </trkpt>
      <trkpt lat="41.895025475" lon="-6.9422372058">
        <ele>704.78</ele>
        <time>2020-09-12T08:49:29Z</time>
      </trkpt>
      <trkpt lat="41.8949590903" lon="-6.9418613613">
        <ele>712.81</ele>
        <time>2020-09-12T08:49:32Z</time>
      </trkpt>
      <trkpt lat="41.8949209526" lon="-6.9417060446">
        <ele>715.8</ele>
        <time>2020-09-12T08:49:35Z</time>
      </trkpt>
      <trkpt lat="41.8949052785" lon="-6.941666482">
        <ele>715.76</ele>
        <time>2020-09-12T08:49:36Z</time>
      </trkpt>
      <trkpt lat="41.8947320245" lon="-6.9413731154">
        <ele>715.74</ele>
        <time>2020-09-12T08:49:44Z</time>
      </trkpt>
      <trkpt lat="41.8946309388" lon="-6.9412633963">
        <ele>712.56</ele>
        <time>2020-09-12T08:49:47Z</time>
      </trkpt>
      <trkpt lat="41.8945337087" lon="-6.9412234146">
        <ele>711.35</ele>
        <time>2020-09-12T08:49:49Z</time>
      </trkpt>
      <trkpt lat="41.8942664936" lon="-6.9410634041">
        <ele>710</ele>
        <time>2020-09-12T08:49:57Z</time>
      </trkpt>
      <trkpt lat="41.8943487201" lon="-6.9409569539">
        <ele>706.63</ele>
        <time>2020-09-12T08:49:59Z</time>
      </trkpt>
      <trkpt lat="41.8944349699" lon="-6.9408360031">
        <ele>704.83</ele>
        <time>2020-09-12T08:50:01Z</time>
      </trkpt>
      <trkpt lat="41.894501606" lon="-6.9407238532">
        <ele>703.6</ele>
        <time>2020-09-12T08:50:03Z</time>
      </trkpt>
      <trkpt lat="41.8946207128" lon="-6.9405555446">
        <ele>701.69</ele>
        <time>2020-09-12T08:50:08Z</time>
      </trkpt>
      <trkpt lat="41.8947443459" lon="-6.9404643495">
        <ele>696.7</ele>
        <time>2020-09-12T08:50:11Z</time>
      </trkpt>
      <trkpt lat="41.8948509637" lon="-6.9404293131">
        <ele>694.5</ele>
        <time>2020-09-12T08:50:13Z</time>
      </trkpt>
      <trkpt lat="41.8949090503" lon="-6.9404214341">
        <ele>692.16</ele>
        <time>2020-09-12T08:50:14Z</time>
      </trkpt>
      <trkpt lat="41.8951098807" lon="-6.9403428119">
        <ele>691.13</ele>
        <time>2020-09-12T08:50:19Z</time>
      </trkpt>
      <trkpt lat="41.8952137325" lon="-6.9402503595">
        <ele>689.71</ele>
        <time>2020-09-12T08:50:21Z</time>
      </trkpt>
      <trkpt lat="41.8953901716" lon="-6.939953221">
        <ele>686.96</ele>
        <time>2020-09-12T08:50:24Z</time>
      </trkpt>
      <trkpt lat="41.8955247849" lon="-6.9396855868">
        <ele>682.89</ele>
        <time>2020-09-12T08:50:26Z</time>
      </trkpt>
      <trkpt lat="41.8955863919" lon="-6.939541921">
        <ele>682.77</ele>
        <time>2020-09-12T08:50:27Z</time>
      </trkpt>
      <trkpt lat="41.8956996314" lon="-6.9389395975">
        <ele>680.14</ele>
        <time>2020-09-12T08:50:31Z</time>
      </trkpt>
      <trkpt lat="41.8956512678" lon="-6.9385918323">
        <ele>679.23</ele>
        <time>2020-09-12T08:50:33Z</time>
      </trkpt>
      <trkpt lat="41.895548841" lon="-6.9379967172">
        <ele>674.02</ele>
        <time>2020-09-12T08:50:36Z</time>
      </trkpt>
      <trkpt lat="41.8955004774" lon="-6.9376487006">
        <ele>677.56</ele>
        <time>2020-09-12T08:50:38Z</time>
      </trkpt>
      <trkpt lat="41.895473823" lon="-6.9373799767">
        <ele>681.74</ele>
        <time>2020-09-12T08:50:40Z</time>
      </trkpt>
      <trkpt lat="41.895423783" lon="-6.9372026995">
        <ele>683.19</ele>
        <time>2020-09-12T08:50:42Z</time>
      </trkpt>
      <trkpt lat="41.8952981383" lon="-6.9369891286">
        <ele>679.06</ele>
        <time>2020-09-12T08:50:44Z</time>
      </trkpt>
      <trkpt lat="41.8951275665" lon="-6.9367358275">
        <ele>677</ele>
        <time>2020-09-12T08:50:46Z</time>
      </trkpt>
      <trkpt lat="41.8949634489" lon="-6.9364563748">
        <ele>675.69</ele>
        <time>2020-09-12T08:50:48Z</time>
      </trkpt>
      <trkpt lat="41.8947995827" lon="-6.9362098631">
        <ele>679.08</ele>
        <time>2020-09-12T08:50:50Z</time>
      </trkpt>
      <trkpt lat="41.8947089743" lon="-6.9360949472">
        <ele>679.06</ele>
        <time>2020-09-12T08:50:51Z</time>
      </trkpt>
      <trkpt lat="41.894420553" lon="-6.9357225392">
        <ele>676.19</ele>
        <time>2020-09-12T08:50:54Z</time>
      </trkpt>
      <trkpt lat="41.8936940096" lon="-6.9349502306">
        <ele>674.84</ele>
        <time>2020-09-12T08:51:01Z</time>
      </trkpt>
      <trkpt lat="41.893313136" lon="-6.9346843567">
        <ele>671.41</ele>
        <time>2020-09-12T08:51:04Z</time>
      </trkpt>
      <trkpt lat="41.892964365" lon="-6.9344608951">
        <ele>673.9</ele>
        <time>2020-09-12T08:51:07Z</time>
      </trkpt>
      <trkpt lat="41.8926750217" lon="-6.9341414608">
        <ele>670.18</ele>
        <time>2020-09-12T08:51:10Z</time>
      </trkpt>
      <trkpt lat="41.8925735168" lon="-6.9340388663">
        <ele>670.14</ele>
        <time>2020-09-12T08:51:11Z</time>
      </trkpt>
      <trkpt lat="41.8922706787" lon="-6.9338624272">
        <ele>673.55</ele>
        <time>2020-09-12T08:51:14Z</time>
      </trkpt>
      <trkpt lat="41.8918235879" lon="-6.9338082802">
        <ele>673.5</ele>
        <time>2020-09-12T08:51:18Z</time>
      </trkpt>
      <trkpt lat="41.8913681991" lon="-6.9340030756">
        <ele>667.04</ele>
        <time>2020-09-12T08:51:22Z</time>
      </trkpt>
      <trkpt lat="41.8911381997" lon="-6.9341542851">
        <ele>663.76</ele>
        <time>2020-09-12T08:51:24Z</time>
      </trkpt>
      <trkpt lat="41.891020434" lon="-6.9342254475">
        <ele>663.73</ele>
        <time>2020-09-12T08:51:25Z</time>
      </trkpt>
      <trkpt lat="41.8909071945" lon="-6.9342844561">
        <ele>663.74</ele>
        <time>2020-09-12T08:51:26Z</time>
      </trkpt>
      <trkpt lat="41.8904884346" lon="-6.9344350789">
        <ele>663.8</ele>
        <time>2020-09-12T08:51:30Z</time>
      </trkpt>
      <trkpt lat="41.8904139195" lon="-6.9344704505">
        <ele>666.36</ele>
        <time>2020-09-12T08:51:31Z</time>
      </trkpt>
      <trkpt lat="41.8903591018" lon="-6.9344927464">
        <ele>666.43</ele>
        <time>2020-09-12T08:51:32Z</time>
      </trkpt>
      <trkpt lat="41.8903410807" lon="-6.9344092626">
        <ele>667.18</ele>
        <time>2020-09-12T08:51:35Z</time>
      </trkpt>
      <trkpt lat="41.8903815653" lon="-6.9343435485">
        <ele>664.38</ele>
        <time>2020-09-12T08:51:36Z</time>
      </trkpt>
      <trkpt lat="41.8904212955" lon="-6.9342605677">
        <ele>663.29</ele>
        <time>2020-09-12T08:51:37Z</time>
      </trkpt>
      <trkpt lat="41.8904447649" lon="-6.9341502618">
        <ele>661.76</ele>
        <time>2020-09-12T08:51:38Z</time>
      </trkpt>
      <trkpt lat="41.8904487044" lon="-6.9340142235">
        <ele>660.81</ele>
        <time>2020-09-12T08:51:39Z</time>
      </trkpt>
      <trkpt lat="41.8904480338" lon="-6.9338641874">
        <ele>658.92</ele>
        <time>2020-09-12T08:51:40Z</time>
      </trkpt>
      <trkpt lat="41.8904663064" lon="-6.9337133132">
        <ele>658.9</ele>
        <time>2020-09-12T08:51:41Z</time>
      </trkpt>
      <trkpt lat="41.8905170169" lon="-6.9335784484">
        <ele>658.96</ele>
        <time>2020-09-12T08:51:42Z</time>
      </trkpt>
      <trkpt lat="41.8906113133" lon="-6.9334606826">
        <ele>657.9</ele>
        <time>2020-09-12T08:51:43Z</time>
      </trkpt>
      <trkpt lat="41.8907289952" lon="-6.9333541486">
        <ele>656.89</ele>
        <time>2020-09-12T08:51:44Z</time>
      </trkpt>
      <trkpt lat="41.890850449" lon="-6.9332419988">
        <ele>656.83</ele>
        <time>2020-09-12T08:51:45Z</time>
      </trkpt>
      <trkpt lat="41.8909644429" lon="-6.9331093971">
        <ele>656.86</ele>
        <time>2020-09-12T08:51:46Z</time>
      </trkpt>
      <trkpt lat="41.8910655286" lon="-6.9329472072">
        <ele>656.86</ele>
        <time>2020-09-12T08:51:47Z</time>
      </trkpt>
      <trkpt lat="41.8911543768" lon="-6.9327564351">
        <ele>656.84</ele>
        <time>2020-09-12T08:51:48Z</time>
      </trkpt>
      <trkpt lat="41.8912368547" lon="-6.9325492345">
        <ele>655.76</ele>
        <time>2020-09-12T08:51:49Z</time>
      </trkpt>
      <trkpt lat="41.8914097734" lon="-6.9318976253">
        <ele>655.92</ele>
        <time>2020-09-12T08:51:52Z</time>
      </trkpt>
      <trkpt lat="41.8914171495" lon="-6.9316686317">
        <ele>659.5</ele>
        <time>2020-09-12T08:51:53Z</time>
      </trkpt>
      <trkpt lat="41.891393261" lon="-6.9314386323">
        <ele>659.59</ele>
        <time>2020-09-12T08:51:54Z</time>
      </trkpt>
      <trkpt lat="41.8913423829" lon="-6.9312119018">
        <ele>660.75</ele>
        <time>2020-09-12T08:51:55Z</time>
      </trkpt>
      <trkpt lat="41.8912767526" lon="-6.930990871">
        <ele>661.78</ele>
        <time>2020-09-12T08:51:56Z</time>
      </trkpt>
      <trkpt lat="41.8912137207" lon="-6.9307826646">
        <ele>665.7</ele>
        <time>2020-09-12T08:51:57Z</time>
      </trkpt>
      <trkpt lat="41.891172817" lon="-6.930596251">
        <ele>668.88</ele>
        <time>2020-09-12T08:51:58Z</time>
      </trkpt>
      <trkpt lat="41.8911680393" lon="-6.9304271042">
        <ele>672.12</ele>
        <time>2020-09-12T08:51:59Z</time>
      </trkpt>
      <trkpt lat="41.8912193365" lon="-6.9302670937">
        <ele>672.98</ele>
        <time>2020-09-12T08:52:00Z</time>
      </trkpt>
      <trkpt lat="41.8913207576" lon="-6.9301201589">
        <ele>672.93</ele>
        <time>2020-09-12T08:52:01Z</time>
      </trkpt>
      <trkpt lat="41.891446067" lon="-6.9299752358">
        <ele>669.04</ele>
        <time>2020-09-12T08:52:02Z</time>
      </trkpt>
      <trkpt lat="41.8915795069" lon="-6.9298219308">
        <ele>667.17</ele>
        <time>2020-09-12T08:52:03Z</time>
      </trkpt>
      <trkpt lat="41.891716551" lon="-6.9296600763">
        <ele>667.24</ele>
        <time>2020-09-12T08:52:04Z</time>
      </trkpt>
      <trkpt lat="41.8922555912" lon="-6.9291093014">
        <ele>669.92</ele>
        <time>2020-09-12T08:52:08Z</time>
      </trkpt>
      <trkpt lat="41.8924194574" lon="-6.9290418271">
        <ele>669.99</ele>
        <time>2020-09-12T08:52:09Z</time>
      </trkpt>
      <trkpt lat="41.8925999198" lon="-6.9290117361">
        <ele>667.32</ele>
        <time>2020-09-12T08:52:10Z</time>
      </trkpt>
      <trkpt lat="41.8927909434" lon="-6.9289974868">
        <ele>667.34</ele>
        <time>2020-09-12T08:52:11Z</time>
      </trkpt>
      <trkpt lat="41.8935911637" lon="-6.928947363">
        <ele>671.02</ele>
        <time>2020-09-12T08:52:15Z</time>
      </trkpt>
      <trkpt lat="41.8942105025" lon="-6.9289111532">
        <ele>675.32</ele>
        <time>2020-09-12T08:52:18Z</time>
      </trkpt>
      <trkpt lat="41.8944177032" lon="-6.9288909528">
        <ele>675.23</ele>
        <time>2020-09-12T08:52:19Z</time>
      </trkpt>
      <trkpt lat="41.8948291708" lon="-6.9288321957">
        <ele>681.41</ele>
        <time>2020-09-12T08:52:21Z</time>
      </trkpt>
      <trkpt lat="41.8952365313" lon="-6.9287555851">
        <ele>684.42</ele>
        <time>2020-09-12T08:52:23Z</time>
      </trkpt>
      <trkpt lat="41.8956412934" lon="-6.928682914">
        <ele>687.8</ele>
        <time>2020-09-12T08:52:25Z</time>
      </trkpt>
      <trkpt lat="41.8960412778" lon="-6.9286052138">
        <ele>691.67</ele>
        <time>2020-09-12T08:52:27Z</time>
      </trkpt>
      <trkpt lat="41.8962339777" lon="-6.928562047">
        <ele>695.45</ele>
        <time>2020-09-12T08:52:28Z</time>
      </trkpt>
      <trkpt lat="41.8964120094" lon="-6.9285201374">
        <ele>700.12</ele>
        <time>2020-09-12T08:52:29Z</time>
      </trkpt>
      <trkpt lat="41.8965713494" lon="-6.9284790661">
        <ele>704.98</ele>
        <time>2020-09-12T08:52:30Z</time>
      </trkpt>
      <trkpt lat="41.8967019394" lon="-6.9284281041">
        <ele>710.31</ele>
        <time>2020-09-12T08:52:31Z</time>
      </trkpt>
      <trkpt lat="41.8967982475" lon="-6.928364234">
        <ele>715.39</ele>
        <time>2020-09-12T08:52:32Z</time>
      </trkpt>
      <trkpt lat="41.8968649674" lon="-6.9282996096">
        <ele>718.73</ele>
        <time>2020-09-12T08:52:33Z</time>
      </trkpt>
      <trkpt lat="41.8969062902" lon="-6.9282380026">
        <ele>720.96</ele>
        <time>2020-09-12T08:52:34Z</time>
      </trkpt>
      <trkpt lat="41.8969225511" lon="-6.9281594642">
        <ele>720.99</ele>
        <time>2020-09-12T08:52:35Z</time>
      </trkpt>
      <trkpt lat="41.8969165999" lon="-6.9280516729">
        <ele>722.07</ele>
        <time>2020-09-12T08:52:36Z</time>
      </trkpt>
      <trkpt lat="41.8969042785" lon="-6.9279327337">
        <ele>722.01</ele>
        <time>2020-09-12T08:52:37Z</time>
      </trkpt>
      <trkpt lat="41.8969041109" lon="-6.927834833">
        <ele>723.4</ele>
        <time>2020-09-12T08:52:38Z</time>
      </trkpt>
      <trkpt lat="41.8969280832" lon="-6.9277806859">
        <ele>727.07</ele>
        <time>2020-09-12T08:52:39Z</time>
      </trkpt>
      <trkpt lat="41.8969730102" lon="-6.9277747348">
        <ele>726.96</ele>
        <time>2020-09-12T08:52:40Z</time>
      </trkpt>
      <trkpt lat="41.8972070329" lon="-6.9279851206">
        <ele>723.7</ele>
        <time>2020-09-12T08:52:43Z</time>
      </trkpt>
      <trkpt lat="41.8973269779" lon="-6.9282793254">
        <ele>721.84</ele>
        <time>2020-09-12T08:52:45Z</time>
      </trkpt>
      <trkpt lat="41.8975754175" lon="-6.9287840836">
        <ele>728.02</ele>
        <time>2020-09-12T08:52:49Z</time>
      </trkpt>
      <trkpt lat="41.8979326542" lon="-6.9287561718">
        <ele>724.1</ele>
        <time>2020-09-12T08:52:53Z</time>
      </trkpt>
      <trkpt lat="41.89822436662431" lon="-6.928526771238813">
        <ele>717.18</ele>
        <time>2020-09-12T08:52:59Z</time>
      </trkpt>
      <trkpt lat="41.8983345665" lon="-6.9288002606">
        <ele>713.35</ele>
        <time>2020-09-12T08:53:01Z</time>
      </trkpt>
      <trkpt lat="41.8983680941" lon="-6.9291586708">
        <ele>708.58</ele>
        <time>2020-09-12T08:53:05Z</time>
      </trkpt>
      <trkpt lat="41.8984064832" lon="-6.9300049916">
        <ele>710.61</ele>
        <time>2020-09-12T08:53:11Z</time>
      </trkpt>
      <trkpt lat="41.8983661663" lon="-6.9312678929">
        <ele>708.14</ele>
        <time>2020-09-12T08:53:16Z</time>
      </trkpt>
      <trkpt lat="41.8980767392" lon="-6.9321523514">
        <ele>703.81</ele>
        <time>2020-09-12T08:53:19Z</time>
      </trkpt>
      <trkpt lat="41.8978438061" lon="-6.932668509">
        <ele>700.44</ele>
        <time>2020-09-12T08:53:21Z</time>
      </trkpt>
      <trkpt lat="41.8976822868" lon="-6.9330252428">
        <ele>700.51</ele>
        <time>2020-09-12T08:53:22Z</time>
      </trkpt>
      <trkpt lat="41.8976086099" lon="-6.9331901148">
        <ele>700.5</ele>
        <time>2020-09-12T08:53:27Z</time>
      </trkpt>
      <trkpt lat="41.8973909318" lon="-6.9339226093">
        <ele>697.18</ele>
        <time>2020-09-12T08:53:32Z</time>
      </trkpt>
      <trkpt lat="41.8975426443" lon="-6.9343491644">
        <ele>697.14</ele>
        <time>2020-09-12T08:53:33Z</time>
      </trkpt>
      <trkpt lat="41.8975966237" lon="-6.9344401918">
        <ele>691.44</ele>
        <time>2020-09-12T08:53:35Z</time>
      </trkpt>
      <trkpt lat="41.8976689596" lon="-6.9346716162">
        <ele>684.06</ele>
        <time>2020-09-12T08:53:39Z</time>
      </trkpt>
      <trkpt lat="41.897900803" lon="-6.9351664837">
        <ele>680.14</ele>
        <time>2020-09-12T08:53:40Z</time>
      </trkpt>
      <trkpt lat="41.8980085105" lon="-6.9352753647">
        <ele>675.36</ele>
        <time>2020-09-12T08:53:42Z</time>
      </trkpt>
      <trkpt lat="41.8982201535" lon="-6.9355277438">
        <ele>675.24</ele>
        <time>2020-09-12T08:53:43Z</time>
      </trkpt>
      <trkpt lat="41.8983156234" lon="-6.9356408156">
        <ele>673.03</ele>
        <time>2020-09-12T08:53:48Z</time>
      </trkpt>
      <trkpt lat="41.8988431804" lon="-6.9358817115">
        <ele>671.84</ele>
        <time>2020-09-12T08:53:49Z</time>
      </trkpt>
      <trkpt lat="41.8989514746" lon="-6.9359858148">
        <ele>671.85</ele>
        <time>2020-09-12T08:53:51Z</time>
      </trkpt>
      <trkpt lat="41.899153227" lon="-6.9361972902">
        <ele>672.01</ele>
        <time>2020-09-12T08:53:55Z</time>
      </trkpt>
      <trkpt lat="41.8995577376" lon="-6.9363675267">
        <ele>677.02</ele>
        <time>2020-09-12T08:53:58Z</time>
      </trkpt>
      <trkpt lat="41.8997189216" lon="-6.9363825303">
        <ele>677.13</ele>
        <time>2020-09-12T08:54:43Z</time>
      </trkpt>
      <trkpt lat="41.8997491803" lon="-6.936357636">
        <ele>678.07</ele>
        <time>2020-09-12T08:54:46Z</time>
      </trkpt>
      <trkpt lat="41.8997924309" lon="-6.9362605736">
        <ele>672.97</ele>
        <time>2020-09-12T08:54:49Z</time>
      </trkpt>
      <trkpt lat="41.899866024" lon="-6.9360676222">
        <ele>668.39</ele>
        <time>2020-09-12T08:54:51Z</time>
      </trkpt>
      <trkpt lat="41.8999381084" lon="-6.9358627684">
        <ele>668.37</ele>
        <time>2020-09-12T08:54:52Z</time>
      </trkpt>
      <trkpt lat="41.8999785092" lon="-6.9357692264">
        <ele>666.03</ele>
        <time>2020-09-12T08:54:54Z</time>
      </trkpt>
      <trkpt lat="41.900086971" lon="-6.9356533047">
        <ele>662.72</ele>
        <time>2020-09-12T08:54:56Z</time>
      </trkpt>
      <trkpt lat="41.9002332352" lon="-6.9356020074">
        <ele>662.71</ele>
        <time>2020-09-12T08:54:57Z</time>
      </trkpt>
      <trkpt lat="41.9003168866" lon="-6.9355652947">
        <ele>661.67</ele>
        <time>2020-09-12T08:54:58Z</time>
      </trkpt>
      <trkpt lat="41.900405651" lon="-6.9355403166">
        <ele>661.64</ele>
        <time>2020-09-12T08:55:02Z</time>
      </trkpt>
      <trkpt lat="41.9007578585" lon="-6.9354714174">
        <ele>661.63</ele>
        <time>2020-09-12T08:55:04Z</time>
      </trkpt>
      <trkpt lat="41.9009400811" lon="-6.9353846647">
        <ele>661.61</ele>
        <time>2020-09-12T08:55:08Z</time>
      </trkpt>
      <trkpt lat="41.9013272412" lon="-6.9352838304">
        <ele>661.61</ele>
        <time>2020-09-12T08:55:10Z</time>
      </trkpt>
      <trkpt lat="41.9015192706" lon="-6.9352174457">
        <ele>665.05</ele>
        <time>2020-09-12T08:55:13Z</time>
      </trkpt>
      <trkpt lat="41.9017471746" lon="-6.9351940602">
        <ele>666.44</ele>
        <time>2020-09-12T08:55:15Z</time>
      </trkpt>
      <trkpt lat="41.9018036686" lon="-6.9352131709">
        <ele>663.1</ele>
        <time>2020-09-12T08:55:20Z</time>
      </trkpt>
      <trkpt lat="41.9020604901" lon="-6.9352829084">
        <ele>662.12</ele>
        <time>2020-09-12T08:55:24Z</time>
      </trkpt>
      <trkpt lat="41.9023322314" lon="-6.9355658814">
        <ele>659.39</ele>
        <time>2020-09-12T08:55:28Z</time>
      </trkpt>
      <trkpt lat="41.9026224129" lon="-6.9360069372">
        <ele>664.38</ele>
        <time>2020-09-12T08:55:30Z</time>
      </trkpt>
      <trkpt lat="41.9027479738" lon="-6.9362088572">
        <ele>670.23</ele>
        <time>2020-09-12T08:55:34Z</time>
      </trkpt>
      <trkpt lat="41.903094817" lon="-6.9364184886">
        <ele>673.89</ele>
        <time>2020-09-12T08:55:37Z</time>
      </trkpt>
      <trkpt lat="41.903392626" lon="-6.9363036565">
        <ele>675.19</ele>
        <time>2020-09-12T08:55:39Z</time>
      </trkpt>
      <trkpt lat="41.9035562407" lon="-6.9360777643">
        <ele>677.34</ele>
        <time>2020-09-12T08:55:42Z</time>
      </trkpt>
      <trkpt lat="41.9037356973" lon="-6.9355971459">
        <ele>682.24</ele>
        <time>2020-09-12T08:55:43Z</time>
      </trkpt>
      <trkpt lat="41.9037757628" lon="-6.9354254007">
        <ele>684.73</ele>
        <time>2020-09-12T08:55:45Z</time>
      </trkpt>
      <trkpt lat="41.9038219471" lon="-6.9350747019">
        <ele>695.46</ele>
        <time>2020-09-12T08:55:48Z</time>
      </trkpt>
      <trkpt lat="41.9038960431" lon="-6.9345795829">
        <ele>699.08</ele>
        <time>2020-09-12T08:55:49Z</time>
      </trkpt>
      <trkpt lat="41.903932672" lon="-6.9344807602">
        <ele>702.55</ele>
        <time>2020-09-12T08:55:50Z</time>
      </trkpt>
      <trkpt lat="41.9039767608" lon="-6.9344273675">
        <ele>702.53</ele>
        <time>2020-09-12T08:55:51Z</time>
      </trkpt>
      <trkpt lat="41.9040335901" lon="-6.9344158005">
        <ele>709.33</ele>
        <time>2020-09-12T08:55:55Z</time>
      </trkpt>
      <trkpt lat="41.9043354224" lon="-6.9343784172">
        <ele>712.68</ele>
        <time>2020-09-12T08:55:57Z</time>
      </trkpt>
      <trkpt lat="41.9044455606" lon="-6.9342348352">
        <ele>712.49</ele>
        <time>2020-09-12T08:55:58Z</time>
      </trkpt>
      <trkpt lat="41.9045025576" lon="-6.9341431372">
        <ele>715.65</ele>
        <time>2020-09-12T08:56:00Z</time>
      </trkpt>
      <trkpt lat="41.9046359975" lon="-6.9340037461">
        <ele>720.9</ele>
        <time>2020-09-12T08:56:05Z</time>
      </trkpt>
      <trkpt lat="41.9050286897" lon="-6.9336241297">
        <ele>725.31</ele>
        <time>2020-09-12T08:56:08Z</time>
      </trkpt>
      <trkpt lat="41.9052903727" lon="-6.9332935475">
        <ele>730.53</ele>
        <time>2020-09-12T08:56:10Z</time>
      </trkpt>
      <trkpt lat="41.905426411" lon="-6.9330770429">
        <ele>731.63</ele>
        <time>2020-09-12T08:56:12Z</time>
      </trkpt>
      <trkpt lat="41.9055886008" lon="-6.9329126738">
        <ele>734.98</ele>
        <time>2020-09-12T08:56:16Z</time>
      </trkpt>
      <trkpt lat="41.9060021639" lon="-6.9325904734">
        <ele>734.98</ele>
        <time>2020-09-12T08:56:17Z</time>
      </trkpt>
      <trkpt lat="41.906117918" lon="-6.9325141143">
        <ele>738.5</ele>
        <time>2020-09-12T08:56:20Z</time>
      </trkpt>
      <trkpt lat="41.9064620789" lon="-6.9322477374">
        <ele>738.49</ele>
        <time>2020-09-12T08:56:21Z</time>
      </trkpt>
      <trkpt lat="41.9065524358" lon="-6.9321357552">
        <ele>740.56</ele>
        <time>2020-09-12T08:56:23Z</time>
      </trkpt>
      <trkpt lat="41.9067103509" lon="-6.9318677019">
        <ele>744.32</ele>
        <time>2020-09-12T08:56:24Z</time>
      </trkpt>
      <trkpt lat="41.9067789149" lon="-6.9317423925">
        <ele>746.79</ele>
        <time>2020-09-12T08:56:26Z</time>
      </trkpt>
      <trkpt lat="41.9069279451" lon="-6.9315621816">
        <ele>746.87</ele>
        <time>2020-09-12T08:56:28Z</time>
      </trkpt>
      <trkpt lat="41.9071435276" lon="-6.9314379618">
        <ele>746.75</ele>
        <time>2020-09-12T08:56:31Z</time>
      </trkpt>
      <trkpt lat="41.907537058" lon="-6.9312636182">
        <ele>749.42</ele>
        <time>2020-09-12T08:56:33Z</time>
      </trkpt>
      <trkpt lat="41.9077688176" lon="-6.9311101455">
        <ele>752.85</ele>
        <time>2020-09-12T08:56:36Z</time>
      </trkpt>
      <trkpt lat="41.9079721626" lon="-6.9308317825">
        <ele>752.84</ele>
        <time>2020-09-12T08:56:37Z</time>
      </trkpt>
      <trkpt lat="41.9079989009" lon="-6.93070882">
        <ele>753.8</ele>
        <time>2020-09-12T08:56:39Z</time>
      </trkpt>
      <trkpt lat="41.9080185145" lon="-6.9304501545">
        <ele>757.25</ele>
        <time>2020-09-12T08:56:41Z</time>
      </trkpt>
      <trkpt lat="41.9080227055" lon="-6.9301894773">
        <ele>762.41</ele>
        <time>2020-09-12T08:56:44Z</time>
      </trkpt>
      <trkpt lat="41.9081329275" lon="-6.9299604837">
        <ele>765.18</ele>
        <time>2020-09-12T08:56:47Z</time>
      </trkpt>
      <trkpt lat="41.9082972128" lon="-6.929763509">
        <ele>768.29</ele>
        <time>2020-09-12T08:56:50Z</time>
      </trkpt>
      <trkpt lat="41.9083446544" lon="-6.9294118043">
        <ele>770.75</ele>
        <time>2020-09-12T08:56:53Z</time>
      </trkpt>
      <trkpt lat="41.9081893377" lon="-6.9291017577">
        <ele>774.12</ele>
        <time>2020-09-12T08:56:55Z</time>
      </trkpt>
      <trkpt lat="41.9080662075" lon="-6.9289016817">
        <ele>774.12</ele>
        <time>2020-09-12T08:56:56Z</time>
      </trkpt>
      <trkpt lat="41.9080359489" lon="-6.9287884422">
        <ele>775.22</ele>
        <time>2020-09-12T08:56:58Z</time>
      </trkpt>
      <trkpt lat="41.9080287404" lon="-6.9285104983">
        <ele>775.1</ele>
        <time>2020-09-12T08:57:01Z</time>
      </trkpt>
      <trkpt lat="41.9080229569" lon="-6.9279986154">
        <ele>778.8</ele>
        <time>2020-09-12T08:57:03Z</time>
      </trkpt>
      <trkpt lat="41.9080324285" lon="-6.9277089369">
        <ele>778.95</ele>
        <time>2020-09-12T08:57:04Z</time>
      </trkpt>
      <trkpt lat="41.9080815464" lon="-6.927587986">
        <ele>781.36</ele>
        <time>2020-09-12T08:57:40Z</time>
      </trkpt>
      <trkpt lat="41.9082731567" lon="-6.9273342658">
        <ele>780.37</ele>
        <time>2020-09-12T08:58:20Z</time>
      </trkpt>
      <trkpt lat="41.9083801936" lon="-6.9272820465">
        <ele>783.31</ele>
        <time>2020-09-12T08:58:23Z</time>
      </trkpt>
      <trkpt lat="41.90852723783877" lon="-6.927180291688576">
        <ele>784.88</ele>
        <time>2020-09-12T08:58:27Z</time>
      </trkpt>
      <trkpt lat="41.9085701276" lon="-6.9271644484">
        <ele>781.07</ele>
        <time>2020-09-12T08:58:32Z</time>
      </trkpt>
      <trkpt lat="41.9083337579" lon="-6.9268062059">
        <ele>777.76</ele>
        <time>2020-09-12T08:58:34Z</time>
      </trkpt>
      <trkpt lat="41.9082532916" lon="-6.9265191257">
        <ele>777.76</ele>
        <time>2020-09-12T08:58:36Z</time>
      </trkpt>
      <trkpt lat="41.9081699755" lon="-6.9262376614">
        <ele>774.49</ele>
        <time>2020-09-12T08:58:42Z</time>
      </trkpt>
      <trkpt lat="41.9082516991" lon="-6.9255779218">
        <ele>774.49</ele>
        <time>2020-09-12T08:58:43Z</time>
      </trkpt>
      <trkpt lat="41.9082729891" lon="-6.9254687894">
        <ele>774.45</ele>
        <time>2020-09-12T08:58:48Z</time>
      </trkpt>
      <trkpt lat="41.9081724901" lon="-6.9252747484">
        <ele>772.44</ele>
        <time>2020-09-12T08:58:49Z</time>
      </trkpt>
      <trkpt lat="41.9081247132" lon="-6.9253071025">
        <ele>767.91</ele>
        <time>2020-09-12T08:58:53Z</time>
      </trkpt>
      <trkpt lat="41.9077828154" lon="-6.9255260378">
        <ele>767.91</ele>
        <time>2020-09-12T08:58:54Z</time>
      </trkpt>
      <trkpt lat="41.9076995831" lon="-6.925574569">
        <ele>763.32</ele>
        <time>2020-09-12T08:58:59Z</time>
      </trkpt>
      <trkpt lat="41.9073100761" lon="-6.9256332424">
        <ele>760.93</ele>
        <time>2020-09-12T08:59:01Z</time>
      </trkpt>
      <trkpt lat="41.9071042165" lon="-6.9255477469">
        <ele>760.07</ele>
        <time>2020-09-12T08:59:02Z</time>
      </trkpt>
      <trkpt lat="41.9070045557" lon="-6.9255021494">
        <ele>754.5</ele>
        <time>2020-09-12T08:59:07Z</time>
      </trkpt>
      <trkpt lat="41.906519914" lon="-6.9251789432">
        <ele>754.62</ele>
        <time>2020-09-12T08:59:09Z</time>
      </trkpt>
      <trkpt lat="41.9063440617" lon="-6.9249852374">
        <ele>748.52</ele>
        <time>2020-09-12T08:59:11Z</time>
      </trkpt>
      <trkpt lat="41.9061630126" lon="-6.9247423299">
        <ele>747.03</ele>
        <time>2020-09-12T08:59:13Z</time>
      </trkpt>
      <trkpt lat="41.905974336" lon="-6.9244751148">
        <ele>750.26</ele>
        <time>2020-09-12T08:59:17Z</time>
      </trkpt>
      <trkpt lat="41.9056608528" lon="-6.9240195584">
        <ele>750.26</ele>
        <time>2020-09-12T08:59:18Z</time>
      </trkpt>
      <trkpt lat="41.9055972341" lon="-6.9239489827">
        <ele>753.6</ele>
        <time>2020-09-12T08:59:21Z</time>
      </trkpt>
      <trkpt lat="41.9053467829" lon="-6.9237911515">
        <ele>758.76</ele>
        <time>2020-09-12T08:59:23Z</time>
      </trkpt>
      <trkpt lat="41.905138744" lon="-6.9237417821">
        <ele>763.66</ele>
        <time>2020-09-12T08:59:25Z</time>
      </trkpt>
      <trkpt lat="41.9049564376" lon="-6.9236720446">
        <ele>767.47</ele>
        <time>2020-09-12T08:59:27Z</time>
      </trkpt>
      <trkpt lat="41.9048341457" lon="-6.9235341623">
        <ele>771.5</ele>
        <time>2020-09-12T08:59:30Z</time>
      </trkpt>
      <trkpt lat="41.9047579542" lon="-6.9231930189">
        <ele>774.46</ele>
        <time>2020-09-12T08:59:32Z</time>
      </trkpt>
      <trkpt lat="41.9047381729" lon="-6.9229233731">
        <ele>778.77</ele>
        <time>2020-09-12T08:59:34Z</time>
      </trkpt>
      <trkpt lat="41.9046738837" lon="-6.9227440841">
        <ele>782.58</ele>
        <time>2020-09-12T08:59:35Z</time>
      </trkpt>
      <trkpt lat="41.9046259392" lon="-6.9227258954">
        <ele>782.65</ele>
        <time>2020-09-12T08:59:36Z</time>
      </trkpt>
      <trkpt lat="41.9045782462" lon="-6.9227459282">
        <ele>782.56</ele>
        <time>2020-09-12T08:59:37Z</time>
      </trkpt>
      <trkpt lat="41.9045291282" lon="-6.9227976445">
        <ele>788.72</ele>
        <time>2020-09-12T08:59:42Z</time>
      </trkpt>
      <trkpt lat="41.9041179959" lon="-6.9231209345">
        <ele>791.12</ele>
        <time>2020-09-12T08:59:44Z</time>
      </trkpt>
      <trkpt lat="41.9039204344" lon="-6.9232407957">
        <ele>792.88</ele>
        <time>2020-09-12T08:59:47Z</time>
      </trkpt>
      <trkpt lat="41.9036666304" lon="-6.9233051687">
        <ele>795.45</ele>
        <time>2020-09-12T08:59:52Z</time>
      </trkpt>
      <trkpt lat="41.9035844877" lon="-6.9231050927">
        <ele>795.35</ele>
        <time>2020-09-12T08:59:54Z</time>
      </trkpt>
      <trkpt lat="41.9036119804" lon="-6.9228741713">
        <ele>797.72</ele>
        <time>2020-09-12T08:59:56Z</time>
      </trkpt>
      <trkpt lat="41.9036090467" lon="-6.9225837383">
        <ele>807.38</ele>
        <time>2020-09-12T08:59:59Z</time>
      </trkpt>
      <trkpt lat="41.9035187736" lon="-6.9221657328">
        <ele>808.33</ele>
        <time>2020-09-12T09:00:00Z</time>
      </trkpt>
      <trkpt lat="41.9034813903" lon="-6.922052661">
        <ele>818.61</ele>
        <time>2020-09-12T09:00:03Z</time>
      </trkpt>
      <trkpt lat="41.9034465216" lon="-6.9217880443">
        <ele>819.75</ele>
        <time>2020-09-12T09:00:05Z</time>
      </trkpt>
      <trkpt lat="41.9034896884" lon="-6.9216058217">
        <ele>822.07</ele>
        <time>2020-09-12T09:00:06Z</time>
      </trkpt>
      <trkpt lat="41.9035246409" lon="-6.921493588">
        <ele>821.92</ele>
        <time>2020-09-12T09:00:08Z</time>
      </trkpt>
      <trkpt lat="41.9035984017" lon="-6.9211875647">
        <ele>826.21</ele>
        <time>2020-09-12T09:00:10Z</time>
      </trkpt>
      <trkpt lat="41.9036274031" lon="-6.9208542164">
        <ele>829.41</ele>
        <time>2020-09-12T09:00:12Z</time>
      </trkpt>
      <trkpt lat="41.9036272354" lon="-6.920514917">
        <ele>833.56</ele>
        <time>2020-09-12T09:00:14Z</time>
      </trkpt>
      <trkpt lat="41.9036631938" lon="-6.9202254061">
        <ele>837.19</ele>
        <time>2020-09-12T09:00:15Z</time>
      </trkpt>
      <trkpt lat="41.9036926143" lon="-6.9200903736">
        <ele>838.64</ele>
        <time>2020-09-12T09:00:17Z</time>
      </trkpt>
      <trkpt lat="41.9036977272" lon="-6.9197855238">
        <ele>841.75</ele>
        <time>2020-09-12T09:00:20Z</time>
      </trkpt>
      <trkpt lat="41.9036590029" lon="-6.9192982838">
        <ele>844.12</ele>
        <time>2020-09-12T09:00:22Z</time>
      </trkpt>
      <trkpt lat="41.903604269" lon="-6.9189764187">
        <ele>847.5</ele>
        <time>2020-09-12T09:00:25Z</time>
      </trkpt>
      <trkpt lat="41.9035961386" lon="-6.9185078703">
        <ele>847.62</ele>
        <time>2020-09-12T09:00:26Z</time>
      </trkpt>
      <trkpt lat="41.9036321808" lon="-6.9183546491">
        <ele>845.09</ele>
        <time>2020-09-12T09:00:30Z</time>
      </trkpt>
      <trkpt lat="41.9038714841" lon="-6.917700693">
        <ele>850.2</ele>
        <time>2020-09-12T09:00:33Z</time>
      </trkpt>
      <trkpt lat="41.904083211" lon="-6.9171882235">
        <ele>852.49</ele>
        <time>2020-09-12T09:00:35Z</time>
      </trkpt>
      <trkpt lat="41.904189745" lon="-6.9168573059">
        <ele>857.58</ele>
        <time>2020-09-12T09:00:37Z</time>
      </trkpt>
      <trkpt lat="41.9042536151" lon="-6.9165255502">
        <ele>858.44</ele>
        <time>2020-09-12T09:00:38Z</time>
      </trkpt>
      <trkpt lat="41.9042789284" lon="-6.9163631927">
        <ele>861.65</ele>
        <time>2020-09-12T09:00:41Z</time>
      </trkpt>
      <trkpt lat="41.9044220075" lon="-6.9158862624">
        <ele>863.66</ele>
        <time>2020-09-12T09:00:42Z</time>
      </trkpt>
      <trkpt lat="41.904481519" lon="-6.9157262519">
        <ele>869.71</ele>
        <time>2020-09-12T09:00:44Z</time>
      </trkpt>
      <trkpt lat="41.9045591354" lon="-6.9153921492">
        <ele>873.38</ele>
        <time>2020-09-12T09:00:46Z</time>
      </trkpt>
      <trkpt lat="41.9045730494" lon="-6.9150667638">
        <ele>875.62</ele>
        <time>2020-09-12T09:00:49Z</time>
      </trkpt>
      <trkpt lat="41.9046009611" lon="-6.9145411346">
        <ele>884.93</ele>
        <time>2020-09-12T09:00:52Z</time>
      </trkpt>
      <trkpt lat="41.9045852032" lon="-6.9140824769">
        <ele>884.93</ele>
        <time>2020-09-12T09:00:53Z</time>
      </trkpt>
      <trkpt lat="41.9045587163" lon="-6.9139511324">
        <ele>890.36</ele>
        <time>2020-09-12T09:00:55Z</time>
      </trkpt>
      <trkpt lat="41.9045303855" lon="-6.9137774594">
        <ele>892.04</ele>
        <time>2020-09-12T09:00:56Z</time>
      </trkpt>
      <trkpt lat="41.9045226742" lon="-6.9137187861">
        <ele>886.72</ele>
        <time>2020-09-12T09:01:01Z</time>
      </trkpt>
      <trkpt lat="41.9045752287" lon="-6.9131296221">
        <ele>886.62</ele>
        <time>2020-09-12T09:01:05Z</time>
      </trkpt>
      <trkpt lat="41.9047173858" lon="-6.9127557892">
        <ele>884.72</ele>
        <time>2020-09-12T09:01:08Z</time>
      </trkpt>
      <trkpt lat="41.9048956688" lon="-6.9125513546">
        <ele>879.76</ele>
        <time>2020-09-12T09:01:09Z</time>
      </trkpt>
      <trkpt lat="41.9049574435" lon="-6.9124418031">
        <ele>878.35</ele>
        <time>2020-09-12T09:01:12Z</time>
      </trkpt>
      <trkpt lat="41.9051307812" lon="-6.9121130649">
        <ele>868.21</ele>
        <time>2020-09-12T09:01:15Z</time>
      </trkpt>
      <trkpt lat="41.9052447751" lon="-6.9117163494">
        <ele>865.13</ele>
        <time>2020-09-12T09:01:19Z</time>
      </trkpt>
      <trkpt lat="41.9053776283" lon="-6.911084773">
        <ele>865.05</ele>
        <time>2020-09-12T09:01:20Z</time>
      </trkpt>
      <trkpt lat="41.9054062944" lon="-6.910939347">
        <ele>863.27</ele>
        <time>2020-09-12T09:01:24Z</time>
      </trkpt>
      <trkpt lat="41.9056147523" lon="-6.9106013887">
        <ele>856.58</ele>
        <time>2020-09-12T09:01:28Z</time>
      </trkpt>
      <trkpt lat="41.9059265591" lon="-6.9104162324">
        <ele>850</ele>
        <time>2020-09-12T09:01:30Z</time>
      </trkpt>
      <trkpt lat="41.9061204325" lon="-6.9102648553">
        <ele>846.38</ele>
        <time>2020-09-12T09:01:34Z</time>
      </trkpt>
      <trkpt lat="41.906537516" lon="-6.9101055991">
        <ele>846.42</ele>
        <time>2020-09-12T09:01:35Z</time>
      </trkpt>
      <trkpt lat="41.9066350814" lon="-6.910082465">
        <ele>845.18</ele>
        <time>2020-09-12T09:01:40Z</time>
      </trkpt>
      <trkpt lat="41.9070364907" lon="-6.9101111311">
        <ele>838.97</ele>
        <time>2020-09-12T09:01:43Z</time>
      </trkpt>
      <trkpt lat="41.9072773866" lon="-6.9098575786">
        <ele>838.96</ele>
        <time>2020-09-12T09:01:44Z</time>
      </trkpt>
      <trkpt lat="41.907351315" lon="-6.9097435009">
        <ele>842.01</ele>
        <time>2020-09-12T09:01:46Z</time>
      </trkpt>
      <trkpt lat="41.9074099045" lon="-6.9095358811">
        <ele>842.01</ele>
        <time>2020-09-12T09:01:47Z</time>
      </trkpt>
      <trkpt lat="41.9073959067" lon="-6.9094122481">
        <ele>838.36</ele>
        <time>2020-09-12T09:01:50Z</time>
      </trkpt>
      <trkpt lat="41.907317536" lon="-6.9089255109">
        <ele>843.68</ele>
        <time>2020-09-12T09:01:54Z</time>
      </trkpt>
      <trkpt lat="41.9073389936" lon="-6.9082664419">
        <ele>847.16</ele>
        <time>2020-09-12T09:01:56Z</time>
      </trkpt>
      <trkpt lat="41.9073982537" lon="-6.9079834688">
        <ele>853.25</ele>
        <time>2020-09-12T09:01:58Z</time>
      </trkpt>
      <trkpt lat="41.9074760377" lon="-6.9076713268">
        <ele>855.93</ele>
        <time>2020-09-12T09:02:01Z</time>
      </trkpt>
      <trkpt lat="41.9076644629" lon="-6.9072249066">
        <ele>859.63</ele>
        <time>2020-09-12T09:02:03Z</time>
      </trkpt>
      <trkpt lat="41.9078005012" lon="-6.9069611281">
        <ele>863.46</ele>
        <time>2020-09-12T09:02:04Z</time>
      </trkpt>
      <trkpt lat="41.9078442547" lon="-6.9068226591">
        <ele>863.46</ele>
        <time>2020-09-12T09:02:05Z</time>
      </trkpt>
      <trkpt lat="41.9078787882" lon="-6.9066642411">
        <ele>867.28</ele>
        <time>2020-09-12T09:02:10Z</time>
      </trkpt>
      <trkpt lat="41.9079804607" lon="-6.9057644438">
        <ele>874.2</ele>
        <time>2020-09-12T09:02:12Z</time>
      </trkpt>
      <trkpt lat="41.9080579095" lon="-6.9054393936">
        <ele>877.67</ele>
        <time>2020-09-12T09:02:14Z</time>
      </trkpt>
      <trkpt lat="41.9081876613" lon="-6.9051500503">
        <ele>877.84</ele>
        <time>2020-09-12T09:02:15Z</time>
      </trkpt>
      <trkpt lat="41.908261003" lon="-6.9049995951">
        <ele>881.53</ele>
        <time>2020-09-12T09:02:16Z</time>
      </trkpt>
      <trkpt lat="41.9083337579" lon="-6.9048404228">
        <ele>881.53</ele>
        <time>2020-09-12T09:02:17Z</time>
      </trkpt>
      <trkpt lat="41.9084031601" lon="-6.9046701025">
        <ele>877.77</ele>
        <time>2020-09-12T09:02:19Z</time>
      </trkpt>
      <trkpt lat="41.9085382763" lon="-6.9043000415">
        <ele>881.59</ele>
        <time>2020-09-12T09:02:20Z</time>
      </trkpt>
      <trkpt lat="41.908605583" lon="-6.904103905">
        <ele>884.63</ele>
        <time>2020-09-12T09:02:23Z</time>
      </trkpt>
      <trkpt lat="41.9087863807" lon="-6.9035249669">
        <ele>887.04</ele>
        <time>2020-09-12T09:02:24Z</time>
      </trkpt>
      <trkpt lat="41.9088317268" lon="-6.9033451751">
        <ele>891.83</ele>
        <time>2020-09-12T09:02:28Z</time>
      </trkpt>
      <trkpt lat="41.9088703673" lon="-6.9027084019">
        <ele>895.99</ele>
        <time>2020-09-12T09:02:29Z</time>
      </trkpt>
      <trkpt lat="41.9088690262" lon="-6.9025843497">
        <ele>897.8</ele>
        <time>2020-09-12T09:02:31Z</time>
      </trkpt>
      <trkpt lat="41.908841785" lon="-6.9023214933">
        <ele>894.28</ele>
        <time>2020-09-12T09:02:33Z</time>
      </trkpt>
      <trkpt lat="41.9088137057" lon="-6.9019895699">
        <ele>890.74</ele>
        <time>2020-09-12T09:02:35Z</time>
      </trkpt>
      <trkpt lat="41.908769533" lon="-6.9016615022">
        <ele>890.64</ele>
        <time>2020-09-12T09:02:36Z</time>
      </trkpt>
      <trkpt lat="41.9087511767" lon="-6.901497636">
        <ele>889.89</ele>
        <time>2020-09-12T09:02:37Z</time>
      </trkpt>
      <trkpt lat="41.9087432139" lon="-6.9013371225">
        <ele>894.34</ele>
        <time>2020-09-12T09:02:41Z</time>
      </trkpt>
      <trkpt lat="41.908821417" lon="-6.9007990882">
        <ele>894.25</ele>
        <time>2020-09-12T09:02:42Z</time>
      </trkpt>
      <trkpt lat="41.9088736363" lon="-6.9006990921">
        <ele>893.9</ele>
        <time>2020-09-12T09:02:43Z</time>
      </trkpt>
      <trkpt lat="41.9089451339" lon="-6.9005997665">
        <ele>889.19</ele>
        <time>2020-09-12T09:02:45Z</time>
      </trkpt>
      <trkpt lat="41.9091125205" lon="-6.9003807474">
        <ele>887.77</ele>
        <time>2020-09-12T09:02:48Z</time>
      </trkpt>
      <trkpt lat="41.9093105011" lon="-6.9000002928">
        <ele>890.12</ele>
        <time>2020-09-12T09:02:51Z</time>
      </trkpt>
      <trkpt lat="41.9093851838" lon="-6.8996552099">
        <ele>887.6</ele>
        <time>2020-09-12T09:02:55Z</time>
      </trkpt>
      <trkpt lat="41.9096122496" lon="-6.8993186764">
        <ele>887.6</ele>
        <time>2020-09-12T09:02:56Z</time>
      </trkpt>
      <trkpt lat="41.9097104855" lon="-6.8992655352">
        <ele>887.55</ele>
        <time>2020-09-12T09:02:57Z</time>
      </trkpt>
      <trkpt lat="41.9098150078" lon="-6.8992273137">
        <ele>887.64</ele>
        <time>2020-09-12T09:02:58Z</time>
      </trkpt>
      <trkpt lat="41.9099195302" lon="-6.8991881702">
        <ele>890.18</ele>
        <time>2020-09-12T09:02:59Z</time>
      </trkpt>
      <trkpt lat="41.9100181852" lon="-6.8991322629">
        <ele>891.16</ele>
        <time>2020-09-12T09:03:00Z</time>
      </trkpt>
      <trkpt lat="41.9101053569" lon="-6.8990554847">
        <ele>892.89</ele>
        <time>2020-09-12T09:03:01Z</time>
      </trkpt>
      <trkpt lat="41.9101807941" lon="-6.8989787903">
        <ele>892.89</ele>
        <time>2020-09-12T09:03:02Z</time>
      </trkpt>
      <trkpt lat="41.9102485199" lon="-6.8989124056">
        <ele>892.99</ele>
        <time>2020-09-12T09:03:03Z</time>
      </trkpt>
      <trkpt lat="41.9103208557" lon="-6.8988703284">
        <ele>892.99</ele>
        <time>2020-09-12T09:03:04Z</time>
      </trkpt>
      <trkpt lat="41.9104123861" lon="-6.8988490384">
        <ele>890.43</ele>
        <time>2020-09-12T09:03:05Z</time>
      </trkpt>
      <trkpt lat="41.9105185848" lon="-6.8988263234">
        <ele>890.44</ele>
        <time>2020-09-12T09:03:06Z</time>
      </trkpt>
      <trkpt lat="41.9106289744" lon="-6.8987921253">
        <ele>889.66</ele>
        <time>2020-09-12T09:03:07Z</time>
      </trkpt>
      <trkpt lat="41.9107344188" lon="-6.8987351283">
        <ele>889.56</ele>
        <time>2020-09-12T09:03:08Z</time>
      </trkpt>
      <trkpt lat="41.9108351693" lon="-6.8986716773">
        <ele>884.9</ele>
        <time>2020-09-12T09:03:12Z</time>
      </trkpt>
      <trkpt lat="41.9112332258" lon="-6.8983402569"/>
      <trkpt lat="41.91141956834357" lon="-6.898062278448745"/>
      <trkpt lat="41.91163514052461" lon="-6.897842341734525"/>
      <trkpt lat="41.91179881521288" lon="-6.897820884474016"/>
      <trkpt lat="41.912054306570326" lon="-6.897971085297474"/>
      <trkpt lat="41.91224991644966" lon="-6.8979496280369865"/>
      <trkpt lat="41.912437541689" lon="-6.897885256255501"/>
      <trkpt lat="41.91258524627669" lon="-6.897697505226197"/>
      <trkpt lat="41.91268903848518" lon="-6.897509754196873"/>
      <trkpt lat="41.912932550311815" lon="-6.897482962926391"/>
      <trkpt lat="41.91314811738312" lon="-6.897413227498659"/>
      <trkpt lat="41.91327586048926" lon="-6.897257663852195"/>
      <trkpt lat="41.91340759529966" lon="-6.897075278887364"/>
      <trkpt lat="41.91340759529966" lon="-6.896908950903079"/>
      <trkpt lat="41.91330779622582" lon="-6.896774843230812"/>
      <trkpt lat="41.913415579218835" lon="-6.896608627050592"/>
      <trkpt lat="41.9134109281" lon="-6.8966080528">
        <ele>901.89</ele>
        <time>2020-09-12T09:06:19Z</time>
      </trkpt>
      <trkpt lat="41.9134531729" lon="-6.8964957353">
        <ele>900.22</ele>
        <time>2020-09-12T09:06:20Z</time>
      </trkpt>
      <trkpt lat="41.9134936575" lon="-6.8963510636">
        <ele>898.09</ele>
        <time>2020-09-12T09:06:21Z</time>
      </trkpt>
      <trkpt lat="41.913558282" lon="-6.896003047">
        <ele>893.42</ele>
        <time>2020-09-12T09:06:23Z</time>
      </trkpt>
      <trkpt lat="41.9135716092" lon="-6.8958152086">
        <ele>893.51</ele>
        <time>2020-09-12T09:06:24Z</time>
      </trkpt>
      <trkpt lat="41.9136016164" lon="-6.8952679541">
        <ele>893.42</ele>
        <time>2020-09-12T09:06:27Z</time>
      </trkpt>
      <trkpt lat="41.9136511534" lon="-6.8951036688">
        <ele>897.05</ele>
        <time>2020-09-12T09:06:28Z</time>
      </trkpt>
      <trkpt lat="41.9137140177" lon="-6.8949339353">
        <ele>897.05</ele>
        <time>2020-09-12T09:06:29Z</time>
      </trkpt>
      <trkpt lat="41.9137681648" lon="-6.8947482761">
        <ele>897.01</ele>
        <time>2020-09-12T09:06:30Z</time>
      </trkpt>
      <trkpt lat="41.9138085656" lon="-6.8945490383">
        <ele>897.1</ele>
        <time>2020-09-12T09:06:31Z</time>
      </trkpt>
      <trkpt lat="41.9138365611" lon="-6.8943430949">
        <ele>898.21</ele>
        <time>2020-09-12T09:06:32Z</time>
      </trkpt>
      <trkpt lat="41.9138538279" lon="-6.8941343855">
        <ele>898.28</ele>
        <time>2020-09-12T09:06:33Z</time>
      </trkpt>
      <trkpt lat="41.9138721004" lon="-6.8939309567">
        <ele>898.47</ele>
        <time>2020-09-12T09:06:34Z</time>
      </trkpt>
      <trkpt lat="41.9139048737" lon="-6.8937336467">
        <ele>900.49</ele>
        <time>2020-09-12T09:06:35Z</time>
      </trkpt>
      <trkpt lat="41.9139587693" lon="-6.8935418688">
        <ele>900.49</ele>
        <time>2020-09-12T09:06:36Z</time>
      </trkpt>
      <trkpt lat="41.9140305184" lon="-6.8933684472">
        <ele>901.67</ele>
        <time>2020-09-12T09:06:37Z</time>
      </trkpt>
      <trkpt lat="41.9141125772" lon="-6.8932109512">
        <ele>903.09</ele>
        <time>2020-09-12T09:06:38Z</time>
      </trkpt>
      <trkpt lat="41.9141936302" lon="-6.8930647708">
        <ele>903.1</ele>
        <time>2020-09-12T09:06:39Z</time>
      </trkpt>
      <trkpt lat="41.9142558239" lon="-6.8929330073">
        <ele>905.18</ele>
        <time>2020-09-12T09:06:40Z</time>
      </trkpt>
      <trkpt lat="41.9142890163" lon="-6.8928075302">
        <ele>908.97</ele>
        <time>2020-09-12T09:06:41Z</time>
      </trkpt>
      <trkpt lat="41.9142959733" lon="-6.8926776946">
        <ele>910.52</ele>
        <time>2020-09-12T09:06:42Z</time>
      </trkpt>
      <trkpt lat="41.9142788742" lon="-6.8925412372">
        <ele>912.95</ele>
        <time>2020-09-12T09:06:43Z</time>
      </trkpt>
      <trkpt lat="41.9142537285" lon="-6.8924001697">
        <ele>912.91</ele>
        <time>2020-09-12T09:06:44Z</time>
      </trkpt>
      <trkpt lat="41.9142259005" lon="-6.8921487965">
        <ele>900.56</ele>
        <time>2020-09-12T09:06:46Z</time>
      </trkpt>
      <trkpt lat="41.9142394792" lon="-6.8920301925">
        <ele>924.45</ele>
        <time>2020-09-12T09:06:47Z</time>
      </trkpt>
      <trkpt lat="41.9142771978" lon="-6.8919131812">
        <ele>916.18</ele>
        <time>2020-09-12T09:06:48Z</time>
      </trkpt>
      <trkpt lat="41.9143342786" lon="-6.8918057252">
        <ele>914.85</ele>
        <time>2020-09-12T09:06:49Z</time>
      </trkpt>
      <trkpt lat="41.9144057762" lon="-6.8917032145">
        <ele>917.21</ele>
        <time>2020-09-12T09:06:50Z</time>
      </trkpt>
      <trkpt lat="41.9146115519" lon="-6.8915029708">
        <ele>914.18</ele>
        <time>2020-09-12T09:06:52Z</time>
      </trkpt>
      <trkpt lat="41.9148578122" lon="-6.891319491">
        <ele>910.89</ele>
        <time>2020-09-12T09:06:54Z</time>
      </trkpt>
      <trkpt lat="41.9148515258" lon="-6.8910840433">
        <ele>922.29</ele>
        <time>2020-09-12T09:07:24Z</time>
      </trkpt>
      <trkpt lat="41.914951019" lon="-6.8907458335">
        <ele>921.36</ele>
        <time>2020-09-12T09:07:27Z</time>
      </trkpt>
      <trkpt lat="41.9154174719" lon="-6.8896764703">
        <ele>922.16</ele>
        <time>2020-09-12T09:07:34Z</time>
      </trkpt>
      <trkpt lat="41.915629115" lon="-6.8892936688">
        <ele>927.87</ele>
        <time>2020-09-12T09:07:37Z</time>
      </trkpt>
      <trkpt lat="41.9157172926" lon="-6.8891629111">
        <ele>927.94</ele>
        <time>2020-09-12T09:07:38Z</time>
      </trkpt>
      <trkpt lat="41.9160088152" lon="-6.8884937838">
        <ele>930.69</ele>
        <time>2020-09-12T09:07:42Z</time>
      </trkpt>
      <trkpt lat="41.916068159" lon="-6.888329247">
        <ele>932.38</ele>
        <time>2020-09-12T09:07:43Z</time>
      </trkpt>
      <trkpt lat="41.9161572587" lon="-6.8881209567">
        <ele>941.98</ele>
        <time>2020-09-12T09:07:45Z</time>
      </trkpt>
      <trkpt lat="41.9161938038" lon="-6.8880715035">
        <ele>945.26</ele>
        <time>2020-09-12T09:07:46Z</time>
      </trkpt>
      <trkpt lat="41.91625779097929" lon="-6.888062953794618">
        <ele>948.8</ele>
        <time>2020-09-12T09:07:47Z</time>
      </trkpt>
      <trkpt lat="41.9163061213" lon="-6.8881493714">
        <ele>950.07</ele>
        <time>2020-09-12T09:07:49Z</time>
      </trkpt>
      <trkpt lat="41.9165382162" lon="-6.8885680474">
        <ele>952.78</ele>
        <time>2020-09-12T09:07:53Z</time>
      </trkpt>
      <trkpt lat="41.9168708101" lon="-6.8888402916">
        <ele>954.59</ele>
        <time>2020-09-12T09:07:56Z</time>
      </trkpt>
      <trkpt lat="41.9171509333" lon="-6.8890167307">
        <ele>957.38</ele>
        <time>2020-09-12T09:07:58Z</time>
      </trkpt>
      <trkpt lat="41.9172888156" lon="-6.8891091831">
        <ele>953.89</ele>
        <time>2020-09-12T09:07:59Z</time>
      </trkpt>
      <trkpt lat="41.9174158853" lon="-6.8891893141">
        <ele>957.2</ele>
        <time>2020-09-12T09:08:00Z</time>
      </trkpt>
      <trkpt lat="41.9175893907" lon="-6.8892938364">
        <ele>962.95</ele>
        <time>2020-09-12T09:08:02Z</time>
      </trkpt>
      <trkpt lat="41.917842105" lon="-6.8895846885">
        <ele>966.96</ele>
        <time>2020-09-12T09:08:06Z</time>
      </trkpt>
      <trkpt lat="41.9179729465" lon="-6.8897055555">
        <ele>972.48</ele>
        <time>2020-09-12T09:08:08Z</time>
      </trkpt>
      <trkpt lat="41.9180430193" lon="-6.8897275161">
        <ele>972.45</ele>
        <time>2020-09-12T09:08:09Z</time>
      </trkpt>
      <trkpt lat="41.9183677342" lon="-6.8894599658">
        <ele>973.81</ele>
        <time>2020-09-12T09:08:14Z</time>
      </trkpt>
      <trkpt lat="41.9184149243" lon="-6.8893204071">
        <ele>973.46</ele>
        <time>2020-09-12T09:08:15Z</time>
      </trkpt>
      <trkpt lat="41.9187053572" lon="-6.8885422312">
        <ele>974.78</ele>
        <time>2020-09-12T09:08:20Z</time>
      </trkpt>
      <trkpt lat="41.9188121427" lon="-6.8881430849">
        <ele>981.19</ele>
        <time>2020-09-12T09:08:23Z</time>
      </trkpt>
      <trkpt lat="41.9188292418" lon="-6.8880006764">
        <ele>981.27</ele>
        <time>2020-09-12T09:08:24Z</time>
      </trkpt>
      <trkpt lat="41.9188475143" lon="-6.8878467008">
        <ele>982.27</ele>
        <time>2020-09-12T09:08:25Z</time>
      </trkpt>
      <trkpt lat="41.9189735781" lon="-6.8873293698">
        <ele>978.49</ele>
        <time>2020-09-12T09:08:28Z</time>
      </trkpt>
      <trkpt lat="41.9190263841" lon="-6.8871458061">
        <ele>978.62</ele>
        <time>2020-09-12T09:08:29Z</time>
      </trkpt>
      <trkpt lat="41.919067204" lon="-6.8869688641">
        <ele>983.13</ele>
        <time>2020-09-12T09:08:30Z</time>
      </trkpt>
      <trkpt lat="41.9191173278" lon="-6.8866158184">
        <ele>984.5</ele>
        <time>2020-09-12T09:08:32Z</time>
      </trkpt>
      <trkpt lat="41.9193587266" lon="-6.8857467826">
        <ele>988.42</ele>
        <time>2020-09-12T09:08:37Z</time>
      </trkpt>
      <trkpt lat="41.9194217585" lon="-6.885559028">
        <ele>988.41</ele>
        <time>2020-09-12T09:08:38Z</time>
      </trkpt>
      <trkpt lat="41.9196023885" lon="-6.8850401044">
        <ele>992.18</ele>
        <time>2020-09-12T09:08:41Z</time>
      </trkpt>
      <trkpt lat="41.9196867105" lon="-6.8847643398">
        <ele>993.98</ele>
        <time>2020-09-12T09:08:43Z</time>
      </trkpt>
      <trkpt lat="41.9197172206" lon="-6.8846628349">
        <ele>997.92</ele>
        <time>2020-09-12T09:08:44Z</time>
      </trkpt>
      <trkpt lat="41.9197408576" lon="-6.8845843803">
        <ele>1001.01</ele>
        <time>2020-09-12T09:08:45Z</time>
      </trkpt>
      <trkpt lat="41.9197631534" lon="-6.8845199235">
        <ele>1001.08</ele>
        <time>2020-09-12T09:08:46Z</time>
      </trkpt>
      <trkpt lat="41.9198317174" lon="-6.8843173329">
        <ele>1002.8</ele>
        <time>2020-09-12T09:08:49Z</time>
      </trkpt>
      <trkpt lat="41.919885613" lon="-6.8841892574">
        <ele>1006.2</ele>
        <time>2020-09-12T09:08:51Z</time>
      </trkpt>
      <trkpt lat="41.9199195597" lon="-6.8841175921">
        <ele>1006.2</ele>
        <time>2020-09-12T09:08:52Z</time>
      </trkpt>
      <trkpt lat="41.9200942386" lon="-6.883786004">
        <ele>1003.36</ele>
        <time>2020-09-12T09:08:55Z</time>
      </trkpt>
      <trkpt lat="41.9202750362" lon="-6.8834963255">
        <ele>1007.73</ele>
        <time>2020-09-12T09:08:58Z</time>
      </trkpt>
      <trkpt lat="41.9203767087" lon="-6.8833871931">
        <ele>1008.96</ele>
        <time>2020-09-12T09:09:00Z</time>
      </trkpt>
      <trkpt lat="41.9205373898" lon="-6.8832728639">
        <ele>1008.85</ele>
        <time>2020-09-12T09:09:02Z</time>
      </trkpt>
      <trkpt lat="41.920672087" lon="-6.8830932397">
        <ele>1010.2</ele>
        <time>2020-09-12T09:09:05Z</time>
      </trkpt>
      <trkpt lat="41.9205685705" lon="-6.8829114363">
        <ele>1010.17</ele>
        <time>2020-09-12T09:09:08Z</time>
      </trkpt>
      <trkpt lat="41.9204847515" lon="-6.8828973547">
        <ele>1010.06</ele>
        <time>2020-09-12T09:09:09Z</time>
      </trkpt>
      <trkpt lat="41.9203826599" lon="-6.882905066">
        <ele>1009.93</ele>
        <time>2020-09-12T09:09:10Z</time>
      </trkpt>
      <trkpt lat="41.9202639721" lon="-6.882921746">
        <ele>1006.51</ele>
        <time>2020-09-12T09:09:11Z</time>
      </trkpt>
      <trkpt lat="41.9201272633" lon="-6.8829398509">
        <ele>1006.51</ele>
        <time>2020-09-12T09:09:12Z</time>
      </trkpt>
      <trkpt lat="41.9198116008" lon="-6.882985197">
        <ele>1002.12</ele>
        <time>2020-09-12T09:09:14Z</time>
      </trkpt>
      <trkpt lat="41.9192864746" lon="-6.883056527">
        <ele>997.77</ele>
        <time>2020-09-12T09:09:17Z</time>
      </trkpt>
      <trkpt lat="41.9187338557" lon="-6.8831352331">
        <ele>994.17</ele>
        <time>2020-09-12T09:09:20Z</time>
      </trkpt>
      <trkpt lat="41.91836413" lon="-6.8831835967">
        <ele>990.83</ele>
        <time>2020-09-12T09:09:22Z</time>
      </trkpt>
      <trkpt lat="41.9178318791" lon="-6.8831974268">
        <ele>987.51</ele>
        <time>2020-09-12T09:09:25Z</time>
      </trkpt>
      <trkpt lat="41.9176654145" lon="-6.883177394">
        <ele>987.36</ele>
        <time>2020-09-12T09:09:26Z</time>
      </trkpt>
      <trkpt lat="41.9168243743" lon="-6.8829998653">
        <ele>983.83</ele>
        <time>2020-09-12T09:09:31Z</time>
      </trkpt>
      <trkpt lat="41.916452134" lon="-6.8829250149">
        <ele>978.77</ele>
        <time>2020-09-12T09:09:33Z</time>
      </trkpt>
      <trkpt lat="41.9160892814" lon="-6.8828475662">
        <ele>974.93</ele>
        <time>2020-09-12T09:09:35Z</time>
      </trkpt>
      <trkpt lat="41.9159121718" lon="-6.8828114402">
        <ele>975.17</ele>
        <time>2020-09-12T09:09:36Z</time>
      </trkpt>
      <trkpt lat="41.9152474031" lon="-6.882681353">
        <ele>971.73</ele>
        <time>2020-09-12T09:09:40Z</time>
      </trkpt>
      <trkpt lat="41.9148273859" lon="-6.8825837877">
        <ele>969.33</ele>
        <time>2020-09-12T09:09:43Z</time>
      </trkpt>
      <trkpt lat="41.9147341792" lon="-6.8825499248">
        <ele>974.31</ele>
        <time>2020-09-12T09:09:44Z</time>
      </trkpt>
      <trkpt lat="41.9146755058" lon="-6.8825070094">
        <ele>976.32</ele>
        <time>2020-09-12T09:09:45Z</time>
      </trkpt>
      <trkpt lat="41.9146459177" lon="-6.8824543711">
        <ele>976.27</ele>
        <time>2020-09-12T09:09:46Z</time>
      </trkpt>
      <trkpt lat="41.9145404734" lon="-6.8820439931">
        <ele>973.63</ele>
        <time>2020-09-12T09:09:50Z</time>
      </trkpt>
      <trkpt lat="41.9143342786" lon="-6.8815991655">
        <ele>969.56</ele>
        <time>2020-09-12T09:09:53Z</time>
      </trkpt>
      <trkpt lat="41.9142399821" lon="-6.8814351317">
        <ele>966.19</ele>
        <time>2020-09-12T09:09:54Z</time>
      </trkpt>
      <trkpt lat="41.9140467793" lon="-6.8810742069">
        <ele>964.17</ele>
        <time>2020-09-12T09:09:56Z</time>
      </trkpt>
      <trkpt lat="41.9139524829" lon="-6.8808797467">
        <ele>958.56</ele>
        <time>2020-09-12T09:09:57Z</time>
      </trkpt>
      <trkpt lat="41.9138622936" lon="-6.8806872983">
        <ele>958.7</ele>
        <time>2020-09-12T09:09:58Z</time>
      </trkpt>
      <trkpt lat="41.9135358185" lon="-6.879882887">
        <ele>951.67</ele>
        <time>2020-09-12T09:10:02Z</time>
      </trkpt>
      <trkpt lat="41.9134515803" lon="-6.8796720821">
        <ele>951.61</ele>
        <time>2020-09-12T09:10:03Z</time>
      </trkpt>
      <trkpt lat="41.9131096825" lon="-6.878888458">
        <ele>956.6</ele>
        <time>2020-09-12T09:10:07Z</time>
      </trkpt>
      <trkpt lat="41.9130396936" lon="-6.8787022959">
        <ele>956.63</ele>
        <time>2020-09-12T09:10:08Z</time>
      </trkpt>
      <trkpt lat="41.9127851352" lon="-6.8781428877">
        <ele>951.42</ele>
        <time>2020-09-12T09:10:11Z</time>
      </trkpt>
      <trkpt lat="41.9125226978" lon="-6.8775935378">
        <ele>946.45</ele>
        <time>2020-09-12T09:10:14Z</time>
      </trkpt>
      <trkpt lat="41.9124417286" lon="-6.8774191942">
        <ele>946.45</ele>
        <time>2020-09-12T09:10:15Z</time>
      </trkpt>
      <trkpt lat="41.912225727" lon="-6.8768547568">
        <ele>939.87</ele>
        <time>2020-09-12T09:10:18Z</time>
      </trkpt>
      <trkpt lat="41.9120820612" lon="-6.8764530122">
        <ele>936.33</ele>
        <time>2020-09-12T09:10:20Z</time>
      </trkpt>
      <trkpt lat="41.9119369704" lon="-6.8760615773">
        <ele>933.4</ele>
        <time>2020-09-12T09:10:22Z</time>
      </trkpt>
      <trkpt lat="41.9118091464" lon="-6.8757086154">
        <ele>937.42</ele>
        <time>2020-09-12T09:10:24Z</time>
      </trkpt>
      <trkpt lat="41.9117187895" lon="-6.8751694914">
        <ele>934.31</ele>
        <time>2020-09-12T09:10:27Z</time>
      </trkpt>
      <trkpt lat="41.9116983376" lon="-6.8749874365">
        <ele>933.32</ele>
        <time>2020-09-12T09:10:28Z</time>
      </trkpt>
      <trkpt lat="41.9116208889" lon="-6.8746395875">
        <ele>928.46</ele>
        <time>2020-09-12T09:10:30Z</time>
      </trkpt>
      <trkpt lat="41.9115654845" lon="-6.8744676746">
        <ele>928.49</ele>
        <time>2020-09-12T09:10:31Z</time>
      </trkpt>
      <trkpt lat="41.911423495" lon="-6.8741147127">
        <ele>923.91</ele>
        <time>2020-09-12T09:10:33Z</time>
      </trkpt>
      <trkpt lat="41.9113428611" lon="-6.8739308976">
        <ele>923.9</ele>
        <time>2020-09-12T09:10:34Z</time>
      </trkpt>
      <trkpt lat="41.9111820124" lon="-6.873585647">
        <ele>921.34</ele>
        <time>2020-09-12T09:10:36Z</time>
      </trkpt>
      <trkpt lat="41.9109321479" lon="-6.8731730897">
        <ele>924.7</ele>
        <time>2020-09-12T09:10:39Z</time>
      </trkpt>
      <trkpt lat="41.9107660186" lon="-6.872934876">
        <ele>926.59</ele>
        <time>2020-09-12T09:10:41Z</time>
      </trkpt>
      <trkpt lat="41.9106114563" lon="-6.8726266734">
        <ele>918.73</ele>
        <time>2020-09-12T09:10:43Z</time>
      </trkpt>
      <trkpt lat="41.9105545431" lon="-6.8724519107">
        <ele>918.6</ele>
        <time>2020-09-12T09:10:44Z</time>
      </trkpt>
      <trkpt lat="41.9104609173" lon="-6.8717041612">
        <ele>918.42</ele>
        <time>2020-09-12T09:10:48Z</time>
      </trkpt>
      <trkpt lat="41.9104523677" lon="-6.8709393963">
        <ele>917.95</ele>
        <time>2020-09-12T09:10:52Z</time>
      </trkpt>
      <trkpt lat="41.9104338437" lon="-6.8707546592">
        <ele>913.49</ele>
        <time>2020-09-12T09:10:53Z</time>
      </trkpt>
      <trkpt lat="41.9103864022" lon="-6.8704291061">
        <ele>911.2</ele>
        <time>2020-09-12T09:10:55Z</time>
      </trkpt>
      <trkpt lat="41.9102786947" lon="-6.8698426243">
        <ele>907.95</ele>
        <time>2020-09-12T09:10:59Z</time>
      </trkpt>
      <trkpt lat="41.9102615118" lon="-6.8696806859">
        <ele>906.27</ele>
        <time>2020-09-12T09:11:00Z</time>
      </trkpt>
      <trkpt lat="41.9102703966" lon="-6.8693618383">
        <ele>904.59</ele>
        <time>2020-09-12T09:11:02Z</time>
      </trkpt>
      <trkpt lat="41.910424456" lon="-6.86888122">
        <ele>903.45</ele>
        <time>2020-09-12T09:11:07Z</time>
      </trkpt>
      <trkpt lat="41.9107350055" lon="-6.8691751733">
        <ele>902.24</ele>
        <time>2020-09-12T09:11:12Z</time>
      </trkpt>
      <trkpt lat="41.9108022284" lon="-6.8693231139">
        <ele>901.22</ele>
        <time>2020-09-12T09:11:13Z</time>
      </trkpt>
      <trkpt lat="41.9109257776" lon="-6.869657049">
        <ele>892.6</ele>
        <time>2020-09-12T09:11:15Z</time>
      </trkpt>
      <trkpt lat="41.9109826908" lon="-6.8698249385">
        <ele>892.7</ele>
        <time>2020-09-12T09:11:16Z</time>
      </trkpt>
      <trkpt lat="41.9112133607" lon="-6.8704729434">
        <ele>891.49</ele>
        <time>2020-09-12T09:11:20Z</time>
      </trkpt>
      <trkpt lat="41.9114523288" lon="-6.8709463533">
        <ele>884.26</ele>
        <time>2020-09-12T09:11:23Z</time>
      </trkpt>
      <trkpt lat="41.9116524048" lon="-6.871257741">
        <ele>879.34</ele>
        <time>2020-09-12T09:11:25Z</time>
      </trkpt>
      <trkpt lat="41.9117507245" lon="-6.871405011">
        <ele>879.58</ele>
        <time>2020-09-12T09:11:26Z</time>
      </trkpt>
      <trkpt lat="41.9122173451" lon="-6.8720411975">
        <ele>876.01</ele>
        <time>2020-09-12T09:11:31Z</time>
      </trkpt>
      <trkpt lat="41.9125171658" lon="-6.8724763021">
        <ele>873.62</ele>
        <time>2020-09-12T09:11:34Z</time>
      </trkpt>
      <trkpt lat="41.9126837142" lon="-6.872755168">
        <ele>871.76</ele>
        <time>2020-09-12T09:11:36Z</time>
      </trkpt>
      <trkpt lat="41.912748171" lon="-6.8728588521">
        <ele>871.83</ele>
        <time>2020-09-12T09:11:37Z</time>
      </trkpt>
      <trkpt lat="41.9128678646" lon="-6.8729782943">
        <ele>876.7</ele>
        <time>2020-09-12T09:11:39Z</time>
      </trkpt>
      <trkpt lat="41.9130458962" lon="-6.872732034">
        <ele>876.94</ele>
        <time>2020-09-12T09:11:43Z</time>
      </trkpt>
      <trkpt lat="41.9130776636" lon="-6.8725785613">
        <ele>872.8</ele>
        <time>2020-09-12T09:11:44Z</time>
      </trkpt>
      <trkpt lat="41.9131292962" lon="-6.8722162116">
        <ele>871.5</ele>
        <time>2020-09-12T09:11:46Z</time>
      </trkpt>
      <trkpt lat="41.9131290447" lon="-6.8716333341">
        <ele>866.86</ele>
        <time>2020-09-12T09:11:49Z</time>
      </trkpt>
      <trkpt lat="41.913170116" lon="-6.8712739181">
        <ele>870.24</ele>
        <time>2020-09-12T09:11:51Z</time>
      </trkpt>
      <trkpt lat="41.9132178091" lon="-6.8711066153">
        <ele>873.26</ele>
        <time>2020-09-12T09:11:52Z</time>
      </trkpt>
      <trkpt lat="41.9133437891" lon="-6.8707870133">
        <ele>874.12</ele>
        <time>2020-09-12T09:11:54Z</time>
      </trkpt>
      <trkpt lat="41.9135019556" lon="-6.8705573492">
        <ele>878.91</ele>
        <time>2020-09-12T09:11:56Z</time>
      </trkpt>
      <trkpt lat="41.913586529" lon="-6.8704793975">
        <ele>878.9</ele>
        <time>2020-09-12T09:11:57Z</time>
      </trkpt>
      <trkpt lat="41.9139953144" lon="-6.870451821">
        <ele>875.42</ele>
        <time>2020-09-12T09:12:01Z</time>
      </trkpt>
      <trkpt lat="41.9141326938" lon="-6.8705146015">
        <ele>872.71</ele>
        <time>2020-09-12T09:12:02Z</time>
      </trkpt>
      <trkpt lat="41.9144119788" lon="-6.8706521485">
        <ele>870.42</ele>
        <time>2020-09-12T09:12:04Z</time>
      </trkpt>
      <trkpt lat="41.9146936107" lon="-6.8707845826">
        <ele>868.25</ele>
        <time>2020-09-12T09:12:06Z</time>
      </trkpt>
      <trkpt lat="41.9150828663" lon="-6.8710259814">
        <ele>865.87</ele>
        <time>2020-09-12T09:12:09Z</time>
      </trkpt>
      <trkpt lat="41.9151980337" lon="-6.8711049389">
        <ele>868.48</ele>
        <time>2020-09-12T09:12:10Z</time>
      </trkpt>
      <trkpt lat="41.9156351499" lon="-6.8713271432">
        <ele>868.32</ele>
        <time>2020-09-12T09:12:14Z</time>
      </trkpt>
      <trkpt lat="41.9157622196" lon="-6.8711496145">
        <ele>869.3</ele>
        <time>2020-09-12T09:12:19Z</time>
      </trkpt>
      <trkpt lat="41.915592486" lon="-6.8706954829">
        <ele>870.85</ele>
        <time>2020-09-12T09:12:23Z</time>
      </trkpt>
      <trkpt lat="41.9154279493" lon="-6.8699758127">
        <ele>871.85</ele>
        <time>2020-09-12T09:12:27Z</time>
      </trkpt>
      <trkpt lat="41.9152333215" lon="-6.8694410473">
        <ele>878.18</ele>
        <time>2020-09-12T09:12:30Z</time>
      </trkpt>
      <trkpt lat="41.915175654" lon="-6.8692843057">
        <ele>882.21</ele>
        <time>2020-09-12T09:12:31Z</time>
      </trkpt>
      <trkpt lat="41.9151013903" lon="-6.868830258">
        <ele>891.42</ele>
        <time>2020-09-12T09:12:34Z</time>
      </trkpt>
      <trkpt lat="41.9151314814" lon="-6.8685420882">
        <ele>895.22</ele>
        <time>2020-09-12T09:12:36Z</time>
      </trkpt>
      <trkpt lat="41.91512012309292" lon="-6.868434544673395">
        <ele>898.94</ele>
        <time>2020-09-12T09:12:38Z</time>
      </trkpt>
      <trkpt lat="41.914986223" lon="-6.8682197202">
        <ele>900.15</ele>
        <time>2020-09-12T09:13:00Z</time>
      </trkpt>
      <trkpt lat="41.9148552977" lon="-6.8679066561">
        <ele>898.18</ele>
        <time>2020-09-12T09:13:03Z</time>
      </trkpt>
      <trkpt lat="41.9147901703" lon="-6.8676131219">
        <ele>896.89</ele>
        <time>2020-09-12T09:13:05Z</time>
      </trkpt>
      <trkpt lat="41.9147363584" lon="-6.8672634289">
        <ele>894.43</ele>
        <time>2020-09-12T09:13:07Z</time>
      </trkpt>
      <trkpt lat="41.9146166649" lon="-6.8665471952">
        <ele>890.63</ele>
        <time>2020-09-12T09:13:11Z</time>
      </trkpt>
      <trkpt lat="41.9148034137" lon="-6.8657322228">
        <ele>890.62</ele>
        <time>2020-09-12T09:13:18Z</time>
      </trkpt>
      <trkpt lat="41.9148367736" lon="-6.8656506669">
        <ele>893.06</ele>
        <time>2020-09-12T09:13:20Z</time>
      </trkpt>
      <trkpt lat="41.9147577323" lon="-6.8655432109">
        <ele>892.99</ele>
        <time>2020-09-12T09:13:24Z</time>
      </trkpt>
      <trkpt lat="41.9146118872" lon="-6.8654559553">
        <ele>887.06</ele>
        <time>2020-09-12T09:13:26Z</time>
      </trkpt>
      <trkpt lat="41.9144253898" lon="-6.8653297238">
        <ele>883.34</ele>
        <time>2020-09-12T09:13:28Z</time>
      </trkpt>
      <trkpt lat="41.9142588414" lon="-6.8651968706">
        <ele>881.14</ele>
        <time>2020-09-12T09:13:30Z</time>
      </trkpt>
      <trkpt lat="41.9139967393" lon="-6.8650817871">
        <ele>876.51</ele>
        <time>2020-09-12T09:13:33Z</time>
      </trkpt>
      <trkpt lat="41.9137955736" lon="-6.8650258798">
        <ele>874.15</ele>
        <time>2020-09-12T09:13:35Z</time>
      </trkpt>
      <trkpt lat="41.9136001077" lon="-6.8649443239">
        <ele>869.02</ele>
        <time>2020-09-12T09:13:37Z</time>
      </trkpt>
      <trkpt lat="41.9133121055" lon="-6.8647371233">
        <ele>861.02</ele>
        <time>2020-09-12T09:13:40Z</time>
      </trkpt>
      <trkpt lat="41.9131152146" lon="-6.864600163">
        <ele>853.95</ele>
        <time>2020-09-12T09:13:42Z</time>
      </trkpt>
      <trkpt lat="41.9129426312" lon="-6.8644566648">
        <ele>849.74</ele>
        <time>2020-09-12T09:13:44Z</time>
      </trkpt>
      <trkpt lat="41.9128631707" lon="-6.8643867597">
        <ele>849.83</ele>
        <time>2020-09-12T09:13:45Z</time>
      </trkpt>
      <trkpt lat="41.9126495998" lon="-6.8642058782">
        <ele>845.72</ele>
        <time>2020-09-12T09:13:48Z</time>
      </trkpt>
      <trkpt lat="41.9125972968" lon="-6.8641653098">
        <ele>845.57</ele>
        <time>2020-09-12T09:13:49Z</time>
      </trkpt>
      <trkpt lat="41.9125034194" lon="-6.8640915491">
        <ele>844.21</ele>
        <time>2020-09-12T09:13:51Z</time>
      </trkpt>
      <trkpt lat="41.9124004897" lon="-6.8640142679">
        <ele>840.99</ele>
        <time>2020-09-12T09:13:53Z</time>
      </trkpt>
      <trkpt lat="41.9122823887" lon="-6.8639281858">
        <ele>835.23</ele>
        <time>2020-09-12T09:13:55Z</time>
      </trkpt>
      <trkpt lat="41.9121440034" lon="-6.8638238311">
        <ele>831.99</ele>
        <time>2020-09-12T09:13:57Z</time>
      </trkpt>
      <trkpt lat="41.9120024331" lon="-6.8636898883">
        <ele>827.7</ele>
        <time>2020-09-12T09:13:59Z</time>
      </trkpt>
      <trkpt lat="41.9118648861" lon="-6.8635385949">
        <ele>823.03</ele>
        <time>2020-09-12T09:14:01Z</time>
      </trkpt>
      <trkpt lat="41.9116985891" lon="-6.8632765766">
        <ele>818.32</ele>
        <time>2020-09-12T09:14:04Z</time>
      </trkpt>
      <trkpt lat="41.9116581883" lon="-6.8631964456">
        <ele>818.32</ele>
        <time>2020-09-12T09:14:05Z</time>
      </trkpt>
      <trkpt lat="41.911551822" lon="-6.8629269674">
        <ele>815.17</ele>
        <time>2020-09-12T09:14:09Z</time>
      </trkpt>
      <trkpt lat="41.9115275983" lon="-6.8628538772">
        <ele>811.94</ele>
        <time>2020-09-12T09:14:10Z</time>
      </trkpt>
      <trkpt lat="41.9115001056" lon="-6.8627784401">
        <ele>808.32</ele>
        <time>2020-09-12T09:14:11Z</time>
      </trkpt>
      <trkpt lat="41.9114695955" lon="-6.8627062719">
        <ele>805.08</ele>
        <time>2020-09-12T09:14:12Z</time>
      </trkpt>
      <trkpt lat="41.9114068989" lon="-6.8625803757">
        <ele>804.27</ele>
        <time>2020-09-12T09:14:14Z</time>
      </trkpt>
      <trkpt lat="41.9113462139" lon="-6.8624782003">
        <ele>800.97</ele>
        <time>2020-09-12T09:14:16Z</time>
      </trkpt>
      <trkpt lat="41.91129182152237" lon="-6.862373148793097"/>
      <trkpt lat="41.91126387687116" lon="-6.862206858214269"/>
      <trkpt lat="41.911307789889015" lon="-6.861960104452127"/>
      <trkpt lat="41.91143553667826" lon="-6.861820634934391"/>
      <trkpt lat="41.91160320395115" lon="-6.861670436992207"/>
      <trkpt lat="41.9116126746" lon="-6.8616740406">
        <ele>794.82</ele>
        <time>2020-09-12T09:44:00Z</time>
      </trkpt>
      <trkpt lat="41.912194714" lon="-6.8612220045">
        <ele>797.55</ele>
        <time>2020-09-12T09:44:10Z</time>
      </trkpt>
      <trkpt lat="41.9122775272" lon="-6.861162493">
        <ele>802.54</ele>
        <time>2020-09-12T09:44:11Z</time>
      </trkpt>
      <trkpt lat="41.9123380445" lon="-6.8611215893">
        <ele>806.83</ele>
        <time>2020-09-12T09:44:12Z</time>
      </trkpt>
      <trkpt lat="41.912381798" lon="-6.8610969465">
        <ele>808.24</ele>
        <time>2020-09-12T09:44:13Z</time>
      </trkpt>
      <trkpt lat="41.9124697242" lon="-6.8610631675">
        <ele>809.66</ele>
        <time>2020-09-12T09:44:15Z</time>
      </trkpt>
      <trkpt lat="41.9126185868" lon="-6.8610305618">
        <ele>812.74</ele>
        <time>2020-09-12T09:44:18Z</time>
      </trkpt>
      <trkpt lat="41.9126413018" lon="-6.8610276282">
        <ele>815.92</ele>
        <time>2020-09-12T09:44:20Z</time>
      </trkpt>
      <trkpt lat="41.9126396254" lon="-6.8610285502">
        <ele>815.9</ele>
        <time>2020-09-12T09:44:21Z</time>
      </trkpt>
      <trkpt lat="41.9126376137" lon="-6.8610296398">
        <ele>815.34</ele>
        <time>2020-09-12T09:44:59Z</time>
      </trkpt>
      <trkpt lat="41.9127194211" lon="-6.8610149715">
        <ele>817.16</ele>
        <time>2020-09-12T09:45:03Z</time>
      </trkpt>
      <trkpt lat="41.9129354227" lon="-6.8609191664">
        <ele>818.79</ele>
        <time>2020-09-12T09:45:07Z</time>
      </trkpt>
      <trkpt lat="41.9131996203" lon="-6.8608418014">
        <ele>822.05</ele>
        <time>2020-09-12T09:45:10Z</time>
      </trkpt>
      <trkpt lat="41.9134085812" lon="-6.8607928511">
        <ele>825.36</ele>
        <time>2020-09-12T09:45:12Z</time>
      </trkpt>
      <trkpt lat="41.9136471301" lon="-6.8607615866">
        <ele>826.62</ele>
        <time>2020-09-12T09:45:14Z</time>
      </trkpt>
      <trkpt lat="41.9138952345" lon="-6.8607213534">
        <ele>830.07</ele>
        <time>2020-09-12T09:45:16Z</time>
      </trkpt>
      <trkpt lat="41.9141336996" lon="-6.860655304">
        <ele>832.98</ele>
        <time>2020-09-12T09:45:18Z</time>
      </trkpt>
      <trkpt lat="41.9144871645" lon="-6.8603921961">
        <ele>838.35</ele>
        <time>2020-09-12T09:45:22Z</time>
      </trkpt>
      <trkpt lat="41.914589759" lon="-6.8601777032">
        <ele>842.99</ele>
        <time>2020-09-12T09:45:24Z</time>
      </trkpt>
      <trkpt lat="41.9146201853" lon="-6.8600523937">
        <ele>842.94</ele>
        <time>2020-09-12T09:45:25Z</time>
      </trkpt>
      <trkpt lat="41.9146456663" lon="-6.8597751204">
        <ele>847.7</ele>
        <time>2020-09-12T09:45:27Z</time>
      </trkpt>
      <trkpt lat="41.9146071095" lon="-6.8594887946">
        <ele>850.72</ele>
        <time>2020-09-12T09:45:29Z</time>
      </trkpt>
      <trkpt lat="41.9145393837" lon="-6.8591919076">
        <ele>851.58</ele>
        <time>2020-09-12T09:45:31Z</time>
      </trkpt>
      <trkpt lat="41.9144425727" lon="-6.8588982057">
        <ele>854.59</ele>
        <time>2020-09-12T09:45:33Z</time>
      </trkpt>
      <trkpt lat="41.9143156707" lon="-6.8585972115">
        <ele>857.28</ele>
        <time>2020-09-12T09:45:35Z</time>
      </trkpt>
      <trkpt lat="41.9141181931" lon="-6.8581657112">
        <ele>860.16</ele>
        <time>2020-09-12T09:45:38Z</time>
      </trkpt>
      <trkpt lat="41.9140368048" lon="-6.8578488752">
        <ele>861.79</ele>
        <time>2020-09-12T09:45:40Z</time>
      </trkpt>
      <trkpt lat="41.9139571767" lon="-6.8575260881">
        <ele>866.86</ele>
        <time>2020-09-12T09:45:42Z</time>
      </trkpt>
      <trkpt lat="41.913880147" lon="-6.8572054803">
        <ele>872.73</ele>
        <time>2020-09-12T09:45:44Z</time>
      </trkpt>
      <trkpt lat="41.913808817" lon="-6.8566633388">
        <ele>874.29</ele>
        <time>2020-09-12T09:45:47Z</time>
      </trkpt>
      <trkpt lat="41.9136594515" lon="-6.8558538146">
        <ele>879.47</ele>
        <time>2020-09-12T09:45:52Z</time>
      </trkpt>
      <trkpt lat="41.9138234854" lon="-6.8557849154">
        <ele>884.36</ele>
        <time>2020-09-12T09:46:11Z</time>
      </trkpt>
      <trkpt lat="41.9138434343" lon="-6.8557686545">
        <ele>884.23</ele>
        <time>2020-09-12T09:46:14Z</time>
      </trkpt>
      <trkpt lat="41.9139103219" lon="-6.8557057902">
        <ele>884.15</ele>
        <time>2020-09-12T09:46:17Z</time>
      </trkpt>
      <trkpt lat="41.9140618667" lon="-6.8554888666">
        <ele>880.72</ele>
        <time>2020-09-12T09:46:20Z</time>
      </trkpt>
      <trkpt lat="41.9141289219" lon="-6.8553586118">
        <ele>879.84</ele>
        <time>2020-09-12T09:46:22Z</time>
      </trkpt>
      <trkpt lat="41.9141417462" lon="-6.8553211447">
        <ele>879.91</ele>
        <time>2020-09-12T09:46:23Z</time>
      </trkpt>
      <trkpt lat="41.9142241403" lon="-6.8551807478">
        <ele>878.88</ele>
        <time>2020-09-12T09:46:28Z</time>
      </trkpt>
      <trkpt lat="41.9143400621" lon="-6.8549603876">
        <ele>876.01</ele>
        <time>2020-09-12T09:46:31Z</time>
      </trkpt>
      <trkpt lat="41.914437376" lon="-6.8547863793">
        <ele>871.53</ele>
        <time>2020-09-12T09:46:33Z</time>
      </trkpt>
      <trkpt lat="41.9146046788" lon="-6.8544832058">
        <ele>866.36</ele>
        <time>2020-09-12T09:46:36Z</time>
      </trkpt>
      <trkpt lat="41.9147211872" lon="-6.8542444892">
        <ele>863.26</ele>
        <time>2020-09-12T09:46:38Z</time>
      </trkpt>
      <trkpt lat="41.9148086943" lon="-6.8539952952">
        <ele>861.73</ele>
        <time>2020-09-12T09:46:40Z</time>
      </trkpt>
      <trkpt lat="41.9149003923" lon="-6.8537398148">
        <ele>858.93</ele>
        <time>2020-09-12T09:46:42Z</time>
      </trkpt>
      <trkpt lat="41.9151365105" lon="-6.853473438">
        <ele>863.95</ele>
        <time>2020-09-12T09:46:45Z</time>
      </trkpt>
      <trkpt lat="41.9153488241" lon="-6.853356678">
        <ele>865.05</ele>
        <time>2020-09-12T09:46:47Z</time>
      </trkpt>
      <trkpt lat="41.9154618122" lon="-6.8533104938">
        <ele>867.84</ele>
        <time>2020-09-12T09:46:48Z</time>
      </trkpt>
      <trkpt lat="41.9156815019" lon="-6.8532340508">
        <ele>873.55</ele>
        <time>2020-09-12T09:46:50Z</time>
      </trkpt>
      <trkpt lat="41.9157743733" lon="-6.8532042112">
        <ele>876.4</ele>
        <time>2020-09-12T09:46:51Z</time>
      </trkpt>
      <trkpt lat="41.9160069712" lon="-6.8530203961">
        <ele>882.81</ele>
        <time>2020-09-12T09:46:54Z</time>
      </trkpt>
      <trkpt lat="41.9162593503" lon="-6.8526919093">
        <ele>884.24</ele>
        <time>2020-09-12T09:46:57Z</time>
      </trkpt>
      <trkpt lat="41.9164050277" lon="-6.8523982074">
        <ele>890.91</ele>
        <time>2020-09-12T09:47:00Z</time>
      </trkpt>
      <trkpt lat="41.9163873419" lon="-6.8522369396">
        <ele>891.63</ele>
        <time>2020-09-12T09:47:02Z</time>
      </trkpt>
      <trkpt lat="41.9162915368" lon="-6.852045916">
        <ele>891.65</ele>
        <time>2020-09-12T09:47:04Z</time>
      </trkpt>
      <trkpt lat="41.9160328712" lon="-6.8515138328">
        <ele>895.12</ele>
        <time>2020-09-12T09:47:08Z</time>
      </trkpt>
      <trkpt lat="41.9158950727" lon="-6.8511799816">
        <ele>895.8</ele>
        <time>2020-09-12T09:47:10Z</time>
      </trkpt>
      <trkpt lat="41.9155844394" lon="-6.8502668571">
        <ele>899.3</ele>
        <time>2020-09-12T09:47:15Z</time>
      </trkpt>
      <trkpt lat="41.9155369978" lon="-6.8500846345">
        <ele>902.61</ele>
        <time>2020-09-12T09:47:16Z</time>
      </trkpt>
      <trkpt lat="41.9154876284" lon="-6.8499168288">
        <ele>903.24</ele>
        <time>2020-09-12T09:47:17Z</time>
      </trkpt>
      <trkpt lat="41.9152827747" lon="-6.8494675588">
        <ele>906.38</ele>
        <time>2020-09-12T09:47:20Z</time>
      </trkpt>
      <trkpt lat="41.9151296373" lon="-6.8491711747">
        <ele>911.27</ele>
        <time>2020-09-12T09:47:22Z</time>
      </trkpt>
      <trkpt lat="41.915011704" lon="-6.8489174545">
        <ele>915.2</ele>
        <time>2020-09-12T09:47:24Z</time>
      </trkpt>
      <trkpt lat="41.9149813615" lon="-6.8488536682">
        <ele>921.02</ele>
        <time>2020-09-12T09:47:25Z</time>
      </trkpt>
      <trkpt lat="41.9149593171" lon="-6.8488102499">
        <ele>925.56</ele>
        <time>2020-09-12T09:47:26Z</time>
      </trkpt>
      <trkpt lat="41.9149302319" lon="-6.8487576116">
        <ele>925.32</ele>
        <time>2020-09-12T09:47:27Z</time>
      </trkpt>
      <trkpt lat="41.9147925172" lon="-6.8484302144">
        <ele>919.79</ele>
        <time>2020-09-12T09:47:30Z</time>
      </trkpt>
      <trkpt lat="41.9146878272" lon="-6.8480412103">
        <ele>924.11</ele>
        <time>2020-09-12T09:47:33Z</time>
      </trkpt>
      <trkpt lat="41.914640218" lon="-6.8478559703">
        <ele>926.22</ele>
        <time>2020-09-12T09:47:35Z</time>
      </trkpt>
      <trkpt lat="41.9146230351" lon="-6.8477936089">
        <ele>927.84</ele>
        <time>2020-09-12T09:47:36Z</time>
      </trkpt>
      <trkpt lat="41.9147158228" lon="-6.8477652781">
        <ele>929.78</ele>
        <time>2020-09-12T09:47:40Z</time>
      </trkpt>
      <trkpt lat="41.9150018133" lon="-6.8480102811">
        <ele>925.73</ele>
        <time>2020-09-12T09:47:43Z</time>
      </trkpt>
      <trkpt lat="41.9152826909" lon="-6.8482334074">
        <ele>921.8</ele>
        <time>2020-09-12T09:47:45Z</time>
      </trkpt>
      <trkpt lat="41.9156025443" lon="-6.8484734651">
        <ele>917.3</ele>
        <time>2020-09-12T09:47:47Z</time>
      </trkpt>
      <trkpt lat="41.9159045443" lon="-6.8487220723">
        <ele>915.78</ele>
        <time>2020-09-12T09:47:49Z</time>
      </trkpt>
      <trkpt lat="41.9161890261" lon="-6.848970009">
        <ele>918.61</ele>
        <time>2020-09-12T09:47:51Z</time>
      </trkpt>
      <trkpt lat="41.9164505415" lon="-6.8492192868">
        <ele>920.94</ele>
        <time>2020-09-12T09:47:53Z</time>
      </trkpt>
      <trkpt lat="41.9166997354" lon="-6.8493880983">
        <ele>922.65</ele>
        <time>2020-09-12T09:47:55Z</time>
      </trkpt>
      <trkpt lat="41.9169675373" lon="-6.8495288305">
        <ele>924.86</ele>
        <time>2020-09-12T09:47:57Z</time>
      </trkpt>
      <trkpt lat="41.9172399491" lon="-6.8496505357">
        <ele>924.64</ele>
        <time>2020-09-12T09:47:59Z</time>
      </trkpt>
      <trkpt lat="41.9178801589" lon="-6.850362746">
        <ele>927.7</ele>
        <time>2020-09-12T09:48:05Z</time>
      </trkpt>
      <trkpt lat="41.9182291813" lon="-6.8506596331">
        <ele>931.42</ele>
        <time>2020-09-12T09:48:08Z</time>
      </trkpt>
      <trkpt lat="41.9186449237" lon="-6.8508738745">
        <ele>933.63</ele>
        <time>2020-09-12T09:48:11Z</time>
      </trkpt>
      <trkpt lat="41.9195151329" lon="-6.8513206299">
        <ele>935.15</ele>
        <time>2020-09-12T09:48:17Z</time>
      </trkpt>
      <trkpt lat="41.9204935525" lon="-6.8515063729">
        <ele>932.29</ele>
        <time>2020-09-12T09:48:24Z</time>
      </trkpt>
      <trkpt lat="41.9206397329" lon="-6.8515274115">
        <ele>932.33</ele>
        <time>2020-09-12T09:48:25Z</time>
      </trkpt>
      <trkpt lat="41.9210652821" lon="-6.8516294193">
        <ele>932.26</ele>
        <time>2020-09-12T09:48:28Z</time>
      </trkpt>
      <trkpt lat="41.9216880575" lon="-6.8514695764">
        <ele>932.21</ele>
        <time>2020-09-12T09:48:33Z</time>
      </trkpt>
      <trkpt lat="41.9219108485" lon="-6.851276122">
        <ele>932.09</ele>
        <time>2020-09-12T09:48:35Z</time>
      </trkpt>
      <trkpt lat="41.9220809173" lon="-6.8510695919">
        <ele>936.23</ele>
        <time>2020-09-12T09:48:37Z</time>
      </trkpt>
      <trkpt lat="41.9221800752" lon="-6.8507098407">
        <ele>938.35</ele>
        <time>2020-09-12T09:48:40Z</time>
      </trkpt>
      <trkpt lat="41.9221651554" lon="-6.8505840283">
        <ele>941.42</ele>
        <time>2020-09-12T09:48:41Z</time>
      </trkpt>
      <trkpt lat="41.9221382495" lon="-6.8504492473">
        <ele>941.43</ele>
        <time>2020-09-12T09:48:42Z</time>
      </trkpt>
      <trkpt lat="41.9220183045" lon="-6.8499824591">
        <ele>946.8</ele>
        <time>2020-09-12T09:48:45Z</time>
      </trkpt>
      <trkpt lat="41.92197497" lon="-6.8498026673">
        <ele>946.66</ele>
        <time>2020-09-12T09:48:46Z</time>
      </trkpt>
      <trkpt lat="41.9219315518" lon="-6.8496196065">
        <ele>949.8</ele>
        <time>2020-09-12T09:48:47Z</time>
      </trkpt>
      <trkpt lat="41.9218485709" lon="-6.8492661417">
        <ele>955.19</ele>
        <time>2020-09-12T09:48:49Z</time>
      </trkpt>
      <trkpt lat="41.9218105171" lon="-6.8490897026">
        <ele>955.21</ele>
        <time>2020-09-12T09:48:50Z</time>
      </trkpt>
      <trkpt lat="41.9217691943" lon="-6.8489118386">
        <ele>958.61</ele>
        <time>2020-09-12T09:48:51Z</time>
      </trkpt>
      <trkpt lat="41.9217243511" lon="-6.8487312924">
        <ele>961.75</ele>
        <time>2020-09-12T09:48:52Z</time>
      </trkpt>
      <trkpt lat="41.9216383528" lon="-6.8483552802">
        <ele>964.43</ele>
        <time>2020-09-12T09:48:54Z</time>
      </trkpt>
      <trkpt lat="41.9215556234" lon="-6.8479784299">
        <ele>970.51</ele>
        <time>2020-09-12T09:48:56Z</time>
      </trkpt>
      <trkpt lat="41.9215093553" lon="-6.8477915134">
        <ele>974.68</ele>
        <time>2020-09-12T09:48:57Z</time>
      </trkpt>
      <trkpt lat="41.9214113709" lon="-6.8474248052">
        <ele>982</ele>
        <time>2020-09-12T09:48:59Z</time>
      </trkpt>
      <trkpt lat="41.9213599898" lon="-6.8472332787">
        <ele>982</ele>
        <time>2020-09-12T09:49:00Z</time>
      </trkpt>
      <trkpt lat="41.9211801142" lon="-6.8465822563">
        <ele>984.54</ele>
        <time>2020-09-12T09:49:03Z</time>
      </trkpt>
      <trkpt lat="41.9209886715" lon="-6.8459257018">
        <ele>994.44</ele>
        <time>2020-09-12T09:49:06Z</time>
      </trkpt>
      <trkpt lat="41.9209318422" lon="-6.8457339238">
        <ele>999.48</ele>
        <time>2020-09-12T09:49:07Z</time>
      </trkpt>
      <trkpt lat="41.9208787847" lon="-6.8455470074">
        <ele>999.61</ele>
        <time>2020-09-12T09:49:08Z</time>
      </trkpt>
      <trkpt lat="41.9208336063" lon="-6.8453714903">
        <ele>1000.94</ele>
        <time>2020-09-12T09:49:09Z</time>
      </trkpt>
      <trkpt lat="41.920847185" lon="-6.8446330447">
        <ele>1003.67</ele>
        <time>2020-09-12T09:49:13Z</time>
      </trkpt>
      <trkpt lat="41.92095045" lon="-6.8441866245">
        <ele>998.03</ele>
        <time>2020-09-12T09:49:15Z</time>
      </trkpt>
      <trkpt lat="41.9211733248" lon="-6.8430931214">
        <ele>1001.41</ele>
        <time>2020-09-12T09:49:20Z</time>
      </trkpt>
      <trkpt lat="41.921201488" lon="-6.8429612741">
        <ele>1008.81</ele>
        <time>2020-09-12T09:49:21Z</time>
      </trkpt>
      <trkpt lat="41.9213187508" lon="-6.8427128345">
        <ele>1018.05</ele>
        <time>2020-09-12T09:49:24Z</time>
      </trkpt>
      <trkpt lat="41.9213938527" lon="-6.8426486291">
        <ele>1017.98</ele>
        <time>2020-09-12T09:49:25Z</time>
      </trkpt>
      <trkpt lat="41.922177393" lon="-6.8421331421">
        <ele>1021.88</ele>
        <time>2020-09-12T09:49:32Z</time>
      </trkpt>
      <trkpt lat="41.9222669117" lon="-6.8420773186">
        <ele>1025.31</ele>
        <time>2020-09-12T09:49:33Z</time>
      </trkpt>
      <trkpt lat="41.9223660696" lon="-6.8420135323">
        <ele>1025.14</ele>
        <time>2020-09-12T09:49:34Z</time>
      </trkpt>
      <trkpt lat="41.9226869289" lon="-6.8417947646">
        <ele>1023.91</ele>
        <time>2020-09-12T09:49:37Z</time>
      </trkpt>
      <trkpt lat="41.9228787906" lon="-6.8415573891">
        <ele>1031.04</ele>
        <time>2020-09-12T09:49:40Z</time>
      </trkpt>
      <trkpt lat="41.9229027629" lon="-6.8413385376">
        <ele>1031.76</ele>
        <time>2020-09-12T09:49:42Z</time>
      </trkpt>
      <trkpt lat="41.9229021762" lon="-6.8410434108">
        <ele>1028.45</ele>
        <time>2020-09-12T09:49:44Z</time>
      </trkpt>
      <trkpt lat="41.9229030982" lon="-6.8408735935">
        <ele>1028.42</ele>
        <time>2020-09-12T09:49:45Z</time>
      </trkpt>
      <trkpt lat="41.9229094684" lon="-6.8403788097">
        <ele>1032.29</ele>
        <time>2020-09-12T09:49:48Z</time>
      </trkpt>
      <trkpt lat="41.9229090493" lon="-6.8402279355">
        <ele>1032.33</ele>
        <time>2020-09-12T09:49:49Z</time>
      </trkpt>
      <trkpt lat="41.9229204487" lon="-6.8394377735">
        <ele>1027.62</ele>
        <time>2020-09-12T09:49:53Z</time>
      </trkpt>
      <trkpt lat="41.9229368772" lon="-6.8392187543">
        <ele>1023.23</ele>
        <time>2020-09-12T09:49:54Z</time>
      </trkpt>
      <trkpt lat="41.9229548983" lon="-6.8390044291">
        <ele>1025.92</ele>
        <time>2020-09-12T09:49:55Z</time>
      </trkpt>
      <trkpt lat="41.92299027" lon="-6.8385874294">
        <ele>1026.87</ele>
        <time>2020-09-12T09:49:57Z</time>
      </trkpt>
      <trkpt lat="41.9230665453" lon="-6.8369631004">
        <ele>1029.75</ele>
        <time>2020-09-12T09:50:05Z</time>
      </trkpt>
      <trkpt lat="41.9230868295" lon="-6.8366389722">
        <ele>1032.3</ele>
        <time>2020-09-12T09:50:07Z</time>
      </trkpt>
      <trkpt lat="41.9231190998" lon="-6.8358463794">
        <ele>1032.53</ele>
        <time>2020-09-12T09:50:12Z</time>
      </trkpt>
      <trkpt lat="41.9229688123" lon="-6.8354893103">
        <ele>1034.03</ele>
        <time>2020-09-12T09:50:16Z</time>
      </trkpt>
      <trkpt lat="41.922770245" lon="-6.8353542779">
        <ele>1030.19</ele>
        <time>2020-09-12T09:50:18Z</time>
      </trkpt>
      <trkpt lat="41.9226555806" lon="-6.8352753203">
        <ele>1027.07</ele>
        <time>2020-09-12T09:50:19Z</time>
      </trkpt>
      <trkpt lat="41.9225347973" lon="-6.8351931777">
        <ele>1027.11</ele>
        <time>2020-09-12T09:50:20Z</time>
      </trkpt>
      <trkpt lat="41.9220570289" lon="-6.8348379526">
        <ele>1025.38</ele>
        <time>2020-09-12T09:50:24Z</time>
      </trkpt>
      <trkpt lat="41.9216899853" lon="-6.8346094619">
        <ele>1028.01</ele>
        <time>2020-09-12T09:50:27Z</time>
      </trkpt>
      <trkpt lat="41.9215315674" lon="-6.8345151655">
        <ele>1032.58</ele>
        <time>2020-09-12T09:50:29Z</time>
      </trkpt>
      <trkpt lat="41.9216408674" lon="-6.8343607709">
        <ele>1031.77</ele>
        <time>2020-09-12T09:50:34Z</time>
      </trkpt>
      <trkpt lat="41.9218348246" lon="-6.8342397362">
        <ele>1026.31</ele>
        <time>2020-09-12T09:50:36Z</time>
      </trkpt>
      <trkpt lat="41.9220586214" lon="-6.8340915442">
        <ele>1024.66</ele>
        <time>2020-09-12T09:50:38Z</time>
      </trkpt>
      <trkpt lat="41.922174124" lon="-6.8340280093">
        <ele>1023.1</ele>
        <time>2020-09-12T09:50:39Z</time>
      </trkpt>
      <trkpt lat="41.9226824865" lon="-6.8338834215">
        <ele>1021.45</ele>
        <time>2020-09-12T09:50:43Z</time>
      </trkpt>
      <trkpt lat="41.9229566585" lon="-6.8338434398">
        <ele>1016.08</ele>
        <time>2020-09-12T09:50:45Z</time>
      </trkpt>
      <trkpt lat="41.9232299924" lon="-6.8337966688">
        <ele>1012.89</ele>
        <time>2020-09-12T09:50:47Z</time>
      </trkpt>
      <trkpt lat="41.9235024881" lon="-6.8337481376">
        <ele>1008.1</ele>
        <time>2020-09-12T09:50:49Z</time>
      </trkpt>
      <trkpt lat="41.9236366823" lon="-6.833728943">
        <ele>1008.23</ele>
        <time>2020-09-12T09:50:50Z</time>
      </trkpt>
      <trkpt lat="41.923909178" lon="-6.8336990196">
        <ele>1005.17</ele>
        <time>2020-09-12T09:50:52Z</time>
      </trkpt>
      <trkpt lat="41.9240401033" lon="-6.833680328">
        <ele>1005.06</ele>
        <time>2020-09-12T09:50:53Z</time>
      </trkpt>
      <trkpt lat="41.9242401794" lon="-6.8336295336">
        <ele>1008.96</ele>
        <time>2020-09-12T09:50:55Z</time>
      </trkpt>
      <trkpt lat="41.9243238308" lon="-6.8335960899">
        <ele>1009.96</ele>
        <time>2020-09-12T09:50:56Z</time>
      </trkpt>
      <trkpt lat="41.9244908821" lon="-6.8334895559">
        <ele>1007.46</ele>
        <time>2020-09-12T09:50:58Z</time>
      </trkpt>
      <trkpt lat="41.9246829953" lon="-6.8333299644">
        <ele>1003.27</ele>
        <time>2020-09-12T09:51:00Z</time>
      </trkpt>
      <trkpt lat="41.9247839972" lon="-6.8332376797">
        <ele>1000.19</ele>
        <time>2020-09-12T09:51:01Z</time>
      </trkpt>
      <trkpt lat="41.9250727538" lon="-6.8328662775">
        <ele>993.34</ele>
        <time>2020-09-12T09:51:04Z</time>
      </trkpt>
      <trkpt lat="41.9252549764" lon="-6.8326029181">
        <ele>991.1</ele>
        <time>2020-09-12T09:51:06Z</time>
      </trkpt>
      <trkpt lat="41.925496459" lon="-6.832282478">
        <ele>991.47</ele>
        <time>2020-09-12T09:51:09Z</time>
      </trkpt>
      <trkpt lat="41.9256440643" lon="-6.8319820706">
        <ele>995.59</ele>
        <time>2020-09-12T09:51:12Z</time>
      </trkpt>
      <trkpt lat="41.9256609958" lon="-6.8318947311">
        <ele>995.54</ele>
        <time>2020-09-12T09:51:13Z</time>
      </trkpt>
      <trkpt lat="41.9257160649" lon="-6.8317756243">
        <ele>1000.82</ele>
        <time>2020-09-12T09:51:31Z</time>
      </trkpt>
      <trkpt lat="41.9257723913" lon="-6.8315114267">
        <ele>998.04</ele>
        <time>2020-09-12T09:51:34Z</time>
      </trkpt>
      <trkpt lat="41.9259446394" lon="-6.83124681">
        <ele>1001.34</ele>
        <time>2020-09-12T09:51:37Z</time>
      </trkpt>
      <trkpt lat="41.9260222558" lon="-6.8311883043">
        <ele>1002.29</ele>
        <time>2020-09-12T09:51:38Z</time>
      </trkpt>
      <trkpt lat="41.9262791611" lon="-6.8310098536">
        <ele>1005.87</ele>
        <time>2020-09-12T09:51:41Z</time>
      </trkpt>
      <trkpt lat="41.9263733737" lon="-6.8309495039">
        <ele>1008.74</ele>
        <time>2020-09-12T09:51:42Z</time>
      </trkpt>
      <trkpt lat="41.9265778083" lon="-6.8308604043">
        <ele>1013.04</ele>
        <time>2020-09-12T09:51:44Z</time>
      </trkpt>
      <trkpt lat="41.9267940614" lon="-6.8308307324">
        <ele>1015.89</ele>
        <time>2020-09-12T09:51:46Z</time>
      </trkpt>
      <trkpt lat="41.9270243123" lon="-6.8308450654">
        <ele>1022.1</ele>
        <time>2020-09-12T09:51:48Z</time>
      </trkpt>
      <trkpt lat="41.927135624" lon="-6.830856381">
        <ele>1025.4</ele>
        <time>2020-09-12T09:51:49Z</time>
      </trkpt>
      <trkpt lat="41.9274559803" lon="-6.8308929261">
        <ele>1029.83</ele>
        <time>2020-09-12T09:51:52Z</time>
      </trkpt>
      <trkpt lat="41.927670138" lon="-6.830949923">
        <ele>1033.17</ele>
        <time>2020-09-12T09:51:54Z</time>
      </trkpt>
      <trkpt lat="41.9277573097" lon="-6.8309762422">
        <ele>1037.56</ele>
        <time>2020-09-12T09:51:55Z</time>
      </trkpt>
      <trkpt lat="41.9278335851" lon="-6.8310007174">
        <ele>1040.96</ele>
        <time>2020-09-12T09:51:56Z</time>
      </trkpt>
      <trkpt lat="41.9279919192" lon="-6.831048578">
        <ele>1044.35</ele>
        <time>2020-09-12T09:51:58Z</time>
      </trkpt>
      <trkpt lat="41.9280637521" lon="-6.8310725503">
        <ele>1045.6</ele>
        <time>2020-09-12T09:51:59Z</time>
      </trkpt>
      <trkpt lat="41.9282239303" lon="-6.8311104365">
        <ele>1047.75</ele>
        <time>2020-09-12T09:52:01Z</time>
      </trkpt>
      <trkpt lat="41.9283981901" lon="-6.8311323132">
        <ele>1048.64</ele>
        <time>2020-09-12T09:52:03Z</time>
      </trkpt>
      <trkpt lat="41.9286508206" lon="-6.8312649149">
        <ele>1051.82</ele>
        <time>2020-09-12T09:52:06Z</time>
      </trkpt>
      <trkpt lat="41.9288929738" lon="-6.8313358258">
        <ele>1055.65</ele>
        <time>2020-09-12T09:52:09Z</time>
      </trkpt>
      <trkpt lat="41.9290754478" lon="-6.8313727062">
        <ele>1056.85</ele>
        <time>2020-09-12T09:52:11Z</time>
      </trkpt>
      <trkpt lat="41.9292377215" lon="-6.8314380012">
        <ele>1059.96</ele>
        <time>2020-09-12T09:52:13Z</time>
      </trkpt>
      <trkpt lat="41.9293904398" lon="-6.8315428589">
        <ele>1062.68</ele>
        <time>2020-09-12T09:52:15Z</time>
      </trkpt>
      <trkpt lat="41.929540392" lon="-6.8316387478">
        <ele>1067.1</ele>
        <time>2020-09-12T09:52:17Z</time>
      </trkpt>
      <trkpt lat="41.9299770892" lon="-6.8317969982">
        <ele>1070.6</ele>
        <time>2020-09-12T09:52:22Z</time>
      </trkpt>
      <trkpt lat="41.9301428832" lon="-6.831839662">
        <ele>1073.06</ele>
        <time>2020-09-12T09:52:24Z</time>
      </trkpt>
      <trkpt lat="41.9303214177" lon="-6.8318641372">
        <ele>1074.44</ele>
        <time>2020-09-12T09:52:26Z</time>
      </trkpt>
      <trkpt lat="41.9304136187" lon="-6.8318694178">
        <ele>1075.64</ele>
        <time>2020-09-12T09:52:27Z</time>
      </trkpt>
      <trkpt lat="41.9306943286" lon="-6.8318363093">
        <ele>1075.54</ele>
        <time>2020-09-12T09:52:30Z</time>
      </trkpt>
      <trkpt lat="41.930906726" lon="-6.831873944">
        <ele>1080.66</ele>
        <time>2020-09-12T09:52:33Z</time>
      </trkpt>
      <trkpt lat="41.9310237374" lon="-6.8319291808">
        <ele>1085.17</ele>
        <time>2020-09-12T09:52:35Z</time>
      </trkpt>
      <trkpt lat="41.9310833327" lon="-6.8319533207">
        <ele>1085.08</ele>
        <time>2020-09-12T09:52:36Z</time>
      </trkpt>
      <trkpt lat="41.9311457779" lon="-6.8319849204">
        <ele>1085.22</ele>
        <time>2020-09-12T09:52:37Z</time>
      </trkpt>
      <trkpt lat="41.9316054415" lon="-6.832269486">
        <ele>1087.6</ele>
        <time>2020-09-12T09:52:43Z</time>
      </trkpt>
      <trkpt lat="41.9317718223" lon="-6.832386246">
        <ele>1089.28</ele>
        <time>2020-09-12T09:52:45Z</time>
      </trkpt>
      <trkpt lat="41.9320270512" lon="-6.832552962">
        <ele>1091.03</ele>
        <time>2020-09-12T09:52:48Z</time>
      </trkpt>
      <trkpt lat="41.9325263612" lon="-6.8327668682">
        <ele>1092.46</ele>
        <time>2020-09-12T09:52:53Z</time>
      </trkpt>
      <trkpt lat="41.9329611305" lon="-6.8329450674">
        <ele>1093.69</ele>
        <time>2020-09-12T09:52:57Z</time>
      </trkpt>
      <trkpt lat="41.9332430139" lon="-6.8330751546">
        <ele>1098.64</ele>
        <time>2020-09-12T09:53:00Z</time>
      </trkpt>
      <trkpt lat="41.9335466065" lon="-6.8333240133">
        <ele>1100.63</ele>
        <time>2020-09-12T09:53:04Z</time>
      </trkpt>
      <trkpt lat="41.9337968063" lon="-6.8335486483">
        <ele>1104.7</ele>
        <time>2020-09-12T09:53:07Z</time>
      </trkpt>
      <trkpt lat="41.9338905998" lon="-6.8336106744">
        <ele>1104.64</ele>
        <time>2020-09-12T09:53:08Z</time>
      </trkpt>
      <trkpt lat="41.9342759997" lon="-6.8338296935">
        <ele>1106.25</ele>
        <time>2020-09-12T09:53:12Z</time>
      </trkpt>
      <trkpt lat="41.93443886" lon="-6.8338995147">
        <ele>1108.39</ele>
        <time>2020-09-12T09:53:14Z</time>
      </trkpt>
      <trkpt lat="41.9351448677" lon="-6.834003618">
        <ele>1111.9</ele>
        <time>2020-09-12T09:53:21Z</time>
      </trkpt>
      <trkpt lat="41.9354289304" lon="-6.8340259138">
        <ele>1114.68</ele>
        <time>2020-09-12T09:53:24Z</time>
      </trkpt>
      <trkpt lat="41.9360605907" lon="-6.8341281731">
        <ele>1118.13</ele>
        <time>2020-09-12T09:53:30Z</time>
      </trkpt>
      <trkpt lat="41.9361636881" lon="-6.8341436796">
        <ele>1119.98</ele>
        <time>2020-09-12T09:53:31Z</time>
      </trkpt>
      <trkpt lat="41.9365491718" lon="-6.8341447692">
        <ele>1123.58</ele>
        <time>2020-09-12T09:53:35Z</time>
      </trkpt>
      <trkpt lat="41.9366372656" lon="-6.8341410812">
        <ele>1123.49</ele>
        <time>2020-09-12T09:53:36Z</time>
      </trkpt>
      <trkpt lat="41.9369134493" lon="-6.8341679033">
        <ele>1125.24</ele>
        <time>2020-09-12T09:53:39Z</time>
      </trkpt>
      <trkpt lat="41.9374672417" lon="-6.8342698272">
        <ele>1126.89</ele>
        <time>2020-09-12T09:53:44Z</time>
      </trkpt>
      <trkpt lat="41.9376892783" lon="-6.8343047798">
        <ele>1130.33</ele>
        <time>2020-09-12T09:53:46Z</time>
      </trkpt>
      <trkpt lat="41.9382264744" lon="-6.8343825638">
        <ele>1132.43</ele>
        <time>2020-09-12T09:53:51Z</time>
      </trkpt>
      <trkpt lat="41.9384390395" lon="-6.8343921192">
        <ele>1134.71</ele>
        <time>2020-09-12T09:53:53Z</time>
      </trkpt>
      <trkpt lat="41.9386013132" lon="-6.8344228808">
        <ele>1136.8</ele>
        <time>2020-09-12T09:53:55Z</time>
      </trkpt>
      <trkpt lat="41.9386751577" lon="-6.8344506249">
        <ele>1138.62</ele>
        <time>2020-09-12T09:53:56Z</time>
      </trkpt>
      <trkpt lat="41.9388782512" lon="-6.8345985655">
        <ele>1141.17</ele>
        <time>2020-09-12T09:53:59Z</time>
      </trkpt>
      <trkpt lat="41.9389457256" lon="-6.8346762657">
        <ele>1141.2</ele>
        <time>2020-09-12T09:54:00Z</time>
      </trkpt>
      <trkpt lat="41.9390922412" lon="-6.8348693848">
        <ele>1142.84</ele>
        <time>2020-09-12T09:54:02Z</time>
      </trkpt>
      <trkpt lat="41.9391697738" lon="-6.8349729013">
        <ele>1139.64</ele>
        <time>2020-09-12T09:54:03Z</time>
      </trkpt>
      <trkpt lat="41.9394046348" lon="-6.8352262862">
        <ele>1141.67</ele>
        <time>2020-09-12T09:54:06Z</time>
      </trkpt>
      <trkpt lat="41.9398767874" lon="-6.8354946747">
        <ele>1144.89</ele>
        <time>2020-09-12T09:54:11Z</time>
      </trkpt>
      <trkpt lat="41.940171076" lon="-6.8355935812">
        <ele>1147.07</ele>
        <time>2020-09-12T09:54:14Z</time>
      </trkpt>
      <trkpt lat="41.9403738342" lon="-6.8356240913">
        <ele>1149.35</ele>
        <time>2020-09-12T09:54:16Z</time>
      </trkpt>
      <trkpt lat="41.9406449888" lon="-6.8355974369">
        <ele>1151.8</ele>
        <time>2020-09-12T09:54:19Z</time>
      </trkpt>
      <trkpt lat="41.9408521056" lon="-6.8355495762">
        <ele>1155.49</ele>
        <time>2020-09-12T09:54:22Z</time>
      </trkpt>
      <trkpt lat="41.9408630859" lon="-6.8355461396">
        <ele>1158.1</ele>
        <time>2020-09-12T09:54:24Z</time>
      </trkpt>
      <trkpt lat="41.940871384" lon="-6.8355398532">
        <ele>1160.46</ele>
        <time>2020-09-12T09:54:27Z</time>
      </trkpt>
      <trkpt lat="41.9408776704" lon="-6.8355376739">
        <ele>1160.47</ele>
        <time>2020-09-12T09:54:28Z</time>
      </trkpt>
      <trkpt lat="41.9410115294" lon="-6.8354595546">
        <ele>1161.47</ele>
        <time>2020-09-12T09:54:35Z</time>
      </trkpt>
      <trkpt lat="41.940990407" lon="-6.835458884">
        <ele>1161.42</ele>
        <time>2020-09-12T09:55:05Z</time>
      </trkpt>
      <trkpt lat="41.9409792591" lon="-6.8354582973">
        <ele>1161.68</ele>
        <time>2020-09-12T09:55:32Z</time>
      </trkpt>
      <trkpt lat="41.9409814384" lon="-6.8354573753">
        <ele>1161.72</ele>
        <time>2020-09-12T09:55:36Z</time>
      </trkpt>
      <trkpt lat="41.9411093462" lon="-6.8353618216">
        <ele>1159.06</ele>
        <time>2020-09-12T09:55:40Z</time>
      </trkpt>
      <trkpt lat="41.9412939157" lon="-6.8352350872">
        <ele>1162.55</ele>
        <time>2020-09-12T09:55:43Z</time>
      </trkpt>
      <trkpt lat="41.9413622282" lon="-6.8351872265">
        <ele>1162.54</ele>
        <time>2020-09-12T09:55:44Z</time>
      </trkpt>
      <trkpt lat="41.9415105879" lon="-6.835072143">
        <ele>1160</ele>
        <time>2020-09-12T09:55:46Z</time>
      </trkpt>
      <trkpt lat="41.9416141044" lon="-6.8349477556">
        <ele>1162.46</ele>
        <time>2020-09-12T09:55:48Z</time>
      </trkpt>
      <trkpt lat="41.9416627195" lon="-6.8347742502">
        <ele>1162.42</ele>
        <time>2020-09-12T09:55:50Z</time>
      </trkpt>
      <trkpt lat="41.9417663198" lon="-6.8339594454">
        <ele>1164.53</ele>
        <time>2020-09-12T09:55:56Z</time>
      </trkpt>
      <trkpt lat="41.9418080617" lon="-6.8335039727">
        <ele>1167.82</ele>
        <time>2020-09-12T09:55:59Z</time>
      </trkpt>
      <trkpt lat="41.9418147672" lon="-6.8333630729">
        <ele>1171.06</ele>
        <time>2020-09-12T09:56:00Z</time>
      </trkpt>
      <trkpt lat="41.9417790603" lon="-6.8330133799">
        <ele>1175.88</ele>
        <time>2020-09-12T09:56:03Z</time>
      </trkpt>
      <trkpt lat="41.9417089038" lon="-6.8328064308">
        <ele>1176.89</ele>
        <time>2020-09-12T09:56:05Z</time>
      </trkpt>
      <trkpt lat="41.9416169543" lon="-6.8326290697">
        <ele>1178.27</ele>
        <time>2020-09-12T09:56:07Z</time>
      </trkpt>
      <trkpt lat="41.9415617175" lon="-6.8325574044">
        <ele>1180.42</ele>
        <time>2020-09-12T09:56:08Z</time>
      </trkpt>
      <trkpt lat="41.9412333146" lon="-6.8321417458">
        <ele>1180.45</ele>
        <time>2020-09-12T09:56:13Z</time>
      </trkpt>
      <trkpt lat="41.9411169738" lon="-6.8319252413">
        <ele>1182.11</ele>
        <time>2020-09-12T09:56:15Z</time>
      </trkpt>
      <trkpt lat="41.9410104398" lon="-6.8317141011">
        <ele>1185.16</ele>
        <time>2020-09-12T09:56:17Z</time>
      </trkpt>
      <trkpt lat="41.9409578014" lon="-6.8316172902">
        <ele>1185.18</ele>
        <time>2020-09-12T09:56:18Z</time>
      </trkpt>
      <trkpt lat="41.9408433884" lon="-6.8314374983">
        <ele>1189.13</ele>
        <time>2020-09-12T09:56:20Z</time>
      </trkpt>
      <trkpt lat="41.9406840485" lon="-6.8311755639">
        <ele>1191.03</ele>
        <time>2020-09-12T09:56:23Z</time>
      </trkpt>
      <trkpt lat="41.9405431487" lon="-6.8308858015">
        <ele>1194.17</ele>
        <time>2020-09-12T09:56:26Z</time>
      </trkpt>
      <trkpt lat="41.9403824676" lon="-6.8307775073">
        <ele>1197.32</ele>
        <time>2020-09-12T09:56:29Z</time>
      </trkpt>
      <trkpt lat="41.9402683899" lon="-6.8308799341">
        <ele>1199.76</ele>
        <time>2020-09-12T09:56:31Z</time>
      </trkpt>
      <trkpt lat="41.940138638" lon="-6.8310520146">
        <ele>1201.15</ele>
        <time>2020-09-12T09:56:33Z</time>
      </trkpt>
      <trkpt lat="41.9400669727" lon="-6.8311455566">
        <ele>1201.08</ele>
        <time>2020-09-12T09:56:34Z</time>
      </trkpt>
      <trkpt lat="41.9398040324" lon="-6.8313507456">
        <ele>1203.7</ele>
        <time>2020-09-12T09:56:37Z</time>
      </trkpt>
      <trkpt lat="41.9393830933" lon="-6.83140615">
        <ele>1204.37</ele>
        <time>2020-09-12T09:56:41Z</time>
      </trkpt>
      <trkpt lat="41.9390532654" lon="-6.8313699402">
        <ele>1206.13</ele>
        <time>2020-09-12T09:56:44Z</time>
      </trkpt>
      <trkpt lat="41.9386064261" lon="-6.8313802499">
        <ele>1207.96</ele>
        <time>2020-09-12T09:56:48Z</time>
      </trkpt>
      <trkpt lat="41.9382601697" lon="-6.8313270248">
        <ele>1209.69</ele>
        <time>2020-09-12T09:56:51Z</time>
      </trkpt>
      <trkpt lat="41.9376787171" lon="-6.8311069999">
        <ele>1212.42</ele>
        <time>2020-09-12T09:56:56Z</time>
      </trkpt>
      <trkpt lat="41.9372008648" lon="-6.8308356777">
        <ele>1214.29</ele>
        <time>2020-09-12T09:57:00Z</time>
      </trkpt>
      <trkpt lat="41.9368512556" lon="-6.8306298181">
        <ele>1216.55</ele>
        <time>2020-09-12T09:57:03Z</time>
      </trkpt>
      <trkpt lat="41.9364117924" lon="-6.8303284049">
        <ele>1220.58</ele>
        <time>2020-09-12T09:57:07Z</time>
      </trkpt>
      <trkpt lat="41.9363057613" lon="-6.8302457593">
        <ele>1220.64</ele>
        <time>2020-09-12T09:57:08Z</time>
      </trkpt>
      <trkpt lat="41.9358722493" lon="-6.8298701663">
        <ele>1223.69</ele>
        <time>2020-09-12T09:57:12Z</time>
      </trkpt>
      <trkpt lat="41.9356554933" lon="-6.8296864349">
        <ele>1225.25</ele>
        <time>2020-09-12T09:57:14Z</time>
      </trkpt>
      <trkpt lat="41.935386518" lon="-6.8294033781">
        <ele>1230.86</ele>
        <time>2020-09-12T09:57:17Z</time>
      </trkpt>
      <trkpt lat="41.9353044592" lon="-6.8292882107">
        <ele>1230.85</ele>
        <time>2020-09-12T09:57:18Z</time>
      </trkpt>
      <trkpt lat="41.9351429399" lon="-6.8290499132">
        <ele>1228.38</ele>
        <time>2020-09-12T09:57:20Z</time>
      </trkpt>
      <trkpt lat="41.9349933229" lon="-6.8288622424">
        <ele>1233.22</ele>
        <time>2020-09-12T09:57:22Z</time>
      </trkpt>
      <trkpt lat="41.9348505791" lon="-6.8287143018">
        <ele>1237.53</ele>
        <time>2020-09-12T09:57:24Z</time>
      </trkpt>
      <trkpt lat="41.9347835239" lon="-6.8286391161">
        <ele>1237.46</ele>
        <time>2020-09-12T09:57:25Z</time>
      </trkpt>
      <trkpt lat="41.9343873952" lon="-6.8280976452">
        <ele>1241.68</ele>
        <time>2020-09-12T09:57:31Z</time>
      </trkpt>
      <trkpt lat="41.9343272131" lon="-6.8280108925">
        <ele>1241.65</ele>
        <time>2020-09-12T09:57:32Z</time>
      </trkpt>
      <trkpt lat="41.9341444038" lon="-6.8277622852">
        <ele>1245.68</ele>
        <time>2020-09-12T09:57:35Z</time>
      </trkpt>
      <trkpt lat="41.9340829644" lon="-6.8276809808">
        <ele>1245.6</ele>
        <time>2020-09-12T09:57:36Z</time>
      </trkpt>
      <trkpt lat="41.9336758554" lon="-6.8270354066">
        <ele>1249.2</ele>
        <time>2020-09-12T09:57:43Z</time>
      </trkpt>
      <trkpt lat="41.9334931299" lon="-6.8266007211">
        <ele>1251.32</ele>
        <time>2020-09-12T09:57:47Z</time>
      </trkpt>
      <trkpt lat="41.9333337061" lon="-6.8259755149">
        <ele>1253.09</ele>
        <time>2020-09-12T09:57:52Z</time>
      </trkpt>
      <trkpt lat="41.9333197922" lon="-6.8254949804">
        <ele>1253.89</ele>
        <time>2020-09-12T09:57:56Z</time>
      </trkpt>
      <trkpt lat="41.933354577" lon="-6.8253412563">
        <ele>1256.01</ele>
        <time>2020-09-12T09:57:58Z</time>
      </trkpt>
      <trkpt lat="41.9335155934" lon="-6.8252457865">
        <ele>1252.89</ele>
        <time>2020-09-12T09:58:01Z</time>
      </trkpt>
      <trkpt lat="41.9335942157" lon="-6.8252356444">
        <ele>1250.61</ele>
        <time>2020-09-12T09:58:02Z</time>
      </trkpt>
      <trkpt lat="41.9340589084" lon="-6.8251276854">
        <ele>1249.6</ele>
        <time>2020-09-12T09:58:07Z</time>
      </trkpt>
      <trkpt lat="41.934228139" lon="-6.8251136877">
        <ele>1245.73</ele>
        <time>2020-09-12T09:58:09Z</time>
      </trkpt>
      <trkpt lat="41.9344260357" lon="-6.8251282722">
        <ele>1244.34</ele>
        <time>2020-09-12T09:58:11Z</time>
      </trkpt>
      <trkpt lat="41.9347555283" lon="-6.8251697626">
        <ele>1242.22</ele>
        <time>2020-09-12T09:58:14Z</time>
      </trkpt>
      <trkpt lat="41.9352599513" lon="-6.8252341356">
        <ele>1242.3</ele>
        <time>2020-09-12T09:58:19Z</time>
      </trkpt>
      <trkpt lat="41.9356201217" lon="-6.8250317965">
        <ele>1242.41</ele>
        <time>2020-09-12T09:58:24Z</time>
      </trkpt>
      <trkpt lat="41.935822377" lon="-6.8247602228">
        <ele>1239.88</ele>
        <time>2020-09-12T09:58:27Z</time>
      </trkpt>
      <trkpt lat="41.9359728321" lon="-6.8246002961">
        <ele>1238.77</ele>
        <time>2020-09-12T09:58:29Z</time>
      </trkpt>
      <trkpt lat="41.9361521211" lon="-6.8241572287">
        <ele>1238.89</ele>
        <time>2020-09-12T09:58:34Z</time>
      </trkpt>
      <trkpt lat="41.9361719862" lon="-6.8237877544">
        <ele>1232.14</ele>
        <time>2020-09-12T09:58:37Z</time>
      </trkpt>
      <trkpt lat="41.9362009875" lon="-6.8234291766">
        <ele>1234.6</ele>
        <time>2020-09-12T09:58:40Z</time>
      </trkpt>
      <trkpt lat="41.9360273983" lon="-6.8230617978">
        <ele>1231.72</ele>
        <time>2020-09-12T09:58:45Z</time>
      </trkpt>
      <trkpt lat="41.9359719101" lon="-6.8229916412">
        <ele>1231.73</ele>
        <time>2020-09-12T09:58:46Z</time>
      </trkpt>
      <trkpt lat="41.9358769432" lon="-6.8228701875">
        <ele>1230.33</ele>
        <time>2020-09-12T09:58:48Z</time>
      </trkpt>
      <trkpt lat="41.9357508793" lon="-6.8226199038">
        <ele>1226.44</ele>
        <time>2020-09-12T09:58:51Z</time>
      </trkpt>
      <trkpt lat="41.9357155915" lon="-6.822524434">
        <ele>1226.37</ele>
        <time>2020-09-12T09:58:52Z</time>
      </trkpt>
      <trkpt lat="41.9356149249" lon="-6.8222567998">
        <ele>1224.42</ele>
        <time>2020-09-12T09:58:55Z</time>
      </trkpt>
      <trkpt lat="41.9354344625" lon="-6.8218473438">
        <ele>1221.02</ele>
        <time>2020-09-12T09:59:00Z</time>
      </trkpt>
      <trkpt lat="41.9353484642" lon="-6.8216626067">
        <ele>1219.02</ele>
        <time>2020-09-12T09:59:02Z</time>
      </trkpt>
      <trkpt lat="41.9351807423" lon="-6.8213335332">
        <ele>1217.52</ele>
        <time>2020-09-12T09:59:06Z</time>
      </trkpt>
      <trkpt lat="41.9351170398" lon="-6.8210573494">
        <ele>1213.65</ele>
        <time>2020-09-12T09:59:09Z</time>
      </trkpt>
      <trkpt lat="41.9351408444" lon="-6.8208323792">
        <ele>1210.78</ele>
        <time>2020-09-12T09:59:11Z</time>
      </trkpt>
      <trkpt lat="41.9351819158" lon="-6.8205913156">
        <ele>1207.28</ele>
        <time>2020-09-12T09:59:13Z</time>
      </trkpt>
      <trkpt lat="41.935201278" lon="-6.8203753978">
        <ele>1204.64</ele>
        <time>2020-09-12T09:59:15Z</time>
      </trkpt>
      <trkpt lat="41.9352073129" lon="-6.8202832807">
        <ele>1204.62</ele>
        <time>2020-09-12T09:59:16Z</time>
      </trkpt>
      <trkpt lat="41.9353359751" lon="-6.8198759202">
        <ele>1204.8</ele>
        <time>2020-09-12T09:59:21Z</time>
      </trkpt>
      <trkpt lat="41.9353959057" lon="-6.8197848089">
        <ele>1207.1</ele>
        <time>2020-09-12T09:59:23Z</time>
      </trkpt>
      <trkpt lat="41.9354455266" lon="-6.8196208589">
        <ele>1207.26</ele>
        <time>2020-09-12T09:59:27Z</time>
      </trkpt>
      <trkpt lat="41.9352534134" lon="-6.8193342816">
        <ele>1204.03</ele>
        <time>2020-09-12T09:59:32Z</time>
      </trkpt>
      <trkpt lat="41.9351666607" lon="-6.8191677332">
        <ele>1201.99</ele>
        <time>2020-09-12T09:59:34Z</time>
      </trkpt>
      <trkpt lat="41.9351252541" lon="-6.8189545814">
        <ele>1202</ele>
        <time>2020-09-12T09:59:36Z</time>
      </trkpt>
      <trkpt lat="41.9351155311" lon="-6.8185697682">
        <ele>1205.72</ele>
        <time>2020-09-12T09:59:40Z</time>
      </trkpt>
      <trkpt lat="41.9351171236" lon="-6.8184690177">
        <ele>1205.73</ele>
        <time>2020-09-12T09:59:41Z</time>
      </trkpt>
      <trkpt lat="41.9351142738" lon="-6.8181286287">
        <ele>1205.77</ele>
        <time>2020-09-12T09:59:44Z</time>
      </trkpt>
      <trkpt lat="41.9350253418" lon="-6.8177623395">
        <ele>1207.54</ele>
        <time>2020-09-12T09:59:48Z</time>
      </trkpt>
      <trkpt lat="41.9347706996" lon="-6.8176118843">
        <ele>1205.3</ele>
        <time>2020-09-12T09:59:52Z</time>
      </trkpt>
      <trkpt lat="41.934569031" lon="-6.8175736628">
        <ele>1203.69</ele>
        <time>2020-09-12T09:59:55Z</time>
      </trkpt>
      <trkpt lat="41.9344741479" lon="-6.8174626026">
        <ele>1200.43</ele>
        <time>2020-09-12T09:59:57Z</time>
      </trkpt>
      <trkpt lat="41.9344788417" lon="-6.8172126543">
        <ele>1198.21</ele>
        <time>2020-09-12T10:00:00Z</time>
      </trkpt>
      <trkpt lat="41.9345617387" lon="-6.816934878">
        <ele>1197.22</ele>
        <time>2020-09-12T10:00:03Z</time>
      </trkpt>
      <trkpt lat="41.9344796799" lon="-6.8167073093">
        <ele>1198.05</ele>
        <time>2020-09-12T10:00:08Z</time>
      </trkpt>
      <trkpt lat="41.9342788495" lon="-6.8164834287">
        <ele>1198.2</ele>
        <time>2020-09-12T10:00:14Z</time>
      </trkpt>
      <trkpt lat="41.9341509417" lon="-6.8161019683">
        <ele>1195.9</ele>
        <time>2020-09-12T10:00:18Z</time>
      </trkpt>
      <trkpt lat="41.9341055118" lon="-6.8159790896">
        <ele>1199.19</ele>
        <time>2020-09-12T10:00:19Z</time>
      </trkpt>
      <trkpt lat="41.9340604171" lon="-6.8158539478">
        <ele>1199.21</ele>
        <time>2020-09-12T10:00:20Z</time>
      </trkpt>
      <trkpt lat="41.9338053558" lon="-6.81512204">
        <ele>1200.1</ele>
        <time>2020-09-12T10:00:27Z</time>
      </trkpt>
      <trkpt lat="41.9338919409" lon="-6.8146856781">
        <ele>1201.05</ele>
        <time>2020-09-12T10:00:33Z</time>
      </trkpt>
      <trkpt lat="41.9339979719" lon="-6.8145534955">
        <ele>1203.22</ele>
        <time>2020-09-12T10:00:37Z</time>
      </trkpt>
      <trkpt lat="41.9339999836" lon="-6.8145521544">
        <ele>1204.59</ele>
        <time>2020-09-12T10:00:39Z</time>
      </trkpt>
      <trkpt lat="41.9339932781" lon="-6.8145617098">
        <ele>1203.55</ele>
        <time>2020-09-12T10:01:24Z</time>
      </trkpt>
      <trkpt lat="41.9339943677" lon="-6.8145639729">
        <ele>1207.61</ele>
        <time>2020-09-12T10:01:30Z</time>
      </trkpt>
      <trkpt lat="41.9339945354" lon="-6.8145648111">
        <ele>1207.61</ele>
        <time>2020-09-12T10:01:31Z</time>
      </trkpt>
      <trkpt lat="41.9339942839" lon="-6.8145658169">
        <ele>1205.11</ele>
        <time>2020-09-12T10:01:33Z</time>
      </trkpt>
      <trkpt lat="41.9339922722" lon="-6.814571768">
        <ele>1206</ele>
        <time>2020-09-12T10:01:48Z</time>
      </trkpt>
      <trkpt lat="41.9339910988" lon="-6.8145855144">
        <ele>1202.67</ele>
        <time>2020-09-12T10:02:25Z</time>
      </trkpt>
      <trkpt lat="41.9339907635" lon="-6.8145826645">
        <ele>1206.1</ele>
        <time>2020-09-12T10:02:36Z</time>
      </trkpt>
      <trkpt lat="41.9339912664" lon="-6.8145801499">
        <ele>1203.16</ele>
        <time>2020-09-12T10:02:41Z</time>
      </trkpt>
      <trkpt lat="41.9339923561" lon="-6.8145761266">
        <ele>1205.71</ele>
        <time>2020-09-12T10:02:46Z</time>
      </trkpt>
      <trkpt lat="41.9340210222" lon="-6.8145706784">
        <ele>1205.93</ele>
        <time>2020-09-12T10:03:14Z</time>
      </trkpt>
      <trkpt lat="41.9340310805" lon="-6.8145696726">
        <ele>1205.97</ele>
        <time>2020-09-12T10:03:20Z</time>
      </trkpt>
      <trkpt lat="41.9341247063" lon="-6.8145360611">
        <ele>1201.88</ele>
        <time>2020-09-12T10:03:23Z</time>
      </trkpt>
      <trkpt lat="41.9341861457" lon="-6.8144882005">
        <ele>1200.08</ele>
        <time>2020-09-12T10:03:24Z</time>
      </trkpt>
      <trkpt lat="41.9343394507" lon="-6.8143576104">
        <ele>1198.57</ele>
        <time>2020-09-12T10:03:26Z</time>
      </trkpt>
      <trkpt lat="41.9348142855" lon="-6.8141643237">
        <ele>1196.42</ele>
        <time>2020-09-12T10:03:30Z</time>
      </trkpt>
      <trkpt lat="41.9351204764" lon="-6.8141184747">
        <ele>1193.13</ele>
        <time>2020-09-12T10:03:32Z</time>
      </trkpt>
      <trkpt lat="41.9352779724" lon="-6.8140939996">
        <ele>1193.1</ele>
        <time>2020-09-12T10:03:33Z</time>
      </trkpt>
      <trkpt lat="41.9361230358" lon="-6.8139670976">
        <ele>1191.71</ele>
        <time>2020-09-12T10:03:38Z</time>
      </trkpt>
      <trkpt lat="41.9366712961" lon="-6.8138737231">
        <ele>1194.64</ele>
        <time>2020-09-12T10:03:41Z</time>
      </trkpt>
      <trkpt lat="41.9374495558" lon="-6.81374087">
        <ele>1191.62</ele>
        <time>2020-09-12T10:03:45Z</time>
      </trkpt>
      <trkpt lat="41.9376499671" lon="-6.8137070071">
        <ele>1191.65</ele>
        <time>2020-09-12T10:03:46Z</time>
      </trkpt>
      <trkpt lat="41.9380497001" lon="-6.8136362638">
        <ele>1190.25</ele>
        <time>2020-09-12T10:03:48Z</time>
      </trkpt>
      <trkpt lat="41.938445745" lon="-6.813567616">
        <ele>1192.73</ele>
        <time>2020-09-12T10:03:50Z</time>
      </trkpt>
      <trkpt lat="41.9388384372" lon="-6.813503243">
        <ele>1194.61</ele>
        <time>2020-09-12T10:03:52Z</time>
      </trkpt>
      <trkpt lat="41.9394266792" lon="-6.8134040013">
        <ele>1196.45</ele>
        <time>2020-09-12T10:03:55Z</time>
      </trkpt>
      <trkpt lat="41.9402177632" lon="-6.813285565">
        <ele>1193.26</ele>
        <time>2020-09-12T10:03:59Z</time>
      </trkpt>
      <trkpt lat="41.9406221062" lon="-6.8132253829">
        <ele>1192.13</ele>
        <time>2020-09-12T10:04:01Z</time>
      </trkpt>
      <trkpt lat="41.9410277065" lon="-6.8131608423">
        <ele>1188.9</ele>
        <time>2020-09-12T10:04:03Z</time>
      </trkpt>
      <trkpt lat="41.9412285369" lon="-6.8131284043">
        <ele>1193.18</ele>
        <time>2020-09-12T10:04:04Z</time>
      </trkpt>
      <trkpt lat="41.9414286129" lon="-6.8130973075">
        <ele>1193.18</ele>
        <time>2020-09-12T10:04:05Z</time>
      </trkpt>
      <trkpt lat="41.9416270126" lon="-6.8130665459">
        <ele>1197.66</ele>
        <time>2020-09-12T10:04:06Z</time>
      </trkpt>
      <trkpt lat="41.9418225624" lon="-6.8130344432">
        <ele>1194.93</ele>
        <time>2020-09-12T10:04:07Z</time>
      </trkpt>
      <trkpt lat="41.9420137536" lon="-6.813003514">
        <ele>1198.99</ele>
        <time>2020-09-12T10:04:08Z</time>
      </trkpt>
      <trkpt lat="41.9421954732" lon="-6.8129725847">
        <ele>1202.83</ele>
        <time>2020-09-12T10:04:09Z</time>
      </trkpt>
      <trkpt lat="41.9423673023" lon="-6.8129374646">
        <ele>1206.96</ele>
        <time>2020-09-12T10:04:10Z</time>
      </trkpt>
      <trkpt lat="41.9428488426" lon="-6.8127219658">
        <ele>1206.24</ele>
        <time>2020-09-12T10:04:13Z</time>
      </trkpt>
      <trkpt lat="41.9429937657" lon="-6.8126290943">
        <ele>1209.87</ele>
        <time>2020-09-12T10:04:14Z</time>
      </trkpt>
      <trkpt lat="41.9431380183" lon="-6.8125456944">
        <ele>1211.64</ele>
        <time>2020-09-12T10:04:15Z</time>
      </trkpt>
      <trkpt lat="41.9434672594" lon="-6.8124156911">
        <ele>1207.59</ele>
        <time>2020-09-12T10:04:17Z</time>
      </trkpt>
      <trkpt lat="41.9438515697" lon="-6.8123215623">
        <ele>1203.78</ele>
        <time>2020-09-12T10:04:19Z</time>
      </trkpt>
      <trkpt lat="41.944055669" lon="-6.8122760486">
        <ele>1203.54</ele>
        <time>2020-09-12T10:04:20Z</time>
      </trkpt>
      <trkpt lat="41.9444704894" lon="-6.8121856917">
        <ele>1200.26</ele>
        <time>2020-09-12T10:04:22Z</time>
      </trkpt>
      <trkpt lat="41.9446807913" lon="-6.8121416867">
        <ele>1200.21</ele>
        <time>2020-09-12T10:04:23Z</time>
      </trkpt>
      <trkpt lat="41.9450925943" lon="-6.8120514136">
        <ele>1198.77</ele>
        <time>2020-09-12T10:04:25Z</time>
      </trkpt>
      <trkpt lat="41.9454755634" lon="-6.8119706959">
        <ele>1202.96</ele>
        <time>2020-09-12T10:04:27Z</time>
      </trkpt>
      <trkpt lat="41.9458588678" lon="-6.811886793">
        <ele>1203.99</ele>
        <time>2020-09-12T10:04:29Z</time>
      </trkpt>
      <trkpt lat="41.9474745635" lon="-6.8115428835">
        <ele>1202.17</ele>
        <time>2020-09-12T10:04:37Z</time>
      </trkpt>
      <trkpt lat="41.9478838518" lon="-6.8114540353">
        <ele>1199.63</ele>
        <time>2020-09-12T10:04:39Z</time>
      </trkpt>
      <trkpt lat="41.9483023603" lon="-6.8113627564">
        <ele>1196.37</ele>
        <time>2020-09-12T10:04:41Z</time>
      </trkpt>
      <trkpt lat="41.9485153444" lon="-6.8113154825">
        <ele>1196.41</ele>
        <time>2020-09-12T10:04:42Z</time>
      </trkpt>
      <trkpt lat="41.9493677001" lon="-6.8111216929">
        <ele>1199.68</ele>
        <time>2020-09-12T10:04:46Z</time>
      </trkpt>
      <trkpt lat="41.9497689418" lon="-6.8110129796">
        <ele>1202.18</ele>
        <time>2020-09-12T10:04:48Z</time>
      </trkpt>
      <trkpt lat="41.9502916373" lon="-6.8107599299">
        <ele>1206.35</ele>
        <time>2020-09-12T10:04:51Z</time>
      </trkpt>
      <trkpt lat="41.9506574236" lon="-6.8106392305">
        <ele>1207.31</ele>
        <time>2020-09-12T10:04:53Z</time>
      </trkpt>
      <trkpt lat="41.9514347613" lon="-6.810525069">
        <ele>1213.11</ele>
        <time>2020-09-12T10:04:57Z</time>
      </trkpt>
      <trkpt lat="41.9521509949" lon="-6.8107239716">
        <ele>1218.37</ele>
        <time>2020-09-12T10:05:01Z</time>
      </trkpt>
      <trkpt lat="41.9526674878" lon="-6.8109925278">
        <ele>1222.37</ele>
        <time>2020-09-12T10:05:04Z</time>
      </trkpt>
      <trkpt lat="41.9529685657" lon="-6.8110532127">
        <ele>1226.04</ele>
        <time>2020-09-12T10:05:06Z</time>
      </trkpt>
      <trkpt lat="41.9531384669" lon="-6.8110443279">
        <ele>1222.03</ele>
        <time>2020-09-12T10:05:07Z</time>
      </trkpt>
      <trkpt lat="41.9533253834" lon="-6.8110173382">
        <ele>1217.6</ele>
        <time>2020-09-12T10:05:08Z</time>
      </trkpt>
      <trkpt lat="41.9535275549" lon="-6.8109833077">
        <ele>1213.03</ele>
        <time>2020-09-12T10:05:09Z</time>
      </trkpt>
      <trkpt lat="41.9537399523" lon="-6.8109461758">
        <ele>1209.73</ele>
        <time>2020-09-12T10:05:10Z</time>
      </trkpt>
      <trkpt lat="41.9539582171" lon="-6.8109076191">
        <ele>1204.63</ele>
        <time>2020-09-12T10:05:11Z</time>
      </trkpt>
      <trkpt lat="41.9541813433" lon="-6.8108697329">
        <ele>1204.67</ele>
        <time>2020-09-12T10:05:12Z</time>
      </trkpt>
      <trkpt lat="41.9544033799" lon="-6.8108314276">
        <ele>1207.91</ele>
        <time>2020-09-12T10:05:13Z</time>
      </trkpt>
      <trkpt lat="41.9546239078" lon="-6.8107919488">
        <ele>1207.64</ele>
        <time>2020-09-12T10:05:14Z</time>
      </trkpt>
      <trkpt lat="41.9550756924" lon="-6.8107059505">
        <ele>1204.36</ele>
        <time>2020-09-12T10:05:16Z</time>
      </trkpt>
      <trkpt lat="41.9555361941" lon="-6.8106238078">
        <ele>1202.57</ele>
        <time>2020-09-12T10:05:18Z</time>
      </trkpt>
      <trkpt lat="41.9567019492" lon="-6.8104228936">
        <ele>1197.57</ele>
        <time>2020-09-12T10:05:23Z</time>
      </trkpt>
      <trkpt lat="41.9571488723" lon="-6.8103362247">
        <ele>1202.13</ele>
        <time>2020-09-12T10:05:25Z</time>
      </trkpt>
      <trkpt lat="41.9576025009" lon="-6.8102628831">
        <ele>1203.55</ele>
        <time>2020-09-12T10:05:27Z</time>
      </trkpt>
      <trkpt lat="41.9580562972" lon="-6.8101882003">
        <ele>1201.1</ele>
        <time>2020-09-12T10:05:29Z</time>
      </trkpt>
      <trkpt lat="41.9589638058" lon="-6.810027184">
        <ele>1199.27</ele>
        <time>2020-09-12T10:05:33Z</time>
      </trkpt>
      <trkpt lat="41.9591814" lon="-6.8099826761">
        <ele>1203.94</ele>
        <time>2020-09-12T10:05:34Z</time>
      </trkpt>
      <trkpt lat="41.9593806379" lon="-6.8099358212">
        <ele>1207.75</ele>
        <time>2020-09-12T10:05:35Z</time>
      </trkpt>
      <trkpt lat="41.9595614355" lon="-6.8098915648">
        <ele>1213.1</ele>
        <time>2020-09-12T10:05:36Z</time>
      </trkpt>
      <trkpt lat="41.9597290736" lon="-6.8098499067">
        <ele>1216.2</ele>
        <time>2020-09-12T10:05:37Z</time>
      </trkpt>
      <trkpt lat="41.9598941132" lon="-6.8097980227">
        <ele>1217.97</ele>
        <time>2020-09-12T10:05:38Z</time>
      </trkpt>
      <trkpt lat="41.9602365978" lon="-6.8096145429">
        <ele>1214.85</ele>
        <time>2020-09-12T10:05:40Z</time>
      </trkpt>
      <trkpt lat="41.9604184013" lon="-6.80948806">
        <ele>1210.5</ele>
        <time>2020-09-12T10:05:41Z</time>
      </trkpt>
      <trkpt lat="41.9606090896" lon="-6.8093483336">
        <ele>1206.34</ele>
        <time>2020-09-12T10:05:42Z</time>
      </trkpt>
      <trkpt lat="41.9608062319" lon="-6.8091952801">
        <ele>1206.25</ele>
        <time>2020-09-12T10:05:43Z</time>
      </trkpt>
      <trkpt lat="41.9610084873" lon="-6.8090331741">
        <ele>1201.67</ele>
        <time>2020-09-12T10:05:44Z</time>
      </trkpt>
      <trkpt lat="41.9612136763" lon="-6.8088666257">
        <ele>1204.19</ele>
        <time>2020-09-12T10:05:45Z</time>
      </trkpt>
      <trkpt lat="41.9620527048" lon="-6.8082083948">
        <ele>1207.46</ele>
        <time>2020-09-12T10:05:49Z</time>
      </trkpt>
      <trkpt lat="41.9622409623" lon="-6.8080546707">
        <ele>1211.75</ele>
        <time>2020-09-12T10:05:50Z</time>
      </trkpt>
      <trkpt lat="41.9624119531" lon="-6.8079120107">
        <ele>1215.07</ele>
        <time>2020-09-12T10:05:51Z</time>
      </trkpt>
      <trkpt lat="41.9625688624" lon="-6.8077820912">
        <ele>1218.89</ele>
        <time>2020-09-12T10:05:52Z</time>
      </trkpt>
      <trkpt lat="41.9627126958" lon="-6.8076681811">
        <ele>1225.5</ele>
        <time>2020-09-12T10:05:53Z</time>
      </trkpt>
      <trkpt lat="41.9628420286" lon="-6.8075771537">
        <ele>1228.65</ele>
        <time>2020-09-12T10:05:54Z</time>
      </trkpt>
      <trkpt lat="41.9632483833" lon="-6.8074566219">
        <ele>1233.8</ele>
        <time>2020-09-12T10:05:57Z</time>
      </trkpt>
      <trkpt lat="41.9636254851" lon="-6.8074675184">
        <ele>1237.72</ele>
        <time>2020-09-12T10:06:00Z</time>
      </trkpt>
      <trkpt lat="41.9637289178" lon="-6.8074714579">
        <ele>1237.74</ele>
        <time>2020-09-12T10:06:01Z</time>
      </trkpt>
      <trkpt lat="41.9643609971" lon="-6.8074927479">
        <ele>1235.13</ele>
        <time>2020-09-12T10:06:06Z</time>
      </trkpt>
      <trkpt lat="41.9644875638" lon="-6.8074987829">
        <ele>1238.2</ele>
        <time>2020-09-12T10:06:07Z</time>
      </trkpt>
      <trkpt lat="41.9645992108" lon="-6.8075018004">
        <ele>1240.94</ele>
        <time>2020-09-12T10:06:08Z</time>
      </trkpt>
      <trkpt lat="41.9647720456" lon="-6.8074457254">
        <ele>1242.21</ele>
        <time>2020-09-12T10:06:10Z</time>
      </trkpt>
      <trkpt lat="41.9648567028" lon="-6.8069482595">
        <ele>1239.24</ele>
        <time>2020-09-12T10:06:14Z</time>
      </trkpt>
      <trkpt lat="41.9648170564" lon="-6.8067729101">
        <ele>1239.18</ele>
        <time>2020-09-12T10:06:15Z</time>
      </trkpt>
      <trkpt lat="41.9647539407" lon="-6.8065905198">
        <ele>1239.21</ele>
        <time>2020-09-12T10:06:16Z</time>
      </trkpt>
      <trkpt lat="41.9645159785" lon="-6.8059935607">
        <ele>1235.69</ele>
        <time>2020-09-12T10:06:19Z</time>
      </trkpt>
      <trkpt lat="41.9643469993" lon="-6.805588128">
        <ele>1238.36</ele>
        <time>2020-09-12T10:06:21Z</time>
      </trkpt>
      <trkpt lat="41.9640440773" lon="-6.8050825316">
        <ele>1245.2</ele>
        <time>2020-09-12T10:06:24Z</time>
      </trkpt>
      <trkpt lat="41.9639414828" lon="-6.804928137">
        <ele>1245.16</ele>
        <time>2020-09-12T10:06:25Z</time>
      </trkpt>
      <trkpt lat="41.9637668878" lon="-6.8045573216">
        <ele>1246.61</ele>
        <time>2020-09-12T10:06:27Z</time>
      </trkpt>
      <trkpt lat="41.9636290893" lon="-6.8041694909">
        <ele>1251.87</ele>
        <time>2020-09-12T10:06:29Z</time>
      </trkpt>
      <trkpt lat="41.963571338" lon="-6.804010151">
        <ele>1254.97</ele>
        <time>2020-09-12T10:06:30Z</time>
      </trkpt>
      <trkpt lat="41.963523645" lon="-6.803876292">
        <ele>1258.17</ele>
        <time>2020-09-12T10:06:31Z</time>
      </trkpt>
      <trkpt lat="41.9634601101" lon="-6.8036603741">
        <ele>1263.54</ele>
        <time>2020-09-12T10:06:33Z</time>
      </trkpt>
      <trkpt lat="41.9634218048" lon="-6.8034451269">
        <ele>1266.43</ele>
        <time>2020-09-12T10:06:36Z</time>
      </trkpt>
      <trkpt lat="41.9634031132" lon="-6.8033392634">
        <ele>1268.65</ele>
        <time>2020-09-12T10:06:39Z</time>
      </trkpt>
      <trkpt lat="41.9633984193" lon="-6.8033571169">
        <ele>1269.2</ele>
        <time>2020-09-12T10:06:51Z</time>
      </trkpt>
      <trkpt lat="41.9633919653" lon="-6.8033690192">
        <ele>1269.51</ele>
        <time>2020-09-12T10:07:23Z</time>
      </trkpt>
      <trkpt lat="41.9633938931" lon="-6.8033634871">
        <ele>1269.54</ele>
        <time>2020-09-12T10:07:26Z</time>
      </trkpt>
      <trkpt lat="41.9634614512" lon="-6.8031442165">
        <ele>1265.08</ele>
        <time>2020-09-12T10:07:30Z</time>
      </trkpt>
      <trkpt lat="41.9635362178" lon="-6.8027430587">
        <ele>1260.75</ele>
        <time>2020-09-12T10:07:33Z</time>
      </trkpt>
      <trkpt lat="41.9635689072" lon="-6.8024333473">
        <ele>1259.73</ele>
        <time>2020-09-12T10:07:35Z</time>
      </trkpt>
      <trkpt lat="41.9636374712" lon="-6.8016019464">
        <ele>1261.9</ele>
        <time>2020-09-12T10:07:41Z</time>
      </trkpt>
      <trkpt lat="41.9636423327" lon="-6.8013916444">
        <ele>1263.15</ele>
        <time>2020-09-12T10:07:43Z</time>
      </trkpt>
      <trkpt lat="41.9636409078" lon="-6.801064834">
        <ele>1259.85</ele>
        <time>2020-09-12T10:07:46Z</time>
      </trkpt>
      <trkpt lat="41.963640321" lon="-6.8008039054">
        <ele>1258.74</ele>
        <time>2020-09-12T10:07:48Z</time>
      </trkpt>
      <trkpt lat="41.9636117388" lon="-6.7993844301">
        <ele>1263.74</ele>
        <time>2020-09-12T10:07:57Z</time>
      </trkpt>
      <trkpt lat="41.9636650477" lon="-6.7991129402">
        <ele>1266.1</ele>
        <time>2020-09-12T10:07:59Z</time>
      </trkpt>
      <trkpt lat="41.963778371" lon="-6.7988782469">
        <ele>1267.14</ele>
        <time>2020-09-12T10:08:01Z</time>
      </trkpt>
      <trkpt lat="41.9639187679" lon="-6.7983690463">
        <ele>1269.57</ele>
        <time>2020-09-12T10:08:05Z</time>
      </trkpt>
      <trkpt lat="41.963927485" lon="-6.7982349358">
        <ele>1269.59</ele>
        <time>2020-09-12T10:08:06Z</time>
      </trkpt>
      <trkpt lat="41.9640105497" lon="-6.7969658319">
        <ele>1267.16</ele>
        <time>2020-09-12T10:08:15Z</time>
      </trkpt>
      <trkpt lat="41.9639334362" lon="-6.796384044">
        <ele>1266.06</ele>
        <time>2020-09-12T10:08:19Z</time>
      </trkpt>
      <trkpt lat="41.9637600984" lon="-6.7957845703">
        <ele>1262.49</ele>
        <time>2020-09-12T10:08:23Z</time>
      </trkpt>
      <trkpt lat="41.9637179375" lon="-6.7956264038">
        <ele>1262.5</ele>
        <time>2020-09-12T10:08:24Z</time>
      </trkpt>
      <trkpt lat="41.9636294246" lon="-6.7953100707">
        <ele>1264.99</ele>
        <time>2020-09-12T10:08:26Z</time>
      </trkpt>
      <trkpt lat="41.963493051" lon="-6.7948339786">
        <ele>1266.57</ele>
        <time>2020-09-12T10:08:29Z</time>
      </trkpt>
      <trkpt lat="41.9634084776" lon="-6.794506833">
        <ele>1268.56</ele>
        <time>2020-09-12T10:08:31Z</time>
      </trkpt>
      <trkpt lat="41.9632092398" lon="-6.7938351072">
        <ele>1271.37</ele>
        <time>2020-09-12T10:08:35Z</time>
      </trkpt>
      <trkpt lat="41.9628309645" lon="-6.792581426">
        <ele>1273.89</ele>
        <time>2020-09-12T10:08:42Z</time>
      </trkpt>
      <trkpt lat="41.962777907" lon="-6.7923976947">
        <ele>1273.9</ele>
        <time>2020-09-12T10:08:43Z</time>
      </trkpt>
      <trkpt lat="41.9627132826" lon="-6.7918745801">
        <ele>1279.47</ele>
        <time>2020-09-12T10:08:46Z</time>
      </trkpt>
      <trkpt lat="41.9628507458" lon="-6.7913454305">
        <ele>1279.4</ele>
        <time>2020-09-12T10:08:49Z</time>
      </trkpt>
      <trkpt lat="41.9630090799" lon="-6.790970508">
        <ele>1276.98</ele>
        <time>2020-09-12T10:08:51Z</time>
      </trkpt>
      <trkpt lat="41.9631798193" lon="-6.790568931">
        <ele>1274.67</ele>
        <time>2020-09-12T10:08:53Z</time>
      </trkpt>
      <trkpt lat="41.9635229744" lon="-6.7896975484">
        <ele>1272.96</ele>
        <time>2020-09-12T10:08:57Z</time>
      </trkpt>
      <trkpt lat="41.9638979807" lon="-6.788847791">
        <ele>1276.73</ele>
        <time>2020-09-12T10:09:01Z</time>
      </trkpt>
      <trkpt lat="41.9641391281" lon="-6.7884891294">
        <ele>1277.63</ele>
        <time>2020-09-12T10:09:03Z</time>
      </trkpt>
      <trkpt lat="41.9647010509" lon="-6.7879327387">
        <ele>1277.67</ele>
        <time>2020-09-12T10:09:07Z</time>
      </trkpt>
      <trkpt lat="41.9648891408" lon="-6.787656555">
        <ele>1284.39</ele>
        <time>2020-09-12T10:09:09Z</time>
      </trkpt>
      <trkpt lat="41.9649724569" lon="-6.7873538006">
        <ele>1286.45</ele>
        <time>2020-09-12T10:09:11Z</time>
      </trkpt>
      <trkpt lat="41.9649901427" lon="-6.7871682253">
        <ele>1283.16</ele>
        <time>2020-09-12T10:09:12Z</time>
      </trkpt>
      <trkpt lat="41.9650324713" lon="-6.7865229025">
        <ele>1282.13</ele>
        <time>2020-09-12T10:09:15Z</time>
      </trkpt>
      <trkpt lat="41.9650162105" lon="-6.786154937">
        <ele>1285.47</ele>
        <time>2020-09-12T10:09:17Z</time>
      </trkpt>
      <trkpt lat="41.9649030548" lon="-6.7858514283">
        <ele>1288.24</ele>
        <time>2020-09-12T10:09:19Z</time>
      </trkpt>
      <trkpt lat="41.9648086745" lon="-6.7857194133">
        <ele>1289.3</ele>
        <time>2020-09-12T10:09:20Z</time>
      </trkpt>
      <trkpt lat="41.9645947684" lon="-6.7854524497">
        <ele>1286.56</ele>
        <time>2020-09-12T10:09:22Z</time>
      </trkpt>
      <trkpt lat="41.9643098675" lon="-6.7845158558">
        <ele>1283.45</ele>
        <time>2020-09-12T10:09:27Z</time>
      </trkpt>
      <trkpt lat="41.9643495139" lon="-6.7840609699">
        <ele>1282.7</ele>
        <time>2020-09-12T10:09:29Z</time>
      </trkpt>
      <trkpt lat="41.9644072652" lon="-6.783825187">
        <ele>1278.91</ele>
        <time>2020-09-12T10:09:30Z</time>
      </trkpt>
      <trkpt lat="41.964551853" lon="-6.7833611649">
        <ele>1279.22</ele>
        <time>2020-09-12T10:09:32Z</time>
      </trkpt>
      <trkpt lat="41.9646192435" lon="-6.7831656151">
        <ele>1282.85</ele>
        <time>2020-09-12T10:09:33Z</time>
      </trkpt>
      <trkpt lat="41.9648885541" lon="-6.7827554885">
        <ele>1288.78</ele>
        <time>2020-09-12T10:09:36Z</time>
      </trkpt>
      <trkpt lat="41.965160463" lon="-6.7826216295">
        <ele>1284.3</ele>
        <time>2020-09-12T10:09:38Z</time>
      </trkpt>
      <trkpt lat="41.9655043725" lon="-6.7825396545">
        <ele>1277.76</ele>
        <time>2020-09-12T10:09:40Z</time>
      </trkpt>
      <trkpt lat="41.9658870064" lon="-6.7824415024">
        <ele>1273.76</ele>
        <time>2020-09-12T10:09:42Z</time>
      </trkpt>
      <trkpt lat="41.9660822209" lon="-6.7823876906">
        <ele>1273.71</ele>
        <time>2020-09-12T10:09:43Z</time>
      </trkpt>
      <trkpt lat="41.9676479604" lon="-6.7820305377">
        <ele>1273.33</ele>
        <time>2020-09-12T10:09:52Z</time>
      </trkpt>
      <trkpt lat="41.9678189512" lon="-6.7820385844">
        <ele>1269.89</ele>
        <time>2020-09-12T10:09:53Z</time>
      </trkpt>
      <trkpt lat="41.9683188479" lon="-6.7820713576">
        <ele>1264.67</ele>
        <time>2020-09-12T10:09:56Z</time>
      </trkpt>
      <trkpt lat="41.9687517732" lon="-6.7819487303">
        <ele>1267.69</ele>
        <time>2020-09-12T10:09:59Z</time>
      </trkpt>
      <trkpt lat="41.9690889772" lon="-6.7815642525">
        <ele>1264.66</ele>
        <time>2020-09-12T10:10:02Z</time>
      </trkpt>
      <trkpt lat="41.9692739658" lon="-6.7812361848">
        <ele>1261.85</ele>
        <time>2020-09-12T10:10:04Z</time>
      </trkpt>
      <trkpt lat="41.969557358" lon="-6.7809421476">
        <ele>1268.39</ele>
        <time>2020-09-12T10:10:07Z</time>
      </trkpt>
      <trkpt lat="41.9696862716" lon="-6.7808890063">
        <ele>1264.38</ele>
        <time>2020-09-12T10:10:08Z</time>
      </trkpt>
      <trkpt lat="41.9698343799" lon="-6.7808492761">
        <ele>1261.62</ele>
        <time>2020-09-12T10:10:09Z</time>
      </trkpt>
      <trkpt lat="41.9701633696" lon="-6.7807807121">
        <ele>1258.97</ele>
        <time>2020-09-12T10:10:11Z</time>
      </trkpt>
      <trkpt lat="41.9704732485" lon="-6.7807310913">
        <ele>1259.04</ele>
        <time>2020-09-12T10:10:13Z</time>
      </trkpt>
      <trkpt lat="41.9708532002" lon="-6.7808025889">
        <ele>1265.31</ele>
        <time>2020-09-12T10:10:16Z</time>
      </trkpt>
      <trkpt lat="41.970973229" lon="-6.7808753438">
        <ele>1261.79</ele>
        <time>2020-09-12T10:10:17Z</time>
      </trkpt>
      <trkpt lat="41.9712886944022" lon="-6.781085725482733">
        <ele>1263.75</ele>
        <time>2020-09-12T10:10:24Z</time>
      </trkpt>
      <trkpt lat="41.9716451224" lon="-6.7808722425">
        <ele>1263.74</ele>
        <time>2020-09-12T10:10:25Z</time>
      </trkpt>
      <trkpt lat="41.9717058074" lon="-6.7807628587">
        <ele>1266.21</ele>
        <time>2020-09-12T10:10:29Z</time>
      </trkpt>
      <trkpt lat="41.9716776442" lon="-6.7802497186">
        <ele>1266.18</ele>
        <time>2020-09-12T10:10:30Z</time>
      </trkpt>
      <trkpt lat="41.9715892151" lon="-6.7801332101">
        <ele>1259.87</ele>
        <time>2020-09-12T10:10:32Z</time>
      </trkpt>
      <trkpt lat="41.9713489898" lon="-6.7798818368">
        <ele>1259.91</ele>
        <time>2020-09-12T10:10:33Z</time>
      </trkpt>
      <trkpt lat="41.9712296315" lon="-6.779748816">
        <ele>1262.45</ele>
        <time>2020-09-12T10:10:35Z</time>
      </trkpt>
      <trkpt lat="41.9710443076" lon="-6.7794562038">
        <ele>1260.99</ele>
        <time>2020-09-12T10:10:37Z</time>
      </trkpt>
      <trkpt lat="41.9709274638" lon="-6.7790694628">
        <ele>1261.02</ele>
        <time>2020-09-12T10:10:41Z</time>
      </trkpt>
      <trkpt lat="41.9707265496" lon="-6.7782386485">
        <ele>1258.6</ele>
        <time>2020-09-12T10:10:43Z</time>
      </trkpt>
      <trkpt lat="41.9705683831" lon="-6.7778133508">
        <ele>1261.7</ele>
        <time>2020-09-12T10:10:44Z</time>
      </trkpt>
      <trkpt lat="41.9704733323" lon="-6.7776161246">
        <ele>1261.72</ele>
        <time>2020-09-12T10:10:45Z</time>
      </trkpt>
      <trkpt lat="41.9703638647" lon="-6.7774309684">
        <ele>1257.05</ele>
        <time>2020-09-12T10:10:47Z</time>
      </trkpt>
      <trkpt lat="41.9700866751" lon="-6.7770976201">
        <ele>1250.75</ele>
        <time>2020-09-12T10:10:49Z</time>
      </trkpt>
      <trkpt lat="41.9697641395" lon="-6.7767866515">
        <ele>1249.04</ele>
        <time>2020-09-12T10:10:51Z</time>
      </trkpt>
      <trkpt lat="41.9694400113" lon="-6.7764650378">
        <ele>1249.03</ele>
        <time>2020-09-12T10:10:54Z</time>
      </trkpt>
      <trkpt lat="41.9689734746" lon="-6.7759995069">
        <ele>1246.09</ele>
        <time>2020-09-12T10:10:57Z</time>
      </trkpt>
      <trkpt lat="41.968435524" lon="-6.7756390013">
        <ele>1248.56</ele>
        <time>2020-09-12T10:10:59Z</time>
      </trkpt>
      <trkpt lat="41.9680866692" lon="-6.7754487321">
        <ele>1244.75</ele>
        <time>2020-09-12T10:11:02Z</time>
      </trkpt>
      <trkpt lat="41.9675547536" lon="-6.7751571257">
        <ele>1236.75</ele>
        <time>2020-09-12T10:11:03Z</time>
      </trkpt>
      <trkpt lat="41.9673736207" lon="-6.7750438023">
        <ele>1233.8</ele>
        <time>2020-09-12T10:11:06Z</time>
      </trkpt>
      <trkpt lat="41.9668142125" lon="-6.7747257091">
        <ele>1231.74</ele>
        <time>2020-09-12T10:11:08Z</time>
      </trkpt>
      <trkpt lat="41.9664330874" lon="-6.774502499">
        <ele>1230.19</ele>
        <time>2020-09-12T10:11:11Z</time>
      </trkpt>
      <trkpt lat="41.9658694044" lon="-6.7741849925">
        <ele>1234.02</ele>
        <time>2020-09-12T10:11:12Z</time>
      </trkpt>
      <trkpt lat="41.96568802" lon="-6.7740991618">
        <ele>1234.02</ele>
        <time>2020-09-12T10:11:13Z</time>
      </trkpt>
      <trkpt lat="41.9655096531" lon="-6.7740308493">
        <ele>1234.09</ele>
        <time>2020-09-12T10:11:14Z</time>
      </trkpt>
      <trkpt lat="41.9653292745" lon="-6.7739817314">
        <ele>1230.18</ele>
        <time>2020-09-12T10:11:17Z</time>
      </trkpt>
      <trkpt lat="41.9647424575" lon="-6.773987934">
        <ele>1230.17</ele>
        <time>2020-09-12T10:11:18Z</time>
      </trkpt>
      <trkpt lat="41.9645285513" lon="-6.7740190309"/>
    </trkseg>
  </trk>
</gpx>
